<?xml version="1.0" encoding="UTF-8" standalone="no" ?>
<gpx xmlns="http://www.topografix.com/GPX/1/1" creator="MapSource 6.15.11" version="1.1" xmlns:xsi="http://www.w3.org/2001/XMLSchema-instance" xsi:schemaLocation="http://www.topografix.com/GPX/1/1 http://www.topografix.com/GPX/1/1/gpx.xsd">

  <metadata>
    <link href="http://www.garmin.com">
      <text>Garmin International</text>
    </link>
    <time>2018-07-15T13:57:22Z</time>
    <bounds maxlat="45.0341760" maxlon="14.9568290" minlat="44.4622570" minlon="14.5737700"/>
  </metadata>

  <trk>
    <name>1 Punat - Rab</name>
    <extensions>
      <gpxx:TrackExtension xmlns:gpxx="http://www.garmin.com/xmlschemas/GpxExtensions/v3">
        <gpxx:DisplayColor>Red</gpxx:DisplayColor>
      </gpxx:TrackExtension>
    </extensions>
    <trkseg>
      <trkpt lat="45.0340350" lon="14.6277800">
        <ele>-25.8200000</ele>
        <time>2018-07-08T07:14:20Z</time>
      </trkpt>
      <trkpt lat="45.0340190" lon="14.6277890">
        <ele>-24.3800000</ele>
        <time>2018-07-08T07:14:26Z</time>
      </trkpt>
      <trkpt lat="45.0340160" lon="14.6277890">
        <ele>-22.9300000</ele>
        <time>2018-07-08T07:14:28Z</time>
      </trkpt>
      <trkpt lat="45.0340080" lon="14.6277870">
        <ele>-19.5700000</ele>
        <time>2018-07-08T07:14:32Z</time>
      </trkpt>
      <trkpt lat="45.0340080" lon="14.6277820">
        <ele>-16.6900000</ele>
        <time>2018-07-08T07:14:37Z</time>
      </trkpt>
      <trkpt lat="45.0340080" lon="14.6277800">
        <ele>-15.7200000</ele>
        <time>2018-07-08T07:14:39Z</time>
      </trkpt>
      <trkpt lat="45.0340080" lon="14.6277730">
        <ele>-13.8000000</ele>
        <time>2018-07-08T07:14:42Z</time>
      </trkpt>
      <trkpt lat="45.0340040" lon="14.6277730">
        <ele>-10.4400000</ele>
        <time>2018-07-08T07:14:48Z</time>
      </trkpt>
      <trkpt lat="45.0340000" lon="14.6277720">
        <ele>-10.4400000</ele>
        <time>2018-07-08T07:14:49Z</time>
      </trkpt>
      <trkpt lat="45.0340040" lon="14.6277690">
        <ele>-9.0000000</ele>
        <time>2018-07-08T07:14:52Z</time>
      </trkpt>
      <trkpt lat="45.0339890" lon="14.6277690">
        <ele>-5.6300000</ele>
        <time>2018-07-08T07:15:00Z</time>
      </trkpt>
      <trkpt lat="45.0339850" lon="14.6277670">
        <ele>-2.7500000</ele>
        <time>2018-07-08T07:15:11Z</time>
      </trkpt>
      <trkpt lat="45.0339810" lon="14.6277710">
        <ele>1.1000000</ele>
        <time>2018-07-08T07:15:27Z</time>
      </trkpt>
      <trkpt lat="45.0339470" lon="14.6277630">
        <ele>3.9800000</ele>
        <time>2018-07-08T07:16:05Z</time>
      </trkpt>
      <trkpt lat="45.0339470" lon="14.6277670">
        <ele>4.4600000</ele>
        <time>2018-07-08T07:16:39Z</time>
      </trkpt>
      <trkpt lat="45.0339550" lon="14.6277690">
        <ele>3.9800000</ele>
        <time>2018-07-08T07:17:02Z</time>
      </trkpt>
      <trkpt lat="45.0339550" lon="14.6277700">
        <ele>4.4600000</ele>
        <time>2018-07-08T07:17:39Z</time>
      </trkpt>
      <trkpt lat="45.0339550" lon="14.6277700">
        <ele>4.9400000</ele>
        <time>2018-07-08T07:18:13Z</time>
      </trkpt>
      <trkpt lat="45.0339550" lon="14.6277720">
        <ele>4.9400000</ele>
        <time>2018-07-08T07:18:49Z</time>
      </trkpt>
      <trkpt lat="45.0339580" lon="14.6277630">
        <ele>4.9400000</ele>
        <time>2018-07-08T07:19:29Z</time>
      </trkpt>
      <trkpt lat="45.0339580" lon="14.6277600">
        <ele>4.9400000</ele>
        <time>2018-07-08T07:20:08Z</time>
      </trkpt>
      <trkpt lat="45.0339620" lon="14.6277570">
        <ele>4.9400000</ele>
        <time>2018-07-08T07:20:49Z</time>
      </trkpt>
      <trkpt lat="45.0339620" lon="14.6277520">
        <ele>4.9400000</ele>
        <time>2018-07-08T07:21:30Z</time>
      </trkpt>
      <trkpt lat="45.0339620" lon="14.6277490">
        <ele>4.9400000</ele>
        <time>2018-07-08T07:22:10Z</time>
      </trkpt>
      <trkpt lat="45.0339620" lon="14.6277520">
        <ele>4.4600000</ele>
        <time>2018-07-08T07:22:47Z</time>
      </trkpt>
      <trkpt lat="45.0339620" lon="14.6277510">
        <ele>4.9400000</ele>
        <time>2018-07-08T07:23:29Z</time>
      </trkpt>
      <trkpt lat="45.0339660" lon="14.6277510">
        <ele>4.4600000</ele>
        <time>2018-07-08T07:24:12Z</time>
      </trkpt>
      <trkpt lat="45.0339660" lon="14.6277510">
        <ele>4.9400000</ele>
        <time>2018-07-08T07:24:55Z</time>
      </trkpt>
      <trkpt lat="45.0339660" lon="14.6277480">
        <ele>4.9400000</ele>
        <time>2018-07-08T07:25:42Z</time>
      </trkpt>
      <trkpt lat="45.0339620" lon="14.6277630">
        <ele>4.4600000</ele>
        <time>2018-07-08T07:26:26Z</time>
      </trkpt>
      <trkpt lat="45.0339620" lon="14.6277590">
        <ele>4.9400000</ele>
        <time>2018-07-08T07:27:10Z</time>
      </trkpt>
      <trkpt lat="45.0339580" lon="14.6277570">
        <ele>4.4600000</ele>
        <time>2018-07-08T07:27:56Z</time>
      </trkpt>
      <trkpt lat="45.0339580" lon="14.6277540">
        <ele>4.4600000</ele>
        <time>2018-07-08T07:28:37Z</time>
      </trkpt>
      <trkpt lat="45.0339580" lon="14.6277570">
        <ele>4.4600000</ele>
        <time>2018-07-08T07:29:19Z</time>
      </trkpt>
      <trkpt lat="45.0339620" lon="14.6277550">
        <ele>4.4600000</ele>
        <time>2018-07-08T07:29:57Z</time>
      </trkpt>
      <trkpt lat="45.0339660" lon="14.6277700">
        <ele>4.4600000</ele>
        <time>2018-07-08T07:30:38Z</time>
      </trkpt>
      <trkpt lat="45.0339660" lon="14.6277690">
        <ele>3.9800000</ele>
        <time>2018-07-08T07:31:20Z</time>
      </trkpt>
      <trkpt lat="45.0339660" lon="14.6277740">
        <ele>4.4600000</ele>
        <time>2018-07-08T07:32:01Z</time>
      </trkpt>
      <trkpt lat="45.0339620" lon="14.6277750">
        <ele>4.4600000</ele>
        <time>2018-07-08T07:32:45Z</time>
      </trkpt>
      <trkpt lat="45.0339620" lon="14.6277770">
        <ele>3.9800000</ele>
        <time>2018-07-08T07:33:18Z</time>
      </trkpt>
      <trkpt lat="45.0339620" lon="14.6277820">
        <ele>3.9800000</ele>
        <time>2018-07-08T07:33:58Z</time>
      </trkpt>
      <trkpt lat="45.0339620" lon="14.6277870">
        <ele>3.9800000</ele>
        <time>2018-07-08T07:34:37Z</time>
      </trkpt>
      <trkpt lat="45.0339580" lon="14.6277890">
        <ele>3.9800000</ele>
        <time>2018-07-08T07:35:22Z</time>
      </trkpt>
      <trkpt lat="45.0339580" lon="14.6277850">
        <ele>3.5000000</ele>
        <time>2018-07-08T07:36:01Z</time>
      </trkpt>
      <trkpt lat="45.0339580" lon="14.6277830">
        <ele>3.9800000</ele>
        <time>2018-07-08T07:36:40Z</time>
      </trkpt>
      <trkpt lat="45.0339580" lon="14.6277890">
        <ele>3.5000000</ele>
        <time>2018-07-08T07:37:17Z</time>
      </trkpt>
      <trkpt lat="45.0339620" lon="14.6277900">
        <ele>3.5000000</ele>
        <time>2018-07-08T07:37:57Z</time>
      </trkpt>
      <trkpt lat="45.0339660" lon="14.6277890">
        <ele>3.5000000</ele>
        <time>2018-07-08T07:38:31Z</time>
      </trkpt>
      <trkpt lat="45.0339780" lon="14.6277990">
        <ele>3.0200000</ele>
        <time>2018-07-08T07:39:02Z</time>
      </trkpt>
      <trkpt lat="45.0339780" lon="14.6277930">
        <ele>3.0200000</ele>
        <time>2018-07-08T07:39:38Z</time>
      </trkpt>
      <trkpt lat="45.0339780" lon="14.6277930">
        <ele>2.5400000</ele>
        <time>2018-07-08T07:40:01Z</time>
      </trkpt>
      <trkpt lat="45.0339780" lon="14.6277910">
        <ele>1.1000000</ele>
        <time>2018-07-08T07:40:39Z</time>
      </trkpt>
      <trkpt lat="45.0339850" lon="14.6277870">
        <ele>0.6200000</ele>
        <time>2018-07-08T07:41:19Z</time>
      </trkpt>
      <trkpt lat="45.0339810" lon="14.6277790">
        <ele>0.1400000</ele>
        <time>2018-07-08T07:42:01Z</time>
      </trkpt>
      <trkpt lat="45.0339810" lon="14.6277790">
        <ele>0.1400000</ele>
        <time>2018-07-08T07:42:42Z</time>
      </trkpt>
      <trkpt lat="45.0339810" lon="14.6277790">
        <ele>-0.3400000</ele>
        <time>2018-07-08T07:43:19Z</time>
      </trkpt>
      <trkpt lat="45.0339780" lon="14.6277790">
        <ele>0.1400000</ele>
        <time>2018-07-08T07:43:59Z</time>
      </trkpt>
      <trkpt lat="45.0339780" lon="14.6277790">
        <ele>0.1400000</ele>
        <time>2018-07-08T07:44:15Z</time>
      </trkpt>
      <trkpt lat="45.0339810" lon="14.6277680">
        <ele>-0.3400000</ele>
        <time>2018-07-08T07:44:58Z</time>
      </trkpt>
      <trkpt lat="45.0339810" lon="14.6277680">
        <ele>-0.8200000</ele>
        <time>2018-07-08T07:45:41Z</time>
      </trkpt>
      <trkpt lat="45.0339810" lon="14.6277690">
        <ele>-0.8200000</ele>
        <time>2018-07-08T07:46:22Z</time>
      </trkpt>
      <trkpt lat="45.0339850" lon="14.6277690">
        <ele>-0.3400000</ele>
        <time>2018-07-08T07:47:02Z</time>
      </trkpt>
      <trkpt lat="45.0339890" lon="14.6277630">
        <ele>-0.8200000</ele>
        <time>2018-07-08T07:47:39Z</time>
      </trkpt>
      <trkpt lat="45.0339890" lon="14.6277740">
        <ele>-0.3400000</ele>
        <time>2018-07-08T07:48:19Z</time>
      </trkpt>
      <trkpt lat="45.0339890" lon="14.6277740">
        <ele>3.0200000</ele>
        <time>2018-07-08T07:48:37Z</time>
      </trkpt>
      <trkpt lat="45.0339890" lon="14.6277690">
        <ele>3.0200000</ele>
        <time>2018-07-08T07:49:04Z</time>
      </trkpt>
      <trkpt lat="45.0339930" lon="14.6277630">
        <ele>3.5000000</ele>
        <time>2018-07-08T07:49:40Z</time>
      </trkpt>
      <trkpt lat="45.0339930" lon="14.6277630">
        <ele>3.9800000</ele>
        <time>2018-07-08T07:50:08Z</time>
      </trkpt>
      <trkpt lat="45.0339890" lon="14.6277650">
        <ele>3.5000000</ele>
        <time>2018-07-08T07:50:50Z</time>
      </trkpt>
      <trkpt lat="45.0339810" lon="14.6277630">
        <ele>3.5000000</ele>
        <time>2018-07-08T07:51:31Z</time>
      </trkpt>
      <trkpt lat="45.0339700" lon="14.6277590">
        <ele>3.5000000</ele>
        <time>2018-07-08T07:52:16Z</time>
      </trkpt>
      <trkpt lat="45.0339660" lon="14.6277550">
        <ele>3.0200000</ele>
        <time>2018-07-08T07:52:57Z</time>
      </trkpt>
      <trkpt lat="45.0339660" lon="14.6277550">
        <ele>3.5000000</ele>
        <time>2018-07-08T07:53:33Z</time>
      </trkpt>
      <trkpt lat="45.0339700" lon="14.6277530">
        <ele>3.0200000</ele>
        <time>2018-07-08T07:54:19Z</time>
      </trkpt>
      <trkpt lat="45.0339700" lon="14.6277570">
        <ele>3.5000000</ele>
        <time>2018-07-08T07:54:58Z</time>
      </trkpt>
      <trkpt lat="45.0339700" lon="14.6277570">
        <ele>3.5000000</ele>
        <time>2018-07-08T07:55:33Z</time>
      </trkpt>
      <trkpt lat="45.0339740" lon="14.6277690">
        <ele>3.0200000</ele>
        <time>2018-07-08T07:56:12Z</time>
      </trkpt>
      <trkpt lat="45.0340040" lon="14.6277690">
        <ele>3.5000000</ele>
        <time>2018-07-08T07:56:47Z</time>
      </trkpt>
      <trkpt lat="45.0341570" lon="14.6275980">
        <ele>3.5000000</ele>
        <time>2018-07-08T07:57:18Z</time>
      </trkpt>
      <trkpt lat="45.0341680" lon="14.6274510">
        <ele>3.0200000</ele>
        <time>2018-07-08T07:57:29Z</time>
      </trkpt>
      <trkpt lat="45.0341680" lon="14.6269260">
        <ele>2.5400000</ele>
        <time>2018-07-08T07:58:03Z</time>
      </trkpt>
      <trkpt lat="45.0341570" lon="14.6264570">
        <ele>3.0200000</ele>
        <time>2018-07-08T07:58:43Z</time>
      </trkpt>
      <trkpt lat="45.0341260" lon="14.6260250">
        <ele>3.0200000</ele>
        <time>2018-07-08T07:59:25Z</time>
      </trkpt>
      <trkpt lat="45.0340080" lon="14.6255760">
        <ele>3.0200000</ele>
        <time>2018-07-08T07:59:58Z</time>
      </trkpt>
      <trkpt lat="45.0336570" lon="14.6254700">
        <ele>2.5400000</ele>
        <time>2018-07-08T08:00:29Z</time>
      </trkpt>
      <trkpt lat="45.0334470" lon="14.6253670">
        <ele>3.0200000</ele>
        <time>2018-07-08T08:00:48Z</time>
      </trkpt>
      <trkpt lat="45.0332720" lon="14.6249610">
        <ele>3.5000000</ele>
        <time>2018-07-08T08:01:16Z</time>
      </trkpt>
      <trkpt lat="45.0329440" lon="14.6247000">
        <ele>3.0200000</ele>
        <time>2018-07-08T08:01:46Z</time>
      </trkpt>
      <trkpt lat="45.0325810" lon="14.6246240">
        <ele>3.0200000</ele>
        <time>2018-07-08T08:02:17Z</time>
      </trkpt>
      <trkpt lat="45.0320970" lon="14.6245890">
        <ele>3.0200000</ele>
        <time>2018-07-08T08:02:56Z</time>
      </trkpt>
      <trkpt lat="45.0315360" lon="14.6245440">
        <ele>2.5400000</ele>
        <time>2018-07-08T08:03:36Z</time>
      </trkpt>
      <trkpt lat="45.0309030" lon="14.6245390">
        <ele>3.0200000</ele>
        <time>2018-07-08T08:04:09Z</time>
      </trkpt>
      <trkpt lat="45.0302350" lon="14.6245380">
        <ele>3.5000000</ele>
        <time>2018-07-08T08:04:40Z</time>
      </trkpt>
      <trkpt lat="45.0296520" lon="14.6245010">
        <ele>3.5000000</ele>
        <time>2018-07-08T08:05:13Z</time>
      </trkpt>
      <trkpt lat="45.0292280" lon="14.6244790">
        <ele>3.5000000</ele>
        <time>2018-07-08T08:05:44Z</time>
      </trkpt>
      <trkpt lat="45.0288120" lon="14.6244650">
        <ele>3.5000000</ele>
        <time>2018-07-08T08:06:16Z</time>
      </trkpt>
      <trkpt lat="45.0283970" lon="14.6244640">
        <ele>3.5000000</ele>
        <time>2018-07-08T08:06:48Z</time>
      </trkpt>
      <trkpt lat="45.0279850" lon="14.6244840">
        <ele>3.9800000</ele>
        <time>2018-07-08T08:07:21Z</time>
      </trkpt>
      <trkpt lat="45.0275080" lon="14.6245210">
        <ele>3.9800000</ele>
        <time>2018-07-08T08:07:59Z</time>
      </trkpt>
      <trkpt lat="45.0268630" lon="14.6245710">
        <ele>4.4600000</ele>
        <time>2018-07-08T08:08:33Z</time>
      </trkpt>
      <trkpt lat="45.0259360" lon="14.6246820">
        <ele>4.4600000</ele>
        <time>2018-07-08T08:09:11Z</time>
      </trkpt>
      <trkpt lat="45.0250020" lon="14.6247770">
        <ele>4.4600000</ele>
        <time>2018-07-08T08:09:49Z</time>
      </trkpt>
      <trkpt lat="45.0241280" lon="14.6248600">
        <ele>4.4600000</ele>
        <time>2018-07-08T08:10:25Z</time>
      </trkpt>
      <trkpt lat="45.0233880" lon="14.6249490">
        <ele>4.4600000</ele>
        <time>2018-07-08T08:10:56Z</time>
      </trkpt>
      <trkpt lat="45.0224570" lon="14.6250090">
        <ele>4.4600000</ele>
        <time>2018-07-08T08:11:35Z</time>
      </trkpt>
      <trkpt lat="45.0216140" lon="14.6250300">
        <ele>4.4600000</ele>
        <time>2018-07-08T08:12:10Z</time>
      </trkpt>
      <trkpt lat="45.0207900" lon="14.6250450">
        <ele>4.4600000</ele>
        <time>2018-07-08T08:12:44Z</time>
      </trkpt>
      <trkpt lat="45.0201110" lon="14.6250460">
        <ele>4.4600000</ele>
        <time>2018-07-08T08:13:13Z</time>
      </trkpt>
      <trkpt lat="45.0194240" lon="14.6250650">
        <ele>4.4600000</ele>
        <time>2018-07-08T08:13:41Z</time>
      </trkpt>
      <trkpt lat="45.0184140" lon="14.6251480">
        <ele>4.9400000</ele>
        <time>2018-07-08T08:14:23Z</time>
      </trkpt>
      <trkpt lat="45.0175930" lon="14.6251580">
        <ele>3.9800000</ele>
        <time>2018-07-08T08:14:57Z</time>
      </trkpt>
      <trkpt lat="45.0173490" lon="14.6251530">
        <ele>4.9400000</ele>
        <time>2018-07-08T08:15:07Z</time>
      </trkpt>
      <trkpt lat="45.0168190" lon="14.6250530">
        <ele>3.5000000</ele>
        <time>2018-07-08T08:15:29Z</time>
      </trkpt>
      <trkpt lat="45.0162320" lon="14.6247670">
        <ele>3.5000000</ele>
        <time>2018-07-08T08:15:56Z</time>
      </trkpt>
      <trkpt lat="45.0157810" lon="14.6243490">
        <ele>3.5000000</ele>
        <time>2018-07-08T08:16:23Z</time>
      </trkpt>
      <trkpt lat="45.0154110" lon="14.6238650">
        <ele>3.0200000</ele>
        <time>2018-07-08T08:16:57Z</time>
      </trkpt>
      <trkpt lat="45.0150680" lon="14.6233320">
        <ele>2.5400000</ele>
        <time>2018-07-08T08:17:27Z</time>
      </trkpt>
      <trkpt lat="45.0145450" lon="14.6227380">
        <ele>2.5400000</ele>
        <time>2018-07-08T08:17:59Z</time>
      </trkpt>
      <trkpt lat="45.0140650" lon="14.6223820">
        <ele>2.5400000</ele>
        <time>2018-07-08T08:18:27Z</time>
      </trkpt>
      <trkpt lat="45.0135310" lon="14.6220290">
        <ele>2.5400000</ele>
        <time>2018-07-08T08:18:57Z</time>
      </trkpt>
      <trkpt lat="45.0131070" lon="14.6216230">
        <ele>3.0200000</ele>
        <time>2018-07-08T08:19:23Z</time>
      </trkpt>
      <trkpt lat="45.0127110" lon="14.6211770">
        <ele>2.5400000</ele>
        <time>2018-07-08T08:19:49Z</time>
      </trkpt>
      <trkpt lat="45.0122030" lon="14.6206640">
        <ele>2.5400000</ele>
        <time>2018-07-08T08:20:15Z</time>
      </trkpt>
      <trkpt lat="45.0116390" lon="14.6202510">
        <ele>2.5400000</ele>
        <time>2018-07-08T08:20:39Z</time>
      </trkpt>
      <trkpt lat="45.0110210" lon="14.6199670">
        <ele>2.5400000</ele>
        <time>2018-07-08T08:21:06Z</time>
      </trkpt>
      <trkpt lat="45.0104520" lon="14.6197250">
        <ele>2.5400000</ele>
        <time>2018-07-08T08:21:32Z</time>
      </trkpt>
      <trkpt lat="45.0098760" lon="14.6194520">
        <ele>2.5400000</ele>
        <time>2018-07-08T08:21:59Z</time>
      </trkpt>
      <trkpt lat="45.0093190" lon="14.6191960">
        <ele>2.0600000</ele>
        <time>2018-07-08T08:22:25Z</time>
      </trkpt>
      <trkpt lat="45.0087780" lon="14.6188390">
        <ele>2.0600000</ele>
        <time>2018-07-08T08:22:52Z</time>
      </trkpt>
      <trkpt lat="45.0081330" lon="14.6184250">
        <ele>2.0600000</ele>
        <time>2018-07-08T08:23:24Z</time>
      </trkpt>
      <trkpt lat="45.0075420" lon="14.6180710">
        <ele>2.0600000</ele>
        <time>2018-07-08T08:23:53Z</time>
      </trkpt>
      <trkpt lat="45.0070190" lon="14.6177800">
        <ele>1.5800000</ele>
        <time>2018-07-08T08:24:19Z</time>
      </trkpt>
      <trkpt lat="45.0064320" lon="14.6174780">
        <ele>2.0600000</ele>
        <time>2018-07-08T08:24:47Z</time>
      </trkpt>
      <trkpt lat="45.0057980" lon="14.6171870">
        <ele>1.5800000</ele>
        <time>2018-07-08T08:25:17Z</time>
      </trkpt>
      <trkpt lat="45.0052950" lon="14.6169490">
        <ele>1.5800000</ele>
        <time>2018-07-08T08:25:41Z</time>
      </trkpt>
      <trkpt lat="45.0047340" lon="14.6166520">
        <ele>1.1000000</ele>
        <time>2018-07-08T08:26:08Z</time>
      </trkpt>
      <trkpt lat="45.0045010" lon="14.6162850">
        <ele>1.1000000</ele>
        <time>2018-07-08T08:26:26Z</time>
      </trkpt>
      <trkpt lat="45.0046620" lon="14.6156450">
        <ele>1.5800000</ele>
        <time>2018-07-08T08:26:49Z</time>
      </trkpt>
      <trkpt lat="45.0048830" lon="14.6147880">
        <ele>1.5800000</ele>
        <time>2018-07-08T08:27:19Z</time>
      </trkpt>
      <trkpt lat="45.0050850" lon="14.6140390">
        <ele>1.1000000</ele>
        <time>2018-07-08T08:27:45Z</time>
      </trkpt>
      <trkpt lat="45.0052190" lon="14.6133270">
        <ele>1.1000000</ele>
        <time>2018-07-08T08:28:09Z</time>
      </trkpt>
      <trkpt lat="45.0049510" lon="14.6127630">
        <ele>1.1000000</ele>
        <time>2018-07-08T08:28:31Z</time>
      </trkpt>
      <trkpt lat="45.0045620" lon="14.6123830">
        <ele>1.1000000</ele>
        <time>2018-07-08T08:28:52Z</time>
      </trkpt>
      <trkpt lat="45.0045890" lon="14.6117530">
        <ele>0.6200000</ele>
        <time>2018-07-08T08:29:13Z</time>
      </trkpt>
      <trkpt lat="45.0046500" lon="14.6109400">
        <ele>0.6200000</ele>
        <time>2018-07-08T08:29:40Z</time>
      </trkpt>
      <trkpt lat="45.0045780" lon="14.6101260">
        <ele>0.6200000</ele>
        <time>2018-07-08T08:30:06Z</time>
      </trkpt>
      <trkpt lat="45.0046010" lon="14.6093510">
        <ele>1.1000000</ele>
        <time>2018-07-08T08:30:31Z</time>
      </trkpt>
      <trkpt lat="45.0046390" lon="14.6085210">
        <ele>0.6200000</ele>
        <time>2018-07-08T08:30:57Z</time>
      </trkpt>
      <trkpt lat="45.0046200" lon="14.6077060">
        <ele>0.6200000</ele>
        <time>2018-07-08T08:31:22Z</time>
      </trkpt>
      <trkpt lat="45.0045740" lon="14.6069470">
        <ele>0.1400000</ele>
        <time>2018-07-08T08:31:47Z</time>
      </trkpt>
      <trkpt lat="45.0045930" lon="14.6060960">
        <ele>0.1400000</ele>
        <time>2018-07-08T08:32:15Z</time>
      </trkpt>
      <trkpt lat="45.0046960" lon="14.6053410">
        <ele>0.1400000</ele>
        <time>2018-07-08T08:32:39Z</time>
      </trkpt>
      <trkpt lat="45.0048100" lon="14.6047000">
        <ele>0.1400000</ele>
        <time>2018-07-08T08:33:00Z</time>
      </trkpt>
      <trkpt lat="45.0049170" lon="14.6038690">
        <ele>0.6200000</ele>
        <time>2018-07-08T08:33:26Z</time>
      </trkpt>
      <trkpt lat="45.0050430" lon="14.6031290">
        <ele>0.1400000</ele>
        <time>2018-07-08T08:33:50Z</time>
      </trkpt>
      <trkpt lat="45.0049550" lon="14.6024180">
        <ele>0.1400000</ele>
        <time>2018-07-08T08:34:13Z</time>
      </trkpt>
      <trkpt lat="45.0047490" lon="14.6017060">
        <ele>-0.3400000</ele>
        <time>2018-07-08T08:34:38Z</time>
      </trkpt>
      <trkpt lat="45.0044100" lon="14.6011420">
        <ele>-0.3400000</ele>
        <time>2018-07-08T08:35:02Z</time>
      </trkpt>
      <trkpt lat="45.0039140" lon="14.6010200">
        <ele>-0.3400000</ele>
        <time>2018-07-08T08:35:23Z</time>
      </trkpt>
      <trkpt lat="45.0033680" lon="14.6010470">
        <ele>0.1400000</ele>
        <time>2018-07-08T08:35:45Z</time>
      </trkpt>
      <trkpt lat="45.0028880" lon="14.6010690">
        <ele>0.1400000</ele>
        <time>2018-07-08T08:36:08Z</time>
      </trkpt>
      <trkpt lat="45.0025250" lon="14.6011070">
        <ele>0.1400000</ele>
        <time>2018-07-08T08:36:28Z</time>
      </trkpt>
      <trkpt lat="45.0021930" lon="14.6011510">
        <ele>0.1400000</ele>
        <time>2018-07-08T08:36:49Z</time>
      </trkpt>
      <trkpt lat="45.0018390" lon="14.6011910">
        <ele>0.1400000</ele>
        <time>2018-07-08T08:37:13Z</time>
      </trkpt>
      <trkpt lat="45.0014530" lon="14.6012640">
        <ele>0.1400000</ele>
        <time>2018-07-08T08:37:35Z</time>
      </trkpt>
      <trkpt lat="45.0010640" lon="14.6012880">
        <ele>0.1400000</ele>
        <time>2018-07-08T08:37:56Z</time>
      </trkpt>
      <trkpt lat="45.0006940" lon="14.6013190">
        <ele>0.6200000</ele>
        <time>2018-07-08T08:38:16Z</time>
      </trkpt>
      <trkpt lat="45.0002670" lon="14.6013240">
        <ele>0.1400000</ele>
        <time>2018-07-08T08:38:38Z</time>
      </trkpt>
      <trkpt lat="44.9999240" lon="14.6013180">
        <ele>0.1400000</ele>
        <time>2018-07-08T08:38:57Z</time>
      </trkpt>
      <trkpt lat="44.9997100" lon="14.6013080">
        <ele>0.1400000</ele>
        <time>2018-07-08T08:39:09Z</time>
      </trkpt>
      <trkpt lat="44.9992900" lon="14.6013240">
        <ele>0.1400000</ele>
        <time>2018-07-08T08:39:32Z</time>
      </trkpt>
      <trkpt lat="44.9989050" lon="14.6013380">
        <ele>0.1400000</ele>
        <time>2018-07-08T08:39:52Z</time>
      </trkpt>
      <trkpt lat="44.9984930" lon="14.6013280">
        <ele>0.1400000</ele>
        <time>2018-07-08T08:40:12Z</time>
      </trkpt>
      <trkpt lat="44.9979590" lon="14.6013110">
        <ele>0.6200000</ele>
        <time>2018-07-08T08:40:35Z</time>
      </trkpt>
      <trkpt lat="44.9974210" lon="14.6013110">
        <ele>0.6200000</ele>
        <time>2018-07-08T08:40:57Z</time>
      </trkpt>
      <trkpt lat="44.9969750" lon="14.6013360">
        <ele>0.6200000</ele>
        <time>2018-07-08T08:41:16Z</time>
      </trkpt>
      <trkpt lat="44.9965780" lon="14.6014070">
        <ele>0.1400000</ele>
        <time>2018-07-08T08:41:36Z</time>
      </trkpt>
      <trkpt lat="44.9961050" lon="14.6014880">
        <ele>0.1400000</ele>
        <time>2018-07-08T08:41:59Z</time>
      </trkpt>
      <trkpt lat="44.9957120" lon="14.6015620">
        <ele>0.6200000</ele>
        <time>2018-07-08T08:42:20Z</time>
      </trkpt>
      <trkpt lat="44.9953880" lon="14.6015830">
        <ele>0.6200000</ele>
        <time>2018-07-08T08:42:37Z</time>
      </trkpt>
      <trkpt lat="44.9950290" lon="14.6016040">
        <ele>0.6200000</ele>
        <time>2018-07-08T08:42:55Z</time>
      </trkpt>
      <trkpt lat="44.9945760" lon="14.6016580">
        <ele>0.1400000</ele>
        <time>2018-07-08T08:43:19Z</time>
      </trkpt>
      <trkpt lat="44.9943010" lon="14.6017280">
        <ele>0.1400000</ele>
        <time>2018-07-08T08:43:38Z</time>
      </trkpt>
      <trkpt lat="44.9939880" lon="14.6018310">
        <ele>0.6200000</ele>
        <time>2018-07-08T08:43:59Z</time>
      </trkpt>
      <trkpt lat="44.9936180" lon="14.6019040">
        <ele>1.1000000</ele>
        <time>2018-07-08T08:44:21Z</time>
      </trkpt>
      <trkpt lat="44.9933320" lon="14.6019250">
        <ele>1.1000000</ele>
        <time>2018-07-08T08:44:37Z</time>
      </trkpt>
      <trkpt lat="44.9929470" lon="14.6019280">
        <ele>1.1000000</ele>
        <time>2018-07-08T08:44:57Z</time>
      </trkpt>
      <trkpt lat="44.9925350" lon="14.6019380">
        <ele>1.1000000</ele>
        <time>2018-07-08T08:45:17Z</time>
      </trkpt>
      <trkpt lat="44.9921000" lon="14.6019580">
        <ele>1.5800000</ele>
        <time>2018-07-08T08:45:37Z</time>
      </trkpt>
      <trkpt lat="44.9916570" lon="14.6019780">
        <ele>1.1000000</ele>
        <time>2018-07-08T08:45:57Z</time>
      </trkpt>
      <trkpt lat="44.9911690" lon="14.6020210">
        <ele>1.1000000</ele>
        <time>2018-07-08T08:46:18Z</time>
      </trkpt>
      <trkpt lat="44.9907610" lon="14.6020620">
        <ele>1.1000000</ele>
        <time>2018-07-08T08:46:35Z</time>
      </trkpt>
      <trkpt lat="44.9902570" lon="14.6020910">
        <ele>1.5800000</ele>
        <time>2018-07-08T08:46:55Z</time>
      </trkpt>
      <trkpt lat="44.9897500" lon="14.6021170">
        <ele>1.5800000</ele>
        <time>2018-07-08T08:47:16Z</time>
      </trkpt>
      <trkpt lat="44.9892920" lon="14.6021150">
        <ele>1.1000000</ele>
        <time>2018-07-08T08:47:36Z</time>
      </trkpt>
      <trkpt lat="44.9888530" lon="14.6021600">
        <ele>1.1000000</ele>
        <time>2018-07-08T08:47:55Z</time>
      </trkpt>
      <trkpt lat="44.9884110" lon="14.6022110">
        <ele>1.5800000</ele>
        <time>2018-07-08T08:48:14Z</time>
      </trkpt>
      <trkpt lat="44.9878690" lon="14.6022340">
        <ele>1.5800000</ele>
        <time>2018-07-08T08:48:36Z</time>
      </trkpt>
      <trkpt lat="44.9873810" lon="14.6023270">
        <ele>1.5800000</ele>
        <time>2018-07-08T08:48:55Z</time>
      </trkpt>
      <trkpt lat="44.9869270" lon="14.6024150">
        <ele>1.1000000</ele>
        <time>2018-07-08T08:49:14Z</time>
      </trkpt>
      <trkpt lat="44.9864270" lon="14.6025090">
        <ele>1.5800000</ele>
        <time>2018-07-08T08:49:36Z</time>
      </trkpt>
      <trkpt lat="44.9859430" lon="14.6025490">
        <ele>1.1000000</ele>
        <time>2018-07-08T08:49:59Z</time>
      </trkpt>
      <trkpt lat="44.9855270" lon="14.6025800">
        <ele>1.1000000</ele>
        <time>2018-07-08T08:50:20Z</time>
      </trkpt>
      <trkpt lat="44.9850120" lon="14.6025840">
        <ele>1.1000000</ele>
        <time>2018-07-08T08:50:42Z</time>
      </trkpt>
      <trkpt lat="44.9845960" lon="14.6026130">
        <ele>1.1000000</ele>
        <time>2018-07-08T08:51:00Z</time>
      </trkpt>
      <trkpt lat="44.9841840" lon="14.6026510">
        <ele>1.1000000</ele>
        <time>2018-07-08T08:51:18Z</time>
      </trkpt>
      <trkpt lat="44.9837340" lon="14.6026620">
        <ele>1.1000000</ele>
        <time>2018-07-08T08:51:38Z</time>
      </trkpt>
      <trkpt lat="44.9832990" lon="14.6027060">
        <ele>1.1000000</ele>
        <time>2018-07-08T08:51:58Z</time>
      </trkpt>
      <trkpt lat="44.9828450" lon="14.6027630">
        <ele>1.5800000</ele>
        <time>2018-07-08T08:52:18Z</time>
      </trkpt>
      <trkpt lat="44.9824450" lon="14.6028180">
        <ele>1.5800000</ele>
        <time>2018-07-08T08:52:37Z</time>
      </trkpt>
      <trkpt lat="44.9819720" lon="14.6028610">
        <ele>1.5800000</ele>
        <time>2018-07-08T08:53:00Z</time>
      </trkpt>
      <trkpt lat="44.9815520" lon="14.6028960">
        <ele>1.1000000</ele>
        <time>2018-07-08T08:53:20Z</time>
      </trkpt>
      <trkpt lat="44.9811520" lon="14.6029420">
        <ele>1.5800000</ele>
        <time>2018-07-08T08:53:39Z</time>
      </trkpt>
      <trkpt lat="44.9807400" lon="14.6030120">
        <ele>1.1000000</ele>
        <time>2018-07-08T08:53:59Z</time>
      </trkpt>
      <trkpt lat="44.9802820" lon="14.6030850">
        <ele>1.1000000</ele>
        <time>2018-07-08T08:54:21Z</time>
      </trkpt>
      <trkpt lat="44.9798770" lon="14.6031380">
        <ele>1.1000000</ele>
        <time>2018-07-08T08:54:41Z</time>
      </trkpt>
      <trkpt lat="44.9794650" lon="14.6032010">
        <ele>1.5800000</ele>
        <time>2018-07-08T08:55:02Z</time>
      </trkpt>
      <trkpt lat="44.9790570" lon="14.6032510">
        <ele>1.1000000</ele>
        <time>2018-07-08T08:55:22Z</time>
      </trkpt>
      <trkpt lat="44.9786260" lon="14.6033110">
        <ele>1.1000000</ele>
        <time>2018-07-08T08:55:43Z</time>
      </trkpt>
      <trkpt lat="44.9781570" lon="14.6033570">
        <ele>1.1000000</ele>
        <time>2018-07-08T08:56:07Z</time>
      </trkpt>
      <trkpt lat="44.9777340" lon="14.6034150">
        <ele>0.6200000</ele>
        <time>2018-07-08T08:56:30Z</time>
      </trkpt>
      <trkpt lat="44.9773030" lon="14.6034740">
        <ele>0.6200000</ele>
        <time>2018-07-08T08:56:54Z</time>
      </trkpt>
      <trkpt lat="44.9768560" lon="14.6035400">
        <ele>0.6200000</ele>
        <time>2018-07-08T08:57:19Z</time>
      </trkpt>
      <trkpt lat="44.9764100" lon="14.6036030">
        <ele>0.6200000</ele>
        <time>2018-07-08T08:57:46Z</time>
      </trkpt>
      <trkpt lat="44.9760890" lon="14.6036520">
        <ele>1.1000000</ele>
        <time>2018-07-08T08:58:08Z</time>
      </trkpt>
      <trkpt lat="44.9757690" lon="14.6037060">
        <ele>1.1000000</ele>
        <time>2018-07-08T08:58:29Z</time>
      </trkpt>
      <trkpt lat="44.9753460" lon="14.6037690">
        <ele>0.6200000</ele>
        <time>2018-07-08T08:58:55Z</time>
      </trkpt>
      <trkpt lat="44.9749180" lon="14.6038350">
        <ele>0.6200000</ele>
        <time>2018-07-08T08:59:20Z</time>
      </trkpt>
      <trkpt lat="44.9745220" lon="14.6038910">
        <ele>0.6200000</ele>
        <time>2018-07-08T08:59:44Z</time>
      </trkpt>
      <trkpt lat="44.9741290" lon="14.6039600">
        <ele>0.1400000</ele>
        <time>2018-07-08T09:00:08Z</time>
      </trkpt>
      <trkpt lat="44.9737740" lon="14.6040180">
        <ele>0.1400000</ele>
        <time>2018-07-08T09:00:30Z</time>
      </trkpt>
      <trkpt lat="44.9733810" lon="14.6040870">
        <ele>0.1400000</ele>
        <time>2018-07-08T09:00:55Z</time>
      </trkpt>
      <trkpt lat="44.9730150" lon="14.6041520">
        <ele>0.1400000</ele>
        <time>2018-07-08T09:01:17Z</time>
      </trkpt>
      <trkpt lat="44.9725910" lon="14.6042290">
        <ele>-0.3400000</ele>
        <time>2018-07-08T09:01:43Z</time>
      </trkpt>
      <trkpt lat="44.9722440" lon="14.6042990">
        <ele>-0.3400000</ele>
        <time>2018-07-08T09:02:06Z</time>
      </trkpt>
      <trkpt lat="44.9719390" lon="14.6043710">
        <ele>0.1400000</ele>
        <time>2018-07-08T09:02:26Z</time>
      </trkpt>
      <trkpt lat="44.9716640" lon="14.6044230">
        <ele>-0.3400000</ele>
        <time>2018-07-08T09:02:44Z</time>
      </trkpt>
      <trkpt lat="44.9712830" lon="14.6044890">
        <ele>0.1400000</ele>
        <time>2018-07-08T09:03:09Z</time>
      </trkpt>
      <trkpt lat="44.9710160" lon="14.6045560">
        <ele>0.1400000</ele>
        <time>2018-07-08T09:03:28Z</time>
      </trkpt>
      <trkpt lat="44.9706270" lon="14.6046340">
        <ele>-0.3400000</ele>
        <time>2018-07-08T09:03:56Z</time>
      </trkpt>
      <trkpt lat="44.9702530" lon="14.6047150">
        <ele>-0.3400000</ele>
        <time>2018-07-08T09:04:24Z</time>
      </trkpt>
      <trkpt lat="44.9699330" lon="14.6047950">
        <ele>-0.8200000</ele>
        <time>2018-07-08T09:04:50Z</time>
      </trkpt>
      <trkpt lat="44.9696240" lon="14.6048780">
        <ele>-0.8200000</ele>
        <time>2018-07-08T09:05:17Z</time>
      </trkpt>
      <trkpt lat="44.9693680" lon="14.6049460">
        <ele>-0.3400000</ele>
        <time>2018-07-08T09:05:43Z</time>
      </trkpt>
      <trkpt lat="44.9691930" lon="14.6049940">
        <ele>-0.3400000</ele>
        <time>2018-07-08T09:06:05Z</time>
      </trkpt>
      <trkpt lat="44.9690250" lon="14.6050420">
        <ele>-0.3400000</ele>
        <time>2018-07-08T09:06:30Z</time>
      </trkpt>
      <trkpt lat="44.9688800" lon="14.6051660">
        <ele>-0.3400000</ele>
        <time>2018-07-08T09:06:56Z</time>
      </trkpt>
      <trkpt lat="44.9687190" lon="14.6052420">
        <ele>-0.3400000</ele>
        <time>2018-07-08T09:07:22Z</time>
      </trkpt>
      <trkpt lat="44.9685710" lon="14.6053020">
        <ele>0.1400000</ele>
        <time>2018-07-08T09:07:52Z</time>
      </trkpt>
      <trkpt lat="44.9684750" lon="14.6053850">
        <ele>-0.3400000</ele>
        <time>2018-07-08T09:08:18Z</time>
      </trkpt>
      <trkpt lat="44.9684070" lon="14.6054740">
        <ele>0.1400000</ele>
        <time>2018-07-08T09:08:41Z</time>
      </trkpt>
      <trkpt lat="44.9683190" lon="14.6055680">
        <ele>0.1400000</ele>
        <time>2018-07-08T09:09:10Z</time>
      </trkpt>
      <trkpt lat="44.9682690" lon="14.6056370">
        <ele>0.1400000</ele>
        <time>2018-07-08T09:09:36Z</time>
      </trkpt>
      <trkpt lat="44.9682310" lon="14.6057360">
        <ele>0.1400000</ele>
        <time>2018-07-08T09:10:01Z</time>
      </trkpt>
      <trkpt lat="44.9681470" lon="14.6058830">
        <ele>0.6200000</ele>
        <time>2018-07-08T09:10:26Z</time>
      </trkpt>
      <trkpt lat="44.9680370" lon="14.6060410">
        <ele>0.6200000</ele>
        <time>2018-07-08T09:10:54Z</time>
      </trkpt>
      <trkpt lat="44.9678920" lon="14.6062100">
        <ele>0.6200000</ele>
        <time>2018-07-08T09:11:21Z</time>
      </trkpt>
      <trkpt lat="44.9677430" lon="14.6063380">
        <ele>0.6200000</ele>
        <time>2018-07-08T09:11:43Z</time>
      </trkpt>
      <trkpt lat="44.9675410" lon="14.6065090">
        <ele>0.6200000</ele>
        <time>2018-07-08T09:12:11Z</time>
      </trkpt>
      <trkpt lat="44.9673190" lon="14.6066340">
        <ele>0.6200000</ele>
        <time>2018-07-08T09:12:39Z</time>
      </trkpt>
      <trkpt lat="44.9671250" lon="14.6067760">
        <ele>0.6200000</ele>
        <time>2018-07-08T09:13:05Z</time>
      </trkpt>
      <trkpt lat="44.9669610" lon="14.6070150">
        <ele>0.6200000</ele>
        <time>2018-07-08T09:13:27Z</time>
      </trkpt>
      <trkpt lat="44.9667970" lon="14.6072780">
        <ele>1.1000000</ele>
        <time>2018-07-08T09:13:45Z</time>
      </trkpt>
      <trkpt lat="44.9666480" lon="14.6074790">
        <ele>1.1000000</ele>
        <time>2018-07-08T09:13:59Z</time>
      </trkpt>
      <trkpt lat="44.9664340" lon="14.6078570">
        <ele>1.1000000</ele>
        <time>2018-07-08T09:14:21Z</time>
      </trkpt>
      <trkpt lat="44.9662170" lon="14.6082870">
        <ele>0.6200000</ele>
        <time>2018-07-08T09:14:44Z</time>
      </trkpt>
      <trkpt lat="44.9659690" lon="14.6087490">
        <ele>0.6200000</ele>
        <time>2018-07-08T09:15:09Z</time>
      </trkpt>
      <trkpt lat="44.9656980" lon="14.6091530">
        <ele>0.6200000</ele>
        <time>2018-07-08T09:15:32Z</time>
      </trkpt>
      <trkpt lat="44.9654390" lon="14.6095300">
        <ele>1.1000000</ele>
        <time>2018-07-08T09:15:54Z</time>
      </trkpt>
      <trkpt lat="44.9651570" lon="14.6098930">
        <ele>1.1000000</ele>
        <time>2018-07-08T09:16:16Z</time>
      </trkpt>
      <trkpt lat="44.9648320" lon="14.6101850">
        <ele>1.1000000</ele>
        <time>2018-07-08T09:16:39Z</time>
      </trkpt>
      <trkpt lat="44.9645230" lon="14.6104580">
        <ele>0.6200000</ele>
        <time>2018-07-08T09:17:03Z</time>
      </trkpt>
      <trkpt lat="44.9642490" lon="14.6106620">
        <ele>1.1000000</ele>
        <time>2018-07-08T09:17:25Z</time>
      </trkpt>
      <trkpt lat="44.9639240" lon="14.6109180">
        <ele>0.6200000</ele>
        <time>2018-07-08T09:17:51Z</time>
      </trkpt>
      <trkpt lat="44.9636420" lon="14.6111090">
        <ele>0.6200000</ele>
        <time>2018-07-08T09:18:15Z</time>
      </trkpt>
      <trkpt lat="44.9633790" lon="14.6112330">
        <ele>1.1000000</ele>
        <time>2018-07-08T09:18:38Z</time>
      </trkpt>
      <trkpt lat="44.9630550" lon="14.6114160">
        <ele>1.1000000</ele>
        <time>2018-07-08T09:19:04Z</time>
      </trkpt>
      <trkpt lat="44.9627340" lon="14.6115950">
        <ele>0.6200000</ele>
        <time>2018-07-08T09:19:31Z</time>
      </trkpt>
      <trkpt lat="44.9624370" lon="14.6117460">
        <ele>1.1000000</ele>
        <time>2018-07-08T09:19:56Z</time>
      </trkpt>
      <trkpt lat="44.9622080" lon="14.6118300">
        <ele>0.6200000</ele>
        <time>2018-07-08T09:20:16Z</time>
      </trkpt>
      <trkpt lat="44.9620060" lon="14.6119040">
        <ele>1.1000000</ele>
        <time>2018-07-08T09:20:36Z</time>
      </trkpt>
      <trkpt lat="44.9617810" lon="14.6120190">
        <ele>1.1000000</ele>
        <time>2018-07-08T09:20:59Z</time>
      </trkpt>
      <trkpt lat="44.9615590" lon="14.6121550">
        <ele>1.1000000</ele>
        <time>2018-07-08T09:21:21Z</time>
      </trkpt>
      <trkpt lat="44.9613650" lon="14.6122690">
        <ele>1.1000000</ele>
        <time>2018-07-08T09:21:40Z</time>
      </trkpt>
      <trkpt lat="44.9611130" lon="14.6124140">
        <ele>0.6200000</ele>
        <time>2018-07-08T09:22:03Z</time>
      </trkpt>
      <trkpt lat="44.9608920" lon="14.6125470">
        <ele>0.6200000</ele>
        <time>2018-07-08T09:22:23Z</time>
      </trkpt>
      <trkpt lat="44.9606630" lon="14.6126580">
        <ele>0.6200000</ele>
        <time>2018-07-08T09:22:45Z</time>
      </trkpt>
      <trkpt lat="44.9604530" lon="14.6127850">
        <ele>0.6200000</ele>
        <time>2018-07-08T09:23:06Z</time>
      </trkpt>
      <trkpt lat="44.9602010" lon="14.6129210">
        <ele>0.1400000</ele>
        <time>2018-07-08T09:23:32Z</time>
      </trkpt>
      <trkpt lat="44.9599490" lon="14.6130730">
        <ele>0.6200000</ele>
        <time>2018-07-08T09:23:57Z</time>
      </trkpt>
      <trkpt lat="44.9596670" lon="14.6132420">
        <ele>0.6200000</ele>
        <time>2018-07-08T09:24:23Z</time>
      </trkpt>
      <trkpt lat="44.9593850" lon="14.6133980">
        <ele>0.6200000</ele>
        <time>2018-07-08T09:24:49Z</time>
      </trkpt>
      <trkpt lat="44.9591060" lon="14.6135500">
        <ele>0.6200000</ele>
        <time>2018-07-08T09:25:13Z</time>
      </trkpt>
      <trkpt lat="44.9588170" lon="14.6137850">
        <ele>0.6200000</ele>
        <time>2018-07-08T09:25:40Z</time>
      </trkpt>
      <trkpt lat="44.9585570" lon="14.6139880">
        <ele>0.1400000</ele>
        <time>2018-07-08T09:26:02Z</time>
      </trkpt>
      <trkpt lat="44.9582370" lon="14.6142690">
        <ele>0.1400000</ele>
        <time>2018-07-08T09:26:29Z</time>
      </trkpt>
      <trkpt lat="44.9579660" lon="14.6144980">
        <ele>0.6200000</ele>
        <time>2018-07-08T09:26:51Z</time>
      </trkpt>
      <trkpt lat="44.9576300" lon="14.6147780">
        <ele>0.6200000</ele>
        <time>2018-07-08T09:27:17Z</time>
      </trkpt>
      <trkpt lat="44.9573100" lon="14.6150430">
        <ele>0.1400000</ele>
        <time>2018-07-08T09:27:41Z</time>
      </trkpt>
      <trkpt lat="44.9569740" lon="14.6153390">
        <ele>0.6200000</ele>
        <time>2018-07-08T09:28:08Z</time>
      </trkpt>
      <trkpt lat="44.9566150" lon="14.6156400">
        <ele>0.6200000</ele>
        <time>2018-07-08T09:28:36Z</time>
      </trkpt>
      <trkpt lat="44.9562300" lon="14.6159740">
        <ele>0.6200000</ele>
        <time>2018-07-08T09:29:06Z</time>
      </trkpt>
      <trkpt lat="44.9559020" lon="14.6162210">
        <ele>0.1400000</ele>
        <time>2018-07-08T09:29:31Z</time>
      </trkpt>
      <trkpt lat="44.9556270" lon="14.6165100">
        <ele>0.1400000</ele>
        <time>2018-07-08T09:29:55Z</time>
      </trkpt>
      <trkpt lat="44.9552800" lon="14.6168060">
        <ele>0.1400000</ele>
        <time>2018-07-08T09:30:22Z</time>
      </trkpt>
      <trkpt lat="44.9550130" lon="14.6170620">
        <ele>0.1400000</ele>
        <time>2018-07-08T09:30:45Z</time>
      </trkpt>
      <trkpt lat="44.9547500" lon="14.6173270">
        <ele>0.1400000</ele>
        <time>2018-07-08T09:31:10Z</time>
      </trkpt>
      <trkpt lat="44.9545140" lon="14.6175330">
        <ele>0.1400000</ele>
        <time>2018-07-08T09:31:35Z</time>
      </trkpt>
      <trkpt lat="44.9542920" lon="14.6177880">
        <ele>0.1400000</ele>
        <time>2018-07-08T09:32:01Z</time>
      </trkpt>
      <trkpt lat="44.9540180" lon="14.6181210">
        <ele>0.1400000</ele>
        <time>2018-07-08T09:32:30Z</time>
      </trkpt>
      <trkpt lat="44.9537280" lon="14.6184150">
        <ele>0.1400000</ele>
        <time>2018-07-08T09:32:56Z</time>
      </trkpt>
      <trkpt lat="44.9534910" lon="14.6185950">
        <ele>0.1400000</ele>
        <time>2018-07-08T09:33:17Z</time>
      </trkpt>
      <trkpt lat="44.9532890" lon="14.6187810">
        <ele>0.1400000</ele>
        <time>2018-07-08T09:33:39Z</time>
      </trkpt>
      <trkpt lat="44.9530530" lon="14.6189530">
        <ele>0.1400000</ele>
        <time>2018-07-08T09:34:05Z</time>
      </trkpt>
      <trkpt lat="44.9528690" lon="14.6191300">
        <ele>-0.3400000</ele>
        <time>2018-07-08T09:34:25Z</time>
      </trkpt>
      <trkpt lat="44.9526290" lon="14.6193500">
        <ele>-0.3400000</ele>
        <time>2018-07-08T09:34:51Z</time>
      </trkpt>
      <trkpt lat="44.9524080" lon="14.6195460">
        <ele>0.1400000</ele>
        <time>2018-07-08T09:35:16Z</time>
      </trkpt>
      <trkpt lat="44.9522170" lon="14.6197320">
        <ele>-0.3400000</ele>
        <time>2018-07-08T09:35:40Z</time>
      </trkpt>
      <trkpt lat="44.9520260" lon="14.6198980">
        <ele>-0.3400000</ele>
        <time>2018-07-08T09:36:03Z</time>
      </trkpt>
      <trkpt lat="44.9518700" lon="14.6199040">
        <ele>-0.3400000</ele>
        <time>2018-07-08T09:36:26Z</time>
      </trkpt>
      <trkpt lat="44.9517670" lon="14.6199330">
        <ele>-0.3400000</ele>
        <time>2018-07-08T09:36:53Z</time>
      </trkpt>
      <trkpt lat="44.9517440" lon="14.6199420">
        <ele>-0.8200000</ele>
        <time>2018-07-08T09:37:20Z</time>
      </trkpt>
      <trkpt lat="44.9517440" lon="14.6199420">
        <ele>-0.3400000</ele>
        <time>2018-07-08T09:37:45Z</time>
      </trkpt>
      <trkpt lat="44.9517440" lon="14.6199430">
        <ele>-0.8200000</ele>
        <time>2018-07-08T09:38:10Z</time>
      </trkpt>
      <trkpt lat="44.9517250" lon="14.6199280">
        <ele>-0.8200000</ele>
        <time>2018-07-08T09:38:30Z</time>
      </trkpt>
      <trkpt lat="44.9515950" lon="14.6198810">
        <ele>-0.8200000</ele>
        <time>2018-07-08T09:38:42Z</time>
      </trkpt>
      <trkpt lat="44.9512520" lon="14.6198210">
        <ele>-0.8200000</ele>
        <time>2018-07-08T09:39:03Z</time>
      </trkpt>
      <trkpt lat="44.9509350" lon="14.6197410">
        <ele>-0.3400000</ele>
        <time>2018-07-08T09:39:28Z</time>
      </trkpt>
      <trkpt lat="44.9506150" lon="14.6196670">
        <ele>-0.8200000</ele>
        <time>2018-07-08T09:39:53Z</time>
      </trkpt>
      <trkpt lat="44.9503330" lon="14.6195970">
        <ele>0.1400000</ele>
        <time>2018-07-08T09:40:16Z</time>
      </trkpt>
      <trkpt lat="44.9501380" lon="14.6195350">
        <ele>-0.8200000</ele>
        <time>2018-07-08T09:40:32Z</time>
      </trkpt>
      <trkpt lat="44.9499440" lon="14.6194940">
        <ele>-0.8200000</ele>
        <time>2018-07-08T09:40:47Z</time>
      </trkpt>
      <trkpt lat="44.9497180" lon="14.6194250">
        <ele>-0.8200000</ele>
        <time>2018-07-08T09:41:05Z</time>
      </trkpt>
      <trkpt lat="44.9494550" lon="14.6193530">
        <ele>-1.3000000</ele>
        <time>2018-07-08T09:41:26Z</time>
      </trkpt>
      <trkpt lat="44.9491730" lon="14.6192800">
        <ele>-1.3000000</ele>
        <time>2018-07-08T09:41:48Z</time>
      </trkpt>
      <trkpt lat="44.9488950" lon="14.6192060">
        <ele>-0.8200000</ele>
        <time>2018-07-08T09:42:11Z</time>
      </trkpt>
      <trkpt lat="44.9485780" lon="14.6191160">
        <ele>-1.3000000</ele>
        <time>2018-07-08T09:42:36Z</time>
      </trkpt>
      <trkpt lat="44.9482150" lon="14.6190430">
        <ele>-0.8200000</ele>
        <time>2018-07-08T09:43:04Z</time>
      </trkpt>
      <trkpt lat="44.9478150" lon="14.6189840">
        <ele>-0.3400000</ele>
        <time>2018-07-08T09:43:23Z</time>
      </trkpt>
      <trkpt lat="44.9472660" lon="14.6190030">
        <ele>-0.3400000</ele>
        <time>2018-07-08T09:43:44Z</time>
      </trkpt>
      <trkpt lat="44.9466060" lon="14.6189290">
        <ele>-0.8200000</ele>
        <time>2018-07-08T09:44:08Z</time>
      </trkpt>
      <trkpt lat="44.9459150" lon="14.6187070">
        <ele>-0.8200000</ele>
        <time>2018-07-08T09:44:33Z</time>
      </trkpt>
      <trkpt lat="44.9453320" lon="14.6186540">
        <ele>-0.8200000</ele>
        <time>2018-07-08T09:44:54Z</time>
      </trkpt>
      <trkpt lat="44.9446720" lon="14.6186550">
        <ele>-1.3000000</ele>
        <time>2018-07-08T09:45:19Z</time>
      </trkpt>
      <trkpt lat="44.9439050" lon="14.6185940">
        <ele>-1.3000000</ele>
        <time>2018-07-08T09:45:47Z</time>
      </trkpt>
      <trkpt lat="44.9430430" lon="14.6185700">
        <ele>-1.3000000</ele>
        <time>2018-07-08T09:46:18Z</time>
      </trkpt>
      <trkpt lat="44.9422610" lon="14.6185490">
        <ele>-1.3000000</ele>
        <time>2018-07-08T09:46:46Z</time>
      </trkpt>
      <trkpt lat="44.9414860" lon="14.6185230">
        <ele>-1.3000000</ele>
        <time>2018-07-08T09:47:14Z</time>
      </trkpt>
      <trkpt lat="44.9407620" lon="14.6185100">
        <ele>-1.7900000</ele>
        <time>2018-07-08T09:47:40Z</time>
      </trkpt>
      <trkpt lat="44.9399450" lon="14.6184790">
        <ele>-1.3000000</ele>
        <time>2018-07-08T09:48:10Z</time>
      </trkpt>
      <trkpt lat="44.9391330" lon="14.6184490">
        <ele>-1.3000000</ele>
        <time>2018-07-08T09:48:39Z</time>
      </trkpt>
      <trkpt lat="44.9383810" lon="14.6184270">
        <ele>-1.3000000</ele>
        <time>2018-07-08T09:49:06Z</time>
      </trkpt>
      <trkpt lat="44.9376600" lon="14.6184110">
        <ele>-1.7900000</ele>
        <time>2018-07-08T09:49:32Z</time>
      </trkpt>
      <trkpt lat="44.9370690" lon="14.6183910">
        <ele>-1.3000000</ele>
        <time>2018-07-08T09:49:53Z</time>
      </trkpt>
      <trkpt lat="44.9365460" lon="14.6183690">
        <ele>-1.7900000</ele>
        <time>2018-07-08T09:50:12Z</time>
      </trkpt>
      <trkpt lat="44.9359050" lon="14.6183490">
        <ele>-1.3000000</ele>
        <time>2018-07-08T09:50:35Z</time>
      </trkpt>
      <trkpt lat="44.9353370" lon="14.6183310">
        <ele>-1.7900000</ele>
        <time>2018-07-08T09:50:56Z</time>
      </trkpt>
      <trkpt lat="44.9347380" lon="14.6183170">
        <ele>-1.7900000</ele>
        <time>2018-07-08T09:51:18Z</time>
      </trkpt>
      <trkpt lat="44.9340210" lon="14.6182940">
        <ele>-1.3000000</ele>
        <time>2018-07-08T09:51:44Z</time>
      </trkpt>
      <trkpt lat="44.9333950" lon="14.6182600">
        <ele>-1.3000000</ele>
        <time>2018-07-08T09:52:06Z</time>
      </trkpt>
      <trkpt lat="44.9328230" lon="14.6182420">
        <ele>-1.7900000</ele>
        <time>2018-07-08T09:52:26Z</time>
      </trkpt>
      <trkpt lat="44.9321210" lon="14.6182150">
        <ele>-1.7900000</ele>
        <time>2018-07-08T09:52:51Z</time>
      </trkpt>
      <trkpt lat="44.9314230" lon="14.6182130">
        <ele>-1.7900000</ele>
        <time>2018-07-08T09:53:16Z</time>
      </trkpt>
      <trkpt lat="44.9308360" lon="14.6181880">
        <ele>-1.7900000</ele>
        <time>2018-07-08T09:53:37Z</time>
      </trkpt>
      <trkpt lat="44.9301950" lon="14.6181770">
        <ele>-1.3000000</ele>
        <time>2018-07-08T09:54:00Z</time>
      </trkpt>
      <trkpt lat="44.9294740" lon="14.6181580">
        <ele>-1.3000000</ele>
        <time>2018-07-08T09:54:26Z</time>
      </trkpt>
      <trkpt lat="44.9288250" lon="14.6181360">
        <ele>-1.3000000</ele>
        <time>2018-07-08T09:54:49Z</time>
      </trkpt>
      <trkpt lat="44.9281010" lon="14.6181160">
        <ele>-1.7900000</ele>
        <time>2018-07-08T09:55:15Z</time>
      </trkpt>
      <trkpt lat="44.9272580" lon="14.6181010">
        <ele>-1.7900000</ele>
        <time>2018-07-08T09:55:45Z</time>
      </trkpt>
      <trkpt lat="44.9264980" lon="14.6180900">
        <ele>-1.7900000</ele>
        <time>2018-07-08T09:56:12Z</time>
      </trkpt>
      <trkpt lat="44.9257930" lon="14.6180770">
        <ele>-1.7900000</ele>
        <time>2018-07-08T09:56:37Z</time>
      </trkpt>
      <trkpt lat="44.9251100" lon="14.6180510">
        <ele>-1.7900000</ele>
        <time>2018-07-08T09:57:01Z</time>
      </trkpt>
      <trkpt lat="44.9242130" lon="14.6180570">
        <ele>-1.7900000</ele>
        <time>2018-07-08T09:57:33Z</time>
      </trkpt>
      <trkpt lat="44.9235000" lon="14.6180710">
        <ele>-1.7900000</ele>
        <time>2018-07-08T09:57:58Z</time>
      </trkpt>
      <trkpt lat="44.9228060" lon="14.6180750">
        <ele>-1.7900000</ele>
        <time>2018-07-08T09:58:23Z</time>
      </trkpt>
      <trkpt lat="44.9221120" lon="14.6179900">
        <ele>-1.7900000</ele>
        <time>2018-07-08T09:58:48Z</time>
      </trkpt>
      <trkpt lat="44.9214590" lon="14.6180280">
        <ele>-1.7900000</ele>
        <time>2018-07-08T09:59:11Z</time>
      </trkpt>
      <trkpt lat="44.9207420" lon="14.6181100">
        <ele>-1.7900000</ele>
        <time>2018-07-08T09:59:37Z</time>
      </trkpt>
      <trkpt lat="44.9199980" lon="14.6182170">
        <ele>-1.7900000</ele>
        <time>2018-07-08T10:00:04Z</time>
      </trkpt>
      <trkpt lat="44.9192850" lon="14.6182990">
        <ele>-1.7900000</ele>
        <time>2018-07-08T10:00:30Z</time>
      </trkpt>
      <trkpt lat="44.9184950" lon="14.6183900">
        <ele>-1.7900000</ele>
        <time>2018-07-08T10:00:59Z</time>
      </trkpt>
      <trkpt lat="44.9177320" lon="14.6184820">
        <ele>-2.2700000</ele>
        <time>2018-07-08T10:01:27Z</time>
      </trkpt>
      <trkpt lat="44.9169850" lon="14.6185770">
        <ele>-2.2700000</ele>
        <time>2018-07-08T10:01:54Z</time>
      </trkpt>
      <trkpt lat="44.9162710" lon="14.6186670">
        <ele>-2.2700000</ele>
        <time>2018-07-08T10:02:20Z</time>
      </trkpt>
      <trkpt lat="44.9155620" lon="14.6187570">
        <ele>-2.2700000</ele>
        <time>2018-07-08T10:02:46Z</time>
      </trkpt>
      <trkpt lat="44.9149320" lon="14.6188410">
        <ele>-2.2700000</ele>
        <time>2018-07-08T10:03:09Z</time>
      </trkpt>
      <trkpt lat="44.9142990" lon="14.6189170">
        <ele>-2.2700000</ele>
        <time>2018-07-08T10:03:32Z</time>
      </trkpt>
      <trkpt lat="44.9135320" lon="14.6190280">
        <ele>-2.2700000</ele>
        <time>2018-07-08T10:04:00Z</time>
      </trkpt>
      <trkpt lat="44.9128150" lon="14.6191230">
        <ele>-2.2700000</ele>
        <time>2018-07-08T10:04:26Z</time>
      </trkpt>
      <trkpt lat="44.9121320" lon="14.6192210">
        <ele>-2.2700000</ele>
        <time>2018-07-08T10:04:51Z</time>
      </trkpt>
      <trkpt lat="44.9114800" lon="14.6193060">
        <ele>-2.2700000</ele>
        <time>2018-07-08T10:05:15Z</time>
      </trkpt>
      <trkpt lat="44.9108200" lon="14.6193850">
        <ele>-2.7500000</ele>
        <time>2018-07-08T10:05:39Z</time>
      </trkpt>
      <trkpt lat="44.9101370" lon="14.6194660">
        <ele>-2.2700000</ele>
        <time>2018-07-08T10:06:04Z</time>
      </trkpt>
      <trkpt lat="44.9093740" lon="14.6195720">
        <ele>-2.2700000</ele>
        <time>2018-07-08T10:06:32Z</time>
      </trkpt>
      <trkpt lat="44.9087720" lon="14.6196380">
        <ele>-2.2700000</ele>
        <time>2018-07-08T10:06:54Z</time>
      </trkpt>
      <trkpt lat="44.9080390" lon="14.6197330">
        <ele>-2.2700000</ele>
        <time>2018-07-08T10:07:21Z</time>
      </trkpt>
      <trkpt lat="44.9074400" lon="14.6198080">
        <ele>-2.2700000</ele>
        <time>2018-07-08T10:07:43Z</time>
      </trkpt>
      <trkpt lat="44.9067990" lon="14.6198840">
        <ele>-2.7500000</ele>
        <time>2018-07-08T10:08:07Z</time>
      </trkpt>
      <trkpt lat="44.9062000" lon="14.6199670">
        <ele>-2.2700000</ele>
        <time>2018-07-08T10:08:29Z</time>
      </trkpt>
      <trkpt lat="44.9054790" lon="14.6200640">
        <ele>-1.7900000</ele>
        <time>2018-07-08T10:08:56Z</time>
      </trkpt>
      <trkpt lat="44.9048350" lon="14.6201460">
        <ele>-1.7900000</ele>
        <time>2018-07-08T10:09:20Z</time>
      </trkpt>
      <trkpt lat="44.9042170" lon="14.6202310">
        <ele>-1.7900000</ele>
        <time>2018-07-08T10:09:43Z</time>
      </trkpt>
      <trkpt lat="44.9036220" lon="14.6203070">
        <ele>-1.3000000</ele>
        <time>2018-07-08T10:10:05Z</time>
      </trkpt>
      <trkpt lat="44.9031070" lon="14.6203620">
        <ele>-1.7900000</ele>
        <time>2018-07-08T10:10:24Z</time>
      </trkpt>
      <trkpt lat="44.9025650" lon="14.6204220">
        <ele>-2.2700000</ele>
        <time>2018-07-08T10:10:44Z</time>
      </trkpt>
      <trkpt lat="44.9020000" lon="14.6204890">
        <ele>-1.7900000</ele>
        <time>2018-07-08T10:11:05Z</time>
      </trkpt>
      <trkpt lat="44.9014630" lon="14.6205460">
        <ele>-2.2700000</ele>
        <time>2018-07-08T10:11:25Z</time>
      </trkpt>
      <trkpt lat="44.9010580" lon="14.6206040">
        <ele>-2.2700000</ele>
        <time>2018-07-08T10:11:40Z</time>
      </trkpt>
      <trkpt lat="44.9006040" lon="14.6206610">
        <ele>-2.2700000</ele>
        <time>2018-07-08T10:11:57Z</time>
      </trkpt>
      <trkpt lat="44.9001240" lon="14.6207280">
        <ele>-1.7900000</ele>
        <time>2018-07-08T10:12:15Z</time>
      </trkpt>
      <trkpt lat="44.8995290" lon="14.6207900">
        <ele>-2.2700000</ele>
        <time>2018-07-08T10:12:37Z</time>
      </trkpt>
      <trkpt lat="44.8988570" lon="14.6208590">
        <ele>-2.2700000</ele>
        <time>2018-07-08T10:13:02Z</time>
      </trkpt>
      <trkpt lat="44.8981630" lon="14.6209340">
        <ele>-2.2700000</ele>
        <time>2018-07-08T10:13:28Z</time>
      </trkpt>
      <trkpt lat="44.8974040" lon="14.6210040">
        <ele>-2.2700000</ele>
        <time>2018-07-08T10:13:56Z</time>
      </trkpt>
      <trkpt lat="44.8967090" lon="14.6210790">
        <ele>-2.2700000</ele>
        <time>2018-07-08T10:14:22Z</time>
      </trkpt>
      <trkpt lat="44.8960570" lon="14.6211450">
        <ele>-1.7900000</ele>
        <time>2018-07-08T10:14:46Z</time>
      </trkpt>
      <trkpt lat="44.8953820" lon="14.6212110">
        <ele>-1.7900000</ele>
        <time>2018-07-08T10:15:11Z</time>
      </trkpt>
      <trkpt lat="44.8946990" lon="14.6212790">
        <ele>-2.2700000</ele>
        <time>2018-07-08T10:15:36Z</time>
      </trkpt>
      <trkpt lat="44.8939700" lon="14.6213440">
        <ele>-1.7900000</ele>
        <time>2018-07-08T10:16:03Z</time>
      </trkpt>
      <trkpt lat="44.8933180" lon="14.6214020">
        <ele>-2.2700000</ele>
        <time>2018-07-08T10:16:27Z</time>
      </trkpt>
      <trkpt lat="44.8926930" lon="14.6214550">
        <ele>-2.2700000</ele>
        <time>2018-07-08T10:16:50Z</time>
      </trkpt>
      <trkpt lat="44.8919560" lon="14.6215200">
        <ele>-2.2700000</ele>
        <time>2018-07-08T10:17:17Z</time>
      </trkpt>
      <trkpt lat="44.8913420" lon="14.6215760">
        <ele>-1.7900000</ele>
        <time>2018-07-08T10:17:40Z</time>
      </trkpt>
      <trkpt lat="44.8906820" lon="14.6216450">
        <ele>-2.2700000</ele>
        <time>2018-07-08T10:18:04Z</time>
      </trkpt>
      <trkpt lat="44.8900530" lon="14.6217030">
        <ele>-1.7900000</ele>
        <time>2018-07-08T10:18:27Z</time>
      </trkpt>
      <trkpt lat="44.8892900" lon="14.6217670">
        <ele>-1.7900000</ele>
        <time>2018-07-08T10:18:55Z</time>
      </trkpt>
      <trkpt lat="44.8886340" lon="14.6218220">
        <ele>-1.7900000</ele>
        <time>2018-07-08T10:19:19Z</time>
      </trkpt>
      <trkpt lat="44.8878630" lon="14.6218810">
        <ele>-1.3000000</ele>
        <time>2018-07-08T10:19:47Z</time>
      </trkpt>
      <trkpt lat="44.8871540" lon="14.6219320">
        <ele>-1.7900000</ele>
        <time>2018-07-08T10:20:13Z</time>
      </trkpt>
      <trkpt lat="44.8865390" lon="14.6219940">
        <ele>-1.3000000</ele>
        <time>2018-07-08T10:20:35Z</time>
      </trkpt>
      <trkpt lat="44.8857420" lon="14.6220510">
        <ele>-1.3000000</ele>
        <time>2018-07-08T10:21:04Z</time>
      </trkpt>
      <trkpt lat="44.8850480" lon="14.6220960">
        <ele>-1.7900000</ele>
        <time>2018-07-08T10:21:29Z</time>
      </trkpt>
      <trkpt lat="44.8843840" lon="14.6221440">
        <ele>-2.2700000</ele>
        <time>2018-07-08T10:21:53Z</time>
      </trkpt>
      <trkpt lat="44.8838010" lon="14.6221860">
        <ele>-2.2700000</ele>
        <time>2018-07-08T10:22:14Z</time>
      </trkpt>
      <trkpt lat="44.8831630" lon="14.6222310">
        <ele>-2.2700000</ele>
        <time>2018-07-08T10:22:37Z</time>
      </trkpt>
      <trkpt lat="44.8825610" lon="14.6222680">
        <ele>-1.7900000</ele>
        <time>2018-07-08T10:22:59Z</time>
      </trkpt>
      <trkpt lat="44.8818050" lon="14.6223210">
        <ele>-2.2700000</ele>
        <time>2018-07-08T10:23:26Z</time>
      </trkpt>
      <trkpt lat="44.8811230" lon="14.6223670">
        <ele>-1.7900000</ele>
        <time>2018-07-08T10:23:51Z</time>
      </trkpt>
      <trkpt lat="44.8804780" lon="14.6224010">
        <ele>-2.2700000</ele>
        <time>2018-07-08T10:24:14Z</time>
      </trkpt>
      <trkpt lat="44.8797720" lon="14.6224450">
        <ele>-2.2700000</ele>
        <time>2018-07-08T10:24:39Z</time>
      </trkpt>
      <trkpt lat="44.8790170" lon="14.6224960">
        <ele>-2.2700000</ele>
        <time>2018-07-08T10:25:06Z</time>
      </trkpt>
      <trkpt lat="44.8782840" lon="14.6225470">
        <ele>-1.7900000</ele>
        <time>2018-07-08T10:25:32Z</time>
      </trkpt>
      <trkpt lat="44.8774990" lon="14.6225980">
        <ele>-2.2700000</ele>
        <time>2018-07-08T10:26:00Z</time>
      </trkpt>
      <trkpt lat="44.8767360" lon="14.6226480">
        <ele>-1.7900000</ele>
        <time>2018-07-08T10:26:27Z</time>
      </trkpt>
      <trkpt lat="44.8759690" lon="14.6227050">
        <ele>-1.7900000</ele>
        <time>2018-07-08T10:26:54Z</time>
      </trkpt>
      <trkpt lat="44.8752290" lon="14.6227530">
        <ele>-1.7900000</ele>
        <time>2018-07-08T10:27:20Z</time>
      </trkpt>
      <trkpt lat="44.8744240" lon="14.6228150">
        <ele>-2.2700000</ele>
        <time>2018-07-08T10:27:48Z</time>
      </trkpt>
      <trkpt lat="44.8735770" lon="14.6228760">
        <ele>-1.7900000</ele>
        <time>2018-07-08T10:28:18Z</time>
      </trkpt>
      <trkpt lat="44.8727380" lon="14.6229310">
        <ele>-1.3000000</ele>
        <time>2018-07-08T10:28:47Z</time>
      </trkpt>
      <trkpt lat="44.8719790" lon="14.6229700">
        <ele>-1.3000000</ele>
        <time>2018-07-08T10:29:13Z</time>
      </trkpt>
      <trkpt lat="44.8711810" lon="14.6230310">
        <ele>-0.8200000</ele>
        <time>2018-07-08T10:29:41Z</time>
      </trkpt>
      <trkpt lat="44.8704680" lon="14.6230890">
        <ele>-0.8200000</ele>
        <time>2018-07-08T10:30:06Z</time>
      </trkpt>
      <trkpt lat="44.8697890" lon="14.6231630">
        <ele>-1.3000000</ele>
        <time>2018-07-08T10:30:30Z</time>
      </trkpt>
      <trkpt lat="44.8690410" lon="14.6232150">
        <ele>-0.8200000</ele>
        <time>2018-07-08T10:30:56Z</time>
      </trkpt>
      <trkpt lat="44.8682370" lon="14.6232700">
        <ele>-0.8200000</ele>
        <time>2018-07-08T10:31:24Z</time>
      </trkpt>
      <trkpt lat="44.8674580" lon="14.6233300">
        <ele>-0.3400000</ele>
        <time>2018-07-08T10:31:51Z</time>
      </trkpt>
      <trkpt lat="44.8667070" lon="14.6233910">
        <ele>-0.3400000</ele>
        <time>2018-07-08T10:32:17Z</time>
      </trkpt>
      <trkpt lat="44.8659930" lon="14.6234740">
        <ele>-0.3400000</ele>
        <time>2018-07-08T10:32:42Z</time>
      </trkpt>
      <trkpt lat="44.8652990" lon="14.6235280">
        <ele>-0.3400000</ele>
        <time>2018-07-08T10:33:06Z</time>
      </trkpt>
      <trkpt lat="44.8645550" lon="14.6235870">
        <ele>-0.3400000</ele>
        <time>2018-07-08T10:33:32Z</time>
      </trkpt>
      <trkpt lat="44.8638380" lon="14.6236440">
        <ele>0.1400000</ele>
        <time>2018-07-08T10:33:57Z</time>
      </trkpt>
      <trkpt lat="44.8631360" lon="14.6236890">
        <ele>0.1400000</ele>
        <time>2018-07-08T10:34:21Z</time>
      </trkpt>
      <trkpt lat="44.8624310" lon="14.6237780">
        <ele>-0.3400000</ele>
        <time>2018-07-08T10:34:46Z</time>
      </trkpt>
      <trkpt lat="44.8616830" lon="14.6238480">
        <ele>0.1400000</ele>
        <time>2018-07-08T10:35:12Z</time>
      </trkpt>
      <trkpt lat="44.8609890" lon="14.6239180">
        <ele>0.1400000</ele>
        <time>2018-07-08T10:35:36Z</time>
      </trkpt>
      <trkpt lat="44.8602030" lon="14.6239990">
        <ele>0.1400000</ele>
        <time>2018-07-08T10:36:03Z</time>
      </trkpt>
      <trkpt lat="44.8594700" lon="14.6240970">
        <ele>0.6200000</ele>
        <time>2018-07-08T10:36:28Z</time>
      </trkpt>
      <trkpt lat="44.8586880" lon="14.6242090">
        <ele>0.6200000</ele>
        <time>2018-07-08T10:36:55Z</time>
      </trkpt>
      <trkpt lat="44.8579330" lon="14.6243370">
        <ele>0.6200000</ele>
        <time>2018-07-08T10:37:21Z</time>
      </trkpt>
      <trkpt lat="44.8570750" lon="14.6244910">
        <ele>0.6200000</ele>
        <time>2018-07-08T10:37:51Z</time>
      </trkpt>
      <trkpt lat="44.8562930" lon="14.6246250">
        <ele>0.6200000</ele>
        <time>2018-07-08T10:38:18Z</time>
      </trkpt>
      <trkpt lat="44.8554800" lon="14.6247630">
        <ele>0.6200000</ele>
        <time>2018-07-08T10:38:46Z</time>
      </trkpt>
      <trkpt lat="44.8548200" lon="14.6248720">
        <ele>0.6200000</ele>
        <time>2018-07-08T10:39:09Z</time>
      </trkpt>
      <trkpt lat="44.8542560" lon="14.6249630">
        <ele>1.1000000</ele>
        <time>2018-07-08T10:39:29Z</time>
      </trkpt>
      <trkpt lat="44.8535690" lon="14.6250610">
        <ele>0.6200000</ele>
        <time>2018-07-08T10:39:53Z</time>
      </trkpt>
      <trkpt lat="44.8529050" lon="14.6251680">
        <ele>0.6200000</ele>
        <time>2018-07-08T10:40:16Z</time>
      </trkpt>
      <trkpt lat="44.8521420" lon="14.6252730">
        <ele>1.1000000</ele>
        <time>2018-07-08T10:40:42Z</time>
      </trkpt>
      <trkpt lat="44.8512650" lon="14.6254060">
        <ele>1.1000000</ele>
        <time>2018-07-08T10:41:12Z</time>
      </trkpt>
      <trkpt lat="44.8505360" lon="14.6255120">
        <ele>1.1000000</ele>
        <time>2018-07-08T10:41:37Z</time>
      </trkpt>
      <trkpt lat="44.8498120" lon="14.6256370">
        <ele>0.6200000</ele>
        <time>2018-07-08T10:42:02Z</time>
      </trkpt>
      <trkpt lat="44.8490750" lon="14.6257310">
        <ele>1.1000000</ele>
        <time>2018-07-08T10:42:27Z</time>
      </trkpt>
      <trkpt lat="44.8482890" lon="14.6258620">
        <ele>1.1000000</ele>
        <time>2018-07-08T10:42:54Z</time>
      </trkpt>
      <trkpt lat="44.8475300" lon="14.6259870">
        <ele>1.1000000</ele>
        <time>2018-07-08T10:43:20Z</time>
      </trkpt>
      <trkpt lat="44.8467790" lon="14.6261190">
        <ele>1.1000000</ele>
        <time>2018-07-08T10:43:46Z</time>
      </trkpt>
      <trkpt lat="44.8460730" lon="14.6262450">
        <ele>1.1000000</ele>
        <time>2018-07-08T10:44:10Z</time>
      </trkpt>
      <trkpt lat="44.8453750" lon="14.6263860">
        <ele>1.1000000</ele>
        <time>2018-07-08T10:44:34Z</time>
      </trkpt>
      <trkpt lat="44.8446880" lon="14.6265260">
        <ele>1.1000000</ele>
        <time>2018-07-08T10:44:58Z</time>
      </trkpt>
      <trkpt lat="44.8440170" lon="14.6266520">
        <ele>1.1000000</ele>
        <time>2018-07-08T10:45:21Z</time>
      </trkpt>
      <trkpt lat="44.8432660" lon="14.6268000">
        <ele>1.1000000</ele>
        <time>2018-07-08T10:45:47Z</time>
      </trkpt>
      <trkpt lat="44.8425670" lon="14.6269370">
        <ele>1.1000000</ele>
        <time>2018-07-08T10:46:11Z</time>
      </trkpt>
      <trkpt lat="44.8418460" lon="14.6270780">
        <ele>1.1000000</ele>
        <time>2018-07-08T10:46:36Z</time>
      </trkpt>
      <trkpt lat="44.8410800" lon="14.6272240">
        <ele>1.1000000</ele>
        <time>2018-07-08T10:47:02Z</time>
      </trkpt>
      <trkpt lat="44.8403740" lon="14.6273600">
        <ele>1.1000000</ele>
        <time>2018-07-08T10:47:26Z</time>
      </trkpt>
      <trkpt lat="44.8395840" lon="14.6275170">
        <ele>1.5800000</ele>
        <time>2018-07-08T10:47:53Z</time>
      </trkpt>
      <trkpt lat="44.8388480" lon="14.6276530">
        <ele>1.1000000</ele>
        <time>2018-07-08T10:48:18Z</time>
      </trkpt>
      <trkpt lat="44.8382570" lon="14.6277650">
        <ele>1.5800000</ele>
        <time>2018-07-08T10:48:38Z</time>
      </trkpt>
      <trkpt lat="44.8376350" lon="14.6278750">
        <ele>1.1000000</ele>
        <time>2018-07-08T10:48:59Z</time>
      </trkpt>
      <trkpt lat="44.8368910" lon="14.6280280">
        <ele>1.1000000</ele>
        <time>2018-07-08T10:49:24Z</time>
      </trkpt>
      <trkpt lat="44.8360630" lon="14.6281930">
        <ele>1.1000000</ele>
        <time>2018-07-08T10:49:52Z</time>
      </trkpt>
      <trkpt lat="44.8354420" lon="14.6283160">
        <ele>1.1000000</ele>
        <time>2018-07-08T10:50:13Z</time>
      </trkpt>
      <trkpt lat="44.8348200" lon="14.6284450">
        <ele>1.1000000</ele>
        <time>2018-07-08T10:50:34Z</time>
      </trkpt>
      <trkpt lat="44.8341790" lon="14.6285800">
        <ele>1.5800000</ele>
        <time>2018-07-08T10:50:56Z</time>
      </trkpt>
      <trkpt lat="44.8334470" lon="14.6287440">
        <ele>1.5800000</ele>
        <time>2018-07-08T10:51:21Z</time>
      </trkpt>
      <trkpt lat="44.8327750" lon="14.6289090">
        <ele>1.5800000</ele>
        <time>2018-07-08T10:51:44Z</time>
      </trkpt>
      <trkpt lat="44.8320390" lon="14.6290850">
        <ele>1.5800000</ele>
        <time>2018-07-08T10:52:09Z</time>
      </trkpt>
      <trkpt lat="44.8314320" lon="14.6292360">
        <ele>1.5800000</ele>
        <time>2018-07-08T10:52:30Z</time>
      </trkpt>
      <trkpt lat="44.8307340" lon="14.6293890">
        <ele>1.5800000</ele>
        <time>2018-07-08T10:52:54Z</time>
      </trkpt>
      <trkpt lat="44.8301620" lon="14.6295270">
        <ele>1.5800000</ele>
        <time>2018-07-08T10:53:14Z</time>
      </trkpt>
      <trkpt lat="44.8295100" lon="14.6296820">
        <ele>1.5800000</ele>
        <time>2018-07-08T10:53:36Z</time>
      </trkpt>
      <trkpt lat="44.8289600" lon="14.6298110">
        <ele>1.1000000</ele>
        <time>2018-07-08T10:53:55Z</time>
      </trkpt>
      <trkpt lat="44.8282320" lon="14.6299810">
        <ele>1.5800000</ele>
        <time>2018-07-08T10:54:20Z</time>
      </trkpt>
      <trkpt lat="44.8273510" lon="14.6301990">
        <ele>1.1000000</ele>
        <time>2018-07-08T10:54:50Z</time>
      </trkpt>
      <trkpt lat="44.8265650" lon="14.6303750">
        <ele>1.1000000</ele>
        <time>2018-07-08T10:55:17Z</time>
      </trkpt>
      <trkpt lat="44.8259120" lon="14.6305270">
        <ele>1.1000000</ele>
        <time>2018-07-08T10:55:40Z</time>
      </trkpt>
      <trkpt lat="44.8252300" lon="14.6306910">
        <ele>1.1000000</ele>
        <time>2018-07-08T10:56:06Z</time>
      </trkpt>
      <trkpt lat="44.8245850" lon="14.6308390">
        <ele>1.1000000</ele>
        <time>2018-07-08T10:56:31Z</time>
      </trkpt>
      <trkpt lat="44.8238330" lon="14.6310160">
        <ele>0.6200000</ele>
        <time>2018-07-08T10:57:00Z</time>
      </trkpt>
      <trkpt lat="44.8233490" lon="14.6310970">
        <ele>1.1000000</ele>
        <time>2018-07-08T10:57:23Z</time>
      </trkpt>
      <trkpt lat="44.8229140" lon="14.6311780">
        <ele>0.6200000</ele>
        <time>2018-07-08T10:57:52Z</time>
      </trkpt>
      <trkpt lat="44.8226740" lon="14.6312100">
        <ele>0.6200000</ele>
        <time>2018-07-08T10:58:19Z</time>
      </trkpt>
      <trkpt lat="44.8225210" lon="14.6312210">
        <ele>1.1000000</ele>
        <time>2018-07-08T10:58:44Z</time>
      </trkpt>
      <trkpt lat="44.8223530" lon="14.6312330">
        <ele>1.1000000</ele>
        <time>2018-07-08T10:59:08Z</time>
      </trkpt>
      <trkpt lat="44.8221930" lon="14.6312430">
        <ele>1.1000000</ele>
        <time>2018-07-08T10:59:35Z</time>
      </trkpt>
      <trkpt lat="44.8219830" lon="14.6313590">
        <ele>1.1000000</ele>
        <time>2018-07-08T11:00:02Z</time>
      </trkpt>
      <trkpt lat="44.8219570" lon="14.6315530">
        <ele>1.5800000</ele>
        <time>2018-07-08T11:00:31Z</time>
      </trkpt>
      <trkpt lat="44.8218880" lon="14.6315460">
        <ele>1.1000000</ele>
        <time>2018-07-08T11:00:56Z</time>
      </trkpt>
      <trkpt lat="44.8217510" lon="14.6314010">
        <ele>1.1000000</ele>
        <time>2018-07-08T11:01:23Z</time>
      </trkpt>
      <trkpt lat="44.8216710" lon="14.6313280">
        <ele>1.1000000</ele>
        <time>2018-07-08T11:01:51Z</time>
      </trkpt>
      <trkpt lat="44.8214490" lon="14.6314600">
        <ele>1.1000000</ele>
        <time>2018-07-08T11:02:17Z</time>
      </trkpt>
      <trkpt lat="44.8210950" lon="14.6315770">
        <ele>1.1000000</ele>
        <time>2018-07-08T11:02:46Z</time>
      </trkpt>
      <trkpt lat="44.8208890" lon="14.6315800">
        <ele>0.6200000</ele>
        <time>2018-07-08T11:03:13Z</time>
      </trkpt>
      <trkpt lat="44.8206020" lon="14.6315510">
        <ele>1.1000000</ele>
        <time>2018-07-08T11:03:42Z</time>
      </trkpt>
      <trkpt lat="44.8203700" lon="14.6314800">
        <ele>0.6200000</ele>
        <time>2018-07-08T11:04:06Z</time>
      </trkpt>
      <trkpt lat="44.8202630" lon="14.6314810">
        <ele>0.6200000</ele>
        <time>2018-07-08T11:04:30Z</time>
      </trkpt>
      <trkpt lat="44.8202400" lon="14.6314890">
        <ele>0.1400000</ele>
        <time>2018-07-08T11:04:56Z</time>
      </trkpt>
      <trkpt lat="44.8202400" lon="14.6314870">
        <ele>0.6200000</ele>
        <time>2018-07-08T11:05:25Z</time>
      </trkpt>
      <trkpt lat="44.8202400" lon="14.6314870">
        <ele>0.6200000</ele>
        <time>2018-07-08T11:05:49Z</time>
      </trkpt>
      <trkpt lat="44.8203050" lon="14.6320000">
        <ele>0.1400000</ele>
        <time>2018-07-08T11:06:19Z</time>
      </trkpt>
      <trkpt lat="44.8203050" lon="14.6321000">
        <ele>0.6200000</ele>
        <time>2018-07-08T11:06:27Z</time>
      </trkpt>
      <trkpt lat="44.8203090" lon="14.6321600">
        <ele>0.6200000</ele>
        <time>2018-07-08T11:06:31Z</time>
      </trkpt>
      <trkpt lat="44.8203700" lon="14.6326820">
        <ele>0.6200000</ele>
        <time>2018-07-08T11:07:00Z</time>
      </trkpt>
      <trkpt lat="44.8203700" lon="14.6328150">
        <ele>0.6200000</ele>
        <time>2018-07-08T11:07:25Z</time>
      </trkpt>
      <trkpt lat="44.8203090" lon="14.6329180">
        <ele>0.1400000</ele>
        <time>2018-07-08T11:07:54Z</time>
      </trkpt>
      <trkpt lat="44.8201220" lon="14.6329350">
        <ele>0.6200000</ele>
        <time>2018-07-08T11:08:18Z</time>
      </trkpt>
      <trkpt lat="44.8200150" lon="14.6329470">
        <ele>0.6200000</ele>
        <time>2018-07-08T11:08:41Z</time>
      </trkpt>
      <trkpt lat="44.8198010" lon="14.6330010">
        <ele>0.6200000</ele>
        <time>2018-07-08T11:09:10Z</time>
      </trkpt>
      <trkpt lat="44.8197590" lon="14.6330060">
        <ele>1.1000000</ele>
        <time>2018-07-08T11:09:14Z</time>
      </trkpt>
      <trkpt lat="44.8194470" lon="14.6329970">
        <ele>0.6200000</ele>
        <time>2018-07-08T11:09:43Z</time>
      </trkpt>
      <trkpt lat="44.8191990" lon="14.6329610">
        <ele>0.1400000</ele>
        <time>2018-07-08T11:10:08Z</time>
      </trkpt>
      <trkpt lat="44.8191490" lon="14.6329570">
        <ele>0.1400000</ele>
        <time>2018-07-08T11:10:36Z</time>
      </trkpt>
      <trkpt lat="44.8191530" lon="14.6329590">
        <ele>0.6200000</ele>
        <time>2018-07-08T11:11:02Z</time>
      </trkpt>
      <trkpt lat="44.8191720" lon="14.6330290">
        <ele>0.1400000</ele>
        <time>2018-07-08T11:11:30Z</time>
      </trkpt>
      <trkpt lat="44.8189890" lon="14.6331020">
        <ele>0.6200000</ele>
        <time>2018-07-08T11:11:56Z</time>
      </trkpt>
      <trkpt lat="44.8187710" lon="14.6330970">
        <ele>0.6200000</ele>
        <time>2018-07-08T11:12:26Z</time>
      </trkpt>
      <trkpt lat="44.8186150" lon="14.6331140">
        <ele>0.1400000</ele>
        <time>2018-07-08T11:12:55Z</time>
      </trkpt>
      <trkpt lat="44.8184970" lon="14.6331050">
        <ele>0.1400000</ele>
        <time>2018-07-08T11:13:19Z</time>
      </trkpt>
      <trkpt lat="44.8183480" lon="14.6331280">
        <ele>0.1400000</ele>
        <time>2018-07-08T11:13:48Z</time>
      </trkpt>
      <trkpt lat="44.8180730" lon="14.6331780">
        <ele>0.1400000</ele>
        <time>2018-07-08T11:14:16Z</time>
      </trkpt>
      <trkpt lat="44.8176190" lon="14.6332980">
        <ele>0.6200000</ele>
        <time>2018-07-08T11:14:40Z</time>
      </trkpt>
      <trkpt lat="44.8171420" lon="14.6334310">
        <ele>0.6200000</ele>
        <time>2018-07-08T11:15:00Z</time>
      </trkpt>
      <trkpt lat="44.8166540" lon="14.6336660">
        <ele>0.6200000</ele>
        <time>2018-07-08T11:15:20Z</time>
      </trkpt>
      <trkpt lat="44.8160780" lon="14.6340570">
        <ele>0.6200000</ele>
        <time>2018-07-08T11:15:44Z</time>
      </trkpt>
      <trkpt lat="44.8155290" lon="14.6341920">
        <ele>0.1400000</ele>
        <time>2018-07-08T11:16:06Z</time>
      </trkpt>
      <trkpt lat="44.8150140" lon="14.6344610">
        <ele>0.6200000</ele>
        <time>2018-07-08T11:16:27Z</time>
      </trkpt>
      <trkpt lat="44.8144040" lon="14.6348480">
        <ele>0.1400000</ele>
        <time>2018-07-08T11:16:52Z</time>
      </trkpt>
      <trkpt lat="44.8137740" lon="14.6351510">
        <ele>0.1400000</ele>
        <time>2018-07-08T11:17:18Z</time>
      </trkpt>
      <trkpt lat="44.8131680" lon="14.6354840">
        <ele>0.1400000</ele>
        <time>2018-07-08T11:17:43Z</time>
      </trkpt>
      <trkpt lat="44.8125840" lon="14.6358290">
        <ele>0.1400000</ele>
        <time>2018-07-08T11:18:07Z</time>
      </trkpt>
      <trkpt lat="44.8119540" lon="14.6362080">
        <ele>0.1400000</ele>
        <time>2018-07-08T11:18:33Z</time>
      </trkpt>
      <trkpt lat="44.8113250" lon="14.6365830">
        <ele>0.1400000</ele>
        <time>2018-07-08T11:18:59Z</time>
      </trkpt>
      <trkpt lat="44.8107300" lon="14.6369230">
        <ele>-0.3400000</ele>
        <time>2018-07-08T11:19:24Z</time>
      </trkpt>
      <trkpt lat="44.8101010" lon="14.6372840">
        <ele>0.1400000</ele>
        <time>2018-07-08T11:19:50Z</time>
      </trkpt>
      <trkpt lat="44.8094710" lon="14.6376540">
        <ele>-0.3400000</ele>
        <time>2018-07-08T11:20:16Z</time>
      </trkpt>
      <trkpt lat="44.8089180" lon="14.6380150">
        <ele>0.1400000</ele>
        <time>2018-07-08T11:20:40Z</time>
      </trkpt>
      <trkpt lat="44.8082120" lon="14.6384840">
        <ele>0.1400000</ele>
        <time>2018-07-08T11:21:11Z</time>
      </trkpt>
      <trkpt lat="44.8075490" lon="14.6389240">
        <ele>-0.3400000</ele>
        <time>2018-07-08T11:21:40Z</time>
      </trkpt>
      <trkpt lat="44.8069230" lon="14.6393040">
        <ele>-0.3400000</ele>
        <time>2018-07-08T11:22:07Z</time>
      </trkpt>
      <trkpt lat="44.8062740" lon="14.6396980">
        <ele>0.1400000</ele>
        <time>2018-07-08T11:22:35Z</time>
      </trkpt>
      <trkpt lat="44.8056030" lon="14.6400990">
        <ele>0.1400000</ele>
        <time>2018-07-08T11:23:04Z</time>
      </trkpt>
      <trkpt lat="44.8049510" lon="14.6404910">
        <ele>-0.3400000</ele>
        <time>2018-07-08T11:23:32Z</time>
      </trkpt>
      <trkpt lat="44.8042530" lon="14.6409110">
        <ele>0.1400000</ele>
        <time>2018-07-08T11:24:02Z</time>
      </trkpt>
      <trkpt lat="44.8035770" lon="14.6413130">
        <ele>0.1400000</ele>
        <time>2018-07-08T11:24:31Z</time>
      </trkpt>
      <trkpt lat="44.8029440" lon="14.6416950">
        <ele>-0.3400000</ele>
        <time>2018-07-08T11:24:58Z</time>
      </trkpt>
      <trkpt lat="44.8022580" lon="14.6421050">
        <ele>0.1400000</ele>
        <time>2018-07-08T11:25:27Z</time>
      </trkpt>
      <trkpt lat="44.8015860" lon="14.6425060">
        <ele>-0.3400000</ele>
        <time>2018-07-08T11:25:55Z</time>
      </trkpt>
      <trkpt lat="44.8009340" lon="14.6429040">
        <ele>0.1400000</ele>
        <time>2018-07-08T11:26:23Z</time>
      </trkpt>
      <trkpt lat="44.8003730" lon="14.6432550">
        <ele>0.1400000</ele>
        <time>2018-07-08T11:26:47Z</time>
      </trkpt>
      <trkpt lat="44.7996860" lon="14.6436790">
        <ele>0.1400000</ele>
        <time>2018-07-08T11:27:16Z</time>
      </trkpt>
      <trkpt lat="44.7989040" lon="14.6441620">
        <ele>-0.3400000</ele>
        <time>2018-07-08T11:27:49Z</time>
      </trkpt>
      <trkpt lat="44.7982370" lon="14.6445680">
        <ele>-0.3400000</ele>
        <time>2018-07-08T11:28:17Z</time>
      </trkpt>
      <trkpt lat="44.7975200" lon="14.6450050">
        <ele>-0.3400000</ele>
        <time>2018-07-08T11:28:47Z</time>
      </trkpt>
      <trkpt lat="44.7967380" lon="14.6454740">
        <ele>0.1400000</ele>
        <time>2018-07-08T11:29:20Z</time>
      </trkpt>
      <trkpt lat="44.7960550" lon="14.6458950">
        <ele>-0.3400000</ele>
        <time>2018-07-08T11:29:49Z</time>
      </trkpt>
      <trkpt lat="44.7954250" lon="14.6463130">
        <ele>0.1400000</ele>
        <time>2018-07-08T11:30:16Z</time>
      </trkpt>
      <trkpt lat="44.7947730" lon="14.6467370">
        <ele>-0.3400000</ele>
        <time>2018-07-08T11:30:44Z</time>
      </trkpt>
      <trkpt lat="44.7940790" lon="14.6471900">
        <ele>-0.8200000</ele>
        <time>2018-07-08T11:31:14Z</time>
      </trkpt>
      <trkpt lat="44.7933390" lon="14.6476990">
        <ele>-0.8200000</ele>
        <time>2018-07-08T11:31:46Z</time>
      </trkpt>
      <trkpt lat="44.7926670" lon="14.6481510">
        <ele>-0.8200000</ele>
        <time>2018-07-08T11:32:15Z</time>
      </trkpt>
      <trkpt lat="44.7920230" lon="14.6485980">
        <ele>-0.8200000</ele>
        <time>2018-07-08T11:32:43Z</time>
      </trkpt>
      <trkpt lat="44.7914240" lon="14.6489860">
        <ele>-0.3400000</ele>
        <time>2018-07-08T11:33:09Z</time>
      </trkpt>
      <trkpt lat="44.7907140" lon="14.6494680">
        <ele>-0.8200000</ele>
        <time>2018-07-08T11:33:40Z</time>
      </trkpt>
      <trkpt lat="44.7900620" lon="14.6499060">
        <ele>-1.3000000</ele>
        <time>2018-07-08T11:34:08Z</time>
      </trkpt>
      <trkpt lat="44.7894330" lon="14.6503240">
        <ele>-1.3000000</ele>
        <time>2018-07-08T11:34:35Z</time>
      </trkpt>
      <trkpt lat="44.7887800" lon="14.6507740">
        <ele>-1.3000000</ele>
        <time>2018-07-08T11:35:04Z</time>
      </trkpt>
      <trkpt lat="44.7881090" lon="14.6512310">
        <ele>-0.8200000</ele>
        <time>2018-07-08T11:35:33Z</time>
      </trkpt>
      <trkpt lat="44.7874640" lon="14.6516840">
        <ele>-1.3000000</ele>
        <time>2018-07-08T11:36:01Z</time>
      </trkpt>
      <trkpt lat="44.7868390" lon="14.6521340">
        <ele>-1.3000000</ele>
        <time>2018-07-08T11:36:28Z</time>
      </trkpt>
      <trkpt lat="44.7861670" lon="14.6526250">
        <ele>-1.3000000</ele>
        <time>2018-07-08T11:36:57Z</time>
      </trkpt>
      <trkpt lat="44.7855220" lon="14.6531050">
        <ele>-1.7900000</ele>
        <time>2018-07-08T11:37:25Z</time>
      </trkpt>
      <trkpt lat="44.7848820" lon="14.6535800">
        <ele>-1.3000000</ele>
        <time>2018-07-08T11:37:53Z</time>
      </trkpt>
      <trkpt lat="44.7843860" lon="14.6539330">
        <ele>-2.2700000</ele>
        <time>2018-07-08T11:38:14Z</time>
      </trkpt>
      <trkpt lat="44.7840230" lon="14.6542090">
        <ele>-1.7900000</ele>
        <time>2018-07-08T11:38:30Z</time>
      </trkpt>
      <trkpt lat="44.7833790" lon="14.6547070">
        <ele>-1.7900000</ele>
        <time>2018-07-08T11:38:58Z</time>
      </trkpt>
      <trkpt lat="44.7827110" lon="14.6552270">
        <ele>-2.2700000</ele>
        <time>2018-07-08T11:39:27Z</time>
      </trkpt>
      <trkpt lat="44.7821310" lon="14.6556750">
        <ele>-2.7500000</ele>
        <time>2018-07-08T11:39:52Z</time>
      </trkpt>
      <trkpt lat="44.7820400" lon="14.6557440">
        <ele>-11.8800000</ele>
        <time>2018-07-08T11:39:56Z</time>
      </trkpt>
      <trkpt lat="44.7820170" lon="14.6557650">
        <ele>-15.2400000</ele>
        <time>2018-07-08T11:39:57Z</time>
      </trkpt>
      <trkpt lat="44.7819940" lon="14.6557850">
        <ele>-7.0700000</ele>
        <time>2018-07-08T11:39:58Z</time>
      </trkpt>
      <trkpt lat="44.7818720" lon="14.6558720">
        <ele>-0.8200000</ele>
        <time>2018-07-08T11:40:03Z</time>
      </trkpt>
      <trkpt lat="44.7818220" lon="14.6559060">
        <ele>0.6200000</ele>
        <time>2018-07-08T11:40:05Z</time>
      </trkpt>
      <trkpt lat="44.7813260" lon="14.6563280">
        <ele>-0.8200000</ele>
        <time>2018-07-08T11:40:27Z</time>
      </trkpt>
      <trkpt lat="44.7808490" lon="14.6567540">
        <ele>-1.7900000</ele>
        <time>2018-07-08T11:40:48Z</time>
      </trkpt>
      <trkpt lat="44.7802770" lon="14.6572410">
        <ele>-1.7900000</ele>
        <time>2018-07-08T11:41:13Z</time>
      </trkpt>
      <trkpt lat="44.7795830" lon="14.6578290">
        <ele>-2.2700000</ele>
        <time>2018-07-08T11:41:43Z</time>
      </trkpt>
      <trkpt lat="44.7788540" lon="14.6584630">
        <ele>-1.7900000</ele>
        <time>2018-07-08T11:42:15Z</time>
      </trkpt>
      <trkpt lat="44.7781720" lon="14.6590550">
        <ele>-1.7900000</ele>
        <time>2018-07-08T11:42:45Z</time>
      </trkpt>
      <trkpt lat="44.7774960" lon="14.6597000">
        <ele>-1.7900000</ele>
        <time>2018-07-08T11:43:16Z</time>
      </trkpt>
      <trkpt lat="44.7768590" lon="14.6603980">
        <ele>-1.7900000</ele>
        <time>2018-07-08T11:43:46Z</time>
      </trkpt>
      <trkpt lat="44.7763020" lon="14.6610430">
        <ele>-1.7900000</ele>
        <time>2018-07-08T11:44:13Z</time>
      </trkpt>
      <trkpt lat="44.7757190" lon="14.6617690">
        <ele>-1.7900000</ele>
        <time>2018-07-08T11:44:42Z</time>
      </trkpt>
      <trkpt lat="44.7752490" lon="14.6623740">
        <ele>-1.7900000</ele>
        <time>2018-07-08T11:45:06Z</time>
      </trkpt>
      <trkpt lat="44.7747960" lon="14.6629640">
        <ele>-1.7900000</ele>
        <time>2018-07-08T11:45:30Z</time>
      </trkpt>
      <trkpt lat="44.7743150" lon="14.6635560">
        <ele>-1.7900000</ele>
        <time>2018-07-08T11:45:54Z</time>
      </trkpt>
      <trkpt lat="44.7738150" lon="14.6641450">
        <ele>-2.2700000</ele>
        <time>2018-07-08T11:46:18Z</time>
      </trkpt>
      <trkpt lat="44.7734150" lon="14.6647140">
        <ele>-2.2700000</ele>
        <time>2018-07-08T11:46:40Z</time>
      </trkpt>
      <trkpt lat="44.7729680" lon="14.6653400">
        <ele>-2.2700000</ele>
        <time>2018-07-08T11:47:04Z</time>
      </trkpt>
      <trkpt lat="44.7724300" lon="14.6660690">
        <ele>-1.7900000</ele>
        <time>2018-07-08T11:47:32Z</time>
      </trkpt>
      <trkpt lat="44.7719310" lon="14.6667950">
        <ele>-2.2700000</ele>
        <time>2018-07-08T11:48:00Z</time>
      </trkpt>
      <trkpt lat="44.7714730" lon="14.6675180">
        <ele>-1.7900000</ele>
        <time>2018-07-08T11:48:27Z</time>
      </trkpt>
      <trkpt lat="44.7710150" lon="14.6682520">
        <ele>-1.7900000</ele>
        <time>2018-07-08T11:48:54Z</time>
      </trkpt>
      <trkpt lat="44.7705040" lon="14.6690220">
        <ele>-1.7900000</ele>
        <time>2018-07-08T11:49:23Z</time>
      </trkpt>
      <trkpt lat="44.7700500" lon="14.6697450">
        <ele>-1.7900000</ele>
        <time>2018-07-08T11:49:50Z</time>
      </trkpt>
      <trkpt lat="44.7696230" lon="14.6703760">
        <ele>-1.7900000</ele>
        <time>2018-07-08T11:50:14Z</time>
      </trkpt>
      <trkpt lat="44.7692220" lon="14.6710540">
        <ele>-2.2700000</ele>
        <time>2018-07-08T11:50:39Z</time>
      </trkpt>
      <trkpt lat="44.7687680" lon="14.6718150">
        <ele>-1.7900000</ele>
        <time>2018-07-08T11:51:07Z</time>
      </trkpt>
      <trkpt lat="44.7683640" lon="14.6725000">
        <ele>-2.2700000</ele>
        <time>2018-07-08T11:51:32Z</time>
      </trkpt>
      <trkpt lat="44.7680210" lon="14.6730890">
        <ele>-2.2700000</ele>
        <time>2018-07-08T11:51:53Z</time>
      </trkpt>
      <trkpt lat="44.7676810" lon="14.6736820">
        <ele>-1.7900000</ele>
        <time>2018-07-08T11:52:14Z</time>
      </trkpt>
      <trkpt lat="44.7673530" lon="14.6741060">
        <ele>-2.2700000</ele>
        <time>2018-07-08T11:52:32Z</time>
      </trkpt>
      <trkpt lat="44.7668690" lon="14.6745680">
        <ele>-1.3000000</ele>
        <time>2018-07-08T11:52:55Z</time>
      </trkpt>
      <trkpt lat="44.7662810" lon="14.6751140">
        <ele>-1.7900000</ele>
        <time>2018-07-08T11:53:23Z</time>
      </trkpt>
      <trkpt lat="44.7657590" lon="14.6757450">
        <ele>-1.7900000</ele>
        <time>2018-07-08T11:53:51Z</time>
      </trkpt>
      <trkpt lat="44.7654150" lon="14.6763310">
        <ele>-1.7900000</ele>
        <time>2018-07-08T11:54:14Z</time>
      </trkpt>
      <trkpt lat="44.7651020" lon="14.6770050">
        <ele>-1.7900000</ele>
        <time>2018-07-08T11:54:37Z</time>
      </trkpt>
      <trkpt lat="44.7647510" lon="14.6777400">
        <ele>-2.2700000</ele>
        <time>2018-07-08T11:55:02Z</time>
      </trkpt>
      <trkpt lat="44.7643970" lon="14.6785080">
        <ele>-2.2700000</ele>
        <time>2018-07-08T11:55:28Z</time>
      </trkpt>
      <trkpt lat="44.7640270" lon="14.6793100">
        <ele>-1.3000000</ele>
        <time>2018-07-08T11:55:55Z</time>
      </trkpt>
      <trkpt lat="44.7636110" lon="14.6800270">
        <ele>-1.7900000</ele>
        <time>2018-07-08T11:56:21Z</time>
      </trkpt>
      <trkpt lat="44.7632060" lon="14.6806850">
        <ele>-1.7900000</ele>
        <time>2018-07-08T11:56:45Z</time>
      </trkpt>
      <trkpt lat="44.7627300" lon="14.6814570">
        <ele>-1.7900000</ele>
        <time>2018-07-08T11:57:14Z</time>
      </trkpt>
      <trkpt lat="44.7623790" lon="14.6819600">
        <ele>-1.7900000</ele>
        <time>2018-07-08T11:57:34Z</time>
      </trkpt>
      <trkpt lat="44.7618600" lon="14.6827530">
        <ele>-1.3000000</ele>
        <time>2018-07-08T11:58:05Z</time>
      </trkpt>
      <trkpt lat="44.7614590" lon="14.6834710">
        <ele>-1.7900000</ele>
        <time>2018-07-08T11:58:31Z</time>
      </trkpt>
      <trkpt lat="44.7610470" lon="14.6843200">
        <ele>-1.7900000</ele>
        <time>2018-07-08T11:59:00Z</time>
      </trkpt>
      <trkpt lat="44.7606280" lon="14.6851690">
        <ele>-1.3000000</ele>
        <time>2018-07-08T11:59:30Z</time>
      </trkpt>
      <trkpt lat="44.7602010" lon="14.6860430">
        <ele>-1.7900000</ele>
        <time>2018-07-08T12:00:00Z</time>
      </trkpt>
      <trkpt lat="44.7598040" lon="14.6868450">
        <ele>-1.3000000</ele>
        <time>2018-07-08T12:00:28Z</time>
      </trkpt>
      <trkpt lat="44.7593570" lon="14.6876620">
        <ele>-1.3000000</ele>
        <time>2018-07-08T12:00:57Z</time>
      </trkpt>
      <trkpt lat="44.7589530" lon="14.6884560">
        <ele>-1.3000000</ele>
        <time>2018-07-08T12:01:25Z</time>
      </trkpt>
      <trkpt lat="44.7585750" lon="14.6892530">
        <ele>-1.3000000</ele>
        <time>2018-07-08T12:01:52Z</time>
      </trkpt>
      <trkpt lat="44.7581140" lon="14.6901550">
        <ele>-0.3400000</ele>
        <time>2018-07-08T12:02:24Z</time>
      </trkpt>
      <trkpt lat="44.7576680" lon="14.6909690">
        <ele>-0.8200000</ele>
        <time>2018-07-08T12:02:54Z</time>
      </trkpt>
      <trkpt lat="44.7571720" lon="14.6918990">
        <ele>-0.8200000</ele>
        <time>2018-07-08T12:03:27Z</time>
      </trkpt>
      <trkpt lat="44.7567980" lon="14.6926640">
        <ele>-0.8200000</ele>
        <time>2018-07-08T12:03:54Z</time>
      </trkpt>
      <trkpt lat="44.7563670" lon="14.6935350">
        <ele>-0.8200000</ele>
        <time>2018-07-08T12:04:25Z</time>
      </trkpt>
      <trkpt lat="44.7559050" lon="14.6942800">
        <ele>-0.8200000</ele>
        <time>2018-07-08T12:04:54Z</time>
      </trkpt>
      <trkpt lat="44.7554090" lon="14.6950730">
        <ele>-0.8200000</ele>
        <time>2018-07-08T12:05:25Z</time>
      </trkpt>
      <trkpt lat="44.7550130" lon="14.6957390">
        <ele>-0.8200000</ele>
        <time>2018-07-08T12:05:51Z</time>
      </trkpt>
      <trkpt lat="44.7545240" lon="14.6964940">
        <ele>-0.8200000</ele>
        <time>2018-07-08T12:06:21Z</time>
      </trkpt>
      <trkpt lat="44.7541770" lon="14.6972190">
        <ele>-0.8200000</ele>
        <time>2018-07-08T12:06:46Z</time>
      </trkpt>
      <trkpt lat="44.7538380" lon="14.6982070">
        <ele>-0.8200000</ele>
        <time>2018-07-08T12:07:19Z</time>
      </trkpt>
      <trkpt lat="44.7535320" lon="14.6990240">
        <ele>-1.3000000</ele>
        <time>2018-07-08T12:07:46Z</time>
      </trkpt>
      <trkpt lat="44.7532080" lon="14.6998280">
        <ele>-1.3000000</ele>
        <time>2018-07-08T12:08:14Z</time>
      </trkpt>
      <trkpt lat="44.7529070" lon="14.7005260">
        <ele>-0.8200000</ele>
        <time>2018-07-08T12:08:41Z</time>
      </trkpt>
      <trkpt lat="44.7526780" lon="14.7012200">
        <ele>-0.8200000</ele>
        <time>2018-07-08T12:09:07Z</time>
      </trkpt>
      <trkpt lat="44.7524410" lon="14.7019970">
        <ele>-0.8200000</ele>
        <time>2018-07-08T12:09:35Z</time>
      </trkpt>
      <trkpt lat="44.7522890" lon="14.7028110">
        <ele>-0.3400000</ele>
        <time>2018-07-08T12:10:04Z</time>
      </trkpt>
      <trkpt lat="44.7521670" lon="14.7034580">
        <ele>-0.8200000</ele>
        <time>2018-07-08T12:10:26Z</time>
      </trkpt>
      <trkpt lat="44.7520330" lon="14.7041400">
        <ele>-0.8200000</ele>
        <time>2018-07-08T12:10:50Z</time>
      </trkpt>
      <trkpt lat="44.7518730" lon="14.7048230">
        <ele>-0.8200000</ele>
        <time>2018-07-08T12:11:14Z</time>
      </trkpt>
      <trkpt lat="44.7517430" lon="14.7054510">
        <ele>-1.3000000</ele>
        <time>2018-07-08T12:11:36Z</time>
      </trkpt>
      <trkpt lat="44.7515640" lon="14.7062860">
        <ele>-1.7900000</ele>
        <time>2018-07-08T12:12:05Z</time>
      </trkpt>
      <trkpt lat="44.7514340" lon="14.7069560">
        <ele>-1.7900000</ele>
        <time>2018-07-08T12:12:28Z</time>
      </trkpt>
      <trkpt lat="44.7513160" lon="14.7075410">
        <ele>-1.3000000</ele>
        <time>2018-07-08T12:12:48Z</time>
      </trkpt>
      <trkpt lat="44.7511830" lon="14.7081720">
        <ele>-1.7900000</ele>
        <time>2018-07-08T12:13:10Z</time>
      </trkpt>
      <trkpt lat="44.7510570" lon="14.7088780">
        <ele>-1.3000000</ele>
        <time>2018-07-08T12:13:34Z</time>
      </trkpt>
      <trkpt lat="44.7509610" lon="14.7095270">
        <ele>-1.3000000</ele>
        <time>2018-07-08T12:13:56Z</time>
      </trkpt>
      <trkpt lat="44.7508770" lon="14.7100440">
        <ele>-1.3000000</ele>
        <time>2018-07-08T12:14:17Z</time>
      </trkpt>
      <trkpt lat="44.7508350" lon="14.7103950">
        <ele>-1.3000000</ele>
        <time>2018-07-08T12:14:38Z</time>
      </trkpt>
      <trkpt lat="44.7507900" lon="14.7107610">
        <ele>-0.8200000</ele>
        <time>2018-07-08T12:15:04Z</time>
      </trkpt>
      <trkpt lat="44.7507630" lon="14.7110570">
        <ele>-0.8200000</ele>
        <time>2018-07-08T12:15:34Z</time>
      </trkpt>
      <trkpt lat="44.7507400" lon="14.7112610">
        <ele>-0.8200000</ele>
        <time>2018-07-08T12:15:56Z</time>
      </trkpt>
      <trkpt lat="44.7507060" lon="14.7114700">
        <ele>-0.8200000</ele>
        <time>2018-07-08T12:16:20Z</time>
      </trkpt>
      <trkpt lat="44.7506900" lon="14.7116830">
        <ele>-0.3400000</ele>
        <time>2018-07-08T12:16:47Z</time>
      </trkpt>
      <trkpt lat="44.7507550" lon="14.7119700">
        <ele>-0.8200000</ele>
        <time>2018-07-08T12:17:14Z</time>
      </trkpt>
      <trkpt lat="44.7508350" lon="14.7121390">
        <ele>-0.3400000</ele>
        <time>2018-07-08T12:17:36Z</time>
      </trkpt>
      <trkpt lat="44.7509310" lon="14.7122960">
        <ele>0.1400000</ele>
        <time>2018-07-08T12:17:58Z</time>
      </trkpt>
      <trkpt lat="44.7510300" lon="14.7124500">
        <ele>-0.3400000</ele>
        <time>2018-07-08T12:18:29Z</time>
      </trkpt>
      <trkpt lat="44.7509460" lon="14.7126170">
        <ele>-0.8200000</ele>
        <time>2018-07-08T12:18:51Z</time>
      </trkpt>
      <trkpt lat="44.7508960" lon="14.7126740">
        <ele>-0.8200000</ele>
        <time>2018-07-08T12:18:58Z</time>
      </trkpt>
      <trkpt lat="44.7506070" lon="14.7129360">
        <ele>-0.8200000</ele>
        <time>2018-07-08T12:19:28Z</time>
      </trkpt>
      <trkpt lat="44.7503320" lon="14.7131350">
        <ele>-0.8200000</ele>
        <time>2018-07-08T12:19:55Z</time>
      </trkpt>
      <trkpt lat="44.7500460" lon="14.7133760">
        <ele>-0.3400000</ele>
        <time>2018-07-08T12:20:23Z</time>
      </trkpt>
      <trkpt lat="44.7497830" lon="14.7135940">
        <ele>-0.3400000</ele>
        <time>2018-07-08T12:20:49Z</time>
      </trkpt>
      <trkpt lat="44.7494740" lon="14.7138940">
        <ele>-0.8200000</ele>
        <time>2018-07-08T12:21:19Z</time>
      </trkpt>
      <trkpt lat="44.7492070" lon="14.7140400">
        <ele>-0.8200000</ele>
        <time>2018-07-08T12:21:44Z</time>
      </trkpt>
      <trkpt lat="44.7489590" lon="14.7141730">
        <ele>-0.3400000</ele>
        <time>2018-07-08T12:22:12Z</time>
      </trkpt>
      <trkpt lat="44.7487680" lon="14.7142810">
        <ele>-0.3400000</ele>
        <time>2018-07-08T12:22:38Z</time>
      </trkpt>
      <trkpt lat="44.7485920" lon="14.7143690">
        <ele>-0.3400000</ele>
        <time>2018-07-08T12:23:04Z</time>
      </trkpt>
      <trkpt lat="44.7484130" lon="14.7144160">
        <ele>-0.8200000</ele>
        <time>2018-07-08T12:23:29Z</time>
      </trkpt>
      <trkpt lat="44.7482490" lon="14.7144780">
        <ele>-0.3400000</ele>
        <time>2018-07-08T12:23:53Z</time>
      </trkpt>
      <trkpt lat="44.7480700" lon="14.7145740">
        <ele>-0.3400000</ele>
        <time>2018-07-08T12:24:18Z</time>
      </trkpt>
      <trkpt lat="44.7478870" lon="14.7146770">
        <ele>-0.3400000</ele>
        <time>2018-07-08T12:24:43Z</time>
      </trkpt>
      <trkpt lat="44.7476690" lon="14.7147940">
        <ele>-0.3400000</ele>
        <time>2018-07-08T12:25:12Z</time>
      </trkpt>
      <trkpt lat="44.7475360" lon="14.7149320">
        <ele>-0.3400000</ele>
        <time>2018-07-08T12:25:34Z</time>
      </trkpt>
      <trkpt lat="44.7473340" lon="14.7150610">
        <ele>-0.8200000</ele>
        <time>2018-07-08T12:26:01Z</time>
      </trkpt>
      <trkpt lat="44.7471690" lon="14.7151980">
        <ele>-0.3400000</ele>
        <time>2018-07-08T12:26:27Z</time>
      </trkpt>
      <trkpt lat="44.7470360" lon="14.7154570">
        <ele>-0.3400000</ele>
        <time>2018-07-08T12:26:56Z</time>
      </trkpt>
      <trkpt lat="44.7469790" lon="14.7157610">
        <ele>-0.3400000</ele>
        <time>2018-07-08T12:27:25Z</time>
      </trkpt>
      <trkpt lat="44.7469410" lon="14.7160700">
        <ele>-0.3400000</ele>
        <time>2018-07-08T12:27:55Z</time>
      </trkpt>
      <trkpt lat="44.7469020" lon="14.7163090">
        <ele>0.1400000</ele>
        <time>2018-07-08T12:28:22Z</time>
      </trkpt>
      <trkpt lat="44.7468640" lon="14.7166450">
        <ele>0.1400000</ele>
        <time>2018-07-08T12:28:51Z</time>
      </trkpt>
      <trkpt lat="44.7468150" lon="14.7169080">
        <ele>-0.3400000</ele>
        <time>2018-07-08T12:29:18Z</time>
      </trkpt>
      <trkpt lat="44.7467840" lon="14.7170970">
        <ele>-0.8200000</ele>
        <time>2018-07-08T12:29:45Z</time>
      </trkpt>
      <trkpt lat="44.7467840" lon="14.7170970">
        <ele>-0.3400000</ele>
        <time>2018-07-08T12:30:11Z</time>
      </trkpt>
      <trkpt lat="44.7467800" lon="14.7171040">
        <ele>-0.8200000</ele>
        <time>2018-07-08T12:30:40Z</time>
      </trkpt>
      <trkpt lat="44.7467730" lon="14.7171340">
        <ele>-0.3400000</ele>
        <time>2018-07-08T12:31:05Z</time>
      </trkpt>
      <trkpt lat="44.7467690" lon="14.7171500">
        <ele>-0.8200000</ele>
        <time>2018-07-08T12:31:32Z</time>
      </trkpt>
      <trkpt lat="44.7467420" lon="14.7173750">
        <ele>-0.3400000</ele>
        <time>2018-07-08T12:31:55Z</time>
      </trkpt>
      <trkpt lat="44.7467610" lon="14.7175940">
        <ele>-0.8200000</ele>
        <time>2018-07-08T12:32:20Z</time>
      </trkpt>
      <trkpt lat="44.7467120" lon="14.7177760">
        <ele>-0.8200000</ele>
        <time>2018-07-08T12:32:48Z</time>
      </trkpt>
      <trkpt lat="44.7467040" lon="14.7179500">
        <ele>-0.3400000</ele>
        <time>2018-07-08T12:33:15Z</time>
      </trkpt>
      <trkpt lat="44.7466700" lon="14.7181240">
        <ele>-0.3400000</ele>
        <time>2018-07-08T12:33:31Z</time>
      </trkpt>
      <trkpt lat="44.7465930" lon="14.7185180">
        <ele>-0.8200000</ele>
        <time>2018-07-08T12:33:57Z</time>
      </trkpt>
      <trkpt lat="44.7465290" lon="14.7189680">
        <ele>-0.3400000</ele>
        <time>2018-07-08T12:34:22Z</time>
      </trkpt>
      <trkpt lat="44.7464750" lon="14.7196020">
        <ele>-1.3000000</ele>
        <time>2018-07-08T12:34:48Z</time>
      </trkpt>
      <trkpt lat="44.7464370" lon="14.7202390">
        <ele>-0.8200000</ele>
        <time>2018-07-08T12:35:13Z</time>
      </trkpt>
      <trkpt lat="44.7463720" lon="14.7209550">
        <ele>-1.3000000</ele>
        <time>2018-07-08T12:35:41Z</time>
      </trkpt>
      <trkpt lat="44.7462770" lon="14.7215830">
        <ele>-0.8200000</ele>
        <time>2018-07-08T12:36:07Z</time>
      </trkpt>
      <trkpt lat="44.7462160" lon="14.7223280">
        <ele>-0.8200000</ele>
        <time>2018-07-08T12:36:35Z</time>
      </trkpt>
      <trkpt lat="44.7461050" lon="14.7230270">
        <ele>-1.3000000</ele>
        <time>2018-07-08T12:37:02Z</time>
      </trkpt>
      <trkpt lat="44.7460400" lon="14.7238310">
        <ele>-1.7900000</ele>
        <time>2018-07-08T12:37:31Z</time>
      </trkpt>
      <trkpt lat="44.7459750" lon="14.7245580">
        <ele>-1.7900000</ele>
        <time>2018-07-08T12:37:58Z</time>
      </trkpt>
      <trkpt lat="44.7458880" lon="14.7252380">
        <ele>-1.3000000</ele>
        <time>2018-07-08T12:38:25Z</time>
      </trkpt>
      <trkpt lat="44.7458310" lon="14.7261180">
        <ele>-1.3000000</ele>
        <time>2018-07-08T12:38:58Z</time>
      </trkpt>
      <trkpt lat="44.7457920" lon="14.7268530">
        <ele>-1.7900000</ele>
        <time>2018-07-08T12:39:26Z</time>
      </trkpt>
      <trkpt lat="44.7457470" lon="14.7276760">
        <ele>-1.3000000</ele>
        <time>2018-07-08T12:39:57Z</time>
      </trkpt>
      <trkpt lat="44.7457120" lon="14.7284810">
        <ele>-0.8200000</ele>
        <time>2018-07-08T12:40:27Z</time>
      </trkpt>
      <trkpt lat="44.7456970" lon="14.7293660">
        <ele>-0.8200000</ele>
        <time>2018-07-08T12:41:00Z</time>
      </trkpt>
      <trkpt lat="44.7456630" lon="14.7301690">
        <ele>-0.8200000</ele>
        <time>2018-07-08T12:41:30Z</time>
      </trkpt>
      <trkpt lat="44.7456280" lon="14.7309420">
        <ele>-0.3400000</ele>
        <time>2018-07-08T12:42:00Z</time>
      </trkpt>
      <trkpt lat="44.7455830" lon="14.7316300">
        <ele>-0.3400000</ele>
        <time>2018-07-08T12:42:27Z</time>
      </trkpt>
      <trkpt lat="44.7455410" lon="14.7324330">
        <ele>-0.3400000</ele>
        <time>2018-07-08T12:42:55Z</time>
      </trkpt>
      <trkpt lat="44.7455140" lon="14.7331540">
        <ele>-0.3400000</ele>
        <time>2018-07-08T12:43:22Z</time>
      </trkpt>
      <trkpt lat="44.7454720" lon="14.7339110">
        <ele>-0.3400000</ele>
        <time>2018-07-08T12:43:51Z</time>
      </trkpt>
      <trkpt lat="44.7454410" lon="14.7346180">
        <ele>-0.3400000</ele>
        <time>2018-07-08T12:44:18Z</time>
      </trkpt>
      <trkpt lat="44.7454110" lon="14.7352930">
        <ele>0.1400000</ele>
        <time>2018-07-08T12:44:44Z</time>
      </trkpt>
      <trkpt lat="44.7454030" lon="14.7359210">
        <ele>-0.3400000</ele>
        <time>2018-07-08T12:45:09Z</time>
      </trkpt>
      <trkpt lat="44.7453880" lon="14.7365600">
        <ele>-0.3400000</ele>
        <time>2018-07-08T12:45:33Z</time>
      </trkpt>
      <trkpt lat="44.7453800" lon="14.7371680">
        <ele>-0.3400000</ele>
        <time>2018-07-08T12:45:54Z</time>
      </trkpt>
      <trkpt lat="44.7453420" lon="14.7378330">
        <ele>-0.3400000</ele>
        <time>2018-07-08T12:46:19Z</time>
      </trkpt>
      <trkpt lat="44.7452960" lon="14.7383810">
        <ele>-0.3400000</ele>
        <time>2018-07-08T12:46:40Z</time>
      </trkpt>
      <trkpt lat="44.7452770" lon="14.7391010">
        <ele>0.1400000</ele>
        <time>2018-07-08T12:47:07Z</time>
      </trkpt>
      <trkpt lat="44.7452770" lon="14.7398200">
        <ele>0.6200000</ele>
        <time>2018-07-08T12:47:34Z</time>
      </trkpt>
      <trkpt lat="44.7452740" lon="14.7403880">
        <ele>0.1400000</ele>
        <time>2018-07-08T12:47:55Z</time>
      </trkpt>
      <trkpt lat="44.7452700" lon="14.7412550">
        <ele>0.6200000</ele>
        <time>2018-07-08T12:48:27Z</time>
      </trkpt>
      <trkpt lat="44.7452770" lon="14.7419460">
        <ele>0.1400000</ele>
        <time>2018-07-08T12:48:52Z</time>
      </trkpt>
      <trkpt lat="44.7452810" lon="14.7426740">
        <ele>0.6200000</ele>
        <time>2018-07-08T12:49:19Z</time>
      </trkpt>
      <trkpt lat="44.7452770" lon="14.7433340">
        <ele>0.6200000</ele>
        <time>2018-07-08T12:49:43Z</time>
      </trkpt>
      <trkpt lat="44.7452810" lon="14.7441060">
        <ele>1.1000000</ele>
        <time>2018-07-08T12:50:11Z</time>
      </trkpt>
      <trkpt lat="44.7452930" lon="14.7448210">
        <ele>0.6200000</ele>
        <time>2018-07-08T12:50:38Z</time>
      </trkpt>
      <trkpt lat="44.7453990" lon="14.7454510">
        <ele>1.1000000</ele>
        <time>2018-07-08T12:51:02Z</time>
      </trkpt>
      <trkpt lat="44.7455750" lon="14.7461030">
        <ele>0.6200000</ele>
        <time>2018-07-08T12:51:28Z</time>
      </trkpt>
      <trkpt lat="44.7457770" lon="14.7466780">
        <ele>0.6200000</ele>
        <time>2018-07-08T12:51:52Z</time>
      </trkpt>
      <trkpt lat="44.7459980" lon="14.7473020">
        <ele>0.6200000</ele>
        <time>2018-07-08T12:52:18Z</time>
      </trkpt>
      <trkpt lat="44.7462430" lon="14.7479310">
        <ele>0.6200000</ele>
        <time>2018-07-08T12:52:44Z</time>
      </trkpt>
      <trkpt lat="44.7464600" lon="14.7485050">
        <ele>0.1400000</ele>
        <time>2018-07-08T12:53:09Z</time>
      </trkpt>
      <trkpt lat="44.7466930" lon="14.7491390">
        <ele>0.6200000</ele>
        <time>2018-07-08T12:53:36Z</time>
      </trkpt>
      <trkpt lat="44.7468990" lon="14.7497380">
        <ele>1.1000000</ele>
        <time>2018-07-08T12:54:00Z</time>
      </trkpt>
      <trkpt lat="44.7471390" lon="14.7505460">
        <ele>0.6200000</ele>
        <time>2018-07-08T12:54:33Z</time>
      </trkpt>
      <trkpt lat="44.7473790" lon="14.7512190">
        <ele>0.6200000</ele>
        <time>2018-07-08T12:54:59Z</time>
      </trkpt>
      <trkpt lat="44.7476010" lon="14.7517880">
        <ele>0.6200000</ele>
        <time>2018-07-08T12:55:23Z</time>
      </trkpt>
      <trkpt lat="44.7478680" lon="14.7524960">
        <ele>0.6200000</ele>
        <time>2018-07-08T12:55:53Z</time>
      </trkpt>
      <trkpt lat="44.7481000" lon="14.7530500">
        <ele>0.6200000</ele>
        <time>2018-07-08T12:56:18Z</time>
      </trkpt>
      <trkpt lat="44.7483410" lon="14.7536660">
        <ele>0.6200000</ele>
        <time>2018-07-08T12:56:44Z</time>
      </trkpt>
      <trkpt lat="44.7485920" lon="14.7543590">
        <ele>0.6200000</ele>
        <time>2018-07-08T12:57:11Z</time>
      </trkpt>
      <trkpt lat="44.7488100" lon="14.7550610">
        <ele>0.6200000</ele>
        <time>2018-07-08T12:57:39Z</time>
      </trkpt>
      <trkpt lat="44.7490500" lon="14.7557300">
        <ele>0.1400000</ele>
        <time>2018-07-08T12:58:08Z</time>
      </trkpt>
      <trkpt lat="44.7493020" lon="14.7563790">
        <ele>0.6200000</ele>
        <time>2018-07-08T12:58:35Z</time>
      </trkpt>
      <trkpt lat="44.7494890" lon="14.7570810">
        <ele>0.1400000</ele>
        <time>2018-07-08T12:59:03Z</time>
      </trkpt>
      <trkpt lat="44.7496530" lon="14.7578070">
        <ele>1.1000000</ele>
        <time>2018-07-08T12:59:31Z</time>
      </trkpt>
      <trkpt lat="44.7498550" lon="14.7584470">
        <ele>1.1000000</ele>
        <time>2018-07-08T12:59:57Z</time>
      </trkpt>
      <trkpt lat="44.7500150" lon="14.7590200">
        <ele>0.6200000</ele>
        <time>2018-07-08T13:00:20Z</time>
      </trkpt>
      <trkpt lat="44.7502170" lon="14.7596330">
        <ele>1.1000000</ele>
        <time>2018-07-08T13:00:45Z</time>
      </trkpt>
      <trkpt lat="44.7504430" lon="14.7602670">
        <ele>1.1000000</ele>
        <time>2018-07-08T13:01:11Z</time>
      </trkpt>
      <trkpt lat="44.7506680" lon="14.7608290">
        <ele>1.1000000</ele>
        <time>2018-07-08T13:01:34Z</time>
      </trkpt>
      <trkpt lat="44.7509310" lon="14.7614170">
        <ele>1.5800000</ele>
        <time>2018-07-08T13:02:01Z</time>
      </trkpt>
      <trkpt lat="44.7511520" lon="14.7619260">
        <ele>1.5800000</ele>
        <time>2018-07-08T13:02:29Z</time>
      </trkpt>
      <trkpt lat="44.7514340" lon="14.7624080">
        <ele>1.1000000</ele>
        <time>2018-07-08T13:02:59Z</time>
      </trkpt>
      <trkpt lat="44.7516670" lon="14.7628200">
        <ele>1.5800000</ele>
        <time>2018-07-08T13:03:28Z</time>
      </trkpt>
      <trkpt lat="44.7519150" lon="14.7631860">
        <ele>1.5800000</ele>
        <time>2018-07-08T13:03:55Z</time>
      </trkpt>
      <trkpt lat="44.7522200" lon="14.7635650">
        <ele>1.5800000</ele>
        <time>2018-07-08T13:04:26Z</time>
      </trkpt>
      <trkpt lat="44.7525410" lon="14.7638420">
        <ele>1.5800000</ele>
        <time>2018-07-08T13:04:57Z</time>
      </trkpt>
      <trkpt lat="44.7528650" lon="14.7640500">
        <ele>1.1000000</ele>
        <time>2018-07-08T13:05:24Z</time>
      </trkpt>
      <trkpt lat="44.7531890" lon="14.7640870">
        <ele>1.1000000</ele>
        <time>2018-07-08T13:05:54Z</time>
      </trkpt>
      <trkpt lat="44.7535290" lon="14.7639220">
        <ele>0.6200000</ele>
        <time>2018-07-08T13:06:26Z</time>
      </trkpt>
      <trkpt lat="44.7538680" lon="14.7637530">
        <ele>0.6200000</ele>
        <time>2018-07-08T13:06:58Z</time>
      </trkpt>
      <trkpt lat="44.7542110" lon="14.7635770">
        <ele>0.6200000</ele>
        <time>2018-07-08T13:07:29Z</time>
      </trkpt>
      <trkpt lat="44.7545590" lon="14.7633920">
        <ele>0.6200000</ele>
        <time>2018-07-08T13:07:59Z</time>
      </trkpt>
      <trkpt lat="44.7549590" lon="14.7631700">
        <ele>1.1000000</ele>
        <time>2018-07-08T13:08:32Z</time>
      </trkpt>
      <trkpt lat="44.7553480" lon="14.7629420">
        <ele>1.1000000</ele>
        <time>2018-07-08T13:09:03Z</time>
      </trkpt>
      <trkpt lat="44.7556800" lon="14.7628130">
        <ele>1.1000000</ele>
        <time>2018-07-08T13:09:33Z</time>
      </trkpt>
      <trkpt lat="44.7559430" lon="14.7627450">
        <ele>1.5800000</ele>
        <time>2018-07-08T13:10:07Z</time>
      </trkpt>
      <trkpt lat="44.7562410" lon="14.7626160">
        <ele>1.5800000</ele>
        <time>2018-07-08T13:10:37Z</time>
      </trkpt>
      <trkpt lat="44.7564050" lon="14.7626500">
        <ele>2.0600000</ele>
        <time>2018-07-08T13:10:54Z</time>
      </trkpt>
      <trkpt lat="44.7566110" lon="14.7629370">
        <ele>2.0600000</ele>
        <time>2018-07-08T13:11:26Z</time>
      </trkpt>
      <trkpt lat="44.7566720" lon="14.7632360">
        <ele>1.5800000</ele>
        <time>2018-07-08T13:12:00Z</time>
      </trkpt>
      <trkpt lat="44.7566950" lon="14.7631750">
        <ele>2.0600000</ele>
        <time>2018-07-08T13:12:24Z</time>
      </trkpt>
      <trkpt lat="44.7567980" lon="14.7630840">
        <ele>2.0600000</ele>
        <time>2018-07-08T13:12:58Z</time>
      </trkpt>
      <trkpt lat="44.7568020" lon="14.7630810">
        <ele>2.0600000</ele>
        <time>2018-07-08T13:13:27Z</time>
      </trkpt>
      <trkpt lat="44.7568020" lon="14.7630810">
        <ele>2.0600000</ele>
        <time>2018-07-08T13:13:55Z</time>
      </trkpt>
      <trkpt lat="44.7568050" lon="14.7630770">
        <ele>1.5800000</ele>
        <time>2018-07-08T13:14:24Z</time>
      </trkpt>
      <trkpt lat="44.7568050" lon="14.7630770">
        <ele>2.5400000</ele>
        <time>2018-07-08T13:14:56Z</time>
      </trkpt>
      <trkpt lat="44.7568050" lon="14.7630790">
        <ele>2.0600000</ele>
        <time>2018-07-08T13:15:26Z</time>
      </trkpt>
      <trkpt lat="44.7568050" lon="14.7630790">
        <ele>2.5400000</ele>
        <time>2018-07-08T13:15:56Z</time>
      </trkpt>
      <trkpt lat="44.7568050" lon="14.7630890">
        <ele>2.0600000</ele>
        <time>2018-07-08T13:16:33Z</time>
      </trkpt>
      <trkpt lat="44.7568050" lon="14.7630910">
        <ele>2.5400000</ele>
        <time>2018-07-08T13:17:05Z</time>
      </trkpt>
      <trkpt lat="44.7568130" lon="14.7630950">
        <ele>2.5400000</ele>
        <time>2018-07-08T13:17:26Z</time>
      </trkpt>
      <trkpt lat="44.7568130" lon="14.7630950">
        <ele>2.5400000</ele>
        <time>2018-07-08T13:17:51Z</time>
      </trkpt>
      <trkpt lat="44.7568170" lon="14.7631000">
        <ele>3.0200000</ele>
        <time>2018-07-08T13:18:13Z</time>
      </trkpt>
      <trkpt lat="44.7568170" lon="14.7631000">
        <ele>3.5000000</ele>
        <time>2018-07-08T13:18:24Z</time>
      </trkpt>
      <trkpt lat="44.7568240" lon="14.7631150">
        <ele>3.5000000</ele>
        <time>2018-07-08T13:18:44Z</time>
      </trkpt>
      <trkpt lat="44.7568210" lon="14.7631180">
        <ele>3.5000000</ele>
        <time>2018-07-08T13:18:56Z</time>
      </trkpt>
      <trkpt lat="44.7568130" lon="14.7631170">
        <ele>3.9800000</ele>
        <time>2018-07-08T13:19:09Z</time>
      </trkpt>
      <trkpt lat="44.7568240" lon="14.7631020">
        <ele>3.5000000</ele>
        <time>2018-07-08T13:19:28Z</time>
      </trkpt>
      <trkpt lat="44.7568280" lon="14.7631080">
        <ele>3.0200000</ele>
        <time>2018-07-08T13:19:48Z</time>
      </trkpt>
      <trkpt lat="44.7568280" lon="14.7631080">
        <ele>3.0200000</ele>
        <time>2018-07-08T13:20:20Z</time>
      </trkpt>
      <trkpt lat="44.7568280" lon="14.7631040">
        <ele>3.0200000</ele>
        <time>2018-07-08T13:20:52Z</time>
      </trkpt>
      <trkpt lat="44.7568320" lon="14.7631020">
        <ele>3.0200000</ele>
        <time>2018-07-08T13:21:24Z</time>
      </trkpt>
      <trkpt lat="44.7568320" lon="14.7631020">
        <ele>3.5000000</ele>
        <time>2018-07-08T13:21:50Z</time>
      </trkpt>
      <trkpt lat="44.7568320" lon="14.7631020">
        <ele>3.0200000</ele>
        <time>2018-07-08T13:22:24Z</time>
      </trkpt>
      <trkpt lat="44.7568360" lon="14.7631000">
        <ele>3.5000000</ele>
        <time>2018-07-08T13:22:52Z</time>
      </trkpt>
      <trkpt lat="44.7568320" lon="14.7630980">
        <ele>3.0200000</ele>
        <time>2018-07-08T13:23:23Z</time>
      </trkpt>
      <trkpt lat="44.7568320" lon="14.7630970">
        <ele>3.0200000</ele>
        <time>2018-07-08T13:23:54Z</time>
      </trkpt>
      <trkpt lat="44.7568320" lon="14.7630970">
        <ele>3.5000000</ele>
        <time>2018-07-08T13:24:18Z</time>
      </trkpt>
      <trkpt lat="44.7568320" lon="14.7630960">
        <ele>3.9800000</ele>
        <time>2018-07-08T13:24:48Z</time>
      </trkpt>
      <trkpt lat="44.7568280" lon="14.7630950">
        <ele>3.0200000</ele>
        <time>2018-07-08T13:25:11Z</time>
      </trkpt>
      <trkpt lat="44.7568280" lon="14.7630950">
        <ele>3.5000000</ele>
        <time>2018-07-08T13:25:44Z</time>
      </trkpt>
      <trkpt lat="44.7568320" lon="14.7630910">
        <ele>3.5000000</ele>
        <time>2018-07-08T13:26:03Z</time>
      </trkpt>
      <trkpt lat="44.7568320" lon="14.7630910">
        <ele>4.4600000</ele>
        <time>2018-07-08T13:26:37Z</time>
      </trkpt>
      <trkpt lat="44.7568320" lon="14.7630920">
        <ele>4.4600000</ele>
        <time>2018-07-08T13:27:10Z</time>
      </trkpt>
      <trkpt lat="44.7568360" lon="14.7631000">
        <ele>3.9800000</ele>
        <time>2018-07-08T13:27:38Z</time>
      </trkpt>
      <trkpt lat="44.7568360" lon="14.7631000">
        <ele>3.9800000</ele>
        <time>2018-07-08T13:27:57Z</time>
      </trkpt>
      <trkpt lat="44.7569390" lon="14.7630600">
        <ele>4.4600000</ele>
        <time>2018-07-08T15:13:20Z</time>
      </trkpt>
      <trkpt lat="44.7568660" lon="14.7631390">
        <ele>4.9400000</ele>
        <time>2018-07-08T15:14:01Z</time>
      </trkpt>
      <trkpt lat="44.7568700" lon="14.7631380">
        <ele>6.3900000</ele>
        <time>2018-07-08T15:14:05Z</time>
      </trkpt>
      <trkpt lat="44.7568470" lon="14.7631440">
        <ele>5.4200000</ele>
        <time>2018-07-08T15:14:28Z</time>
      </trkpt>
      <trkpt lat="44.7568210" lon="14.7631490">
        <ele>6.3900000</ele>
        <time>2018-07-08T15:23:48Z</time>
      </trkpt>
      <trkpt lat="44.7568550" lon="14.7631300">
        <ele>4.9400000</ele>
        <time>2018-07-08T15:23:56Z</time>
      </trkpt>
      <trkpt lat="44.7568630" lon="14.7631320">
        <ele>6.3900000</ele>
        <time>2018-07-08T15:24:05Z</time>
      </trkpt>
      <trkpt lat="44.7568630" lon="14.7631310">
        <ele>3.9800000</ele>
        <time>2018-07-08T15:24:09Z</time>
      </trkpt>
      <trkpt lat="44.7568590" lon="14.7631320">
        <ele>7.3500000</ele>
        <time>2018-07-08T15:24:18Z</time>
      </trkpt>
    </trkseg>
  </trk>

  <trk>
    <name>2 Rab - Šimuni</name>
    <extensions>
      <gpxx:TrackExtension xmlns:gpxx="http://www.garmin.com/xmlschemas/GpxExtensions/v3">
        <gpxx:DisplayColor>Green</gpxx:DisplayColor>
      </gpxx:TrackExtension>
    </extensions>
    <trkseg>
      <trkpt lat="44.7567440" lon="14.7632380">
        <ele>-34.9500000</ele>
        <time>2018-07-09T07:39:44Z</time>
      </trkpt>
      <trkpt lat="44.7567480" lon="14.7632320">
        <ele>-34.4700000</ele>
        <time>2018-07-09T07:39:48Z</time>
      </trkpt>
      <trkpt lat="44.7568740" lon="14.7631090">
        <ele>-31.1100000</ele>
        <time>2018-07-09T07:39:56Z</time>
      </trkpt>
      <trkpt lat="44.7568660" lon="14.7631060">
        <ele>-27.7400000</ele>
        <time>2018-07-09T07:39:59Z</time>
      </trkpt>
      <trkpt lat="44.7568700" lon="14.7631030">
        <ele>-27.7400000</ele>
        <time>2018-07-09T07:40:00Z</time>
      </trkpt>
      <trkpt lat="44.7568660" lon="14.7630990">
        <ele>-24.3800000</ele>
        <time>2018-07-09T07:40:04Z</time>
      </trkpt>
      <trkpt lat="44.7568700" lon="14.7631060">
        <ele>-21.0100000</ele>
        <time>2018-07-09T07:40:08Z</time>
      </trkpt>
      <trkpt lat="44.7568700" lon="14.7631150">
        <ele>-18.1300000</ele>
        <time>2018-07-09T07:40:13Z</time>
      </trkpt>
      <trkpt lat="44.7568700" lon="14.7631240">
        <ele>-14.2800000</ele>
        <time>2018-07-09T07:40:19Z</time>
      </trkpt>
      <trkpt lat="44.7568700" lon="14.7631240">
        <ele>-13.3200000</ele>
        <time>2018-07-09T07:40:21Z</time>
      </trkpt>
      <trkpt lat="44.7568740" lon="14.7631310">
        <ele>-10.4400000</ele>
        <time>2018-07-09T07:40:27Z</time>
      </trkpt>
      <trkpt lat="44.7568660" lon="14.7631410">
        <ele>-7.0700000</ele>
        <time>2018-07-09T07:40:35Z</time>
      </trkpt>
      <trkpt lat="44.7568550" lon="14.7631460">
        <ele>-3.7100000</ele>
        <time>2018-07-09T07:40:45Z</time>
      </trkpt>
      <trkpt lat="44.7568630" lon="14.7631300">
        <ele>-0.3400000</ele>
        <time>2018-07-09T07:40:59Z</time>
      </trkpt>
      <trkpt lat="44.7568740" lon="14.7631360">
        <ele>1.5800000</ele>
        <time>2018-07-09T07:41:24Z</time>
      </trkpt>
      <trkpt lat="44.7568780" lon="14.7631390">
        <ele>3.0200000</ele>
        <time>2018-07-09T07:41:58Z</time>
      </trkpt>
      <trkpt lat="44.7568820" lon="14.7631550">
        <ele>3.0200000</ele>
        <time>2018-07-09T07:42:28Z</time>
      </trkpt>
      <trkpt lat="44.7568820" lon="14.7631550">
        <ele>3.0200000</ele>
        <time>2018-07-09T07:42:58Z</time>
      </trkpt>
      <trkpt lat="44.7568780" lon="14.7631600">
        <ele>2.5400000</ele>
        <time>2018-07-09T07:43:29Z</time>
      </trkpt>
      <trkpt lat="44.7568780" lon="14.7631640">
        <ele>3.5000000</ele>
        <time>2018-07-09T07:44:06Z</time>
      </trkpt>
      <trkpt lat="44.7568740" lon="14.7631610">
        <ele>3.5000000</ele>
        <time>2018-07-09T07:44:41Z</time>
      </trkpt>
      <trkpt lat="44.7568700" lon="14.7631490">
        <ele>3.0200000</ele>
        <time>2018-07-09T07:45:13Z</time>
      </trkpt>
      <trkpt lat="44.7568740" lon="14.7631480">
        <ele>3.0200000</ele>
        <time>2018-07-09T07:45:50Z</time>
      </trkpt>
      <trkpt lat="44.7568740" lon="14.7631480">
        <ele>3.0200000</ele>
        <time>2018-07-09T07:46:21Z</time>
      </trkpt>
      <trkpt lat="44.7568740" lon="14.7631440">
        <ele>2.5400000</ele>
        <time>2018-07-09T07:46:54Z</time>
      </trkpt>
      <trkpt lat="44.7568820" lon="14.7631500">
        <ele>3.0200000</ele>
        <time>2018-07-09T07:47:30Z</time>
      </trkpt>
      <trkpt lat="44.7568820" lon="14.7631440">
        <ele>2.5400000</ele>
        <time>2018-07-09T07:48:02Z</time>
      </trkpt>
      <trkpt lat="44.7568820" lon="14.7631400">
        <ele>3.0200000</ele>
        <time>2018-07-09T07:48:37Z</time>
      </trkpt>
      <trkpt lat="44.7568820" lon="14.7631390">
        <ele>3.0200000</ele>
        <time>2018-07-09T07:49:12Z</time>
      </trkpt>
      <trkpt lat="44.7568860" lon="14.7631320">
        <ele>3.5000000</ele>
        <time>2018-07-09T07:49:56Z</time>
      </trkpt>
      <trkpt lat="44.7568820" lon="14.7631290">
        <ele>3.9800000</ele>
        <time>2018-07-09T07:50:35Z</time>
      </trkpt>
      <trkpt lat="44.7568860" lon="14.7631250">
        <ele>3.5000000</ele>
        <time>2018-07-09T07:51:16Z</time>
      </trkpt>
      <trkpt lat="44.7568860" lon="14.7631220">
        <ele>3.0200000</ele>
        <time>2018-07-09T07:51:55Z</time>
      </trkpt>
      <trkpt lat="44.7568860" lon="14.7631200">
        <ele>3.0200000</ele>
        <time>2018-07-09T07:52:25Z</time>
      </trkpt>
      <trkpt lat="44.7568860" lon="14.7631200">
        <ele>3.0200000</ele>
        <time>2018-07-09T07:52:54Z</time>
      </trkpt>
      <trkpt lat="44.7568930" lon="14.7631130">
        <ele>3.0200000</ele>
        <time>2018-07-09T07:53:25Z</time>
      </trkpt>
      <trkpt lat="44.7568930" lon="14.7631080">
        <ele>3.0200000</ele>
        <time>2018-07-09T07:53:58Z</time>
      </trkpt>
      <trkpt lat="44.7568890" lon="14.7631100">
        <ele>3.5000000</ele>
        <time>2018-07-09T07:54:30Z</time>
      </trkpt>
      <trkpt lat="44.7568890" lon="14.7631060">
        <ele>3.0200000</ele>
        <time>2018-07-09T07:55:08Z</time>
      </trkpt>
      <trkpt lat="44.7568860" lon="14.7631120">
        <ele>3.5000000</ele>
        <time>2018-07-09T07:55:42Z</time>
      </trkpt>
      <trkpt lat="44.7568860" lon="14.7631120">
        <ele>3.0200000</ele>
        <time>2018-07-09T07:56:14Z</time>
      </trkpt>
      <trkpt lat="44.7568860" lon="14.7631200">
        <ele>3.0200000</ele>
        <time>2018-07-09T07:56:51Z</time>
      </trkpt>
      <trkpt lat="44.7568820" lon="14.7631190">
        <ele>2.5400000</ele>
        <time>2018-07-09T07:57:29Z</time>
      </trkpt>
      <trkpt lat="44.7568820" lon="14.7631200">
        <ele>3.0200000</ele>
        <time>2018-07-09T07:58:05Z</time>
      </trkpt>
      <trkpt lat="44.7568700" lon="14.7631170">
        <ele>3.0200000</ele>
        <time>2018-07-09T07:58:40Z</time>
      </trkpt>
      <trkpt lat="44.7568740" lon="14.7631170">
        <ele>3.5000000</ele>
        <time>2018-07-09T07:59:17Z</time>
      </trkpt>
      <trkpt lat="44.7568740" lon="14.7631220">
        <ele>3.0200000</ele>
        <time>2018-07-09T07:59:52Z</time>
      </trkpt>
      <trkpt lat="44.7568740" lon="14.7631200">
        <ele>3.0200000</ele>
        <time>2018-07-09T08:00:33Z</time>
      </trkpt>
      <trkpt lat="44.7568700" lon="14.7631270">
        <ele>3.0200000</ele>
        <time>2018-07-09T08:01:09Z</time>
      </trkpt>
      <trkpt lat="44.7568630" lon="14.7631200">
        <ele>3.0200000</ele>
        <time>2018-07-09T08:01:47Z</time>
      </trkpt>
      <trkpt lat="44.7568660" lon="14.7631190">
        <ele>3.0200000</ele>
        <time>2018-07-09T08:02:24Z</time>
      </trkpt>
      <trkpt lat="44.7568660" lon="14.7631190">
        <ele>3.0200000</ele>
        <time>2018-07-09T08:02:56Z</time>
      </trkpt>
      <trkpt lat="44.7567750" lon="14.7631730">
        <ele>3.0200000</ele>
        <time>2018-07-09T08:03:27Z</time>
      </trkpt>
      <trkpt lat="44.7566300" lon="14.7630290">
        <ele>3.5000000</ele>
        <time>2018-07-09T08:03:53Z</time>
      </trkpt>
      <trkpt lat="44.7565230" lon="14.7627140">
        <ele>3.0200000</ele>
        <time>2018-07-09T08:04:24Z</time>
      </trkpt>
      <trkpt lat="44.7565160" lon="14.7627060">
        <ele>3.0200000</ele>
        <time>2018-07-09T08:04:25Z</time>
      </trkpt>
      <trkpt lat="44.7561870" lon="14.7625900">
        <ele>3.0200000</ele>
        <time>2018-07-09T08:04:53Z</time>
      </trkpt>
      <trkpt lat="44.7557180" lon="14.7626810">
        <ele>2.5400000</ele>
        <time>2018-07-09T08:05:23Z</time>
      </trkpt>
      <trkpt lat="44.7551960" lon="14.7629380">
        <ele>3.0200000</ele>
        <time>2018-07-09T08:05:55Z</time>
      </trkpt>
      <trkpt lat="44.7547000" lon="14.7632140">
        <ele>3.0200000</ele>
        <time>2018-07-09T08:06:25Z</time>
      </trkpt>
      <trkpt lat="44.7541540" lon="14.7635010">
        <ele>3.0200000</ele>
        <time>2018-07-09T08:06:58Z</time>
      </trkpt>
      <trkpt lat="44.7536770" lon="14.7637140">
        <ele>3.0200000</ele>
        <time>2018-07-09T08:07:28Z</time>
      </trkpt>
      <trkpt lat="44.7531970" lon="14.7636890">
        <ele>3.0200000</ele>
        <time>2018-07-09T08:07:57Z</time>
      </trkpt>
      <trkpt lat="44.7527540" lon="14.7632270">
        <ele>3.0200000</ele>
        <time>2018-07-09T08:08:26Z</time>
      </trkpt>
      <trkpt lat="44.7522350" lon="14.7624510">
        <ele>2.5400000</ele>
        <time>2018-07-09T08:08:59Z</time>
      </trkpt>
      <trkpt lat="44.7518040" lon="14.7617030">
        <ele>3.5000000</ele>
        <time>2018-07-09T08:09:27Z</time>
      </trkpt>
      <trkpt lat="44.7514530" lon="14.7609880">
        <ele>3.5000000</ele>
        <time>2018-07-09T08:09:51Z</time>
      </trkpt>
      <trkpt lat="44.7510380" lon="14.7602050">
        <ele>3.0200000</ele>
        <time>2018-07-09T08:10:17Z</time>
      </trkpt>
      <trkpt lat="44.7508320" lon="14.7602210">
        <ele>3.0200000</ele>
        <time>2018-07-09T08:10:28Z</time>
      </trkpt>
      <trkpt lat="44.7508890" lon="14.7604660">
        <ele>3.5000000</ele>
        <time>2018-07-09T08:10:41Z</time>
      </trkpt>
      <trkpt lat="44.7510640" lon="14.7607250">
        <ele>2.5400000</ele>
        <time>2018-07-09T08:11:09Z</time>
      </trkpt>
      <trkpt lat="44.7511860" lon="14.7608610">
        <ele>3.0200000</ele>
        <time>2018-07-09T08:11:35Z</time>
      </trkpt>
      <trkpt lat="44.7512020" lon="14.7608870">
        <ele>2.5400000</ele>
        <time>2018-07-09T08:12:00Z</time>
      </trkpt>
      <trkpt lat="44.7511830" lon="14.7608720">
        <ele>3.0200000</ele>
        <time>2018-07-09T08:12:29Z</time>
      </trkpt>
      <trkpt lat="44.7511670" lon="14.7608190">
        <ele>3.0200000</ele>
        <time>2018-07-09T08:12:34Z</time>
      </trkpt>
      <trkpt lat="44.7510680" lon="14.7602610">
        <ele>3.0200000</ele>
        <time>2018-07-09T08:12:58Z</time>
      </trkpt>
      <trkpt lat="44.7508160" lon="14.7596120">
        <ele>2.5400000</ele>
        <time>2018-07-09T08:13:21Z</time>
      </trkpt>
      <trkpt lat="44.7504200" lon="14.7590320">
        <ele>2.5400000</ele>
        <time>2018-07-09T08:13:45Z</time>
      </trkpt>
      <trkpt lat="44.7499540" lon="14.7584190">
        <ele>2.5400000</ele>
        <time>2018-07-09T08:14:12Z</time>
      </trkpt>
      <trkpt lat="44.7494280" lon="14.7576590">
        <ele>2.5400000</ele>
        <time>2018-07-09T08:14:44Z</time>
      </trkpt>
      <trkpt lat="44.7489550" lon="14.7570460">
        <ele>2.5400000</ele>
        <time>2018-07-09T08:15:11Z</time>
      </trkpt>
      <trkpt lat="44.7484360" lon="14.7564000">
        <ele>2.5400000</ele>
        <time>2018-07-09T08:15:40Z</time>
      </trkpt>
      <trkpt lat="44.7478600" lon="14.7556580">
        <ele>2.5400000</ele>
        <time>2018-07-09T08:16:12Z</time>
      </trkpt>
      <trkpt lat="44.7472920" lon="14.7549330">
        <ele>2.5400000</ele>
        <time>2018-07-09T08:16:43Z</time>
      </trkpt>
      <trkpt lat="44.7467460" lon="14.7541480">
        <ele>2.5400000</ele>
        <time>2018-07-09T08:17:14Z</time>
      </trkpt>
      <trkpt lat="44.7461850" lon="14.7533700">
        <ele>2.5400000</ele>
        <time>2018-07-09T08:17:45Z</time>
      </trkpt>
      <trkpt lat="44.7456050" lon="14.7526860">
        <ele>3.0200000</ele>
        <time>2018-07-09T08:18:15Z</time>
      </trkpt>
      <trkpt lat="44.7450410" lon="14.7519280">
        <ele>2.5400000</ele>
        <time>2018-07-09T08:18:46Z</time>
      </trkpt>
      <trkpt lat="44.7445030" lon="14.7512590">
        <ele>3.0200000</ele>
        <time>2018-07-09T08:19:15Z</time>
      </trkpt>
      <trkpt lat="44.7439690" lon="14.7505340">
        <ele>3.0200000</ele>
        <time>2018-07-09T08:19:45Z</time>
      </trkpt>
      <trkpt lat="44.7434080" lon="14.7497460">
        <ele>2.5400000</ele>
        <time>2018-07-09T08:20:17Z</time>
      </trkpt>
      <trkpt lat="44.7429470" lon="14.7490320">
        <ele>3.0200000</ele>
        <time>2018-07-09T08:20:45Z</time>
      </trkpt>
      <trkpt lat="44.7424740" lon="14.7483550">
        <ele>3.5000000</ele>
        <time>2018-07-09T08:21:12Z</time>
      </trkpt>
      <trkpt lat="44.7419360" lon="14.7475930">
        <ele>3.0200000</ele>
        <time>2018-07-09T08:21:42Z</time>
      </trkpt>
      <trkpt lat="44.7413980" lon="14.7468810">
        <ele>3.0200000</ele>
        <time>2018-07-09T08:22:11Z</time>
      </trkpt>
      <trkpt lat="44.7408940" lon="14.7462280">
        <ele>2.5400000</ele>
        <time>2018-07-09T08:22:38Z</time>
      </trkpt>
      <trkpt lat="44.7404370" lon="14.7456300">
        <ele>3.5000000</ele>
        <time>2018-07-09T08:23:03Z</time>
      </trkpt>
      <trkpt lat="44.7399020" lon="14.7449720">
        <ele>3.0200000</ele>
        <time>2018-07-09T08:23:31Z</time>
      </trkpt>
      <trkpt lat="44.7393300" lon="14.7442600">
        <ele>3.5000000</ele>
        <time>2018-07-09T08:24:01Z</time>
      </trkpt>
      <trkpt lat="44.7388000" lon="14.7435870">
        <ele>3.5000000</ele>
        <time>2018-07-09T08:24:29Z</time>
      </trkpt>
      <trkpt lat="44.7383420" lon="14.7429900">
        <ele>3.5000000</ele>
        <time>2018-07-09T08:24:54Z</time>
      </trkpt>
      <trkpt lat="44.7378690" lon="14.7424030">
        <ele>3.5000000</ele>
        <time>2018-07-09T08:25:19Z</time>
      </trkpt>
      <trkpt lat="44.7373580" lon="14.7417810">
        <ele>3.5000000</ele>
        <time>2018-07-09T08:25:46Z</time>
      </trkpt>
      <trkpt lat="44.7368430" lon="14.7411100">
        <ele>3.5000000</ele>
        <time>2018-07-09T08:26:14Z</time>
      </trkpt>
      <trkpt lat="44.7364080" lon="14.7405410">
        <ele>3.5000000</ele>
        <time>2018-07-09T08:26:38Z</time>
      </trkpt>
      <trkpt lat="44.7359200" lon="14.7399390">
        <ele>3.5000000</ele>
        <time>2018-07-09T08:27:04Z</time>
      </trkpt>
      <trkpt lat="44.7353820" lon="14.7392440">
        <ele>3.5000000</ele>
        <time>2018-07-09T08:27:33Z</time>
      </trkpt>
      <trkpt lat="44.7348750" lon="14.7385770">
        <ele>3.0200000</ele>
        <time>2018-07-09T08:28:01Z</time>
      </trkpt>
      <trkpt lat="44.7344700" lon="14.7380620">
        <ele>3.5000000</ele>
        <time>2018-07-09T08:28:23Z</time>
      </trkpt>
      <trkpt lat="44.7340810" lon="14.7375560">
        <ele>3.5000000</ele>
        <time>2018-07-09T08:28:45Z</time>
      </trkpt>
      <trkpt lat="44.7336200" lon="14.7369500">
        <ele>3.5000000</ele>
        <time>2018-07-09T08:29:11Z</time>
      </trkpt>
      <trkpt lat="44.7331500" lon="14.7363420">
        <ele>3.9800000</ele>
        <time>2018-07-09T08:29:37Z</time>
      </trkpt>
      <trkpt lat="44.7327160" lon="14.7358410">
        <ele>3.9800000</ele>
        <time>2018-07-09T08:30:01Z</time>
      </trkpt>
      <trkpt lat="44.7320980" lon="14.7351430">
        <ele>3.9800000</ele>
        <time>2018-07-09T08:30:34Z</time>
      </trkpt>
      <trkpt lat="44.7318650" lon="14.7346560">
        <ele>4.9400000</ele>
        <time>2018-07-09T08:30:56Z</time>
      </trkpt>
      <trkpt lat="44.7319680" lon="14.7342830">
        <ele>4.4600000</ele>
        <time>2018-07-09T08:31:19Z</time>
      </trkpt>
      <trkpt lat="44.7320860" lon="14.7340830">
        <ele>3.9800000</ele>
        <time>2018-07-09T08:31:41Z</time>
      </trkpt>
      <trkpt lat="44.7321970" lon="14.7339800">
        <ele>3.9800000</ele>
        <time>2018-07-09T08:32:04Z</time>
      </trkpt>
      <trkpt lat="44.7322240" lon="14.7340360">
        <ele>3.9800000</ele>
        <time>2018-07-09T08:32:19Z</time>
      </trkpt>
      <trkpt lat="44.7323380" lon="14.7342000">
        <ele>3.5000000</ele>
        <time>2018-07-09T08:32:44Z</time>
      </trkpt>
      <trkpt lat="44.7324600" lon="14.7342870">
        <ele>3.9800000</ele>
        <time>2018-07-09T08:33:08Z</time>
      </trkpt>
      <trkpt lat="44.7326090" lon="14.7343350">
        <ele>3.9800000</ele>
        <time>2018-07-09T08:33:34Z</time>
      </trkpt>
      <trkpt lat="44.7326660" lon="14.7343130">
        <ele>3.5000000</ele>
        <time>2018-07-09T08:33:57Z</time>
      </trkpt>
      <trkpt lat="44.7326850" lon="14.7343050">
        <ele>3.5000000</ele>
        <time>2018-07-09T08:34:23Z</time>
      </trkpt>
      <trkpt lat="44.7327690" lon="14.7343000">
        <ele>3.5000000</ele>
        <time>2018-07-09T08:34:47Z</time>
      </trkpt>
      <trkpt lat="44.7328150" lon="14.7343030">
        <ele>3.5000000</ele>
        <time>2018-07-09T08:35:08Z</time>
      </trkpt>
      <trkpt lat="44.7328530" lon="14.7343250">
        <ele>3.5000000</ele>
        <time>2018-07-09T08:35:32Z</time>
      </trkpt>
      <trkpt lat="44.7329180" lon="14.7343130">
        <ele>3.5000000</ele>
        <time>2018-07-09T08:35:54Z</time>
      </trkpt>
      <trkpt lat="44.7329640" lon="14.7343730">
        <ele>3.9800000</ele>
        <time>2018-07-09T08:36:04Z</time>
      </trkpt>
      <trkpt lat="44.7327730" lon="14.7345020">
        <ele>3.0200000</ele>
        <time>2018-07-09T08:36:23Z</time>
      </trkpt>
      <trkpt lat="44.7323760" lon="14.7344210">
        <ele>2.5400000</ele>
        <time>2018-07-09T08:36:42Z</time>
      </trkpt>
      <trkpt lat="44.7318380" lon="14.7341520">
        <ele>2.5400000</ele>
        <time>2018-07-09T08:37:06Z</time>
      </trkpt>
      <trkpt lat="44.7313310" lon="14.7338600">
        <ele>2.5400000</ele>
        <time>2018-07-09T08:37:29Z</time>
      </trkpt>
      <trkpt lat="44.7308160" lon="14.7334250">
        <ele>2.5400000</ele>
        <time>2018-07-09T08:37:54Z</time>
      </trkpt>
      <trkpt lat="44.7303890" lon="14.7331450">
        <ele>2.5400000</ele>
        <time>2018-07-09T08:38:13Z</time>
      </trkpt>
      <trkpt lat="44.7298930" lon="14.7328770">
        <ele>2.0600000</ele>
        <time>2018-07-09T08:38:33Z</time>
      </trkpt>
      <trkpt lat="44.7294080" lon="14.7325650">
        <ele>2.0600000</ele>
        <time>2018-07-09T08:38:54Z</time>
      </trkpt>
      <trkpt lat="44.7289350" lon="14.7323060">
        <ele>2.5400000</ele>
        <time>2018-07-09T08:39:14Z</time>
      </trkpt>
      <trkpt lat="44.7284280" lon="14.7320260">
        <ele>2.5400000</ele>
        <time>2018-07-09T08:39:35Z</time>
      </trkpt>
      <trkpt lat="44.7278140" lon="14.7316810">
        <ele>2.0600000</ele>
        <time>2018-07-09T08:40:01Z</time>
      </trkpt>
      <trkpt lat="44.7272450" lon="14.7313960">
        <ele>2.0600000</ele>
        <time>2018-07-09T08:40:26Z</time>
      </trkpt>
      <trkpt lat="44.7267340" lon="14.7311240">
        <ele>1.5800000</ele>
        <time>2018-07-09T08:40:49Z</time>
      </trkpt>
      <trkpt lat="44.7262000" lon="14.7308620">
        <ele>2.0600000</ele>
        <time>2018-07-09T08:41:11Z</time>
      </trkpt>
      <trkpt lat="44.7256550" lon="14.7305850">
        <ele>2.0600000</ele>
        <time>2018-07-09T08:41:33Z</time>
      </trkpt>
      <trkpt lat="44.7249680" lon="14.7302300">
        <ele>1.5800000</ele>
        <time>2018-07-09T08:41:59Z</time>
      </trkpt>
      <trkpt lat="44.7244070" lon="14.7299220">
        <ele>1.5800000</ele>
        <time>2018-07-09T08:42:23Z</time>
      </trkpt>
      <trkpt lat="44.7238270" lon="14.7296220">
        <ele>1.5800000</ele>
        <time>2018-07-09T08:42:48Z</time>
      </trkpt>
      <trkpt lat="44.7233390" lon="14.7293410">
        <ele>1.5800000</ele>
        <time>2018-07-09T08:43:10Z</time>
      </trkpt>
      <trkpt lat="44.7228320" lon="14.7289970">
        <ele>2.0600000</ele>
        <time>2018-07-09T08:43:35Z</time>
      </trkpt>
      <trkpt lat="44.7224080" lon="14.7287660">
        <ele>1.5800000</ele>
        <time>2018-07-09T08:43:54Z</time>
      </trkpt>
      <trkpt lat="44.7219050" lon="14.7285030">
        <ele>1.5800000</ele>
        <time>2018-07-09T08:44:17Z</time>
      </trkpt>
      <trkpt lat="44.7214620" lon="14.7282710">
        <ele>1.5800000</ele>
        <time>2018-07-09T08:44:38Z</time>
      </trkpt>
      <trkpt lat="44.7209970" lon="14.7280280">
        <ele>1.5800000</ele>
        <time>2018-07-09T08:45:01Z</time>
      </trkpt>
      <trkpt lat="44.7204440" lon="14.7277380">
        <ele>1.5800000</ele>
        <time>2018-07-09T08:45:27Z</time>
      </trkpt>
      <trkpt lat="44.7199210" lon="14.7275150">
        <ele>1.1000000</ele>
        <time>2018-07-09T08:45:51Z</time>
      </trkpt>
      <trkpt lat="44.7194670" lon="14.7272830">
        <ele>1.5800000</ele>
        <time>2018-07-09T08:46:13Z</time>
      </trkpt>
      <trkpt lat="44.7190400" lon="14.7270690">
        <ele>1.5800000</ele>
        <time>2018-07-09T08:46:35Z</time>
      </trkpt>
      <trkpt lat="44.7185210" lon="14.7268360">
        <ele>1.5800000</ele>
        <time>2018-07-09T08:47:01Z</time>
      </trkpt>
      <trkpt lat="44.7179910" lon="14.7266130">
        <ele>1.1000000</ele>
        <time>2018-07-09T08:47:28Z</time>
      </trkpt>
      <trkpt lat="44.7174840" lon="14.7265670">
        <ele>1.1000000</ele>
        <time>2018-07-09T08:47:53Z</time>
      </trkpt>
      <trkpt lat="44.7169270" lon="14.7268250">
        <ele>1.1000000</ele>
        <time>2018-07-09T08:48:17Z</time>
      </trkpt>
      <trkpt lat="44.7167360" lon="14.7274000">
        <ele>2.5400000</ele>
        <time>2018-07-09T08:48:35Z</time>
      </trkpt>
      <trkpt lat="44.7168460" lon="14.7277450">
        <ele>2.0600000</ele>
        <time>2018-07-09T08:48:51Z</time>
      </trkpt>
      <trkpt lat="44.7169840" lon="14.7277910">
        <ele>2.0600000</ele>
        <time>2018-07-09T08:49:12Z</time>
      </trkpt>
      <trkpt lat="44.7169910" lon="14.7277620">
        <ele>2.0600000</ele>
        <time>2018-07-09T08:49:15Z</time>
      </trkpt>
      <trkpt lat="44.7169340" lon="14.7272990">
        <ele>2.0600000</ele>
        <time>2018-07-09T08:49:34Z</time>
      </trkpt>
      <trkpt lat="44.7165790" lon="14.7267140">
        <ele>1.5800000</ele>
        <time>2018-07-09T08:49:55Z</time>
      </trkpt>
      <trkpt lat="44.7162670" lon="14.7262310">
        <ele>1.5800000</ele>
        <time>2018-07-09T08:50:13Z</time>
      </trkpt>
      <trkpt lat="44.7159040" lon="14.7257190">
        <ele>1.1000000</ele>
        <time>2018-07-09T08:50:33Z</time>
      </trkpt>
      <trkpt lat="44.7155880" lon="14.7252930">
        <ele>1.1000000</ele>
        <time>2018-07-09T08:50:51Z</time>
      </trkpt>
      <trkpt lat="44.7152630" lon="14.7248300">
        <ele>0.6200000</ele>
        <time>2018-07-09T08:51:10Z</time>
      </trkpt>
      <trkpt lat="44.7149200" lon="14.7243200">
        <ele>1.1000000</ele>
        <time>2018-07-09T08:51:29Z</time>
      </trkpt>
      <trkpt lat="44.7146570" lon="14.7239010">
        <ele>1.1000000</ele>
        <time>2018-07-09T08:51:44Z</time>
      </trkpt>
      <trkpt lat="44.7143670" lon="14.7235010">
        <ele>0.6200000</ele>
        <time>2018-07-09T08:52:00Z</time>
      </trkpt>
      <trkpt lat="44.7141340" lon="14.7231210">
        <ele>1.5800000</ele>
        <time>2018-07-09T08:52:15Z</time>
      </trkpt>
      <trkpt lat="44.7139320" lon="14.7228260">
        <ele>0.6200000</ele>
        <time>2018-07-09T08:52:27Z</time>
      </trkpt>
      <trkpt lat="44.7136120" lon="14.7223760">
        <ele>-0.8200000</ele>
        <time>2018-07-09T08:52:45Z</time>
      </trkpt>
      <trkpt lat="44.7132950" lon="14.7220070">
        <ele>0.6200000</ele>
        <time>2018-07-09T08:53:03Z</time>
      </trkpt>
      <trkpt lat="44.7129940" lon="14.7216540">
        <ele>1.1000000</ele>
        <time>2018-07-09T08:53:20Z</time>
      </trkpt>
      <trkpt lat="44.7126010" lon="14.7211790">
        <ele>1.1000000</ele>
        <time>2018-07-09T08:53:41Z</time>
      </trkpt>
      <trkpt lat="44.7122150" lon="14.7206950">
        <ele>1.5800000</ele>
        <time>2018-07-09T08:53:59Z</time>
      </trkpt>
      <trkpt lat="44.7118230" lon="14.7201600">
        <ele>1.5800000</ele>
        <time>2018-07-09T08:54:17Z</time>
      </trkpt>
      <trkpt lat="44.7113990" lon="14.7195670">
        <ele>1.1000000</ele>
        <time>2018-07-09T08:54:37Z</time>
      </trkpt>
      <trkpt lat="44.7109910" lon="14.7190590">
        <ele>1.1000000</ele>
        <time>2018-07-09T08:54:57Z</time>
      </trkpt>
      <trkpt lat="44.7105290" lon="14.7184220">
        <ele>1.5800000</ele>
        <time>2018-07-09T08:55:18Z</time>
      </trkpt>
      <trkpt lat="44.7101940" lon="14.7179240">
        <ele>1.1000000</ele>
        <time>2018-07-09T08:55:33Z</time>
      </trkpt>
      <trkpt lat="44.7097590" lon="14.7172810">
        <ele>1.5800000</ele>
        <time>2018-07-09T08:55:53Z</time>
      </trkpt>
      <trkpt lat="44.7093730" lon="14.7166940">
        <ele>1.1000000</ele>
        <time>2018-07-09T08:56:11Z</time>
      </trkpt>
      <trkpt lat="44.7089690" lon="14.7161220">
        <ele>1.5800000</ele>
        <time>2018-07-09T08:56:30Z</time>
      </trkpt>
      <trkpt lat="44.7086520" lon="14.7155160">
        <ele>1.5800000</ele>
        <time>2018-07-09T08:56:46Z</time>
      </trkpt>
      <trkpt lat="44.7082520" lon="14.7148480">
        <ele>1.5800000</ele>
        <time>2018-07-09T08:57:04Z</time>
      </trkpt>
      <trkpt lat="44.7078820" lon="14.7141930">
        <ele>1.5800000</ele>
        <time>2018-07-09T08:57:21Z</time>
      </trkpt>
      <trkpt lat="44.7074090" lon="14.7134650">
        <ele>1.1000000</ele>
        <time>2018-07-09T08:57:41Z</time>
      </trkpt>
      <trkpt lat="44.7070500" lon="14.7128710">
        <ele>0.6200000</ele>
        <time>2018-07-09T08:57:57Z</time>
      </trkpt>
      <trkpt lat="44.7065770" lon="14.7121730">
        <ele>1.1000000</ele>
        <time>2018-07-09T08:58:17Z</time>
      </trkpt>
      <trkpt lat="44.7062190" lon="14.7116080">
        <ele>1.1000000</ele>
        <time>2018-07-09T08:58:33Z</time>
      </trkpt>
      <trkpt lat="44.7058490" lon="14.7110150">
        <ele>0.6200000</ele>
        <time>2018-07-09T08:58:50Z</time>
      </trkpt>
      <trkpt lat="44.7055280" lon="14.7104640">
        <ele>1.1000000</ele>
        <time>2018-07-09T08:59:05Z</time>
      </trkpt>
      <trkpt lat="44.7052270" lon="14.7099970">
        <ele>0.6200000</ele>
        <time>2018-07-09T08:59:19Z</time>
      </trkpt>
      <trkpt lat="44.7048150" lon="14.7093560">
        <ele>0.6200000</ele>
        <time>2018-07-09T08:59:38Z</time>
      </trkpt>
      <trkpt lat="44.7043910" lon="14.7087550">
        <ele>1.1000000</ele>
        <time>2018-07-09T08:59:57Z</time>
      </trkpt>
      <trkpt lat="44.7040180" lon="14.7082010">
        <ele>0.6200000</ele>
        <time>2018-07-09T09:00:15Z</time>
      </trkpt>
      <trkpt lat="44.7036480" lon="14.7076660">
        <ele>0.1400000</ele>
        <time>2018-07-09T09:00:33Z</time>
      </trkpt>
      <trkpt lat="44.7033270" lon="14.7072010">
        <ele>0.6200000</ele>
        <time>2018-07-09T09:00:49Z</time>
      </trkpt>
      <trkpt lat="44.7030260" lon="14.7066850">
        <ele>0.6200000</ele>
        <time>2018-07-09T09:01:05Z</time>
      </trkpt>
      <trkpt lat="44.7026630" lon="14.7060510">
        <ele>0.6200000</ele>
        <time>2018-07-09T09:01:23Z</time>
      </trkpt>
      <trkpt lat="44.7023770" lon="14.7056130">
        <ele>0.6200000</ele>
        <time>2018-07-09T09:01:36Z</time>
      </trkpt>
      <trkpt lat="44.7021330" lon="14.7050870">
        <ele>0.6200000</ele>
        <time>2018-07-09T09:01:50Z</time>
      </trkpt>
      <trkpt lat="44.7017750" lon="14.7045050">
        <ele>0.6200000</ele>
        <time>2018-07-09T09:02:07Z</time>
      </trkpt>
      <trkpt lat="44.7014310" lon="14.7039560">
        <ele>0.6200000</ele>
        <time>2018-07-09T09:02:24Z</time>
      </trkpt>
      <trkpt lat="44.7010420" lon="14.7033680">
        <ele>0.6200000</ele>
        <time>2018-07-09T09:02:43Z</time>
      </trkpt>
      <trkpt lat="44.7006450" lon="14.7028560">
        <ele>0.6200000</ele>
        <time>2018-07-09T09:03:01Z</time>
      </trkpt>
      <trkpt lat="44.7003520" lon="14.7024580">
        <ele>0.6200000</ele>
        <time>2018-07-09T09:03:16Z</time>
      </trkpt>
      <trkpt lat="44.7000050" lon="14.7019210">
        <ele>0.6200000</ele>
        <time>2018-07-09T09:03:34Z</time>
      </trkpt>
      <trkpt lat="44.6996350" lon="14.7013870">
        <ele>0.1400000</ele>
        <time>2018-07-09T09:03:52Z</time>
      </trkpt>
      <trkpt lat="44.6992800" lon="14.7009200">
        <ele>0.6200000</ele>
        <time>2018-07-09T09:04:09Z</time>
      </trkpt>
      <trkpt lat="44.6989590" lon="14.7004590">
        <ele>0.6200000</ele>
        <time>2018-07-09T09:04:25Z</time>
      </trkpt>
      <trkpt lat="44.6988180" lon="14.7000020">
        <ele>1.5800000</ele>
        <time>2018-07-09T09:04:40Z</time>
      </trkpt>
      <trkpt lat="44.6988830" lon="14.6999280">
        <ele>1.1000000</ele>
        <time>2018-07-09T09:04:45Z</time>
      </trkpt>
      <trkpt lat="44.6989560" lon="14.6999870">
        <ele>1.5800000</ele>
        <time>2018-07-09T09:04:57Z</time>
      </trkpt>
      <trkpt lat="44.6989360" lon="14.7000780">
        <ele>1.5800000</ele>
        <time>2018-07-09T09:05:03Z</time>
      </trkpt>
      <trkpt lat="44.6987150" lon="14.7004070">
        <ele>1.5800000</ele>
        <time>2018-07-09T09:05:19Z</time>
      </trkpt>
      <trkpt lat="44.6982380" lon="14.7006430">
        <ele>1.1000000</ele>
        <time>2018-07-09T09:05:35Z</time>
      </trkpt>
      <trkpt lat="44.6976240" lon="14.7008770">
        <ele>0.1400000</ele>
        <time>2018-07-09T09:05:53Z</time>
      </trkpt>
      <trkpt lat="44.6971130" lon="14.7011100">
        <ele>0.1400000</ele>
        <time>2018-07-09T09:06:10Z</time>
      </trkpt>
      <trkpt lat="44.6965450" lon="14.7014190">
        <ele>0.1400000</ele>
        <time>2018-07-09T09:06:30Z</time>
      </trkpt>
      <trkpt lat="44.6960450" lon="14.7017800">
        <ele>0.1400000</ele>
        <time>2018-07-09T09:06:49Z</time>
      </trkpt>
      <trkpt lat="44.6955760" lon="14.7021500">
        <ele>0.6200000</ele>
        <time>2018-07-09T09:07:06Z</time>
      </trkpt>
      <trkpt lat="44.6951070" lon="14.7024220">
        <ele>0.1400000</ele>
        <time>2018-07-09T09:07:21Z</time>
      </trkpt>
      <trkpt lat="44.6947140" lon="14.7027120">
        <ele>0.6200000</ele>
        <time>2018-07-09T09:07:35Z</time>
      </trkpt>
      <trkpt lat="44.6942710" lon="14.7030260">
        <ele>0.1400000</ele>
        <time>2018-07-09T09:07:51Z</time>
      </trkpt>
      <trkpt lat="44.6936570" lon="14.7034650">
        <ele>0.6200000</ele>
        <time>2018-07-09T09:08:13Z</time>
      </trkpt>
      <trkpt lat="44.6931760" lon="14.7037880">
        <ele>0.6200000</ele>
        <time>2018-07-09T09:08:31Z</time>
      </trkpt>
      <trkpt lat="44.6927760" lon="14.7040720">
        <ele>0.6200000</ele>
        <time>2018-07-09T09:08:46Z</time>
      </trkpt>
      <trkpt lat="44.6922800" lon="14.7044280">
        <ele>0.6200000</ele>
        <time>2018-07-09T09:09:04Z</time>
      </trkpt>
      <trkpt lat="44.6918300" lon="14.7047780">
        <ele>0.6200000</ele>
        <time>2018-07-09T09:09:20Z</time>
      </trkpt>
      <trkpt lat="44.6912960" lon="14.7052080">
        <ele>0.6200000</ele>
        <time>2018-07-09T09:09:39Z</time>
      </trkpt>
      <trkpt lat="44.6907540" lon="14.7056370">
        <ele>0.6200000</ele>
        <time>2018-07-09T09:09:59Z</time>
      </trkpt>
      <trkpt lat="44.6902620" lon="14.7060040">
        <ele>0.6200000</ele>
        <time>2018-07-09T09:10:17Z</time>
      </trkpt>
      <trkpt lat="44.6897660" lon="14.7064090">
        <ele>0.6200000</ele>
        <time>2018-07-09T09:10:36Z</time>
      </trkpt>
      <trkpt lat="44.6892660" lon="14.7067590">
        <ele>0.6200000</ele>
        <time>2018-07-09T09:10:54Z</time>
      </trkpt>
      <trkpt lat="44.6888010" lon="14.7070890">
        <ele>1.1000000</ele>
        <time>2018-07-09T09:11:11Z</time>
      </trkpt>
      <trkpt lat="44.6883320" lon="14.7074370">
        <ele>0.6200000</ele>
        <time>2018-07-09T09:11:28Z</time>
      </trkpt>
      <trkpt lat="44.6878470" lon="14.7077120">
        <ele>0.6200000</ele>
        <time>2018-07-09T09:11:45Z</time>
      </trkpt>
      <trkpt lat="44.6873820" lon="14.7080430">
        <ele>0.6200000</ele>
        <time>2018-07-09T09:12:02Z</time>
      </trkpt>
      <trkpt lat="44.6869010" lon="14.7083980">
        <ele>1.1000000</ele>
        <time>2018-07-09T09:12:19Z</time>
      </trkpt>
      <trkpt lat="44.6864050" lon="14.7088100">
        <ele>1.1000000</ele>
        <time>2018-07-09T09:12:37Z</time>
      </trkpt>
      <trkpt lat="44.6858830" lon="14.7091360">
        <ele>0.6200000</ele>
        <time>2018-07-09T09:12:55Z</time>
      </trkpt>
      <trkpt lat="44.6853980" lon="14.7095070">
        <ele>0.6200000</ele>
        <time>2018-07-09T09:13:13Z</time>
      </trkpt>
      <trkpt lat="44.6847990" lon="14.7099840">
        <ele>1.1000000</ele>
        <time>2018-07-09T09:13:35Z</time>
      </trkpt>
      <trkpt lat="44.6843260" lon="14.7103510">
        <ele>0.6200000</ele>
        <time>2018-07-09T09:13:53Z</time>
      </trkpt>
      <trkpt lat="44.6838300" lon="14.7107100">
        <ele>0.6200000</ele>
        <time>2018-07-09T09:14:12Z</time>
      </trkpt>
      <trkpt lat="44.6832080" lon="14.7111460">
        <ele>0.6200000</ele>
        <time>2018-07-09T09:14:34Z</time>
      </trkpt>
      <trkpt lat="44.6826740" lon="14.7115900">
        <ele>1.1000000</ele>
        <time>2018-07-09T09:14:53Z</time>
      </trkpt>
      <trkpt lat="44.6821210" lon="14.7120110">
        <ele>1.1000000</ele>
        <time>2018-07-09T09:15:13Z</time>
      </trkpt>
      <trkpt lat="44.6816560" lon="14.7123660">
        <ele>1.1000000</ele>
        <time>2018-07-09T09:15:31Z</time>
      </trkpt>
      <trkpt lat="44.6811330" lon="14.7127520">
        <ele>1.1000000</ele>
        <time>2018-07-09T09:15:51Z</time>
      </trkpt>
      <trkpt lat="44.6807370" lon="14.7131300">
        <ele>1.1000000</ele>
        <time>2018-07-09T09:16:07Z</time>
      </trkpt>
      <trkpt lat="44.6802410" lon="14.7135160">
        <ele>1.1000000</ele>
        <time>2018-07-09T09:16:26Z</time>
      </trkpt>
      <trkpt lat="44.6797640" lon="14.7138940">
        <ele>0.6200000</ele>
        <time>2018-07-09T09:16:44Z</time>
      </trkpt>
      <trkpt lat="44.6792070" lon="14.7143510">
        <ele>1.1000000</ele>
        <time>2018-07-09T09:17:06Z</time>
      </trkpt>
      <trkpt lat="44.6787490" lon="14.7148210">
        <ele>1.1000000</ele>
        <time>2018-07-09T09:17:26Z</time>
      </trkpt>
      <trkpt lat="44.6783030" lon="14.7152220">
        <ele>1.1000000</ele>
        <time>2018-07-09T09:17:44Z</time>
      </trkpt>
      <trkpt lat="44.6778680" lon="14.7155810">
        <ele>1.1000000</ele>
        <time>2018-07-09T09:18:02Z</time>
      </trkpt>
      <trkpt lat="44.6774060" lon="14.7158930">
        <ele>1.1000000</ele>
        <time>2018-07-09T09:18:21Z</time>
      </trkpt>
      <trkpt lat="44.6769680" lon="14.7161560">
        <ele>1.5800000</ele>
        <time>2018-07-09T09:18:39Z</time>
      </trkpt>
      <trkpt lat="44.6765480" lon="14.7164590">
        <ele>1.1000000</ele>
        <time>2018-07-09T09:18:57Z</time>
      </trkpt>
      <trkpt lat="44.6760370" lon="14.7168360">
        <ele>1.5800000</ele>
        <time>2018-07-09T09:19:19Z</time>
      </trkpt>
      <trkpt lat="44.6755710" lon="14.7171760">
        <ele>1.1000000</ele>
        <time>2018-07-09T09:19:39Z</time>
      </trkpt>
      <trkpt lat="44.6750910" lon="14.7175990">
        <ele>1.5800000</ele>
        <time>2018-07-09T09:20:00Z</time>
      </trkpt>
      <trkpt lat="44.6746250" lon="14.7180220">
        <ele>1.1000000</ele>
        <time>2018-07-09T09:20:20Z</time>
      </trkpt>
      <trkpt lat="44.6741910" lon="14.7184310">
        <ele>1.5800000</ele>
        <time>2018-07-09T09:20:39Z</time>
      </trkpt>
      <trkpt lat="44.6737100" lon="14.7188230">
        <ele>1.5800000</ele>
        <time>2018-07-09T09:20:59Z</time>
      </trkpt>
      <trkpt lat="44.6732140" lon="14.7192160">
        <ele>1.5800000</ele>
        <time>2018-07-09T09:21:20Z</time>
      </trkpt>
      <trkpt lat="44.6726680" lon="14.7196660">
        <ele>1.5800000</ele>
        <time>2018-07-09T09:21:43Z</time>
      </trkpt>
      <trkpt lat="44.6722150" lon="14.7199790">
        <ele>1.5800000</ele>
        <time>2018-07-09T09:22:02Z</time>
      </trkpt>
      <trkpt lat="44.6717760" lon="14.7203100">
        <ele>1.5800000</ele>
        <time>2018-07-09T09:22:21Z</time>
      </trkpt>
      <trkpt lat="44.6712680" lon="14.7206770">
        <ele>1.5800000</ele>
        <time>2018-07-09T09:22:43Z</time>
      </trkpt>
      <trkpt lat="44.6708180" lon="14.7210250">
        <ele>1.5800000</ele>
        <time>2018-07-09T09:23:03Z</time>
      </trkpt>
      <trkpt lat="44.6702800" lon="14.7214390">
        <ele>2.0600000</ele>
        <time>2018-07-09T09:23:26Z</time>
      </trkpt>
      <trkpt lat="44.6697200" lon="14.7218410">
        <ele>1.5800000</ele>
        <time>2018-07-09T09:23:50Z</time>
      </trkpt>
      <trkpt lat="44.6692310" lon="14.7222940">
        <ele>1.5800000</ele>
        <time>2018-07-09T09:24:12Z</time>
      </trkpt>
      <trkpt lat="44.6688040" lon="14.7227940">
        <ele>2.0600000</ele>
        <time>2018-07-09T09:24:32Z</time>
      </trkpt>
      <trkpt lat="44.6683460" lon="14.7232990">
        <ele>2.0600000</ele>
        <time>2018-07-09T09:24:53Z</time>
      </trkpt>
      <trkpt lat="44.6678430" lon="14.7236880">
        <ele>1.1000000</ele>
        <time>2018-07-09T09:25:14Z</time>
      </trkpt>
      <trkpt lat="44.6673620" lon="14.7239900">
        <ele>1.5800000</ele>
        <time>2018-07-09T09:25:34Z</time>
      </trkpt>
      <trkpt lat="44.6668820" lon="14.7243700">
        <ele>2.0600000</ele>
        <time>2018-07-09T09:25:55Z</time>
      </trkpt>
      <trkpt lat="44.6664770" lon="14.7247520">
        <ele>2.0600000</ele>
        <time>2018-07-09T09:26:14Z</time>
      </trkpt>
      <trkpt lat="44.6660460" lon="14.7250450">
        <ele>1.1000000</ele>
        <time>2018-07-09T09:26:33Z</time>
      </trkpt>
      <trkpt lat="44.6654700" lon="14.7254590">
        <ele>1.5800000</ele>
        <time>2018-07-09T09:26:58Z</time>
      </trkpt>
      <trkpt lat="44.6649860" lon="14.7257760">
        <ele>1.5800000</ele>
        <time>2018-07-09T09:27:19Z</time>
      </trkpt>
      <trkpt lat="44.6645010" lon="14.7261060">
        <ele>1.1000000</ele>
        <time>2018-07-09T09:27:39Z</time>
      </trkpt>
      <trkpt lat="44.6639480" lon="14.7265550">
        <ele>1.1000000</ele>
        <time>2018-07-09T09:28:03Z</time>
      </trkpt>
      <trkpt lat="44.6634290" lon="14.7270040">
        <ele>1.5800000</ele>
        <time>2018-07-09T09:28:27Z</time>
      </trkpt>
      <trkpt lat="44.6628650" lon="14.7275340">
        <ele>1.1000000</ele>
        <time>2018-07-09T09:28:52Z</time>
      </trkpt>
      <trkpt lat="44.6623570" lon="14.7280120">
        <ele>1.1000000</ele>
        <time>2018-07-09T09:29:14Z</time>
      </trkpt>
      <trkpt lat="44.6618610" lon="14.7284570">
        <ele>1.1000000</ele>
        <time>2018-07-09T09:29:36Z</time>
      </trkpt>
      <trkpt lat="44.6614800" lon="14.7288310">
        <ele>1.1000000</ele>
        <time>2018-07-09T09:29:54Z</time>
      </trkpt>
      <trkpt lat="44.6610600" lon="14.7293020">
        <ele>0.6200000</ele>
        <time>2018-07-09T09:30:14Z</time>
      </trkpt>
      <trkpt lat="44.6604880" lon="14.7298770">
        <ele>0.6200000</ele>
        <time>2018-07-09T09:30:39Z</time>
      </trkpt>
      <trkpt lat="44.6600040" lon="14.7304410">
        <ele>1.1000000</ele>
        <time>2018-07-09T09:31:02Z</time>
      </trkpt>
      <trkpt lat="44.6594810" lon="14.7309590">
        <ele>0.6200000</ele>
        <time>2018-07-09T09:31:25Z</time>
      </trkpt>
      <trkpt lat="44.6589700" lon="14.7314250">
        <ele>0.6200000</ele>
        <time>2018-07-09T09:31:48Z</time>
      </trkpt>
      <trkpt lat="44.6584430" lon="14.7319970">
        <ele>1.1000000</ele>
        <time>2018-07-09T09:32:12Z</time>
      </trkpt>
      <trkpt lat="44.6579860" lon="14.7324660">
        <ele>1.1000000</ele>
        <time>2018-07-09T09:32:33Z</time>
      </trkpt>
      <trkpt lat="44.6574970" lon="14.7329740">
        <ele>0.6200000</ele>
        <time>2018-07-09T09:32:56Z</time>
      </trkpt>
      <trkpt lat="44.6569980" lon="14.7333360">
        <ele>0.6200000</ele>
        <time>2018-07-09T09:33:17Z</time>
      </trkpt>
      <trkpt lat="44.6564790" lon="14.7337140">
        <ele>0.1400000</ele>
        <time>2018-07-09T09:33:40Z</time>
      </trkpt>
      <trkpt lat="44.6559490" lon="14.7341380">
        <ele>0.6200000</ele>
        <time>2018-07-09T09:34:06Z</time>
      </trkpt>
      <trkpt lat="44.6554030" lon="14.7345750">
        <ele>0.6200000</ele>
        <time>2018-07-09T09:34:33Z</time>
      </trkpt>
      <trkpt lat="44.6548610" lon="14.7349930">
        <ele>0.6200000</ele>
        <time>2018-07-09T09:35:00Z</time>
      </trkpt>
      <trkpt lat="44.6544080" lon="14.7354630">
        <ele>0.6200000</ele>
        <time>2018-07-09T09:35:24Z</time>
      </trkpt>
      <trkpt lat="44.6539730" lon="14.7359260">
        <ele>1.1000000</ele>
        <time>2018-07-09T09:35:48Z</time>
      </trkpt>
      <trkpt lat="44.6534880" lon="14.7364680">
        <ele>0.6200000</ele>
        <time>2018-07-09T09:36:13Z</time>
      </trkpt>
      <trkpt lat="44.6530610" lon="14.7370180">
        <ele>0.6200000</ele>
        <time>2018-07-09T09:36:34Z</time>
      </trkpt>
      <trkpt lat="44.6526070" lon="14.7375480">
        <ele>0.6200000</ele>
        <time>2018-07-09T09:36:55Z</time>
      </trkpt>
      <trkpt lat="44.6520730" lon="14.7381330">
        <ele>0.6200000</ele>
        <time>2018-07-09T09:37:20Z</time>
      </trkpt>
      <trkpt lat="44.6515620" lon="14.7386990">
        <ele>0.6200000</ele>
        <time>2018-07-09T09:37:45Z</time>
      </trkpt>
      <trkpt lat="44.6511230" lon="14.7392220">
        <ele>0.6200000</ele>
        <time>2018-07-09T09:38:08Z</time>
      </trkpt>
      <trkpt lat="44.6506610" lon="14.7397210">
        <ele>0.6200000</ele>
        <time>2018-07-09T09:38:32Z</time>
      </trkpt>
      <trkpt lat="44.6502720" lon="14.7401360">
        <ele>0.6200000</ele>
        <time>2018-07-09T09:38:53Z</time>
      </trkpt>
      <trkpt lat="44.6498450" lon="14.7405510">
        <ele>0.1400000</ele>
        <time>2018-07-09T09:39:17Z</time>
      </trkpt>
      <trkpt lat="44.6493720" lon="14.7410390">
        <ele>0.6200000</ele>
        <time>2018-07-09T09:39:43Z</time>
      </trkpt>
      <trkpt lat="44.6488530" lon="14.7415270">
        <ele>0.6200000</ele>
        <time>2018-07-09T09:40:09Z</time>
      </trkpt>
      <trkpt lat="44.6484150" lon="14.7419710">
        <ele>0.6200000</ele>
        <time>2018-07-09T09:40:33Z</time>
      </trkpt>
      <trkpt lat="44.6480100" lon="14.7423370">
        <ele>0.6200000</ele>
        <time>2018-07-09T09:40:57Z</time>
      </trkpt>
      <trkpt lat="44.6475600" lon="14.7426870">
        <ele>0.6200000</ele>
        <time>2018-07-09T09:41:24Z</time>
      </trkpt>
      <trkpt lat="44.6472090" lon="14.7429610">
        <ele>0.6200000</ele>
        <time>2018-07-09T09:41:49Z</time>
      </trkpt>
      <trkpt lat="44.6468850" lon="14.7432610">
        <ele>0.6200000</ele>
        <time>2018-07-09T09:42:14Z</time>
      </trkpt>
      <trkpt lat="44.6464610" lon="14.7436220">
        <ele>1.1000000</ele>
        <time>2018-07-09T09:42:44Z</time>
      </trkpt>
      <trkpt lat="44.6461520" lon="14.7439160">
        <ele>0.6200000</ele>
        <time>2018-07-09T09:43:06Z</time>
      </trkpt>
      <trkpt lat="44.6456570" lon="14.7443560">
        <ele>0.6200000</ele>
        <time>2018-07-09T09:43:35Z</time>
      </trkpt>
      <trkpt lat="44.6451950" lon="14.7447420">
        <ele>1.1000000</ele>
        <time>2018-07-09T09:44:01Z</time>
      </trkpt>
      <trkpt lat="44.6447330" lon="14.7451030">
        <ele>0.1400000</ele>
        <time>2018-07-09T09:44:27Z</time>
      </trkpt>
      <trkpt lat="44.6442950" lon="14.7454550">
        <ele>0.6200000</ele>
        <time>2018-07-09T09:44:52Z</time>
      </trkpt>
      <trkpt lat="44.6438180" lon="14.7458920">
        <ele>0.6200000</ele>
        <time>2018-07-09T09:45:17Z</time>
      </trkpt>
      <trkpt lat="44.6432760" lon="14.7464180">
        <ele>0.6200000</ele>
        <time>2018-07-09T09:45:43Z</time>
      </trkpt>
      <trkpt lat="44.6429370" lon="14.7467870">
        <ele>0.6200000</ele>
        <time>2018-07-09T09:46:00Z</time>
      </trkpt>
      <trkpt lat="44.6424790" lon="14.7473040">
        <ele>0.6200000</ele>
        <time>2018-07-09T09:46:22Z</time>
      </trkpt>
      <trkpt lat="44.6420250" lon="14.7478400">
        <ele>1.1000000</ele>
        <time>2018-07-09T09:46:44Z</time>
      </trkpt>
      <trkpt lat="44.6415630" lon="14.7484060">
        <ele>1.1000000</ele>
        <time>2018-07-09T09:47:06Z</time>
      </trkpt>
      <trkpt lat="44.6411020" lon="14.7489260">
        <ele>1.1000000</ele>
        <time>2018-07-09T09:47:28Z</time>
      </trkpt>
      <trkpt lat="44.6405720" lon="14.7494650">
        <ele>1.5800000</ele>
        <time>2018-07-09T09:47:53Z</time>
      </trkpt>
      <trkpt lat="44.6401600" lon="14.7499690">
        <ele>1.1000000</ele>
        <time>2018-07-09T09:48:15Z</time>
      </trkpt>
      <trkpt lat="44.6396680" lon="14.7504760">
        <ele>1.5800000</ele>
        <time>2018-07-09T09:48:39Z</time>
      </trkpt>
      <trkpt lat="44.6391910" lon="14.7509910">
        <ele>1.5800000</ele>
        <time>2018-07-09T09:49:03Z</time>
      </trkpt>
      <trkpt lat="44.6387060" lon="14.7514380">
        <ele>1.5800000</ele>
        <time>2018-07-09T09:49:26Z</time>
      </trkpt>
      <trkpt lat="44.6383020" lon="14.7518930">
        <ele>1.1000000</ele>
        <time>2018-07-09T09:49:48Z</time>
      </trkpt>
      <trkpt lat="44.6378750" lon="14.7523270">
        <ele>1.1000000</ele>
        <time>2018-07-09T09:50:09Z</time>
      </trkpt>
      <trkpt lat="44.6374320" lon="14.7528630">
        <ele>1.5800000</ele>
        <time>2018-07-09T09:50:32Z</time>
      </trkpt>
      <trkpt lat="44.6369510" lon="14.7534170">
        <ele>1.5800000</ele>
        <time>2018-07-09T09:50:56Z</time>
      </trkpt>
      <trkpt lat="44.6364480" lon="14.7539670">
        <ele>1.1000000</ele>
        <time>2018-07-09T09:51:20Z</time>
      </trkpt>
      <trkpt lat="44.6360020" lon="14.7544220">
        <ele>1.1000000</ele>
        <time>2018-07-09T09:51:43Z</time>
      </trkpt>
      <trkpt lat="44.6356350" lon="14.7548650">
        <ele>1.1000000</ele>
        <time>2018-07-09T09:52:04Z</time>
      </trkpt>
      <trkpt lat="44.6353230" lon="14.7553200">
        <ele>1.5800000</ele>
        <time>2018-07-09T09:52:24Z</time>
      </trkpt>
      <trkpt lat="44.6349910" lon="14.7557330">
        <ele>1.1000000</ele>
        <time>2018-07-09T09:52:44Z</time>
      </trkpt>
      <trkpt lat="44.6345980" lon="14.7561810">
        <ele>1.5800000</ele>
        <time>2018-07-09T09:53:08Z</time>
      </trkpt>
      <trkpt lat="44.6342010" lon="14.7566760">
        <ele>1.1000000</ele>
        <time>2018-07-09T09:53:33Z</time>
      </trkpt>
      <trkpt lat="44.6338080" lon="14.7571530">
        <ele>1.1000000</ele>
        <time>2018-07-09T09:53:57Z</time>
      </trkpt>
      <trkpt lat="44.6334800" lon="14.7574690">
        <ele>1.1000000</ele>
        <time>2018-07-09T09:54:15Z</time>
      </trkpt>
      <trkpt lat="44.6330340" lon="14.7579130">
        <ele>0.6200000</ele>
        <time>2018-07-09T09:54:38Z</time>
      </trkpt>
      <trkpt lat="44.6326640" lon="14.7583260">
        <ele>1.5800000</ele>
        <time>2018-07-09T09:54:58Z</time>
      </trkpt>
      <trkpt lat="44.6322060" lon="14.7587850">
        <ele>1.1000000</ele>
        <time>2018-07-09T09:55:22Z</time>
      </trkpt>
      <trkpt lat="44.6317290" lon="14.7592440">
        <ele>1.1000000</ele>
        <time>2018-07-09T09:55:47Z</time>
      </trkpt>
      <trkpt lat="44.6312900" lon="14.7597210">
        <ele>1.1000000</ele>
        <time>2018-07-09T09:56:10Z</time>
      </trkpt>
      <trkpt lat="44.6308520" lon="14.7601490">
        <ele>1.5800000</ele>
        <time>2018-07-09T09:56:33Z</time>
      </trkpt>
      <trkpt lat="44.6303860" lon="14.7606220">
        <ele>1.5800000</ele>
        <time>2018-07-09T09:56:57Z</time>
      </trkpt>
      <trkpt lat="44.6299510" lon="14.7610520">
        <ele>1.1000000</ele>
        <time>2018-07-09T09:57:20Z</time>
      </trkpt>
      <trkpt lat="44.6294400" lon="14.7615730">
        <ele>1.5800000</ele>
        <time>2018-07-09T09:57:45Z</time>
      </trkpt>
      <trkpt lat="44.6290360" lon="14.7619930">
        <ele>1.5800000</ele>
        <time>2018-07-09T09:58:05Z</time>
      </trkpt>
      <trkpt lat="44.6285670" lon="14.7624640">
        <ele>1.1000000</ele>
        <time>2018-07-09T09:58:28Z</time>
      </trkpt>
      <trkpt lat="44.6281170" lon="14.7629420">
        <ele>1.5800000</ele>
        <time>2018-07-09T09:58:51Z</time>
      </trkpt>
      <trkpt lat="44.6276740" lon="14.7633900">
        <ele>1.1000000</ele>
        <time>2018-07-09T09:59:14Z</time>
      </trkpt>
      <trkpt lat="44.6271440" lon="14.7638840">
        <ele>1.5800000</ele>
        <time>2018-07-09T09:59:40Z</time>
      </trkpt>
      <trkpt lat="44.6267130" lon="14.7642670">
        <ele>1.5800000</ele>
        <time>2018-07-09T10:00:01Z</time>
      </trkpt>
      <trkpt lat="44.6261370" lon="14.7648220">
        <ele>1.5800000</ele>
        <time>2018-07-09T10:00:28Z</time>
      </trkpt>
      <trkpt lat="44.6256750" lon="14.7653150">
        <ele>1.5800000</ele>
        <time>2018-07-09T10:00:51Z</time>
      </trkpt>
      <trkpt lat="44.6251950" lon="14.7657960">
        <ele>1.5800000</ele>
        <time>2018-07-09T10:01:13Z</time>
      </trkpt>
      <trkpt lat="44.6247980" lon="14.7663030">
        <ele>1.5800000</ele>
        <time>2018-07-09T10:01:33Z</time>
      </trkpt>
      <trkpt lat="44.6243670" lon="14.7668020">
        <ele>2.0600000</ele>
        <time>2018-07-09T10:01:52Z</time>
      </trkpt>
      <trkpt lat="44.6237340" lon="14.7674240">
        <ele>1.5800000</ele>
        <time>2018-07-09T10:02:18Z</time>
      </trkpt>
      <trkpt lat="44.6232530" lon="14.7679340">
        <ele>2.0600000</ele>
        <time>2018-07-09T10:02:39Z</time>
      </trkpt>
      <trkpt lat="44.6226920" lon="14.7684370">
        <ele>1.5800000</ele>
        <time>2018-07-09T10:03:02Z</time>
      </trkpt>
      <trkpt lat="44.6222040" lon="14.7689500">
        <ele>1.5800000</ele>
        <time>2018-07-09T10:03:25Z</time>
      </trkpt>
      <trkpt lat="44.6216620" lon="14.7694330">
        <ele>1.5800000</ele>
        <time>2018-07-09T10:03:49Z</time>
      </trkpt>
      <trkpt lat="44.6212230" lon="14.7698020">
        <ele>0.6200000</ele>
        <time>2018-07-09T10:04:09Z</time>
      </trkpt>
      <trkpt lat="44.6206780" lon="14.7702540">
        <ele>1.1000000</ele>
        <time>2018-07-09T10:04:35Z</time>
      </trkpt>
      <trkpt lat="44.6201520" lon="14.7707370">
        <ele>1.1000000</ele>
        <time>2018-07-09T10:05:00Z</time>
      </trkpt>
      <trkpt lat="44.6197550" lon="14.7710910">
        <ele>1.1000000</ele>
        <time>2018-07-09T10:05:19Z</time>
      </trkpt>
      <trkpt lat="44.6192470" lon="14.7715440">
        <ele>1.1000000</ele>
        <time>2018-07-09T10:05:45Z</time>
      </trkpt>
      <trkpt lat="44.6188550" lon="14.7719200">
        <ele>1.1000000</ele>
        <time>2018-07-09T10:06:05Z</time>
      </trkpt>
      <trkpt lat="44.6184650" lon="14.7722800">
        <ele>1.1000000</ele>
        <time>2018-07-09T10:06:25Z</time>
      </trkpt>
      <trkpt lat="44.6180840" lon="14.7724930">
        <ele>1.1000000</ele>
        <time>2018-07-09T10:06:45Z</time>
      </trkpt>
      <trkpt lat="44.6176610" lon="14.7727930">
        <ele>1.1000000</ele>
        <time>2018-07-09T10:07:08Z</time>
      </trkpt>
      <trkpt lat="44.6171570" lon="14.7731960">
        <ele>1.5800000</ele>
        <time>2018-07-09T10:07:34Z</time>
      </trkpt>
      <trkpt lat="44.6166310" lon="14.7736470">
        <ele>1.1000000</ele>
        <time>2018-07-09T10:08:01Z</time>
      </trkpt>
      <trkpt lat="44.6161730" lon="14.7741250">
        <ele>1.5800000</ele>
        <time>2018-07-09T10:08:22Z</time>
      </trkpt>
      <trkpt lat="44.6157570" lon="14.7745050">
        <ele>1.5800000</ele>
        <time>2018-07-09T10:08:41Z</time>
      </trkpt>
      <trkpt lat="44.6153070" lon="14.7749400">
        <ele>1.1000000</ele>
        <time>2018-07-09T10:09:02Z</time>
      </trkpt>
      <trkpt lat="44.6149410" lon="14.7752810">
        <ele>1.1000000</ele>
        <time>2018-07-09T10:09:19Z</time>
      </trkpt>
      <trkpt lat="44.6144940" lon="14.7756840">
        <ele>1.5800000</ele>
        <time>2018-07-09T10:09:42Z</time>
      </trkpt>
      <trkpt lat="44.6140630" lon="14.7761190">
        <ele>1.5800000</ele>
        <time>2018-07-09T10:10:05Z</time>
      </trkpt>
      <trkpt lat="44.6136360" lon="14.7765820">
        <ele>1.1000000</ele>
        <time>2018-07-09T10:10:28Z</time>
      </trkpt>
      <trkpt lat="44.6131320" lon="14.7771410">
        <ele>0.6200000</ele>
        <time>2018-07-09T10:10:54Z</time>
      </trkpt>
      <trkpt lat="44.6127090" lon="14.7776170">
        <ele>1.1000000</ele>
        <time>2018-07-09T10:11:16Z</time>
      </trkpt>
      <trkpt lat="44.6122820" lon="14.7781120">
        <ele>1.1000000</ele>
        <time>2018-07-09T10:11:37Z</time>
      </trkpt>
      <trkpt lat="44.6118550" lon="14.7785240">
        <ele>1.5800000</ele>
        <time>2018-07-09T10:11:58Z</time>
      </trkpt>
      <trkpt lat="44.6114580" lon="14.7789770">
        <ele>1.1000000</ele>
        <time>2018-07-09T10:12:21Z</time>
      </trkpt>
      <trkpt lat="44.6110530" lon="14.7795320">
        <ele>1.5800000</ele>
        <time>2018-07-09T10:12:45Z</time>
      </trkpt>
      <trkpt lat="44.6106410" lon="14.7800900">
        <ele>1.1000000</ele>
        <time>2018-07-09T10:13:10Z</time>
      </trkpt>
      <trkpt lat="44.6103130" lon="14.7805890">
        <ele>1.5800000</ele>
        <time>2018-07-09T10:13:31Z</time>
      </trkpt>
      <trkpt lat="44.6098980" lon="14.7811530">
        <ele>1.5800000</ele>
        <time>2018-07-09T10:13:56Z</time>
      </trkpt>
      <trkpt lat="44.6095660" lon="14.7816590">
        <ele>1.5800000</ele>
        <time>2018-07-09T10:14:16Z</time>
      </trkpt>
      <trkpt lat="44.6092760" lon="14.7820490">
        <ele>1.5800000</ele>
        <time>2018-07-09T10:14:33Z</time>
      </trkpt>
      <trkpt lat="44.6089670" lon="14.7824260">
        <ele>2.0600000</ele>
        <time>2018-07-09T10:14:52Z</time>
      </trkpt>
      <trkpt lat="44.6085780" lon="14.7828390">
        <ele>2.0600000</ele>
        <time>2018-07-09T10:15:15Z</time>
      </trkpt>
      <trkpt lat="44.6083300" lon="14.7831290">
        <ele>1.5800000</ele>
        <time>2018-07-09T10:15:30Z</time>
      </trkpt>
      <trkpt lat="44.6080440" lon="14.7836230">
        <ele>2.0600000</ele>
        <time>2018-07-09T10:15:48Z</time>
      </trkpt>
      <trkpt lat="44.6076010" lon="14.7842070">
        <ele>2.0600000</ele>
        <time>2018-07-09T10:16:10Z</time>
      </trkpt>
      <trkpt lat="44.6071700" lon="14.7847970">
        <ele>2.0600000</ele>
        <time>2018-07-09T10:16:30Z</time>
      </trkpt>
      <trkpt lat="44.6066630" lon="14.7855360">
        <ele>2.0600000</ele>
        <time>2018-07-09T10:16:55Z</time>
      </trkpt>
      <trkpt lat="44.6062320" lon="14.7861850">
        <ele>2.5400000</ele>
        <time>2018-07-09T10:17:17Z</time>
      </trkpt>
      <trkpt lat="44.6059040" lon="14.7869400">
        <ele>3.0200000</ele>
        <time>2018-07-09T10:17:39Z</time>
      </trkpt>
      <trkpt lat="44.6055340" lon="14.7876540">
        <ele>2.5400000</ele>
        <time>2018-07-09T10:18:01Z</time>
      </trkpt>
      <trkpt lat="44.6052020" lon="14.7882740">
        <ele>2.0600000</ele>
        <time>2018-07-09T10:18:21Z</time>
      </trkpt>
      <trkpt lat="44.6048930" lon="14.7888240">
        <ele>2.5400000</ele>
        <time>2018-07-09T10:18:41Z</time>
      </trkpt>
      <trkpt lat="44.6046070" lon="14.7893580">
        <ele>2.5400000</ele>
        <time>2018-07-09T10:19:00Z</time>
      </trkpt>
      <trkpt lat="44.6043170" lon="14.7898330">
        <ele>3.0200000</ele>
        <time>2018-07-09T10:19:17Z</time>
      </trkpt>
      <trkpt lat="44.6040150" lon="14.7903720">
        <ele>2.5400000</ele>
        <time>2018-07-09T10:19:35Z</time>
      </trkpt>
      <trkpt lat="44.6036530" lon="14.7909870">
        <ele>2.0600000</ele>
        <time>2018-07-09T10:19:57Z</time>
      </trkpt>
      <trkpt lat="44.6033020" lon="14.7915850">
        <ele>2.0600000</ele>
        <time>2018-07-09T10:20:19Z</time>
      </trkpt>
      <trkpt lat="44.6030160" lon="14.7920850">
        <ele>2.5400000</ele>
        <time>2018-07-09T10:20:37Z</time>
      </trkpt>
      <trkpt lat="44.6027410" lon="14.7925770">
        <ele>2.0600000</ele>
        <time>2018-07-09T10:20:55Z</time>
      </trkpt>
      <trkpt lat="44.6025050" lon="14.7930000">
        <ele>2.5400000</ele>
        <time>2018-07-09T10:21:12Z</time>
      </trkpt>
      <trkpt lat="44.6022720" lon="14.7934120">
        <ele>2.5400000</ele>
        <time>2018-07-09T10:21:30Z</time>
      </trkpt>
      <trkpt lat="44.6019780" lon="14.7939440">
        <ele>2.0600000</ele>
        <time>2018-07-09T10:21:54Z</time>
      </trkpt>
      <trkpt lat="44.6016770" lon="14.7944150">
        <ele>2.0600000</ele>
        <time>2018-07-09T10:22:18Z</time>
      </trkpt>
      <trkpt lat="44.6014290" lon="14.7948070">
        <ele>2.0600000</ele>
        <time>2018-07-09T10:22:39Z</time>
      </trkpt>
      <trkpt lat="44.6011580" lon="14.7952360">
        <ele>2.0600000</ele>
        <time>2018-07-09T10:23:01Z</time>
      </trkpt>
      <trkpt lat="44.6008000" lon="14.7957920">
        <ele>1.5800000</ele>
        <time>2018-07-09T10:23:25Z</time>
      </trkpt>
      <trkpt lat="44.6005100" lon="14.7962870">
        <ele>2.0600000</ele>
        <time>2018-07-09T10:23:45Z</time>
      </trkpt>
      <trkpt lat="44.6002160" lon="14.7967570">
        <ele>1.5800000</ele>
        <time>2018-07-09T10:24:06Z</time>
      </trkpt>
      <trkpt lat="44.5999070" lon="14.7972610">
        <ele>1.5800000</ele>
        <time>2018-07-09T10:24:29Z</time>
      </trkpt>
      <trkpt lat="44.5996780" lon="14.7976400">
        <ele>2.0600000</ele>
        <time>2018-07-09T10:24:46Z</time>
      </trkpt>
      <trkpt lat="44.5993800" lon="14.7981350">
        <ele>1.5800000</ele>
        <time>2018-07-09T10:25:08Z</time>
      </trkpt>
      <trkpt lat="44.5991020" lon="14.7985980">
        <ele>1.5800000</ele>
        <time>2018-07-09T10:25:29Z</time>
      </trkpt>
      <trkpt lat="44.5986820" lon="14.7992640">
        <ele>1.5800000</ele>
        <time>2018-07-09T10:25:57Z</time>
      </trkpt>
      <trkpt lat="44.5983580" lon="14.7997930">
        <ele>1.5800000</ele>
        <time>2018-07-09T10:26:17Z</time>
      </trkpt>
      <trkpt lat="44.5980300" lon="14.8003350">
        <ele>1.1000000</ele>
        <time>2018-07-09T10:26:38Z</time>
      </trkpt>
      <trkpt lat="44.5977550" lon="14.8007970">
        <ele>1.5800000</ele>
        <time>2018-07-09T10:26:56Z</time>
      </trkpt>
      <trkpt lat="44.5974620" lon="14.8012790">
        <ele>1.1000000</ele>
        <time>2018-07-09T10:27:15Z</time>
      </trkpt>
      <trkpt lat="44.5971070" lon="14.8018550">
        <ele>1.1000000</ele>
        <time>2018-07-09T10:27:39Z</time>
      </trkpt>
      <trkpt lat="44.5968250" lon="14.8023350">
        <ele>1.1000000</ele>
        <time>2018-07-09T10:27:59Z</time>
      </trkpt>
      <trkpt lat="44.5965310" lon="14.8028160">
        <ele>1.1000000</ele>
        <time>2018-07-09T10:28:20Z</time>
      </trkpt>
      <trkpt lat="44.5962640" lon="14.8032490">
        <ele>1.1000000</ele>
        <time>2018-07-09T10:28:40Z</time>
      </trkpt>
      <trkpt lat="44.5960350" lon="14.8036270">
        <ele>1.5800000</ele>
        <time>2018-07-09T10:28:58Z</time>
      </trkpt>
      <trkpt lat="44.5957300" lon="14.8041520">
        <ele>1.1000000</ele>
        <time>2018-07-09T10:29:24Z</time>
      </trkpt>
      <trkpt lat="44.5954550" lon="14.8046010">
        <ele>1.5800000</ele>
        <time>2018-07-09T10:29:47Z</time>
      </trkpt>
      <trkpt lat="44.5951810" lon="14.8050700">
        <ele>1.5800000</ele>
        <time>2018-07-09T10:30:09Z</time>
      </trkpt>
      <trkpt lat="44.5948680" lon="14.8055780">
        <ele>2.0600000</ele>
        <time>2018-07-09T10:30:29Z</time>
      </trkpt>
      <trkpt lat="44.5944790" lon="14.8062320">
        <ele>1.5800000</ele>
        <time>2018-07-09T10:30:52Z</time>
      </trkpt>
      <trkpt lat="44.5940740" lon="14.8069120">
        <ele>1.5800000</ele>
        <time>2018-07-09T10:31:14Z</time>
      </trkpt>
      <trkpt lat="44.5936510" lon="14.8075810">
        <ele>1.1000000</ele>
        <time>2018-07-09T10:31:36Z</time>
      </trkpt>
      <trkpt lat="44.5931630" lon="14.8082950">
        <ele>1.5800000</ele>
        <time>2018-07-09T10:31:59Z</time>
      </trkpt>
      <trkpt lat="44.5928380" lon="14.8088060">
        <ele>1.1000000</ele>
        <time>2018-07-09T10:32:17Z</time>
      </trkpt>
      <trkpt lat="44.5924570" lon="14.8093740">
        <ele>1.1000000</ele>
        <time>2018-07-09T10:32:38Z</time>
      </trkpt>
      <trkpt lat="44.5920140" lon="14.8100220">
        <ele>1.1000000</ele>
        <time>2018-07-09T10:33:03Z</time>
      </trkpt>
      <trkpt lat="44.5915910" lon="14.8106610">
        <ele>1.1000000</ele>
        <time>2018-07-09T10:33:28Z</time>
      </trkpt>
      <trkpt lat="44.5911750" lon="14.8112930">
        <ele>0.6200000</ele>
        <time>2018-07-09T10:33:52Z</time>
      </trkpt>
      <trkpt lat="44.5907330" lon="14.8119520">
        <ele>0.6200000</ele>
        <time>2018-07-09T10:34:18Z</time>
      </trkpt>
      <trkpt lat="44.5903550" lon="14.8125150">
        <ele>1.1000000</ele>
        <time>2018-07-09T10:34:40Z</time>
      </trkpt>
      <trkpt lat="44.5899090" lon="14.8131720">
        <ele>1.1000000</ele>
        <time>2018-07-09T10:35:07Z</time>
      </trkpt>
      <trkpt lat="44.5895310" lon="14.8137410">
        <ele>1.1000000</ele>
        <time>2018-07-09T10:35:30Z</time>
      </trkpt>
      <trkpt lat="44.5892030" lon="14.8142480">
        <ele>1.1000000</ele>
        <time>2018-07-09T10:35:52Z</time>
      </trkpt>
      <trkpt lat="44.5887990" lon="14.8148570">
        <ele>1.1000000</ele>
        <time>2018-07-09T10:36:18Z</time>
      </trkpt>
      <trkpt lat="44.5884820" lon="14.8153350">
        <ele>1.1000000</ele>
        <time>2018-07-09T10:36:39Z</time>
      </trkpt>
      <trkpt lat="44.5882030" lon="14.8157670">
        <ele>1.5800000</ele>
        <time>2018-07-09T10:37:01Z</time>
      </trkpt>
      <trkpt lat="44.5879360" lon="14.8161710">
        <ele>1.1000000</ele>
        <time>2018-07-09T10:37:23Z</time>
      </trkpt>
      <trkpt lat="44.5876880" lon="14.8165890">
        <ele>1.1000000</ele>
        <time>2018-07-09T10:37:43Z</time>
      </trkpt>
      <trkpt lat="44.5874480" lon="14.8169760">
        <ele>1.1000000</ele>
        <time>2018-07-09T10:38:01Z</time>
      </trkpt>
      <trkpt lat="44.5871620" lon="14.8174550">
        <ele>1.1000000</ele>
        <time>2018-07-09T10:38:23Z</time>
      </trkpt>
      <trkpt lat="44.5868840" lon="14.8179230">
        <ele>1.1000000</ele>
        <time>2018-07-09T10:38:45Z</time>
      </trkpt>
      <trkpt lat="44.5865900" lon="14.8184750">
        <ele>1.1000000</ele>
        <time>2018-07-09T10:39:09Z</time>
      </trkpt>
      <trkpt lat="44.5863150" lon="14.8189770">
        <ele>0.6200000</ele>
        <time>2018-07-09T10:39:30Z</time>
      </trkpt>
      <trkpt lat="44.5860060" lon="14.8195330">
        <ele>1.1000000</ele>
        <time>2018-07-09T10:39:55Z</time>
      </trkpt>
      <trkpt lat="44.5857160" lon="14.8200610">
        <ele>1.5800000</ele>
        <time>2018-07-09T10:40:19Z</time>
      </trkpt>
      <trkpt lat="44.5854680" lon="14.8205390">
        <ele>1.1000000</ele>
        <time>2018-07-09T10:40:41Z</time>
      </trkpt>
      <trkpt lat="44.5851780" lon="14.8210880">
        <ele>1.5800000</ele>
        <time>2018-07-09T10:41:04Z</time>
      </trkpt>
      <trkpt lat="44.5849150" lon="14.8215530">
        <ele>1.5800000</ele>
        <time>2018-07-09T10:41:24Z</time>
      </trkpt>
      <trkpt lat="44.5846330" lon="14.8217530">
        <ele>1.5800000</ele>
        <time>2018-07-09T10:41:41Z</time>
      </trkpt>
      <trkpt lat="44.5843510" lon="14.8216760">
        <ele>1.5800000</ele>
        <time>2018-07-09T10:41:56Z</time>
      </trkpt>
      <trkpt lat="44.5839770" lon="14.8214680">
        <ele>1.5800000</ele>
        <time>2018-07-09T10:42:13Z</time>
      </trkpt>
      <trkpt lat="44.5835610" lon="14.8212260">
        <ele>2.0600000</ele>
        <time>2018-07-09T10:42:30Z</time>
      </trkpt>
      <trkpt lat="44.5830650" lon="14.8210740">
        <ele>2.0600000</ele>
        <time>2018-07-09T10:42:49Z</time>
      </trkpt>
      <trkpt lat="44.5826530" lon="14.8208760">
        <ele>2.0600000</ele>
        <time>2018-07-09T10:43:05Z</time>
      </trkpt>
      <trkpt lat="44.5821380" lon="14.8206550">
        <ele>2.0600000</ele>
        <time>2018-07-09T10:43:26Z</time>
      </trkpt>
      <trkpt lat="44.5816920" lon="14.8204490">
        <ele>1.5800000</ele>
        <time>2018-07-09T10:43:45Z</time>
      </trkpt>
      <trkpt lat="44.5812570" lon="14.8202280">
        <ele>2.0600000</ele>
        <time>2018-07-09T10:44:04Z</time>
      </trkpt>
      <trkpt lat="44.5808560" lon="14.8200080">
        <ele>2.0600000</ele>
        <time>2018-07-09T10:44:22Z</time>
      </trkpt>
      <trkpt lat="44.5804480" lon="14.8197820">
        <ele>2.0600000</ele>
        <time>2018-07-09T10:44:40Z</time>
      </trkpt>
      <trkpt lat="44.5799830" lon="14.8195180">
        <ele>1.5800000</ele>
        <time>2018-07-09T10:45:01Z</time>
      </trkpt>
      <trkpt lat="44.5795590" lon="14.8192770">
        <ele>2.0600000</ele>
        <time>2018-07-09T10:45:20Z</time>
      </trkpt>
      <trkpt lat="44.5792010" lon="14.8191030">
        <ele>2.0600000</ele>
        <time>2018-07-09T10:45:36Z</time>
      </trkpt>
      <trkpt lat="44.5788610" lon="14.8189280">
        <ele>2.5400000</ele>
        <time>2018-07-09T10:45:50Z</time>
      </trkpt>
      <trkpt lat="44.5785100" lon="14.8187290">
        <ele>2.0600000</ele>
        <time>2018-07-09T10:46:05Z</time>
      </trkpt>
      <trkpt lat="44.5782130" lon="14.8185920">
        <ele>2.5400000</ele>
        <time>2018-07-09T10:46:19Z</time>
      </trkpt>
      <trkpt lat="44.5778850" lon="14.8183990">
        <ele>2.5400000</ele>
        <time>2018-07-09T10:46:34Z</time>
      </trkpt>
      <trkpt lat="44.5775600" lon="14.8182140">
        <ele>2.5400000</ele>
        <time>2018-07-09T10:46:50Z</time>
      </trkpt>
      <trkpt lat="44.5771830" lon="14.8180400">
        <ele>2.0600000</ele>
        <time>2018-07-09T10:47:08Z</time>
      </trkpt>
      <trkpt lat="44.5767520" lon="14.8178170">
        <ele>2.0600000</ele>
        <time>2018-07-09T10:47:28Z</time>
      </trkpt>
      <trkpt lat="44.5763510" lon="14.8176050">
        <ele>2.0600000</ele>
        <time>2018-07-09T10:47:47Z</time>
      </trkpt>
      <trkpt lat="44.5760000" lon="14.8174200">
        <ele>1.5800000</ele>
        <time>2018-07-09T10:48:04Z</time>
      </trkpt>
      <trkpt lat="44.5755540" lon="14.8171840">
        <ele>1.5800000</ele>
        <time>2018-07-09T10:48:26Z</time>
      </trkpt>
      <trkpt lat="44.5751840" lon="14.8169800">
        <ele>2.0600000</ele>
        <time>2018-07-09T10:48:45Z</time>
      </trkpt>
      <trkpt lat="44.5747640" lon="14.8167570">
        <ele>2.0600000</ele>
        <time>2018-07-09T10:49:06Z</time>
      </trkpt>
      <trkpt lat="44.5744480" lon="14.8165870">
        <ele>1.5800000</ele>
        <time>2018-07-09T10:49:22Z</time>
      </trkpt>
      <trkpt lat="44.5740890" lon="14.8164070">
        <ele>1.5800000</ele>
        <time>2018-07-09T10:49:40Z</time>
      </trkpt>
      <trkpt lat="44.5737110" lon="14.8162180">
        <ele>2.0600000</ele>
        <time>2018-07-09T10:50:00Z</time>
      </trkpt>
      <trkpt lat="44.5734100" lon="14.8160560">
        <ele>1.5800000</ele>
        <time>2018-07-09T10:50:16Z</time>
      </trkpt>
      <trkpt lat="44.5730930" lon="14.8158940">
        <ele>2.0600000</ele>
        <time>2018-07-09T10:50:32Z</time>
      </trkpt>
      <trkpt lat="44.5727880" lon="14.8157390">
        <ele>1.5800000</ele>
        <time>2018-07-09T10:50:48Z</time>
      </trkpt>
      <trkpt lat="44.5724790" lon="14.8155980">
        <ele>1.1000000</ele>
        <time>2018-07-09T10:51:04Z</time>
      </trkpt>
      <trkpt lat="44.5721820" lon="14.8154430">
        <ele>1.5800000</ele>
        <time>2018-07-09T10:51:20Z</time>
      </trkpt>
      <trkpt lat="44.5717660" lon="14.8152370">
        <ele>1.5800000</ele>
        <time>2018-07-09T10:51:43Z</time>
      </trkpt>
      <trkpt lat="44.5713540" lon="14.8150380">
        <ele>2.0600000</ele>
        <time>2018-07-09T10:52:05Z</time>
      </trkpt>
      <trkpt lat="44.5710450" lon="14.8148840">
        <ele>1.5800000</ele>
        <time>2018-07-09T10:52:22Z</time>
      </trkpt>
      <trkpt lat="44.5706370" lon="14.8146800">
        <ele>1.5800000</ele>
        <time>2018-07-09T10:52:43Z</time>
      </trkpt>
      <trkpt lat="44.5702020" lon="14.8144600">
        <ele>1.1000000</ele>
        <time>2018-07-09T10:53:05Z</time>
      </trkpt>
      <trkpt lat="44.5698430" lon="14.8142860">
        <ele>1.1000000</ele>
        <time>2018-07-09T10:53:22Z</time>
      </trkpt>
      <trkpt lat="44.5694500" lon="14.8140860">
        <ele>1.1000000</ele>
        <time>2018-07-09T10:53:41Z</time>
      </trkpt>
      <trkpt lat="44.5691070" lon="14.8139090">
        <ele>1.1000000</ele>
        <time>2018-07-09T10:53:58Z</time>
      </trkpt>
      <trkpt lat="44.5687520" lon="14.8137390">
        <ele>1.5800000</ele>
        <time>2018-07-09T10:54:16Z</time>
      </trkpt>
      <trkpt lat="44.5684130" lon="14.8135620">
        <ele>1.1000000</ele>
        <time>2018-07-09T10:54:33Z</time>
      </trkpt>
      <trkpt lat="44.5680350" lon="14.8133640">
        <ele>1.1000000</ele>
        <time>2018-07-09T10:54:51Z</time>
      </trkpt>
      <trkpt lat="44.5675930" lon="14.8131470">
        <ele>1.1000000</ele>
        <time>2018-07-09T10:55:13Z</time>
      </trkpt>
      <trkpt lat="44.5672190" lon="14.8129590">
        <ele>1.5800000</ele>
        <time>2018-07-09T10:55:32Z</time>
      </trkpt>
      <trkpt lat="44.5668260" lon="14.8127510">
        <ele>1.5800000</ele>
        <time>2018-07-09T10:55:52Z</time>
      </trkpt>
      <trkpt lat="44.5665440" lon="14.8126380">
        <ele>1.1000000</ele>
        <time>2018-07-09T10:56:06Z</time>
      </trkpt>
      <trkpt lat="44.5661620" lon="14.8124280">
        <ele>1.1000000</ele>
        <time>2018-07-09T10:56:24Z</time>
      </trkpt>
      <trkpt lat="44.5657160" lon="14.8122110">
        <ele>0.6200000</ele>
        <time>2018-07-09T10:56:46Z</time>
      </trkpt>
      <trkpt lat="44.5653150" lon="14.8120140">
        <ele>0.6200000</ele>
        <time>2018-07-09T10:57:06Z</time>
      </trkpt>
      <trkpt lat="44.5649570" lon="14.8118290">
        <ele>0.6200000</ele>
        <time>2018-07-09T10:57:25Z</time>
      </trkpt>
      <trkpt lat="44.5646290" lon="14.8116720">
        <ele>0.6200000</ele>
        <time>2018-07-09T10:57:42Z</time>
      </trkpt>
      <trkpt lat="44.5642400" lon="14.8114910">
        <ele>0.6200000</ele>
        <time>2018-07-09T10:58:02Z</time>
      </trkpt>
      <trkpt lat="44.5638580" lon="14.8112850">
        <ele>0.6200000</ele>
        <time>2018-07-09T10:58:21Z</time>
      </trkpt>
      <trkpt lat="44.5634840" lon="14.8111030">
        <ele>0.1400000</ele>
        <time>2018-07-09T10:58:40Z</time>
      </trkpt>
      <trkpt lat="44.5631180" lon="14.8109210">
        <ele>0.6200000</ele>
        <time>2018-07-09T10:59:00Z</time>
      </trkpt>
      <trkpt lat="44.5627520" lon="14.8107450">
        <ele>0.1400000</ele>
        <time>2018-07-09T10:59:21Z</time>
      </trkpt>
      <trkpt lat="44.5624690" lon="14.8106160">
        <ele>0.1400000</ele>
        <time>2018-07-09T10:59:38Z</time>
      </trkpt>
      <trkpt lat="44.5621190" lon="14.8104530">
        <ele>0.1400000</ele>
        <time>2018-07-09T10:59:59Z</time>
      </trkpt>
      <trkpt lat="44.5618210" lon="14.8103010">
        <ele>0.1400000</ele>
        <time>2018-07-09T11:00:18Z</time>
      </trkpt>
      <trkpt lat="44.5615430" lon="14.8101450">
        <ele>-0.3400000</ele>
        <time>2018-07-09T11:00:37Z</time>
      </trkpt>
      <trkpt lat="44.5612950" lon="14.8100190">
        <ele>0.1400000</ele>
        <time>2018-07-09T11:00:55Z</time>
      </trkpt>
      <trkpt lat="44.5610390" lon="14.8098890">
        <ele>0.1400000</ele>
        <time>2018-07-09T11:01:14Z</time>
      </trkpt>
      <trkpt lat="44.5608710" lon="14.8098640">
        <ele>0.1400000</ele>
        <time>2018-07-09T11:01:28Z</time>
      </trkpt>
      <trkpt lat="44.5607300" lon="14.8101630">
        <ele>-0.3400000</ele>
        <time>2018-07-09T11:01:48Z</time>
      </trkpt>
      <trkpt lat="44.5606120" lon="14.8104550">
        <ele>-0.3400000</ele>
        <time>2018-07-09T11:02:05Z</time>
      </trkpt>
      <trkpt lat="44.5604860" lon="14.8107840">
        <ele>-0.3400000</ele>
        <time>2018-07-09T11:02:23Z</time>
      </trkpt>
      <trkpt lat="44.5603070" lon="14.8112030">
        <ele>0.1400000</ele>
        <time>2018-07-09T11:02:46Z</time>
      </trkpt>
      <trkpt lat="44.5601460" lon="14.8115230">
        <ele>0.1400000</ele>
        <time>2018-07-09T11:03:04Z</time>
      </trkpt>
      <trkpt lat="44.5599590" lon="14.8119170">
        <ele>-0.3400000</ele>
        <time>2018-07-09T11:03:24Z</time>
      </trkpt>
      <trkpt lat="44.5597190" lon="14.8123500">
        <ele>0.1400000</ele>
        <time>2018-07-09T11:03:48Z</time>
      </trkpt>
      <trkpt lat="44.5594220" lon="14.8128480">
        <ele>0.1400000</ele>
        <time>2018-07-09T11:04:17Z</time>
      </trkpt>
      <trkpt lat="44.5592350" lon="14.8131510">
        <ele>0.1400000</ele>
        <time>2018-07-09T11:04:36Z</time>
      </trkpt>
      <trkpt lat="44.5590590" lon="14.8134580">
        <ele>0.1400000</ele>
        <time>2018-07-09T11:04:56Z</time>
      </trkpt>
      <trkpt lat="44.5588720" lon="14.8138300">
        <ele>0.1400000</ele>
        <time>2018-07-09T11:05:20Z</time>
      </trkpt>
      <trkpt lat="44.5587040" lon="14.8141780">
        <ele>0.1400000</ele>
        <time>2018-07-09T11:05:42Z</time>
      </trkpt>
      <trkpt lat="44.5585060" lon="14.8145470">
        <ele>0.6200000</ele>
        <time>2018-07-09T11:06:05Z</time>
      </trkpt>
      <trkpt lat="44.5583110" lon="14.8149340">
        <ele>0.1400000</ele>
        <time>2018-07-09T11:06:27Z</time>
      </trkpt>
      <trkpt lat="44.5581780" lon="14.8151870">
        <ele>0.1400000</ele>
        <time>2018-07-09T11:06:42Z</time>
      </trkpt>
      <trkpt lat="44.5580020" lon="14.8155420">
        <ele>0.1400000</ele>
        <time>2018-07-09T11:07:03Z</time>
      </trkpt>
      <trkpt lat="44.5578190" lon="14.8158880">
        <ele>0.6200000</ele>
        <time>2018-07-09T11:07:25Z</time>
      </trkpt>
      <trkpt lat="44.5576740" lon="14.8161750">
        <ele>0.6200000</ele>
        <time>2018-07-09T11:07:43Z</time>
      </trkpt>
      <trkpt lat="44.5574680" lon="14.8165800">
        <ele>0.6200000</ele>
        <time>2018-07-09T11:08:07Z</time>
      </trkpt>
      <trkpt lat="44.5572890" lon="14.8169140">
        <ele>0.6200000</ele>
        <time>2018-07-09T11:08:28Z</time>
      </trkpt>
      <trkpt lat="44.5571400" lon="14.8172210">
        <ele>0.6200000</ele>
        <time>2018-07-09T11:08:48Z</time>
      </trkpt>
      <trkpt lat="44.5569690" lon="14.8175750">
        <ele>0.6200000</ele>
        <time>2018-07-09T11:09:11Z</time>
      </trkpt>
      <trkpt lat="44.5567700" lon="14.8179580">
        <ele>1.1000000</ele>
        <time>2018-07-09T11:09:34Z</time>
      </trkpt>
      <trkpt lat="44.5565830" lon="14.8183120">
        <ele>0.6200000</ele>
        <time>2018-07-09T11:09:55Z</time>
      </trkpt>
      <trkpt lat="44.5563810" lon="14.8187180">
        <ele>0.6200000</ele>
        <time>2018-07-09T11:10:19Z</time>
      </trkpt>
      <trkpt lat="44.5562020" lon="14.8190540">
        <ele>1.1000000</ele>
        <time>2018-07-09T11:10:37Z</time>
      </trkpt>
      <trkpt lat="44.5560110" lon="14.8194350">
        <ele>1.1000000</ele>
        <time>2018-07-09T11:10:58Z</time>
      </trkpt>
      <trkpt lat="44.5557900" lon="14.8198570">
        <ele>1.1000000</ele>
        <time>2018-07-09T11:11:23Z</time>
      </trkpt>
      <trkpt lat="44.5555950" lon="14.8202530">
        <ele>0.6200000</ele>
        <time>2018-07-09T11:11:45Z</time>
      </trkpt>
      <trkpt lat="44.5553820" lon="14.8206690">
        <ele>1.1000000</ele>
        <time>2018-07-09T11:12:10Z</time>
      </trkpt>
      <trkpt lat="44.5552100" lon="14.8210090">
        <ele>1.5800000</ele>
        <time>2018-07-09T11:12:30Z</time>
      </trkpt>
      <trkpt lat="44.5550160" lon="14.8213830">
        <ele>1.1000000</ele>
        <time>2018-07-09T11:12:53Z</time>
      </trkpt>
      <trkpt lat="44.5548210" lon="14.8217570">
        <ele>1.1000000</ele>
        <time>2018-07-09T11:13:15Z</time>
      </trkpt>
      <trkpt lat="44.5546110" lon="14.8221670">
        <ele>1.1000000</ele>
        <time>2018-07-09T11:13:39Z</time>
      </trkpt>
      <trkpt lat="44.5543980" lon="14.8225980">
        <ele>1.1000000</ele>
        <time>2018-07-09T11:14:03Z</time>
      </trkpt>
      <trkpt lat="44.5541610" lon="14.8230590">
        <ele>0.6200000</ele>
        <time>2018-07-09T11:14:28Z</time>
      </trkpt>
      <trkpt lat="44.5539670" lon="14.8234370">
        <ele>1.1000000</ele>
        <time>2018-07-09T11:14:48Z</time>
      </trkpt>
      <trkpt lat="44.5537490" lon="14.8238710">
        <ele>1.1000000</ele>
        <time>2018-07-09T11:15:11Z</time>
      </trkpt>
      <trkpt lat="44.5534970" lon="14.8243630">
        <ele>1.1000000</ele>
        <time>2018-07-09T11:15:34Z</time>
      </trkpt>
      <trkpt lat="44.5531850" lon="14.8249400">
        <ele>1.1000000</ele>
        <time>2018-07-09T11:16:00Z</time>
      </trkpt>
      <trkpt lat="44.5528140" lon="14.8255380">
        <ele>1.1000000</ele>
        <time>2018-07-09T11:16:26Z</time>
      </trkpt>
      <trkpt lat="44.5524980" lon="14.8260470">
        <ele>1.5800000</ele>
        <time>2018-07-09T11:16:48Z</time>
      </trkpt>
      <trkpt lat="44.5521770" lon="14.8265810">
        <ele>1.1000000</ele>
        <time>2018-07-09T11:17:12Z</time>
      </trkpt>
      <trkpt lat="44.5518720" lon="14.8270790">
        <ele>0.6200000</ele>
        <time>2018-07-09T11:17:36Z</time>
      </trkpt>
      <trkpt lat="44.5515370" lon="14.8276390">
        <ele>1.5800000</ele>
        <time>2018-07-09T11:18:03Z</time>
      </trkpt>
      <trkpt lat="44.5512430" lon="14.8281130">
        <ele>1.1000000</ele>
        <time>2018-07-09T11:18:28Z</time>
      </trkpt>
      <trkpt lat="44.5509490" lon="14.8285880">
        <ele>2.0600000</ele>
        <time>2018-07-09T11:18:54Z</time>
      </trkpt>
      <trkpt lat="44.5507240" lon="14.8289520">
        <ele>1.1000000</ele>
        <time>2018-07-09T11:19:14Z</time>
      </trkpt>
      <trkpt lat="44.5504530" lon="14.8293870">
        <ele>1.1000000</ele>
        <time>2018-07-09T11:19:39Z</time>
      </trkpt>
      <trkpt lat="44.5501820" lon="14.8298440">
        <ele>0.6200000</ele>
        <time>2018-07-09T11:20:04Z</time>
      </trkpt>
      <trkpt lat="44.5499530" lon="14.8302130">
        <ele>1.1000000</ele>
        <time>2018-07-09T11:20:25Z</time>
      </trkpt>
      <trkpt lat="44.5497090" lon="14.8306260">
        <ele>1.1000000</ele>
        <time>2018-07-09T11:20:50Z</time>
      </trkpt>
      <trkpt lat="44.5494610" lon="14.8310310">
        <ele>1.1000000</ele>
        <time>2018-07-09T11:21:16Z</time>
      </trkpt>
      <trkpt lat="44.5492130" lon="14.8314130">
        <ele>1.1000000</ele>
        <time>2018-07-09T11:21:42Z</time>
      </trkpt>
      <trkpt lat="44.5489920" lon="14.8317650">
        <ele>0.6200000</ele>
        <time>2018-07-09T11:22:06Z</time>
      </trkpt>
      <trkpt lat="44.5487790" lon="14.8321120">
        <ele>1.1000000</ele>
        <time>2018-07-09T11:22:30Z</time>
      </trkpt>
      <trkpt lat="44.5485950" lon="14.8323890">
        <ele>1.1000000</ele>
        <time>2018-07-09T11:22:51Z</time>
      </trkpt>
      <trkpt lat="44.5484090" lon="14.8326920">
        <ele>0.6200000</ele>
        <time>2018-07-09T11:23:13Z</time>
      </trkpt>
      <trkpt lat="44.5482410" lon="14.8329570">
        <ele>0.6200000</ele>
        <time>2018-07-09T11:23:33Z</time>
      </trkpt>
      <trkpt lat="44.5480840" lon="14.8332040">
        <ele>0.6200000</ele>
        <time>2018-07-09T11:23:50Z</time>
      </trkpt>
      <trkpt lat="44.5479350" lon="14.8334570">
        <ele>0.6200000</ele>
        <time>2018-07-09T11:24:08Z</time>
      </trkpt>
      <trkpt lat="44.5477180" lon="14.8338320">
        <ele>0.1400000</ele>
        <time>2018-07-09T11:24:35Z</time>
      </trkpt>
      <trkpt lat="44.5475120" lon="14.8341720">
        <ele>0.6200000</ele>
        <time>2018-07-09T11:25:01Z</time>
      </trkpt>
      <trkpt lat="44.5473480" lon="14.8344790">
        <ele>0.1400000</ele>
        <time>2018-07-09T11:25:24Z</time>
      </trkpt>
      <trkpt lat="44.5472150" lon="14.8347190">
        <ele>0.6200000</ele>
        <time>2018-07-09T11:25:43Z</time>
      </trkpt>
      <trkpt lat="44.5470730" lon="14.8349680">
        <ele>0.1400000</ele>
        <time>2018-07-09T11:26:03Z</time>
      </trkpt>
      <trkpt lat="44.5469250" lon="14.8352560">
        <ele>0.6200000</ele>
        <time>2018-07-09T11:26:26Z</time>
      </trkpt>
      <trkpt lat="44.5467610" lon="14.8356080">
        <ele>-0.3400000</ele>
        <time>2018-07-09T11:26:48Z</time>
      </trkpt>
      <trkpt lat="44.5466000" lon="14.8359350">
        <ele>0.1400000</ele>
        <time>2018-07-09T11:27:07Z</time>
      </trkpt>
      <trkpt lat="44.5465160" lon="14.8363120">
        <ele>0.6200000</ele>
        <time>2018-07-09T11:27:28Z</time>
      </trkpt>
      <trkpt lat="44.5466580" lon="14.8365000">
        <ele>0.6200000</ele>
        <time>2018-07-09T11:27:45Z</time>
      </trkpt>
      <trkpt lat="44.5468060" lon="14.8364680">
        <ele>0.6200000</ele>
        <time>2018-07-09T11:28:04Z</time>
      </trkpt>
      <trkpt lat="44.5469170" lon="14.8364100">
        <ele>0.6200000</ele>
        <time>2018-07-09T11:28:27Z</time>
      </trkpt>
      <trkpt lat="44.5470280" lon="14.8363850">
        <ele>0.6200000</ele>
        <time>2018-07-09T11:28:46Z</time>
      </trkpt>
      <trkpt lat="44.5471840" lon="14.8363470">
        <ele>1.1000000</ele>
        <time>2018-07-09T11:29:11Z</time>
      </trkpt>
      <trkpt lat="44.5473100" lon="14.8363080">
        <ele>0.6200000</ele>
        <time>2018-07-09T11:29:29Z</time>
      </trkpt>
      <trkpt lat="44.5474400" lon="14.8362930">
        <ele>0.6200000</ele>
        <time>2018-07-09T11:29:48Z</time>
      </trkpt>
      <trkpt lat="44.5475540" lon="14.8362410">
        <ele>0.6200000</ele>
        <time>2018-07-09T11:30:07Z</time>
      </trkpt>
      <trkpt lat="44.5476990" lon="14.8361890">
        <ele>0.6200000</ele>
        <time>2018-07-09T11:30:26Z</time>
      </trkpt>
      <trkpt lat="44.5478250" lon="14.8361760">
        <ele>0.1400000</ele>
        <time>2018-07-09T11:30:48Z</time>
      </trkpt>
      <trkpt lat="44.5479430" lon="14.8361660">
        <ele>1.1000000</ele>
        <time>2018-07-09T11:31:07Z</time>
      </trkpt>
      <trkpt lat="44.5480500" lon="14.8361450">
        <ele>0.1400000</ele>
        <time>2018-07-09T11:31:25Z</time>
      </trkpt>
      <trkpt lat="44.5480880" lon="14.8361480">
        <ele>0.6200000</ele>
        <time>2018-07-09T11:31:46Z</time>
      </trkpt>
      <trkpt lat="44.5480880" lon="14.8361480">
        <ele>0.6200000</ele>
        <time>2018-07-09T11:32:09Z</time>
      </trkpt>
      <trkpt lat="44.5480880" lon="14.8361550">
        <ele>0.6200000</ele>
        <time>2018-07-09T11:32:32Z</time>
      </trkpt>
      <trkpt lat="44.5480770" lon="14.8361640">
        <ele>0.6200000</ele>
        <time>2018-07-09T11:32:51Z</time>
      </trkpt>
      <trkpt lat="44.5479740" lon="14.8360610">
        <ele>0.6200000</ele>
        <time>2018-07-09T11:33:17Z</time>
      </trkpt>
      <trkpt lat="44.5479350" lon="14.8360290">
        <ele>0.1400000</ele>
        <time>2018-07-09T11:33:22Z</time>
      </trkpt>
      <trkpt lat="44.5476990" lon="14.8361710">
        <ele>0.1400000</ele>
        <time>2018-07-09T11:33:45Z</time>
      </trkpt>
      <trkpt lat="44.5473980" lon="14.8364480">
        <ele>0.6200000</ele>
        <time>2018-07-09T11:34:05Z</time>
      </trkpt>
      <trkpt lat="44.5470470" lon="14.8367730">
        <ele>0.1400000</ele>
        <time>2018-07-09T11:34:26Z</time>
      </trkpt>
      <trkpt lat="44.5465580" lon="14.8372030">
        <ele>0.1400000</ele>
        <time>2018-07-09T11:34:50Z</time>
      </trkpt>
      <trkpt lat="44.5459670" lon="14.8377320">
        <ele>0.1400000</ele>
        <time>2018-07-09T11:35:17Z</time>
      </trkpt>
      <trkpt lat="44.5454940" lon="14.8381570">
        <ele>0.1400000</ele>
        <time>2018-07-09T11:35:38Z</time>
      </trkpt>
      <trkpt lat="44.5449330" lon="14.8386700">
        <ele>0.1400000</ele>
        <time>2018-07-09T11:36:04Z</time>
      </trkpt>
      <trkpt lat="44.5444870" lon="14.8390750">
        <ele>-0.3400000</ele>
        <time>2018-07-09T11:36:25Z</time>
      </trkpt>
      <trkpt lat="44.5440410" lon="14.8394820">
        <ele>0.1400000</ele>
        <time>2018-07-09T11:36:46Z</time>
      </trkpt>
      <trkpt lat="44.5436290" lon="14.8398570">
        <ele>-0.3400000</ele>
        <time>2018-07-09T11:37:05Z</time>
      </trkpt>
      <trkpt lat="44.5431590" lon="14.8402840">
        <ele>0.1400000</ele>
        <time>2018-07-09T11:37:27Z</time>
      </trkpt>
      <trkpt lat="44.5426640" lon="14.8407280">
        <ele>0.1400000</ele>
        <time>2018-07-09T11:37:50Z</time>
      </trkpt>
      <trkpt lat="44.5421490" lon="14.8412090">
        <ele>0.1400000</ele>
        <time>2018-07-09T11:38:14Z</time>
      </trkpt>
      <trkpt lat="44.5417400" lon="14.8415730">
        <ele>-0.3400000</ele>
        <time>2018-07-09T11:38:33Z</time>
      </trkpt>
      <trkpt lat="44.5411610" lon="14.8421030">
        <ele>-0.3400000</ele>
        <time>2018-07-09T11:39:00Z</time>
      </trkpt>
      <trkpt lat="44.5406380" lon="14.8425800">
        <ele>-0.3400000</ele>
        <time>2018-07-09T11:39:24Z</time>
      </trkpt>
      <trkpt lat="44.5400960" lon="14.8430730">
        <ele>-0.3400000</ele>
        <time>2018-07-09T11:39:49Z</time>
      </trkpt>
      <trkpt lat="44.5396160" lon="14.8435110">
        <ele>-0.8200000</ele>
        <time>2018-07-09T11:40:11Z</time>
      </trkpt>
      <trkpt lat="44.5391390" lon="14.8439410">
        <ele>-0.3400000</ele>
        <time>2018-07-09T11:40:33Z</time>
      </trkpt>
      <trkpt lat="44.5385630" lon="14.8444710">
        <ele>-0.3400000</ele>
        <time>2018-07-09T11:41:00Z</time>
      </trkpt>
      <trkpt lat="44.5379520" lon="14.8450190">
        <ele>-0.3400000</ele>
        <time>2018-07-09T11:41:28Z</time>
      </trkpt>
      <trkpt lat="44.5374980" lon="14.8454400">
        <ele>-0.3400000</ele>
        <time>2018-07-09T11:41:49Z</time>
      </trkpt>
      <trkpt lat="44.5370060" lon="14.8458930">
        <ele>-0.3400000</ele>
        <time>2018-07-09T11:42:12Z</time>
      </trkpt>
      <trkpt lat="44.5364840" lon="14.8463700">
        <ele>-0.3400000</ele>
        <time>2018-07-09T11:42:36Z</time>
      </trkpt>
      <trkpt lat="44.5359920" lon="14.8468320">
        <ele>-0.3400000</ele>
        <time>2018-07-09T11:42:59Z</time>
      </trkpt>
      <trkpt lat="44.5354080" lon="14.8473660">
        <ele>-0.3400000</ele>
        <time>2018-07-09T11:43:26Z</time>
      </trkpt>
      <trkpt lat="44.5349730" lon="14.8477610">
        <ele>-0.3400000</ele>
        <time>2018-07-09T11:43:46Z</time>
      </trkpt>
      <trkpt lat="44.5345610" lon="14.8481330">
        <ele>-0.3400000</ele>
        <time>2018-07-09T11:44:05Z</time>
      </trkpt>
      <trkpt lat="44.5340500" lon="14.8485980">
        <ele>-0.3400000</ele>
        <time>2018-07-09T11:44:29Z</time>
      </trkpt>
      <trkpt lat="44.5335620" lon="14.8490430">
        <ele>-0.3400000</ele>
        <time>2018-07-09T11:44:52Z</time>
      </trkpt>
      <trkpt lat="44.5329590" lon="14.8495950">
        <ele>-0.8200000</ele>
        <time>2018-07-09T11:45:20Z</time>
      </trkpt>
      <trkpt lat="44.5323450" lon="14.8501370">
        <ele>-0.3400000</ele>
        <time>2018-07-09T11:45:48Z</time>
      </trkpt>
      <trkpt lat="44.5319140" lon="14.8505280">
        <ele>-0.3400000</ele>
        <time>2018-07-09T11:46:08Z</time>
      </trkpt>
      <trkpt lat="44.5313570" lon="14.8510360">
        <ele>-0.8200000</ele>
        <time>2018-07-09T11:46:34Z</time>
      </trkpt>
      <trkpt lat="44.5308570" lon="14.8514860">
        <ele>-0.3400000</ele>
        <time>2018-07-09T11:46:57Z</time>
      </trkpt>
      <trkpt lat="44.5303460" lon="14.8519330">
        <ele>-0.3400000</ele>
        <time>2018-07-09T11:47:20Z</time>
      </trkpt>
      <trkpt lat="44.5297970" lon="14.8524330">
        <ele>-0.3400000</ele>
        <time>2018-07-09T11:47:45Z</time>
      </trkpt>
      <trkpt lat="44.5292050" lon="14.8529540">
        <ele>-0.3400000</ele>
        <time>2018-07-09T11:48:12Z</time>
      </trkpt>
      <trkpt lat="44.5287060" lon="14.8533950">
        <ele>-0.3400000</ele>
        <time>2018-07-09T11:48:35Z</time>
      </trkpt>
      <trkpt lat="44.5282020" lon="14.8538520">
        <ele>0.1400000</ele>
        <time>2018-07-09T11:48:58Z</time>
      </trkpt>
      <trkpt lat="44.5277520" lon="14.8542490">
        <ele>-0.3400000</ele>
        <time>2018-07-09T11:49:19Z</time>
      </trkpt>
      <trkpt lat="44.5273820" lon="14.8545850">
        <ele>-0.3400000</ele>
        <time>2018-07-09T11:49:36Z</time>
      </trkpt>
      <trkpt lat="44.5269200" lon="14.8549950">
        <ele>-0.3400000</ele>
        <time>2018-07-09T11:49:57Z</time>
      </trkpt>
      <trkpt lat="44.5263560" lon="14.8555020">
        <ele>0.1400000</ele>
        <time>2018-07-09T11:50:23Z</time>
      </trkpt>
      <trkpt lat="44.5258330" lon="14.8559770">
        <ele>-0.3400000</ele>
        <time>2018-07-09T11:50:47Z</time>
      </trkpt>
      <trkpt lat="44.5253220" lon="14.8564300">
        <ele>0.1400000</ele>
        <time>2018-07-09T11:51:10Z</time>
      </trkpt>
      <trkpt lat="44.5247270" lon="14.8569600">
        <ele>-0.3400000</ele>
        <time>2018-07-09T11:51:37Z</time>
      </trkpt>
      <trkpt lat="44.5242230" lon="14.8574030">
        <ele>-0.3400000</ele>
        <time>2018-07-09T11:52:00Z</time>
      </trkpt>
      <trkpt lat="44.5237050" lon="14.8578770">
        <ele>-0.3400000</ele>
        <time>2018-07-09T11:52:24Z</time>
      </trkpt>
      <trkpt lat="44.5231970" lon="14.8583150">
        <ele>-0.3400000</ele>
        <time>2018-07-09T11:52:47Z</time>
      </trkpt>
      <trkpt lat="44.5226400" lon="14.8587970">
        <ele>-0.3400000</ele>
        <time>2018-07-09T11:53:12Z</time>
      </trkpt>
      <trkpt lat="44.5221020" lon="14.8592580">
        <ele>-0.3400000</ele>
        <time>2018-07-09T11:53:36Z</time>
      </trkpt>
      <trkpt lat="44.5215760" lon="14.8597110">
        <ele>-0.3400000</ele>
        <time>2018-07-09T11:54:00Z</time>
      </trkpt>
      <trkpt lat="44.5210230" lon="14.8601920">
        <ele>-0.8200000</ele>
        <time>2018-07-09T11:54:25Z</time>
      </trkpt>
      <trkpt lat="44.5205730" lon="14.8605960">
        <ele>-0.3400000</ele>
        <time>2018-07-09T11:54:46Z</time>
      </trkpt>
      <trkpt lat="44.5200200" lon="14.8610790">
        <ele>-0.3400000</ele>
        <time>2018-07-09T11:55:11Z</time>
      </trkpt>
      <trkpt lat="44.5195730" lon="14.8614440">
        <ele>-0.3400000</ele>
        <time>2018-07-09T11:55:31Z</time>
      </trkpt>
      <trkpt lat="44.5190240" lon="14.8618400">
        <ele>-0.8200000</ele>
        <time>2018-07-09T11:55:54Z</time>
      </trkpt>
      <trkpt lat="44.5184520" lon="14.8622710">
        <ele>-0.8200000</ele>
        <time>2018-07-09T11:56:19Z</time>
      </trkpt>
      <trkpt lat="44.5179440" lon="14.8626340">
        <ele>-0.3400000</ele>
        <time>2018-07-09T11:56:41Z</time>
      </trkpt>
      <trkpt lat="44.5174520" lon="14.8630030">
        <ele>-0.8200000</ele>
        <time>2018-07-09T11:57:03Z</time>
      </trkpt>
      <trkpt lat="44.5168720" lon="14.8634550">
        <ele>-0.3400000</ele>
        <time>2018-07-09T11:57:29Z</time>
      </trkpt>
      <trkpt lat="44.5162930" lon="14.8639560">
        <ele>-0.8200000</ele>
        <time>2018-07-09T11:57:55Z</time>
      </trkpt>
      <trkpt lat="44.5157850" lon="14.8644000">
        <ele>-0.3400000</ele>
        <time>2018-07-09T11:58:18Z</time>
      </trkpt>
      <trkpt lat="44.5152050" lon="14.8648860">
        <ele>-0.8200000</ele>
        <time>2018-07-09T11:58:43Z</time>
      </trkpt>
      <trkpt lat="44.5147400" lon="14.8652820">
        <ele>-0.3400000</ele>
        <time>2018-07-09T11:59:04Z</time>
      </trkpt>
      <trkpt lat="44.5143090" lon="14.8656590">
        <ele>-0.8200000</ele>
        <time>2018-07-09T11:59:24Z</time>
      </trkpt>
      <trkpt lat="44.5139240" lon="14.8659950">
        <ele>-0.3400000</ele>
        <time>2018-07-09T11:59:42Z</time>
      </trkpt>
      <trkpt lat="44.5134390" lon="14.8664270">
        <ele>-0.3400000</ele>
        <time>2018-07-09T12:00:04Z</time>
      </trkpt>
      <trkpt lat="44.5130160" lon="14.8668000">
        <ele>-0.3400000</ele>
        <time>2018-07-09T12:00:23Z</time>
      </trkpt>
      <trkpt lat="44.5125540" lon="14.8671950">
        <ele>-0.3400000</ele>
        <time>2018-07-09T12:00:44Z</time>
      </trkpt>
      <trkpt lat="44.5120890" lon="14.8676180">
        <ele>-0.3400000</ele>
        <time>2018-07-09T12:01:06Z</time>
      </trkpt>
      <trkpt lat="44.5116080" lon="14.8680610">
        <ele>-0.3400000</ele>
        <time>2018-07-09T12:01:28Z</time>
      </trkpt>
      <trkpt lat="44.5110510" lon="14.8685980">
        <ele>-0.3400000</ele>
        <time>2018-07-09T12:01:54Z</time>
      </trkpt>
      <trkpt lat="44.5105440" lon="14.8690810">
        <ele>-0.3400000</ele>
        <time>2018-07-09T12:02:18Z</time>
      </trkpt>
      <trkpt lat="44.5101050" lon="14.8695140">
        <ele>0.1400000</ele>
        <time>2018-07-09T12:02:39Z</time>
      </trkpt>
      <trkpt lat="44.5096970" lon="14.8698870">
        <ele>0.1400000</ele>
        <time>2018-07-09T12:02:58Z</time>
      </trkpt>
      <trkpt lat="44.5092280" lon="14.8703350">
        <ele>0.1400000</ele>
        <time>2018-07-09T12:03:20Z</time>
      </trkpt>
      <trkpt lat="44.5087200" lon="14.8708290">
        <ele>-0.3400000</ele>
        <time>2018-07-09T12:03:44Z</time>
      </trkpt>
      <trkpt lat="44.5082400" lon="14.8712760">
        <ele>0.6200000</ele>
        <time>2018-07-09T12:04:07Z</time>
      </trkpt>
      <trkpt lat="44.5077930" lon="14.8717090">
        <ele>0.6200000</ele>
        <time>2018-07-09T12:04:29Z</time>
      </trkpt>
      <trkpt lat="44.5072900" lon="14.8721420">
        <ele>0.1400000</ele>
        <time>2018-07-09T12:04:53Z</time>
      </trkpt>
      <trkpt lat="44.5068860" lon="14.8723840">
        <ele>0.6200000</ele>
        <time>2018-07-09T12:05:11Z</time>
      </trkpt>
      <trkpt lat="44.5064280" lon="14.8728210">
        <ele>0.6200000</ele>
        <time>2018-07-09T12:05:33Z</time>
      </trkpt>
      <trkpt lat="44.5059430" lon="14.8733190">
        <ele>0.6200000</ele>
        <time>2018-07-09T12:05:57Z</time>
      </trkpt>
      <trkpt lat="44.5054550" lon="14.8738100">
        <ele>0.6200000</ele>
        <time>2018-07-09T12:06:21Z</time>
      </trkpt>
      <trkpt lat="44.5049480" lon="14.8743180">
        <ele>1.1000000</ele>
        <time>2018-07-09T12:06:46Z</time>
      </trkpt>
      <trkpt lat="44.5044590" lon="14.8748550">
        <ele>0.6200000</ele>
        <time>2018-07-09T12:07:11Z</time>
      </trkpt>
      <trkpt lat="44.5040280" lon="14.8753240">
        <ele>1.1000000</ele>
        <time>2018-07-09T12:07:33Z</time>
      </trkpt>
      <trkpt lat="44.5036320" lon="14.8757430">
        <ele>1.1000000</ele>
        <time>2018-07-09T12:07:53Z</time>
      </trkpt>
      <trkpt lat="44.5032730" lon="14.8761190">
        <ele>1.1000000</ele>
        <time>2018-07-09T12:08:11Z</time>
      </trkpt>
      <trkpt lat="44.5029220" lon="14.8765130">
        <ele>1.1000000</ele>
        <time>2018-07-09T12:08:29Z</time>
      </trkpt>
      <trkpt lat="44.5025330" lon="14.8769550">
        <ele>1.1000000</ele>
        <time>2018-07-09T12:08:49Z</time>
      </trkpt>
      <trkpt lat="44.5021590" lon="14.8773460">
        <ele>1.1000000</ele>
        <time>2018-07-09T12:09:08Z</time>
      </trkpt>
      <trkpt lat="44.5016940" lon="14.8778210">
        <ele>1.1000000</ele>
        <time>2018-07-09T12:09:31Z</time>
      </trkpt>
      <trkpt lat="44.5012020" lon="14.8783660">
        <ele>1.5800000</ele>
        <time>2018-07-09T12:09:56Z</time>
      </trkpt>
      <trkpt lat="44.5007400" lon="14.8788600">
        <ele>1.5800000</ele>
        <time>2018-07-09T12:10:19Z</time>
      </trkpt>
      <trkpt lat="44.5002290" lon="14.8794270">
        <ele>1.5800000</ele>
        <time>2018-07-09T12:10:45Z</time>
      </trkpt>
      <trkpt lat="44.4997630" lon="14.8799180">
        <ele>1.1000000</ele>
        <time>2018-07-09T12:11:08Z</time>
      </trkpt>
      <trkpt lat="44.4992870" lon="14.8804250">
        <ele>1.5800000</ele>
        <time>2018-07-09T12:11:32Z</time>
      </trkpt>
      <trkpt lat="44.4988780" lon="14.8808570">
        <ele>1.1000000</ele>
        <time>2018-07-09T12:11:52Z</time>
      </trkpt>
      <trkpt lat="44.4984210" lon="14.8813310">
        <ele>1.1000000</ele>
        <time>2018-07-09T12:12:15Z</time>
      </trkpt>
      <trkpt lat="44.4980200" lon="14.8817720">
        <ele>1.1000000</ele>
        <time>2018-07-09T12:12:35Z</time>
      </trkpt>
      <trkpt lat="44.4975400" lon="14.8822990">
        <ele>1.1000000</ele>
        <time>2018-07-09T12:12:59Z</time>
      </trkpt>
      <trkpt lat="44.4970820" lon="14.8827910">
        <ele>1.1000000</ele>
        <time>2018-07-09T12:13:22Z</time>
      </trkpt>
      <trkpt lat="44.4966390" lon="14.8832650">
        <ele>1.1000000</ele>
        <time>2018-07-09T12:13:44Z</time>
      </trkpt>
      <trkpt lat="44.4962200" lon="14.8837420">
        <ele>1.1000000</ele>
        <time>2018-07-09T12:14:06Z</time>
      </trkpt>
      <trkpt lat="44.4957580" lon="14.8842020">
        <ele>1.1000000</ele>
        <time>2018-07-09T12:14:29Z</time>
      </trkpt>
      <trkpt lat="44.4953460" lon="14.8847220">
        <ele>1.1000000</ele>
        <time>2018-07-09T12:14:51Z</time>
      </trkpt>
      <trkpt lat="44.4948430" lon="14.8853080">
        <ele>1.1000000</ele>
        <time>2018-07-09T12:15:17Z</time>
      </trkpt>
      <trkpt lat="44.4943920" lon="14.8858120">
        <ele>1.1000000</ele>
        <time>2018-07-09T12:15:40Z</time>
      </trkpt>
      <trkpt lat="44.4938010" lon="14.8864700">
        <ele>1.5800000</ele>
        <time>2018-07-09T12:16:10Z</time>
      </trkpt>
      <trkpt lat="44.4933620" lon="14.8869650">
        <ele>1.1000000</ele>
        <time>2018-07-09T12:16:32Z</time>
      </trkpt>
      <trkpt lat="44.4929080" lon="14.8874730">
        <ele>1.1000000</ele>
        <time>2018-07-09T12:16:55Z</time>
      </trkpt>
      <trkpt lat="44.4924470" lon="14.8879840">
        <ele>1.1000000</ele>
        <time>2018-07-09T12:17:18Z</time>
      </trkpt>
      <trkpt lat="44.4919660" lon="14.8885310">
        <ele>1.1000000</ele>
        <time>2018-07-09T12:17:42Z</time>
      </trkpt>
      <trkpt lat="44.4914470" lon="14.8891190">
        <ele>1.1000000</ele>
        <time>2018-07-09T12:18:08Z</time>
      </trkpt>
      <trkpt lat="44.4909360" lon="14.8896760">
        <ele>1.1000000</ele>
        <time>2018-07-09T12:18:33Z</time>
      </trkpt>
      <trkpt lat="44.4904520" lon="14.8902170">
        <ele>1.1000000</ele>
        <time>2018-07-09T12:18:57Z</time>
      </trkpt>
      <trkpt lat="44.4899480" lon="14.8907720">
        <ele>1.1000000</ele>
        <time>2018-07-09T12:19:22Z</time>
      </trkpt>
      <trkpt lat="44.4893610" lon="14.8914300">
        <ele>1.5800000</ele>
        <time>2018-07-09T12:19:51Z</time>
      </trkpt>
      <trkpt lat="44.4888380" lon="14.8920080">
        <ele>1.1000000</ele>
        <time>2018-07-09T12:20:17Z</time>
      </trkpt>
      <trkpt lat="44.4883880" lon="14.8924990">
        <ele>1.1000000</ele>
        <time>2018-07-09T12:20:39Z</time>
      </trkpt>
      <trkpt lat="44.4878620" lon="14.8931150">
        <ele>1.1000000</ele>
        <time>2018-07-09T12:21:06Z</time>
      </trkpt>
      <trkpt lat="44.4873540" lon="14.8936730">
        <ele>0.6200000</ele>
        <time>2018-07-09T12:21:31Z</time>
      </trkpt>
      <trkpt lat="44.4868510" lon="14.8942410">
        <ele>1.1000000</ele>
        <time>2018-07-09T12:21:56Z</time>
      </trkpt>
      <trkpt lat="44.4863240" lon="14.8948260">
        <ele>1.1000000</ele>
        <time>2018-07-09T12:22:22Z</time>
      </trkpt>
      <trkpt lat="44.4858210" lon="14.8954050">
        <ele>1.1000000</ele>
        <time>2018-07-09T12:22:46Z</time>
      </trkpt>
      <trkpt lat="44.4852830" lon="14.8959880">
        <ele>1.5800000</ele>
        <time>2018-07-09T12:23:11Z</time>
      </trkpt>
      <trkpt lat="44.4846990" lon="14.8966710">
        <ele>1.1000000</ele>
        <time>2018-07-09T12:23:39Z</time>
      </trkpt>
      <trkpt lat="44.4842300" lon="14.8971980">
        <ele>1.1000000</ele>
        <time>2018-07-09T12:24:01Z</time>
      </trkpt>
      <trkpt lat="44.4837720" lon="14.8977270">
        <ele>1.1000000</ele>
        <time>2018-07-09T12:24:23Z</time>
      </trkpt>
      <trkpt lat="44.4833370" lon="14.8982370">
        <ele>1.5800000</ele>
        <time>2018-07-09T12:24:44Z</time>
      </trkpt>
      <trkpt lat="44.4829330" lon="14.8987440">
        <ele>1.1000000</ele>
        <time>2018-07-09T12:25:04Z</time>
      </trkpt>
      <trkpt lat="44.4824710" lon="14.8993030">
        <ele>1.5800000</ele>
        <time>2018-07-09T12:25:26Z</time>
      </trkpt>
      <trkpt lat="44.4819790" lon="14.8999350">
        <ele>1.5800000</ele>
        <time>2018-07-09T12:25:50Z</time>
      </trkpt>
      <trkpt lat="44.4814800" lon="14.9005380">
        <ele>1.5800000</ele>
        <time>2018-07-09T12:26:14Z</time>
      </trkpt>
      <trkpt lat="44.4809610" lon="14.9011670">
        <ele>1.1000000</ele>
        <time>2018-07-09T12:26:39Z</time>
      </trkpt>
      <trkpt lat="44.4804650" lon="14.9018020">
        <ele>1.5800000</ele>
        <time>2018-07-09T12:27:04Z</time>
      </trkpt>
      <trkpt lat="44.4799350" lon="14.9024430">
        <ele>1.5800000</ele>
        <time>2018-07-09T12:27:30Z</time>
      </trkpt>
      <trkpt lat="44.4794620" lon="14.9030350">
        <ele>1.1000000</ele>
        <time>2018-07-09T12:27:53Z</time>
      </trkpt>
      <trkpt lat="44.4789920" lon="14.9036560">
        <ele>1.5800000</ele>
        <time>2018-07-09T12:28:17Z</time>
      </trkpt>
      <trkpt lat="44.4785460" lon="14.9043980">
        <ele>1.5800000</ele>
        <time>2018-07-09T12:28:43Z</time>
      </trkpt>
      <trkpt lat="44.4781040" lon="14.9051560">
        <ele>1.5800000</ele>
        <time>2018-07-09T12:29:09Z</time>
      </trkpt>
      <trkpt lat="44.4776730" lon="14.9058830">
        <ele>1.5800000</ele>
        <time>2018-07-09T12:29:34Z</time>
      </trkpt>
      <trkpt lat="44.4771690" lon="14.9067340">
        <ele>2.0600000</ele>
        <time>2018-07-09T12:30:04Z</time>
      </trkpt>
      <trkpt lat="44.4767150" lon="14.9075070">
        <ele>2.0600000</ele>
        <time>2018-07-09T12:30:31Z</time>
      </trkpt>
      <trkpt lat="44.4762800" lon="14.9082460">
        <ele>1.5800000</ele>
        <time>2018-07-09T12:30:57Z</time>
      </trkpt>
      <trkpt lat="44.4759100" lon="14.9088750">
        <ele>1.5800000</ele>
        <time>2018-07-09T12:31:19Z</time>
      </trkpt>
      <trkpt lat="44.4755290" lon="14.9095280">
        <ele>2.0600000</ele>
        <time>2018-07-09T12:31:42Z</time>
      </trkpt>
      <trkpt lat="44.4751050" lon="14.9102890">
        <ele>2.0600000</ele>
        <time>2018-07-09T12:32:08Z</time>
      </trkpt>
      <trkpt lat="44.4747200" lon="14.9109790">
        <ele>2.0600000</ele>
        <time>2018-07-09T12:32:32Z</time>
      </trkpt>
      <trkpt lat="44.4743160" lon="14.9116950">
        <ele>2.0600000</ele>
        <time>2018-07-09T12:32:57Z</time>
      </trkpt>
      <trkpt lat="44.4738770" lon="14.9124640">
        <ele>2.0600000</ele>
        <time>2018-07-09T12:33:24Z</time>
      </trkpt>
      <trkpt lat="44.4734120" lon="14.9133120">
        <ele>2.0600000</ele>
        <time>2018-07-09T12:33:53Z</time>
      </trkpt>
      <trkpt lat="44.4729350" lon="14.9141860">
        <ele>1.5800000</ele>
        <time>2018-07-09T12:34:23Z</time>
      </trkpt>
      <trkpt lat="44.4724850" lon="14.9150210">
        <ele>1.5800000</ele>
        <time>2018-07-09T12:34:52Z</time>
      </trkpt>
      <trkpt lat="44.4720990" lon="14.9157340">
        <ele>2.0600000</ele>
        <time>2018-07-09T12:35:17Z</time>
      </trkpt>
      <trkpt lat="44.4718170" lon="14.9162500">
        <ele>2.0600000</ele>
        <time>2018-07-09T12:35:35Z</time>
      </trkpt>
      <trkpt lat="44.4715080" lon="14.9168900">
        <ele>2.0600000</ele>
        <time>2018-07-09T12:35:56Z</time>
      </trkpt>
      <trkpt lat="44.4711460" lon="14.9175960">
        <ele>1.5800000</ele>
        <time>2018-07-09T12:36:21Z</time>
      </trkpt>
      <trkpt lat="44.4707600" lon="14.9184280">
        <ele>2.0600000</ele>
        <time>2018-07-09T12:36:48Z</time>
      </trkpt>
      <trkpt lat="44.4704630" lon="14.9191760">
        <ele>2.0600000</ele>
        <time>2018-07-09T12:37:11Z</time>
      </trkpt>
      <trkpt lat="44.4701540" lon="14.9199440">
        <ele>2.0600000</ele>
        <time>2018-07-09T12:37:35Z</time>
      </trkpt>
      <trkpt lat="44.4697950" lon="14.9207500">
        <ele>2.0600000</ele>
        <time>2018-07-09T12:38:01Z</time>
      </trkpt>
      <trkpt lat="44.4694210" lon="14.9214560">
        <ele>2.0600000</ele>
        <time>2018-07-09T12:38:25Z</time>
      </trkpt>
      <trkpt lat="44.4690170" lon="14.9222430">
        <ele>2.0600000</ele>
        <time>2018-07-09T12:38:51Z</time>
      </trkpt>
      <trkpt lat="44.4686360" lon="14.9229850">
        <ele>2.0600000</ele>
        <time>2018-07-09T12:39:15Z</time>
      </trkpt>
      <trkpt lat="44.4682770" lon="14.9237700">
        <ele>2.0600000</ele>
        <time>2018-07-09T12:39:40Z</time>
      </trkpt>
      <trkpt lat="44.4679030" lon="14.9247080">
        <ele>2.0600000</ele>
        <time>2018-07-09T12:40:09Z</time>
      </trkpt>
      <trkpt lat="44.4675250" lon="14.9255210">
        <ele>2.5400000</ele>
        <time>2018-07-09T12:40:35Z</time>
      </trkpt>
      <trkpt lat="44.4672160" lon="14.9262400">
        <ele>2.0600000</ele>
        <time>2018-07-09T12:40:58Z</time>
      </trkpt>
      <trkpt lat="44.4669000" lon="14.9270820">
        <ele>2.0600000</ele>
        <time>2018-07-09T12:41:23Z</time>
      </trkpt>
      <trkpt lat="44.4665830" lon="14.9279110">
        <ele>2.0600000</ele>
        <time>2018-07-09T12:41:48Z</time>
      </trkpt>
      <trkpt lat="44.4663280" lon="14.9286100">
        <ele>1.5800000</ele>
        <time>2018-07-09T12:42:09Z</time>
      </trkpt>
      <trkpt lat="44.4660910" lon="14.9293570">
        <ele>1.5800000</ele>
        <time>2018-07-09T12:42:31Z</time>
      </trkpt>
      <trkpt lat="44.4658470" lon="14.9301360">
        <ele>1.5800000</ele>
        <time>2018-07-09T12:42:54Z</time>
      </trkpt>
      <trkpt lat="44.4654920" lon="14.9308160">
        <ele>1.5800000</ele>
        <time>2018-07-09T12:43:18Z</time>
      </trkpt>
      <trkpt lat="44.4650920" lon="14.9315210">
        <ele>2.0600000</ele>
        <time>2018-07-09T12:43:43Z</time>
      </trkpt>
      <trkpt lat="44.4647180" lon="14.9322240">
        <ele>1.5800000</ele>
        <time>2018-07-09T12:44:07Z</time>
      </trkpt>
      <trkpt lat="44.4643670" lon="14.9330630">
        <ele>1.5800000</ele>
        <time>2018-07-09T12:44:33Z</time>
      </trkpt>
      <trkpt lat="44.4640430" lon="14.9339860">
        <ele>1.5800000</ele>
        <time>2018-07-09T12:45:02Z</time>
      </trkpt>
      <trkpt lat="44.4637220" lon="14.9348700">
        <ele>2.0600000</ele>
        <time>2018-07-09T12:45:29Z</time>
      </trkpt>
      <trkpt lat="44.4633370" lon="14.9358690">
        <ele>2.0600000</ele>
        <time>2018-07-09T12:45:59Z</time>
      </trkpt>
      <trkpt lat="44.4630550" lon="14.9365750">
        <ele>2.0600000</ele>
        <time>2018-07-09T12:46:21Z</time>
      </trkpt>
      <trkpt lat="44.4626660" lon="14.9375040">
        <ele>2.0600000</ele>
        <time>2018-07-09T12:46:50Z</time>
      </trkpt>
      <trkpt lat="44.4623600" lon="14.9383820">
        <ele>2.0600000</ele>
        <time>2018-07-09T12:47:17Z</time>
      </trkpt>
      <trkpt lat="44.4622570" lon="14.9392590">
        <ele>2.0600000</ele>
        <time>2018-07-09T12:47:41Z</time>
      </trkpt>
      <trkpt lat="44.4623070" lon="14.9401910">
        <ele>2.0600000</ele>
        <time>2018-07-09T12:48:06Z</time>
      </trkpt>
      <trkpt lat="44.4624330" lon="14.9412360">
        <ele>2.5400000</ele>
        <time>2018-07-09T12:48:35Z</time>
      </trkpt>
      <trkpt lat="44.4626080" lon="14.9421720">
        <ele>2.5400000</ele>
        <time>2018-07-09T12:49:02Z</time>
      </trkpt>
      <trkpt lat="44.4627300" lon="14.9432220">
        <ele>2.5400000</ele>
        <time>2018-07-09T12:49:31Z</time>
      </trkpt>
      <trkpt lat="44.4628030" lon="14.9442120">
        <ele>2.5400000</ele>
        <time>2018-07-09T12:49:58Z</time>
      </trkpt>
      <trkpt lat="44.4627650" lon="14.9454680">
        <ele>3.0200000</ele>
        <time>2018-07-09T12:50:32Z</time>
      </trkpt>
      <trkpt lat="44.4626580" lon="14.9463890">
        <ele>2.5400000</ele>
        <time>2018-07-09T12:50:57Z</time>
      </trkpt>
      <trkpt lat="44.4624520" lon="14.9475120">
        <ele>2.5400000</ele>
        <time>2018-07-09T12:51:29Z</time>
      </trkpt>
      <trkpt lat="44.4624290" lon="14.9485930">
        <ele>3.0200000</ele>
        <time>2018-07-09T12:52:01Z</time>
      </trkpt>
      <trkpt lat="44.4625170" lon="14.9495730">
        <ele>3.5000000</ele>
        <time>2018-07-09T12:52:31Z</time>
      </trkpt>
      <trkpt lat="44.4626850" lon="14.9504760">
        <ele>3.5000000</ele>
        <time>2018-07-09T12:53:00Z</time>
      </trkpt>
      <trkpt lat="44.4629820" lon="14.9512530">
        <ele>3.5000000</ele>
        <time>2018-07-09T12:53:30Z</time>
      </trkpt>
      <trkpt lat="44.4633640" lon="14.9520480">
        <ele>3.9800000</ele>
        <time>2018-07-09T12:54:03Z</time>
      </trkpt>
      <trkpt lat="44.4638330" lon="14.9527550">
        <ele>3.9800000</ele>
        <time>2018-07-09T12:54:37Z</time>
      </trkpt>
      <trkpt lat="44.4642790" lon="14.9533810">
        <ele>3.5000000</ele>
        <time>2018-07-09T12:55:10Z</time>
      </trkpt>
      <trkpt lat="44.4647060" lon="14.9538310">
        <ele>3.9800000</ele>
        <time>2018-07-09T12:55:41Z</time>
      </trkpt>
      <trkpt lat="44.4651600" lon="14.9542740">
        <ele>3.9800000</ele>
        <time>2018-07-09T12:56:15Z</time>
      </trkpt>
      <trkpt lat="44.4655380" lon="14.9546020">
        <ele>3.5000000</ele>
        <time>2018-07-09T12:56:43Z</time>
      </trkpt>
      <trkpt lat="44.4659690" lon="14.9550240">
        <ele>3.9800000</ele>
        <time>2018-07-09T12:57:19Z</time>
      </trkpt>
      <trkpt lat="44.4664190" lon="14.9554460">
        <ele>3.5000000</ele>
        <time>2018-07-09T12:57:54Z</time>
      </trkpt>
      <trkpt lat="44.4668460" lon="14.9558540">
        <ele>3.0200000</ele>
        <time>2018-07-09T12:58:25Z</time>
      </trkpt>
      <trkpt lat="44.4672430" lon="14.9563240">
        <ele>3.0200000</ele>
        <time>2018-07-09T12:58:56Z</time>
      </trkpt>
      <trkpt lat="44.4676550" lon="14.9567960">
        <ele>3.5000000</ele>
        <time>2018-07-09T12:59:28Z</time>
      </trkpt>
      <trkpt lat="44.4681320" lon="14.9567570">
        <ele>3.0200000</ele>
        <time>2018-07-09T12:59:59Z</time>
      </trkpt>
      <trkpt lat="44.4685750" lon="14.9565110">
        <ele>3.0200000</ele>
        <time>2018-07-09T13:00:32Z</time>
      </trkpt>
      <trkpt lat="44.4689290" lon="14.9561620">
        <ele>3.5000000</ele>
        <time>2018-07-09T13:01:04Z</time>
      </trkpt>
      <trkpt lat="44.4692230" lon="14.9557880">
        <ele>3.5000000</ele>
        <time>2018-07-09T13:01:34Z</time>
      </trkpt>
      <trkpt lat="44.4695780" lon="14.9553790">
        <ele>3.0200000</ele>
        <time>2018-07-09T13:02:10Z</time>
      </trkpt>
      <trkpt lat="44.4699520" lon="14.9550910">
        <ele>3.0200000</ele>
        <time>2018-07-09T13:02:43Z</time>
      </trkpt>
      <trkpt lat="44.4703980" lon="14.9547530">
        <ele>2.0600000</ele>
        <time>2018-07-09T13:03:21Z</time>
      </trkpt>
      <trkpt lat="44.4708370" lon="14.9543750">
        <ele>3.0200000</ele>
        <time>2018-07-09T13:03:59Z</time>
      </trkpt>
      <trkpt lat="44.4711610" lon="14.9542060">
        <ele>2.5400000</ele>
        <time>2018-07-09T13:04:29Z</time>
      </trkpt>
      <trkpt lat="44.4713820" lon="14.9540570">
        <ele>2.0600000</ele>
        <time>2018-07-09T13:05:03Z</time>
      </trkpt>
      <trkpt lat="44.4713100" lon="14.9540610">
        <ele>2.0600000</ele>
        <time>2018-07-09T13:05:30Z</time>
      </trkpt>
      <trkpt lat="44.4712100" lon="14.9539360">
        <ele>2.5400000</ele>
        <time>2018-07-09T13:05:59Z</time>
      </trkpt>
      <trkpt lat="44.4712030" lon="14.9539180">
        <ele>2.5400000</ele>
        <time>2018-07-09T13:06:26Z</time>
      </trkpt>
      <trkpt lat="44.4711990" lon="14.9539190">
        <ele>2.5400000</ele>
        <time>2018-07-09T13:06:58Z</time>
      </trkpt>
      <trkpt lat="44.4711990" lon="14.9539180">
        <ele>2.5400000</ele>
        <time>2018-07-09T13:07:32Z</time>
      </trkpt>
      <trkpt lat="44.4711950" lon="14.9539100">
        <ele>2.0600000</ele>
        <time>2018-07-09T13:08:11Z</time>
      </trkpt>
      <trkpt lat="44.4711950" lon="14.9539060">
        <ele>2.0600000</ele>
        <time>2018-07-09T13:08:44Z</time>
      </trkpt>
      <trkpt lat="44.4711950" lon="14.9539060">
        <ele>3.0200000</ele>
        <time>2018-07-09T13:09:21Z</time>
      </trkpt>
      <trkpt lat="44.4711950" lon="14.9539030">
        <ele>2.0600000</ele>
        <time>2018-07-09T13:09:58Z</time>
      </trkpt>
      <trkpt lat="44.4711880" lon="14.9539050">
        <ele>2.0600000</ele>
        <time>2018-07-09T13:10:30Z</time>
      </trkpt>
      <trkpt lat="44.4711840" lon="14.9539070">
        <ele>2.0600000</ele>
        <time>2018-07-09T13:10:52Z</time>
      </trkpt>
      <trkpt lat="44.4711760" lon="14.9539090">
        <ele>2.0600000</ele>
        <time>2018-07-09T13:11:12Z</time>
      </trkpt>
      <trkpt lat="44.4711910" lon="14.9539120">
        <ele>2.0600000</ele>
        <time>2018-07-09T13:11:27Z</time>
      </trkpt>
      <trkpt lat="44.4711950" lon="14.9539190">
        <ele>1.5800000</ele>
        <time>2018-07-09T13:11:43Z</time>
      </trkpt>
      <trkpt lat="44.4711910" lon="14.9539230">
        <ele>2.0600000</ele>
        <time>2018-07-09T13:12:03Z</time>
      </trkpt>
      <trkpt lat="44.4711880" lon="14.9539130">
        <ele>2.0600000</ele>
        <time>2018-07-09T13:12:24Z</time>
      </trkpt>
      <trkpt lat="44.4711880" lon="14.9539130">
        <ele>2.0600000</ele>
        <time>2018-07-09T13:12:49Z</time>
      </trkpt>
      <trkpt lat="44.4711880" lon="14.9539100">
        <ele>2.0600000</ele>
        <time>2018-07-09T13:13:25Z</time>
      </trkpt>
      <trkpt lat="44.4711840" lon="14.9539060">
        <ele>2.0600000</ele>
        <time>2018-07-09T13:13:58Z</time>
      </trkpt>
      <trkpt lat="44.4711910" lon="14.9538980">
        <ele>2.5400000</ele>
        <time>2018-07-09T13:14:28Z</time>
      </trkpt>
      <trkpt lat="44.4711910" lon="14.9538970">
        <ele>2.0600000</ele>
        <time>2018-07-09T13:15:00Z</time>
      </trkpt>
      <trkpt lat="44.4711910" lon="14.9538970">
        <ele>2.5400000</ele>
        <time>2018-07-09T13:15:34Z</time>
      </trkpt>
      <trkpt lat="44.4711880" lon="14.9538960">
        <ele>2.0600000</ele>
        <time>2018-07-09T13:16:08Z</time>
      </trkpt>
      <trkpt lat="44.4711880" lon="14.9538970">
        <ele>2.5400000</ele>
        <time>2018-07-09T13:16:40Z</time>
      </trkpt>
      <trkpt lat="44.4711800" lon="14.9538900">
        <ele>2.0600000</ele>
        <time>2018-07-09T13:17:13Z</time>
      </trkpt>
      <trkpt lat="44.4711800" lon="14.9538920">
        <ele>2.5400000</ele>
        <time>2018-07-09T13:17:46Z</time>
      </trkpt>
      <trkpt lat="44.4711800" lon="14.9538920">
        <ele>2.5400000</ele>
        <time>2018-07-09T13:18:15Z</time>
      </trkpt>
      <trkpt lat="44.4711800" lon="14.9538960">
        <ele>2.5400000</ele>
        <time>2018-07-09T13:18:48Z</time>
      </trkpt>
      <trkpt lat="44.4711800" lon="14.9538930">
        <ele>3.0200000</ele>
        <time>2018-07-09T13:19:19Z</time>
      </trkpt>
      <trkpt lat="44.4711800" lon="14.9538940">
        <ele>3.0200000</ele>
        <time>2018-07-09T13:19:44Z</time>
      </trkpt>
      <trkpt lat="44.4711800" lon="14.9538940">
        <ele>2.5400000</ele>
        <time>2018-07-09T13:20:13Z</time>
      </trkpt>
      <trkpt lat="44.4711880" lon="14.9538770">
        <ele>3.0200000</ele>
        <time>2018-07-09T13:20:53Z</time>
      </trkpt>
      <trkpt lat="44.4711880" lon="14.9538770">
        <ele>3.0200000</ele>
        <time>2018-07-09T13:20:55Z</time>
      </trkpt>
      <trkpt lat="44.4711950" lon="14.9538680">
        <ele>3.0200000</ele>
        <time>2018-07-09T13:21:33Z</time>
      </trkpt>
      <trkpt lat="44.4711950" lon="14.9538770">
        <ele>3.0200000</ele>
        <time>2018-07-09T13:21:46Z</time>
      </trkpt>
      <trkpt lat="44.4711950" lon="14.9538780">
        <ele>3.5000000</ele>
        <time>2018-07-09T13:22:23Z</time>
      </trkpt>
      <trkpt lat="44.4711950" lon="14.9538780">
        <ele>3.5000000</ele>
        <time>2018-07-09T13:23:01Z</time>
      </trkpt>
      <trkpt lat="44.4711910" lon="14.9538780">
        <ele>3.5000000</ele>
        <time>2018-07-09T13:23:22Z</time>
      </trkpt>
      <trkpt lat="44.4711690" lon="14.9539550">
        <ele>3.5000000</ele>
        <time>2018-07-09T14:12:32Z</time>
      </trkpt>
      <trkpt lat="44.4711690" lon="14.9539560">
        <ele>3.5000000</ele>
        <time>2018-07-09T14:12:33Z</time>
      </trkpt>
    </trkseg>
  </trk>

  <trk>
    <name>3 Šimuni - Rab</name>
    <extensions>
      <gpxx:TrackExtension xmlns:gpxx="http://www.garmin.com/xmlschemas/GpxExtensions/v3">
        <gpxx:DisplayColor>Magenta</gpxx:DisplayColor>
      </gpxx:TrackExtension>
    </extensions>
    <trkseg>
      <trkpt lat="44.4711230" lon="14.9538200">
        <ele>4.9400000</ele>
        <time>2018-07-11T05:29:21Z</time>
      </trkpt>
      <trkpt lat="44.4711380" lon="14.9539070">
        <ele>6.8700000</ele>
        <time>2018-07-11T05:29:25Z</time>
      </trkpt>
      <trkpt lat="44.4711690" lon="14.9539300">
        <ele>4.9400000</ele>
        <time>2018-07-11T05:29:32Z</time>
      </trkpt>
      <trkpt lat="44.4711760" lon="14.9539420">
        <ele>0.1400000</ele>
        <time>2018-07-11T05:29:51Z</time>
      </trkpt>
      <trkpt lat="44.4711760" lon="14.9539450">
        <ele>0.1400000</ele>
        <time>2018-07-11T05:29:52Z</time>
      </trkpt>
      <trkpt lat="44.4711760" lon="14.9539480">
        <ele>6.8700000</ele>
        <time>2018-07-11T05:29:56Z</time>
      </trkpt>
      <trkpt lat="44.4711760" lon="14.9539480">
        <ele>6.8700000</ele>
        <time>2018-07-11T05:29:57Z</time>
      </trkpt>
      <trkpt lat="44.4711720" lon="14.9538990">
        <ele>6.8700000</ele>
        <time>2018-07-11T05:30:26Z</time>
      </trkpt>
      <trkpt lat="44.4711720" lon="14.9538820">
        <ele>7.3500000</ele>
        <time>2018-07-11T05:30:56Z</time>
      </trkpt>
      <trkpt lat="44.4711720" lon="14.9538810">
        <ele>7.8300000</ele>
        <time>2018-07-11T05:31:34Z</time>
      </trkpt>
      <trkpt lat="44.4711720" lon="14.9538800">
        <ele>7.3500000</ele>
        <time>2018-07-11T05:32:05Z</time>
      </trkpt>
      <trkpt lat="44.4711720" lon="14.9538800">
        <ele>7.3500000</ele>
        <time>2018-07-11T05:32:33Z</time>
      </trkpt>
      <trkpt lat="44.4711760" lon="14.9538800">
        <ele>7.3500000</ele>
        <time>2018-07-11T05:33:03Z</time>
      </trkpt>
      <trkpt lat="44.4711760" lon="14.9538810">
        <ele>7.3500000</ele>
        <time>2018-07-11T05:33:34Z</time>
      </trkpt>
      <trkpt lat="44.4711800" lon="14.9538800">
        <ele>7.3500000</ele>
        <time>2018-07-11T05:34:05Z</time>
      </trkpt>
      <trkpt lat="44.4711800" lon="14.9538850">
        <ele>6.8700000</ele>
        <time>2018-07-11T05:34:38Z</time>
      </trkpt>
      <trkpt lat="44.4711800" lon="14.9538850">
        <ele>6.8700000</ele>
        <time>2018-07-11T05:35:10Z</time>
      </trkpt>
      <trkpt lat="44.4711840" lon="14.9538870">
        <ele>6.3900000</ele>
        <time>2018-07-11T05:35:40Z</time>
      </trkpt>
      <trkpt lat="44.4711840" lon="14.9538870">
        <ele>5.9100000</ele>
        <time>2018-07-11T05:36:09Z</time>
      </trkpt>
      <trkpt lat="44.4711840" lon="14.9538870">
        <ele>5.9100000</ele>
        <time>2018-07-11T05:36:42Z</time>
      </trkpt>
      <trkpt lat="44.4711840" lon="14.9538870">
        <ele>5.4200000</ele>
        <time>2018-07-11T05:37:15Z</time>
      </trkpt>
      <trkpt lat="44.4711880" lon="14.9538940">
        <ele>5.4200000</ele>
        <time>2018-07-11T05:37:41Z</time>
      </trkpt>
      <trkpt lat="44.4711910" lon="14.9538990">
        <ele>5.4200000</ele>
        <time>2018-07-11T05:38:14Z</time>
      </trkpt>
      <trkpt lat="44.4711910" lon="14.9539010">
        <ele>4.4600000</ele>
        <time>2018-07-11T05:38:51Z</time>
      </trkpt>
      <trkpt lat="44.4711950" lon="14.9539050">
        <ele>4.4600000</ele>
        <time>2018-07-11T05:39:26Z</time>
      </trkpt>
      <trkpt lat="44.4711950" lon="14.9539050">
        <ele>4.4600000</ele>
        <time>2018-07-11T05:39:56Z</time>
      </trkpt>
      <trkpt lat="44.4711950" lon="14.9539080">
        <ele>4.4600000</ele>
        <time>2018-07-11T05:40:29Z</time>
      </trkpt>
      <trkpt lat="44.4711990" lon="14.9539080">
        <ele>3.9800000</ele>
        <time>2018-07-11T05:41:03Z</time>
      </trkpt>
      <trkpt lat="44.4711990" lon="14.9539110">
        <ele>3.9800000</ele>
        <time>2018-07-11T05:41:40Z</time>
      </trkpt>
      <trkpt lat="44.4711990" lon="14.9539160">
        <ele>3.5000000</ele>
        <time>2018-07-11T05:42:13Z</time>
      </trkpt>
      <trkpt lat="44.4711990" lon="14.9539110">
        <ele>3.9800000</ele>
        <time>2018-07-11T05:42:48Z</time>
      </trkpt>
      <trkpt lat="44.4711990" lon="14.9539120">
        <ele>3.0200000</ele>
        <time>2018-07-11T05:43:19Z</time>
      </trkpt>
      <trkpt lat="44.4711990" lon="14.9539120">
        <ele>3.0200000</ele>
        <time>2018-07-11T05:43:48Z</time>
      </trkpt>
      <trkpt lat="44.4711990" lon="14.9539120">
        <ele>3.0200000</ele>
        <time>2018-07-11T05:44:18Z</time>
      </trkpt>
      <trkpt lat="44.4711910" lon="14.9539130">
        <ele>2.5400000</ele>
        <time>2018-07-11T05:44:45Z</time>
      </trkpt>
      <trkpt lat="44.4711950" lon="14.9539140">
        <ele>2.5400000</ele>
        <time>2018-07-11T05:45:23Z</time>
      </trkpt>
      <trkpt lat="44.4711950" lon="14.9539140">
        <ele>2.5400000</ele>
        <time>2018-07-11T05:45:53Z</time>
      </trkpt>
      <trkpt lat="44.4711950" lon="14.9539130">
        <ele>2.0600000</ele>
        <time>2018-07-11T05:46:21Z</time>
      </trkpt>
      <trkpt lat="44.4711950" lon="14.9539140">
        <ele>2.5400000</ele>
        <time>2018-07-11T05:46:52Z</time>
      </trkpt>
      <trkpt lat="44.4711990" lon="14.9539180">
        <ele>2.0600000</ele>
        <time>2018-07-11T05:47:26Z</time>
      </trkpt>
      <trkpt lat="44.4711990" lon="14.9539180">
        <ele>2.0600000</ele>
        <time>2018-07-11T05:47:59Z</time>
      </trkpt>
      <trkpt lat="44.4711990" lon="14.9539180">
        <ele>2.0600000</ele>
        <time>2018-07-11T05:48:33Z</time>
      </trkpt>
      <trkpt lat="44.4711990" lon="14.9539120">
        <ele>2.0600000</ele>
        <time>2018-07-11T05:49:01Z</time>
      </trkpt>
      <trkpt lat="44.4711990" lon="14.9539100">
        <ele>1.1000000</ele>
        <time>2018-07-11T05:49:32Z</time>
      </trkpt>
      <trkpt lat="44.4712070" lon="14.9539080">
        <ele>1.5800000</ele>
        <time>2018-07-11T05:50:01Z</time>
      </trkpt>
      <trkpt lat="44.4712070" lon="14.9539080">
        <ele>1.5800000</ele>
        <time>2018-07-11T05:50:35Z</time>
      </trkpt>
      <trkpt lat="44.4712070" lon="14.9539050">
        <ele>0.6200000</ele>
        <time>2018-07-11T05:51:14Z</time>
      </trkpt>
      <trkpt lat="44.4712070" lon="14.9539020">
        <ele>0.6200000</ele>
        <time>2018-07-11T05:51:52Z</time>
      </trkpt>
      <trkpt lat="44.4712070" lon="14.9539030">
        <ele>0.6200000</ele>
        <time>2018-07-11T05:52:25Z</time>
      </trkpt>
      <trkpt lat="44.4712070" lon="14.9539090">
        <ele>0.6200000</ele>
        <time>2018-07-11T05:52:56Z</time>
      </trkpt>
      <trkpt lat="44.4712070" lon="14.9539130">
        <ele>0.6200000</ele>
        <time>2018-07-11T05:53:26Z</time>
      </trkpt>
      <trkpt lat="44.4712070" lon="14.9539130">
        <ele>0.1400000</ele>
        <time>2018-07-11T05:53:57Z</time>
      </trkpt>
      <trkpt lat="44.4712100" lon="14.9539120">
        <ele>0.6200000</ele>
        <time>2018-07-11T05:54:29Z</time>
      </trkpt>
      <trkpt lat="44.4712100" lon="14.9539060">
        <ele>0.6200000</ele>
        <time>2018-07-11T05:55:01Z</time>
      </trkpt>
      <trkpt lat="44.4712140" lon="14.9539180">
        <ele>1.1000000</ele>
        <time>2018-07-11T05:55:29Z</time>
      </trkpt>
      <trkpt lat="44.4712140" lon="14.9539200">
        <ele>0.6200000</ele>
        <time>2018-07-11T05:56:01Z</time>
      </trkpt>
      <trkpt lat="44.4712140" lon="14.9539200">
        <ele>0.6200000</ele>
        <time>2018-07-11T05:56:29Z</time>
      </trkpt>
      <trkpt lat="44.4712140" lon="14.9539200">
        <ele>0.6200000</ele>
        <time>2018-07-11T05:57:01Z</time>
      </trkpt>
      <trkpt lat="44.4712100" lon="14.9539250">
        <ele>0.1400000</ele>
        <time>2018-07-11T05:57:36Z</time>
      </trkpt>
      <trkpt lat="44.4712070" lon="14.9539230">
        <ele>0.1400000</ele>
        <time>2018-07-11T05:58:14Z</time>
      </trkpt>
      <trkpt lat="44.4712030" lon="14.9539240">
        <ele>0.1400000</ele>
        <time>2018-07-11T05:58:51Z</time>
      </trkpt>
      <trkpt lat="44.4711990" lon="14.9539250">
        <ele>-0.3400000</ele>
        <time>2018-07-11T05:59:32Z</time>
      </trkpt>
      <trkpt lat="44.4712030" lon="14.9539250">
        <ele>-0.3400000</ele>
        <time>2018-07-11T06:00:03Z</time>
      </trkpt>
      <trkpt lat="44.4712030" lon="14.9539230">
        <ele>-0.3400000</ele>
        <time>2018-07-11T06:00:41Z</time>
      </trkpt>
      <trkpt lat="44.4712030" lon="14.9539210">
        <ele>-0.3400000</ele>
        <time>2018-07-11T06:01:20Z</time>
      </trkpt>
      <trkpt lat="44.4712030" lon="14.9539200">
        <ele>-0.8200000</ele>
        <time>2018-07-11T06:01:58Z</time>
      </trkpt>
      <trkpt lat="44.4712030" lon="14.9539200">
        <ele>-0.3400000</ele>
        <time>2018-07-11T06:02:29Z</time>
      </trkpt>
      <trkpt lat="44.4712070" lon="14.9539190">
        <ele>-0.8200000</ele>
        <time>2018-07-11T06:03:01Z</time>
      </trkpt>
      <trkpt lat="44.4712070" lon="14.9539180">
        <ele>-0.3400000</ele>
        <time>2018-07-11T06:03:36Z</time>
      </trkpt>
      <trkpt lat="44.4712030" lon="14.9539180">
        <ele>-0.8200000</ele>
        <time>2018-07-11T06:04:08Z</time>
      </trkpt>
      <trkpt lat="44.4712070" lon="14.9539180">
        <ele>-0.3400000</ele>
        <time>2018-07-11T06:04:40Z</time>
      </trkpt>
      <trkpt lat="44.4712070" lon="14.9539180">
        <ele>-0.3400000</ele>
        <time>2018-07-11T06:05:17Z</time>
      </trkpt>
      <trkpt lat="44.4712030" lon="14.9539170">
        <ele>-1.3000000</ele>
        <time>2018-07-11T06:05:53Z</time>
      </trkpt>
      <trkpt lat="44.4712030" lon="14.9539180">
        <ele>-0.8200000</ele>
        <time>2018-07-11T06:06:29Z</time>
      </trkpt>
      <trkpt lat="44.4712030" lon="14.9539180">
        <ele>-0.8200000</ele>
        <time>2018-07-11T06:07:05Z</time>
      </trkpt>
      <trkpt lat="44.4712030" lon="14.9539190">
        <ele>-1.3000000</ele>
        <time>2018-07-11T06:07:41Z</time>
      </trkpt>
      <trkpt lat="44.4712030" lon="14.9539210">
        <ele>-1.3000000</ele>
        <time>2018-07-11T06:08:16Z</time>
      </trkpt>
      <trkpt lat="44.4712070" lon="14.9539190">
        <ele>-1.3000000</ele>
        <time>2018-07-11T06:08:49Z</time>
      </trkpt>
      <trkpt lat="44.4712100" lon="14.9539180">
        <ele>-2.2700000</ele>
        <time>2018-07-11T06:09:24Z</time>
      </trkpt>
      <trkpt lat="44.4712140" lon="14.9539180">
        <ele>-2.2700000</ele>
        <time>2018-07-11T06:09:59Z</time>
      </trkpt>
      <trkpt lat="44.4712140" lon="14.9539180">
        <ele>-2.2700000</ele>
        <time>2018-07-11T06:10:33Z</time>
      </trkpt>
      <trkpt lat="44.4712140" lon="14.9539200">
        <ele>-1.7900000</ele>
        <time>2018-07-11T06:11:06Z</time>
      </trkpt>
      <trkpt lat="44.4712140" lon="14.9539150">
        <ele>-2.2700000</ele>
        <time>2018-07-11T06:11:41Z</time>
      </trkpt>
      <trkpt lat="44.4712140" lon="14.9539150">
        <ele>-1.7900000</ele>
        <time>2018-07-11T06:12:18Z</time>
      </trkpt>
      <trkpt lat="44.4712180" lon="14.9539120">
        <ele>-1.3000000</ele>
        <time>2018-07-11T06:12:55Z</time>
      </trkpt>
      <trkpt lat="44.4712180" lon="14.9539140">
        <ele>-2.7500000</ele>
        <time>2018-07-11T06:13:30Z</time>
      </trkpt>
      <trkpt lat="44.4712180" lon="14.9539180">
        <ele>-1.7900000</ele>
        <time>2018-07-11T06:14:07Z</time>
      </trkpt>
      <trkpt lat="44.4712220" lon="14.9539180">
        <ele>-2.2700000</ele>
        <time>2018-07-11T06:14:41Z</time>
      </trkpt>
      <trkpt lat="44.4712220" lon="14.9539180">
        <ele>-2.7500000</ele>
        <time>2018-07-11T06:15:12Z</time>
      </trkpt>
      <trkpt lat="44.4712220" lon="14.9539170">
        <ele>-2.7500000</ele>
        <time>2018-07-11T06:15:42Z</time>
      </trkpt>
      <trkpt lat="44.4712260" lon="14.9539180">
        <ele>-2.7500000</ele>
        <time>2018-07-11T06:16:19Z</time>
      </trkpt>
      <trkpt lat="44.4712260" lon="14.9539210">
        <ele>-2.2700000</ele>
        <time>2018-07-11T06:16:58Z</time>
      </trkpt>
      <trkpt lat="44.4712260" lon="14.9539210">
        <ele>-3.2300000</ele>
        <time>2018-07-11T06:17:36Z</time>
      </trkpt>
      <trkpt lat="44.4712260" lon="14.9539240">
        <ele>-3.2300000</ele>
        <time>2018-07-11T06:18:14Z</time>
      </trkpt>
      <trkpt lat="44.4712260" lon="14.9539210">
        <ele>-3.2300000</ele>
        <time>2018-07-11T06:18:52Z</time>
      </trkpt>
      <trkpt lat="44.4712180" lon="14.9539200">
        <ele>-3.2300000</ele>
        <time>2018-07-11T06:19:24Z</time>
      </trkpt>
      <trkpt lat="44.4712180" lon="14.9539210">
        <ele>-3.2300000</ele>
        <time>2018-07-11T06:20:03Z</time>
      </trkpt>
      <trkpt lat="44.4712100" lon="14.9539170">
        <ele>-3.7100000</ele>
        <time>2018-07-11T06:20:41Z</time>
      </trkpt>
      <trkpt lat="44.4712100" lon="14.9539130">
        <ele>-3.7100000</ele>
        <time>2018-07-11T06:21:21Z</time>
      </trkpt>
      <trkpt lat="44.4712100" lon="14.9539130">
        <ele>-4.1900000</ele>
        <time>2018-07-11T06:21:56Z</time>
      </trkpt>
      <trkpt lat="44.4712070" lon="14.9539040">
        <ele>-3.7100000</ele>
        <time>2018-07-11T06:22:32Z</time>
      </trkpt>
      <trkpt lat="44.4712100" lon="14.9539000">
        <ele>-3.7100000</ele>
        <time>2018-07-11T06:23:14Z</time>
      </trkpt>
      <trkpt lat="44.4712100" lon="14.9539020">
        <ele>-4.1900000</ele>
        <time>2018-07-11T06:23:53Z</time>
      </trkpt>
      <trkpt lat="44.4712100" lon="14.9539000">
        <ele>-4.1900000</ele>
        <time>2018-07-11T06:24:31Z</time>
      </trkpt>
      <trkpt lat="44.4712100" lon="14.9538980">
        <ele>-3.7100000</ele>
        <time>2018-07-11T06:25:04Z</time>
      </trkpt>
      <trkpt lat="44.4712100" lon="14.9538970">
        <ele>-3.7100000</ele>
        <time>2018-07-11T06:25:46Z</time>
      </trkpt>
      <trkpt lat="44.4712100" lon="14.9538960">
        <ele>-3.7100000</ele>
        <time>2018-07-11T06:26:21Z</time>
      </trkpt>
      <trkpt lat="44.4712100" lon="14.9539010">
        <ele>-3.7100000</ele>
        <time>2018-07-11T06:26:58Z</time>
      </trkpt>
      <trkpt lat="44.4712100" lon="14.9539040">
        <ele>-3.7100000</ele>
        <time>2018-07-11T06:27:32Z</time>
      </trkpt>
      <trkpt lat="44.4712070" lon="14.9539050">
        <ele>-3.7100000</ele>
        <time>2018-07-11T06:28:05Z</time>
      </trkpt>
      <trkpt lat="44.4712070" lon="14.9539050">
        <ele>-3.7100000</ele>
        <time>2018-07-11T06:28:36Z</time>
      </trkpt>
      <trkpt lat="44.4712070" lon="14.9539080">
        <ele>-3.2300000</ele>
        <time>2018-07-11T06:29:08Z</time>
      </trkpt>
      <trkpt lat="44.4712070" lon="14.9539150">
        <ele>-3.7100000</ele>
        <time>2018-07-11T06:29:44Z</time>
      </trkpt>
      <trkpt lat="44.4712070" lon="14.9539180">
        <ele>-3.2300000</ele>
        <time>2018-07-11T06:30:15Z</time>
      </trkpt>
      <trkpt lat="44.4712100" lon="14.9539150">
        <ele>-3.7100000</ele>
        <time>2018-07-11T06:30:50Z</time>
      </trkpt>
      <trkpt lat="44.4712100" lon="14.9539120">
        <ele>-4.1900000</ele>
        <time>2018-07-11T06:31:24Z</time>
      </trkpt>
      <trkpt lat="44.4712140" lon="14.9539110">
        <ele>-3.2300000</ele>
        <time>2018-07-11T06:31:58Z</time>
      </trkpt>
      <trkpt lat="44.4712140" lon="14.9539110">
        <ele>-4.1900000</ele>
        <time>2018-07-11T06:32:33Z</time>
      </trkpt>
      <trkpt lat="44.4712140" lon="14.9539090">
        <ele>-3.2300000</ele>
        <time>2018-07-11T06:33:11Z</time>
      </trkpt>
      <trkpt lat="44.4712140" lon="14.9539080">
        <ele>-3.2300000</ele>
        <time>2018-07-11T06:33:45Z</time>
      </trkpt>
      <trkpt lat="44.4712140" lon="14.9539050">
        <ele>-3.7100000</ele>
        <time>2018-07-11T06:34:18Z</time>
      </trkpt>
      <trkpt lat="44.4712140" lon="14.9539070">
        <ele>-3.7100000</ele>
        <time>2018-07-11T06:34:53Z</time>
      </trkpt>
      <trkpt lat="44.4712140" lon="14.9539040">
        <ele>-3.7100000</ele>
        <time>2018-07-11T06:35:29Z</time>
      </trkpt>
      <trkpt lat="44.4712180" lon="14.9539050">
        <ele>-4.1900000</ele>
        <time>2018-07-11T06:36:06Z</time>
      </trkpt>
      <trkpt lat="44.4712180" lon="14.9539070">
        <ele>-4.6700000</ele>
        <time>2018-07-11T06:36:40Z</time>
      </trkpt>
      <trkpt lat="44.4712180" lon="14.9539070">
        <ele>-3.7100000</ele>
        <time>2018-07-11T06:37:14Z</time>
      </trkpt>
      <trkpt lat="44.4712180" lon="14.9539050">
        <ele>-4.1900000</ele>
        <time>2018-07-11T06:37:48Z</time>
      </trkpt>
      <trkpt lat="44.4712220" lon="14.9539040">
        <ele>-4.1900000</ele>
        <time>2018-07-11T06:38:22Z</time>
      </trkpt>
      <trkpt lat="44.4712180" lon="14.9539030">
        <ele>-4.1900000</ele>
        <time>2018-07-11T06:38:59Z</time>
      </trkpt>
      <trkpt lat="44.4712180" lon="14.9539000">
        <ele>-4.1900000</ele>
        <time>2018-07-11T06:39:31Z</time>
      </trkpt>
      <trkpt lat="44.4712180" lon="14.9538990">
        <ele>-4.6700000</ele>
        <time>2018-07-11T06:40:08Z</time>
      </trkpt>
      <trkpt lat="44.4712180" lon="14.9539000">
        <ele>-4.1900000</ele>
        <time>2018-07-11T06:40:41Z</time>
      </trkpt>
      <trkpt lat="44.4712220" lon="14.9539020">
        <ele>-4.6700000</ele>
        <time>2018-07-11T06:41:19Z</time>
      </trkpt>
      <trkpt lat="44.4712220" lon="14.9539020">
        <ele>-4.1900000</ele>
        <time>2018-07-11T06:41:57Z</time>
      </trkpt>
      <trkpt lat="44.4712180" lon="14.9539040">
        <ele>-4.6700000</ele>
        <time>2018-07-11T06:42:29Z</time>
      </trkpt>
      <trkpt lat="44.4712140" lon="14.9539040">
        <ele>-4.1900000</ele>
        <time>2018-07-11T06:42:57Z</time>
      </trkpt>
      <trkpt lat="44.4712140" lon="14.9539050">
        <ele>-4.1900000</ele>
        <time>2018-07-11T06:43:38Z</time>
      </trkpt>
      <trkpt lat="44.4712140" lon="14.9539030">
        <ele>-4.1900000</ele>
        <time>2018-07-11T06:44:14Z</time>
      </trkpt>
      <trkpt lat="44.4712180" lon="14.9539030">
        <ele>-4.1900000</ele>
        <time>2018-07-11T06:44:53Z</time>
      </trkpt>
      <trkpt lat="44.4712180" lon="14.9539000">
        <ele>-4.1900000</ele>
        <time>2018-07-11T06:45:26Z</time>
      </trkpt>
      <trkpt lat="44.4712180" lon="14.9538980">
        <ele>-4.1900000</ele>
        <time>2018-07-11T06:45:58Z</time>
      </trkpt>
      <trkpt lat="44.4712180" lon="14.9538980">
        <ele>-4.1900000</ele>
        <time>2018-07-11T06:46:33Z</time>
      </trkpt>
      <trkpt lat="44.4712180" lon="14.9538960">
        <ele>-4.1900000</ele>
        <time>2018-07-11T06:47:05Z</time>
      </trkpt>
      <trkpt lat="44.4712180" lon="14.9538960">
        <ele>-3.7100000</ele>
        <time>2018-07-11T06:47:36Z</time>
      </trkpt>
      <trkpt lat="44.4712180" lon="14.9538950">
        <ele>-3.7100000</ele>
        <time>2018-07-11T06:48:06Z</time>
      </trkpt>
      <trkpt lat="44.4712180" lon="14.9538950">
        <ele>-3.7100000</ele>
        <time>2018-07-11T06:48:37Z</time>
      </trkpt>
      <trkpt lat="44.4712220" lon="14.9538910">
        <ele>-4.1900000</ele>
        <time>2018-07-11T06:49:07Z</time>
      </trkpt>
      <trkpt lat="44.4712260" lon="14.9538850">
        <ele>-3.2300000</ele>
        <time>2018-07-11T06:49:35Z</time>
      </trkpt>
      <trkpt lat="44.4712260" lon="14.9538880">
        <ele>-4.1900000</ele>
        <time>2018-07-11T06:50:05Z</time>
      </trkpt>
      <trkpt lat="44.4712260" lon="14.9538880">
        <ele>-4.1900000</ele>
        <time>2018-07-11T06:50:32Z</time>
      </trkpt>
      <trkpt lat="44.4712300" lon="14.9538910">
        <ele>-3.7100000</ele>
        <time>2018-07-11T06:51:01Z</time>
      </trkpt>
      <trkpt lat="44.4712260" lon="14.9538920">
        <ele>-3.7100000</ele>
        <time>2018-07-11T06:51:32Z</time>
      </trkpt>
      <trkpt lat="44.4712260" lon="14.9538940">
        <ele>-4.1900000</ele>
        <time>2018-07-11T06:52:06Z</time>
      </trkpt>
      <trkpt lat="44.4712260" lon="14.9538940">
        <ele>-4.1900000</ele>
        <time>2018-07-11T06:52:37Z</time>
      </trkpt>
      <trkpt lat="44.4712260" lon="14.9538960">
        <ele>-4.1900000</ele>
        <time>2018-07-11T06:53:04Z</time>
      </trkpt>
      <trkpt lat="44.4712260" lon="14.9539000">
        <ele>-4.1900000</ele>
        <time>2018-07-11T06:53:31Z</time>
      </trkpt>
      <trkpt lat="44.4712260" lon="14.9539000">
        <ele>-3.7100000</ele>
        <time>2018-07-11T06:54:05Z</time>
      </trkpt>
      <trkpt lat="44.4712260" lon="14.9539000">
        <ele>-3.7100000</ele>
        <time>2018-07-11T06:54:37Z</time>
      </trkpt>
      <trkpt lat="44.4712220" lon="14.9539020">
        <ele>-3.7100000</ele>
        <time>2018-07-11T06:55:06Z</time>
      </trkpt>
      <trkpt lat="44.4712300" lon="14.9539050">
        <ele>-3.7100000</ele>
        <time>2018-07-11T06:55:36Z</time>
      </trkpt>
      <trkpt lat="44.4712300" lon="14.9539010">
        <ele>-3.7100000</ele>
        <time>2018-07-11T06:56:09Z</time>
      </trkpt>
      <trkpt lat="44.4712220" lon="14.9539000">
        <ele>-4.1900000</ele>
        <time>2018-07-11T06:56:41Z</time>
      </trkpt>
      <trkpt lat="44.4712220" lon="14.9539000">
        <ele>-4.1900000</ele>
        <time>2018-07-11T06:57:15Z</time>
      </trkpt>
      <trkpt lat="44.4712220" lon="14.9538980">
        <ele>-3.7100000</ele>
        <time>2018-07-11T06:57:42Z</time>
      </trkpt>
      <trkpt lat="44.4712180" lon="14.9538980">
        <ele>-3.2300000</ele>
        <time>2018-07-11T06:58:13Z</time>
      </trkpt>
      <trkpt lat="44.4712220" lon="14.9539000">
        <ele>-3.2300000</ele>
        <time>2018-07-11T06:58:48Z</time>
      </trkpt>
      <trkpt lat="44.4712180" lon="14.9538980">
        <ele>-3.7100000</ele>
        <time>2018-07-11T06:59:22Z</time>
      </trkpt>
      <trkpt lat="44.4712180" lon="14.9538950">
        <ele>-3.2300000</ele>
        <time>2018-07-11T07:00:00Z</time>
      </trkpt>
      <trkpt lat="44.4712180" lon="14.9538950">
        <ele>-3.2300000</ele>
        <time>2018-07-11T07:00:34Z</time>
      </trkpt>
      <trkpt lat="44.4712180" lon="14.9538950">
        <ele>-3.2300000</ele>
        <time>2018-07-11T07:01:11Z</time>
      </trkpt>
      <trkpt lat="44.4712180" lon="14.9538920">
        <ele>-3.2300000</ele>
        <time>2018-07-11T07:01:47Z</time>
      </trkpt>
      <trkpt lat="44.4712180" lon="14.9538930">
        <ele>-3.2300000</ele>
        <time>2018-07-11T07:02:22Z</time>
      </trkpt>
      <trkpt lat="44.4712180" lon="14.9538970">
        <ele>-3.2300000</ele>
        <time>2018-07-11T07:02:56Z</time>
      </trkpt>
      <trkpt lat="44.4712180" lon="14.9538960">
        <ele>-3.2300000</ele>
        <time>2018-07-11T07:03:29Z</time>
      </trkpt>
      <trkpt lat="44.4712180" lon="14.9538980">
        <ele>-2.2700000</ele>
        <time>2018-07-11T07:04:01Z</time>
      </trkpt>
      <trkpt lat="44.4712180" lon="14.9538980">
        <ele>-2.7500000</ele>
        <time>2018-07-11T07:04:34Z</time>
      </trkpt>
      <trkpt lat="44.4712220" lon="14.9539000">
        <ele>-2.7500000</ele>
        <time>2018-07-11T07:05:15Z</time>
      </trkpt>
      <trkpt lat="44.4712180" lon="14.9539100">
        <ele>-2.7500000</ele>
        <time>2018-07-11T07:05:52Z</time>
      </trkpt>
      <trkpt lat="44.4712220" lon="14.9539140">
        <ele>-2.2700000</ele>
        <time>2018-07-11T07:06:26Z</time>
      </trkpt>
      <trkpt lat="44.4712220" lon="14.9539140">
        <ele>-2.7500000</ele>
        <time>2018-07-11T07:07:03Z</time>
      </trkpt>
      <trkpt lat="44.4712220" lon="14.9539090">
        <ele>-2.7500000</ele>
        <time>2018-07-11T07:07:37Z</time>
      </trkpt>
      <trkpt lat="44.4712260" lon="14.9539090">
        <ele>-3.2300000</ele>
        <time>2018-07-11T07:08:13Z</time>
      </trkpt>
      <trkpt lat="44.4712260" lon="14.9539100">
        <ele>-2.2700000</ele>
        <time>2018-07-11T07:08:47Z</time>
      </trkpt>
      <trkpt lat="44.4712260" lon="14.9539100">
        <ele>-2.2700000</ele>
        <time>2018-07-11T07:09:20Z</time>
      </trkpt>
      <trkpt lat="44.4712260" lon="14.9539100">
        <ele>-2.2700000</ele>
        <time>2018-07-11T07:09:55Z</time>
      </trkpt>
      <trkpt lat="44.4712180" lon="14.9539060">
        <ele>-2.2700000</ele>
        <time>2018-07-11T07:10:27Z</time>
      </trkpt>
      <trkpt lat="44.4712180" lon="14.9539090">
        <ele>-2.7500000</ele>
        <time>2018-07-11T07:11:01Z</time>
      </trkpt>
      <trkpt lat="44.4712220" lon="14.9539100">
        <ele>-2.2700000</ele>
        <time>2018-07-11T07:11:32Z</time>
      </trkpt>
      <trkpt lat="44.4712180" lon="14.9539120">
        <ele>-2.2700000</ele>
        <time>2018-07-11T07:12:03Z</time>
      </trkpt>
      <trkpt lat="44.4712180" lon="14.9539100">
        <ele>-2.2700000</ele>
        <time>2018-07-11T07:12:39Z</time>
      </trkpt>
      <trkpt lat="44.4712180" lon="14.9539100">
        <ele>-2.2700000</ele>
        <time>2018-07-11T07:13:12Z</time>
      </trkpt>
      <trkpt lat="44.4712140" lon="14.9539120">
        <ele>-2.7500000</ele>
        <time>2018-07-11T07:13:42Z</time>
      </trkpt>
      <trkpt lat="44.4712180" lon="14.9539160">
        <ele>-2.2700000</ele>
        <time>2018-07-11T07:14:17Z</time>
      </trkpt>
      <trkpt lat="44.4712140" lon="14.9539180">
        <ele>-2.2700000</ele>
        <time>2018-07-11T07:14:48Z</time>
      </trkpt>
      <trkpt lat="44.4712180" lon="14.9539180">
        <ele>-2.2700000</ele>
        <time>2018-07-11T07:15:19Z</time>
      </trkpt>
      <trkpt lat="44.4712180" lon="14.9539180">
        <ele>-2.2700000</ele>
        <time>2018-07-11T07:15:53Z</time>
      </trkpt>
      <trkpt lat="44.4712830" lon="14.9540500">
        <ele>-1.7900000</ele>
        <time>2018-07-11T07:16:21Z</time>
      </trkpt>
      <trkpt lat="44.4711530" lon="14.9541570">
        <ele>-1.7900000</ele>
        <time>2018-07-11T07:16:49Z</time>
      </trkpt>
      <trkpt lat="44.4709590" lon="14.9542540">
        <ele>-1.7900000</ele>
        <time>2018-07-11T07:17:16Z</time>
      </trkpt>
      <trkpt lat="44.4708560" lon="14.9543410">
        <ele>-1.7900000</ele>
        <time>2018-07-11T07:17:30Z</time>
      </trkpt>
      <trkpt lat="44.4706040" lon="14.9545770">
        <ele>-1.7900000</ele>
        <time>2018-07-11T07:17:59Z</time>
      </trkpt>
      <trkpt lat="44.4703100" lon="14.9548440">
        <ele>-1.3000000</ele>
        <time>2018-07-11T07:18:31Z</time>
      </trkpt>
      <trkpt lat="44.4700090" lon="14.9550350">
        <ele>-1.3000000</ele>
        <time>2018-07-11T07:19:00Z</time>
      </trkpt>
      <trkpt lat="44.4696690" lon="14.9553290">
        <ele>-0.8200000</ele>
        <time>2018-07-11T07:19:35Z</time>
      </trkpt>
      <trkpt lat="44.4693950" lon="14.9555970">
        <ele>-1.3000000</ele>
        <time>2018-07-11T07:20:05Z</time>
      </trkpt>
      <trkpt lat="44.4691620" lon="14.9558650">
        <ele>-0.8200000</ele>
        <time>2018-07-11T07:20:35Z</time>
      </trkpt>
      <trkpt lat="44.4689560" lon="14.9560980">
        <ele>-0.8200000</ele>
        <time>2018-07-11T07:21:00Z</time>
      </trkpt>
      <trkpt lat="44.4686970" lon="14.9564040">
        <ele>-0.3400000</ele>
        <time>2018-07-11T07:21:31Z</time>
      </trkpt>
      <trkpt lat="44.4684520" lon="14.9566910">
        <ele>-0.8200000</ele>
        <time>2018-07-11T07:21:59Z</time>
      </trkpt>
      <trkpt lat="44.4681430" lon="14.9568290">
        <ele>-0.3400000</ele>
        <time>2018-07-11T07:22:27Z</time>
      </trkpt>
      <trkpt lat="44.4677770" lon="14.9566460">
        <ele>-0.3400000</ele>
        <time>2018-07-11T07:22:57Z</time>
      </trkpt>
      <trkpt lat="44.4674610" lon="14.9563680">
        <ele>0.1400000</ele>
        <time>2018-07-11T07:23:24Z</time>
      </trkpt>
      <trkpt lat="44.4670750" lon="14.9559700">
        <ele>-0.3400000</ele>
        <time>2018-07-11T07:23:58Z</time>
      </trkpt>
      <trkpt lat="44.4667130" lon="14.9555870">
        <ele>-0.3400000</ele>
        <time>2018-07-11T07:24:31Z</time>
      </trkpt>
      <trkpt lat="44.4663730" lon="14.9552340">
        <ele>0.1400000</ele>
        <time>2018-07-11T07:25:01Z</time>
      </trkpt>
      <trkpt lat="44.4660300" lon="14.9548680">
        <ele>-0.3400000</ele>
        <time>2018-07-11T07:25:32Z</time>
      </trkpt>
      <trkpt lat="44.4657210" lon="14.9544990">
        <ele>-0.8200000</ele>
        <time>2018-07-11T07:26:02Z</time>
      </trkpt>
      <trkpt lat="44.4653820" lon="14.9540740">
        <ele>-0.8200000</ele>
        <time>2018-07-11T07:26:29Z</time>
      </trkpt>
      <trkpt lat="44.4649770" lon="14.9535510">
        <ele>-0.8200000</ele>
        <time>2018-07-11T07:26:56Z</time>
      </trkpt>
      <trkpt lat="44.4646030" lon="14.9531210">
        <ele>-0.3400000</ele>
        <time>2018-07-11T07:27:20Z</time>
      </trkpt>
      <trkpt lat="44.4643250" lon="14.9527210">
        <ele>-0.3400000</ele>
        <time>2018-07-11T07:27:40Z</time>
      </trkpt>
      <trkpt lat="44.4640620" lon="14.9522600">
        <ele>-0.8200000</ele>
        <time>2018-07-11T07:28:01Z</time>
      </trkpt>
      <trkpt lat="44.4638100" lon="14.9517520">
        <ele>-0.8200000</ele>
        <time>2018-07-11T07:28:22Z</time>
      </trkpt>
      <trkpt lat="44.4636190" lon="14.9513020">
        <ele>-1.3000000</ele>
        <time>2018-07-11T07:28:39Z</time>
      </trkpt>
      <trkpt lat="44.4634590" lon="14.9507060">
        <ele>-0.8200000</ele>
        <time>2018-07-11T07:29:00Z</time>
      </trkpt>
      <trkpt lat="44.4633600" lon="14.9501680">
        <ele>-1.3000000</ele>
        <time>2018-07-11T07:29:18Z</time>
      </trkpt>
      <trkpt lat="44.4632950" lon="14.9495770">
        <ele>-0.8200000</ele>
        <time>2018-07-11T07:29:37Z</time>
      </trkpt>
      <trkpt lat="44.4632950" lon="14.9490650">
        <ele>-1.3000000</ele>
        <time>2018-07-11T07:29:53Z</time>
      </trkpt>
      <trkpt lat="44.4632720" lon="14.9484880">
        <ele>-1.3000000</ele>
        <time>2018-07-11T07:30:10Z</time>
      </trkpt>
      <trkpt lat="44.4632720" lon="14.9479680">
        <ele>-1.3000000</ele>
        <time>2018-07-11T07:30:26Z</time>
      </trkpt>
      <trkpt lat="44.4632450" lon="14.9474000">
        <ele>-0.8200000</ele>
        <time>2018-07-11T07:30:43Z</time>
      </trkpt>
      <trkpt lat="44.4632530" lon="14.9468530">
        <ele>-1.3000000</ele>
        <time>2018-07-11T07:31:00Z</time>
      </trkpt>
      <trkpt lat="44.4632490" lon="14.9462950">
        <ele>-1.3000000</ele>
        <time>2018-07-11T07:31:17Z</time>
      </trkpt>
      <trkpt lat="44.4632610" lon="14.9455960">
        <ele>-1.3000000</ele>
        <time>2018-07-11T07:31:38Z</time>
      </trkpt>
      <trkpt lat="44.4632870" lon="14.9450050">
        <ele>-1.7900000</ele>
        <time>2018-07-11T07:31:56Z</time>
      </trkpt>
      <trkpt lat="44.4633180" lon="14.9443970">
        <ele>-0.8200000</ele>
        <time>2018-07-11T07:32:14Z</time>
      </trkpt>
      <trkpt lat="44.4633710" lon="14.9438030">
        <ele>-1.3000000</ele>
        <time>2018-07-11T07:32:32Z</time>
      </trkpt>
      <trkpt lat="44.4634360" lon="14.9431340">
        <ele>-1.3000000</ele>
        <time>2018-07-11T07:32:52Z</time>
      </trkpt>
      <trkpt lat="44.4634930" lon="14.9423870">
        <ele>-1.3000000</ele>
        <time>2018-07-11T07:33:13Z</time>
      </trkpt>
      <trkpt lat="44.4635810" lon="14.9416390">
        <ele>-1.3000000</ele>
        <time>2018-07-11T07:33:34Z</time>
      </trkpt>
      <trkpt lat="44.4636380" lon="14.9409690">
        <ele>-1.3000000</ele>
        <time>2018-07-11T07:33:52Z</time>
      </trkpt>
      <trkpt lat="44.4636040" lon="14.9403620">
        <ele>-1.3000000</ele>
        <time>2018-07-11T07:34:08Z</time>
      </trkpt>
      <trkpt lat="44.4635930" lon="14.9396600">
        <ele>-1.3000000</ele>
        <time>2018-07-11T07:34:27Z</time>
      </trkpt>
      <trkpt lat="44.4635930" lon="14.9390390">
        <ele>-1.3000000</ele>
        <time>2018-07-11T07:34:44Z</time>
      </trkpt>
      <trkpt lat="44.4636270" lon="14.9383680">
        <ele>-1.7900000</ele>
        <time>2018-07-11T07:35:02Z</time>
      </trkpt>
      <trkpt lat="44.4637490" lon="14.9376100">
        <ele>-1.7900000</ele>
        <time>2018-07-11T07:35:23Z</time>
      </trkpt>
      <trkpt lat="44.4638980" lon="14.9368640">
        <ele>-1.7900000</ele>
        <time>2018-07-11T07:35:43Z</time>
      </trkpt>
      <trkpt lat="44.4640460" lon="14.9362690">
        <ele>-1.7900000</ele>
        <time>2018-07-11T07:36:00Z</time>
      </trkpt>
      <trkpt lat="44.4642450" lon="14.9356090">
        <ele>-1.7900000</ele>
        <time>2018-07-11T07:36:19Z</time>
      </trkpt>
      <trkpt lat="44.4644550" lon="14.9349120">
        <ele>-1.7900000</ele>
        <time>2018-07-11T07:36:39Z</time>
      </trkpt>
      <trkpt lat="44.4646720" lon="14.9341790">
        <ele>-1.7900000</ele>
        <time>2018-07-11T07:37:00Z</time>
      </trkpt>
      <trkpt lat="44.4649010" lon="14.9333680">
        <ele>-1.3000000</ele>
        <time>2018-07-11T07:37:23Z</time>
      </trkpt>
      <trkpt lat="44.4651530" lon="14.9327640">
        <ele>-2.2700000</ele>
        <time>2018-07-11T07:37:41Z</time>
      </trkpt>
      <trkpt lat="44.4654160" lon="14.9322020">
        <ele>-1.7900000</ele>
        <time>2018-07-11T07:37:59Z</time>
      </trkpt>
      <trkpt lat="44.4658580" lon="14.9314990">
        <ele>-1.7900000</ele>
        <time>2018-07-11T07:38:24Z</time>
      </trkpt>
      <trkpt lat="44.4663810" lon="14.9306980">
        <ele>-1.7900000</ele>
        <time>2018-07-11T07:38:52Z</time>
      </trkpt>
      <trkpt lat="44.4669380" lon="14.9300340">
        <ele>-1.7900000</ele>
        <time>2018-07-11T07:39:18Z</time>
      </trkpt>
      <trkpt lat="44.4674720" lon="14.9294180">
        <ele>-1.7900000</ele>
        <time>2018-07-11T07:39:43Z</time>
      </trkpt>
      <trkpt lat="44.4679030" lon="14.9287750">
        <ele>-1.3000000</ele>
        <time>2018-07-11T07:40:06Z</time>
      </trkpt>
      <trkpt lat="44.4683270" lon="14.9280720">
        <ele>-1.7900000</ele>
        <time>2018-07-11T07:40:29Z</time>
      </trkpt>
      <trkpt lat="44.4688260" lon="14.9272090">
        <ele>-1.7900000</ele>
        <time>2018-07-11T07:40:57Z</time>
      </trkpt>
      <trkpt lat="44.4692880" lon="14.9264010">
        <ele>-1.7900000</ele>
        <time>2018-07-11T07:41:23Z</time>
      </trkpt>
      <trkpt lat="44.4697380" lon="14.9255650">
        <ele>-1.7900000</ele>
        <time>2018-07-11T07:41:50Z</time>
      </trkpt>
      <trkpt lat="44.4701080" lon="14.9248900">
        <ele>-1.3000000</ele>
        <time>2018-07-11T07:42:12Z</time>
      </trkpt>
      <trkpt lat="44.4705200" lon="14.9241020">
        <ele>-1.7900000</ele>
        <time>2018-07-11T07:42:37Z</time>
      </trkpt>
      <trkpt lat="44.4709130" lon="14.9233780">
        <ele>-1.7900000</ele>
        <time>2018-07-11T07:43:01Z</time>
      </trkpt>
      <trkpt lat="44.4713360" lon="14.9226690">
        <ele>-1.7900000</ele>
        <time>2018-07-11T07:43:25Z</time>
      </trkpt>
      <trkpt lat="44.4717790" lon="14.9219190">
        <ele>-1.3000000</ele>
        <time>2018-07-11T07:43:50Z</time>
      </trkpt>
      <trkpt lat="44.4721910" lon="14.9211800">
        <ele>-1.7900000</ele>
        <time>2018-07-11T07:44:14Z</time>
      </trkpt>
      <trkpt lat="44.4726070" lon="14.9203590">
        <ele>-1.7900000</ele>
        <time>2018-07-11T07:44:40Z</time>
      </trkpt>
      <trkpt lat="44.4730150" lon="14.9196160">
        <ele>-2.2700000</ele>
        <time>2018-07-11T07:45:04Z</time>
      </trkpt>
      <trkpt lat="44.4734840" lon="14.9187550">
        <ele>-1.7900000</ele>
        <time>2018-07-11T07:45:32Z</time>
      </trkpt>
      <trkpt lat="44.4738660" lon="14.9180130">
        <ele>-1.7900000</ele>
        <time>2018-07-11T07:45:56Z</time>
      </trkpt>
      <trkpt lat="44.4743230" lon="14.9171920">
        <ele>-1.7900000</ele>
        <time>2018-07-11T07:46:23Z</time>
      </trkpt>
      <trkpt lat="44.4748230" lon="14.9163150">
        <ele>-1.7900000</ele>
        <time>2018-07-11T07:46:52Z</time>
      </trkpt>
      <trkpt lat="44.4752430" lon="14.9155950">
        <ele>-1.7900000</ele>
        <time>2018-07-11T07:47:17Z</time>
      </trkpt>
      <trkpt lat="44.4755630" lon="14.9150460">
        <ele>-2.7500000</ele>
        <time>2018-07-11T07:47:36Z</time>
      </trkpt>
      <trkpt lat="44.4759410" lon="14.9143760">
        <ele>-2.7500000</ele>
        <time>2018-07-11T07:47:59Z</time>
      </trkpt>
      <trkpt lat="44.4763150" lon="14.9136730">
        <ele>-2.7500000</ele>
        <time>2018-07-11T07:48:22Z</time>
      </trkpt>
      <trkpt lat="44.4767420" lon="14.9128620">
        <ele>-1.7900000</ele>
        <time>2018-07-11T07:48:49Z</time>
      </trkpt>
      <trkpt lat="44.4771190" lon="14.9121310">
        <ele>-1.7900000</ele>
        <time>2018-07-11T07:49:13Z</time>
      </trkpt>
      <trkpt lat="44.4775430" lon="14.9113340">
        <ele>-1.7900000</ele>
        <time>2018-07-11T07:49:40Z</time>
      </trkpt>
      <trkpt lat="44.4779320" lon="14.9105910">
        <ele>-1.3000000</ele>
        <time>2018-07-11T07:50:05Z</time>
      </trkpt>
      <trkpt lat="44.4783550" lon="14.9098320">
        <ele>-1.3000000</ele>
        <time>2018-07-11T07:50:31Z</time>
      </trkpt>
      <trkpt lat="44.4788060" lon="14.9090830">
        <ele>-1.3000000</ele>
        <time>2018-07-11T07:50:57Z</time>
      </trkpt>
      <trkpt lat="44.4793320" lon="14.9082330">
        <ele>-1.3000000</ele>
        <time>2018-07-11T07:51:27Z</time>
      </trkpt>
      <trkpt lat="44.4797970" lon="14.9075160">
        <ele>-1.3000000</ele>
        <time>2018-07-11T07:51:53Z</time>
      </trkpt>
      <trkpt lat="44.4803850" lon="14.9068080">
        <ele>-1.3000000</ele>
        <time>2018-07-11T07:52:22Z</time>
      </trkpt>
      <trkpt lat="44.4808580" lon="14.9061390">
        <ele>-1.3000000</ele>
        <time>2018-07-11T07:52:47Z</time>
      </trkpt>
      <trkpt lat="44.4812890" lon="14.9055200">
        <ele>-1.3000000</ele>
        <time>2018-07-11T07:53:10Z</time>
      </trkpt>
      <trkpt lat="44.4817470" lon="14.9048910">
        <ele>-1.3000000</ele>
        <time>2018-07-11T07:53:34Z</time>
      </trkpt>
      <trkpt lat="44.4822120" lon="14.9042100">
        <ele>-1.7900000</ele>
        <time>2018-07-11T07:53:59Z</time>
      </trkpt>
      <trkpt lat="44.4826430" lon="14.9035960">
        <ele>-1.3000000</ele>
        <time>2018-07-11T07:54:22Z</time>
      </trkpt>
      <trkpt lat="44.4830630" lon="14.9030070">
        <ele>-1.3000000</ele>
        <time>2018-07-11T07:54:44Z</time>
      </trkpt>
      <trkpt lat="44.4835010" lon="14.9024310">
        <ele>-1.3000000</ele>
        <time>2018-07-11T07:55:06Z</time>
      </trkpt>
      <trkpt lat="44.4840550" lon="14.9017720">
        <ele>-1.7900000</ele>
        <time>2018-07-11T07:55:33Z</time>
      </trkpt>
      <trkpt lat="44.4845620" lon="14.9012160">
        <ele>-1.7900000</ele>
        <time>2018-07-11T07:55:57Z</time>
      </trkpt>
      <trkpt lat="44.4850690" lon="14.9006960">
        <ele>-1.7900000</ele>
        <time>2018-07-11T07:56:21Z</time>
      </trkpt>
      <trkpt lat="44.4856800" lon="14.9000970">
        <ele>-1.7900000</ele>
        <time>2018-07-11T07:56:49Z</time>
      </trkpt>
      <trkpt lat="44.4862590" lon="14.8995620">
        <ele>-1.3000000</ele>
        <time>2018-07-11T07:57:15Z</time>
      </trkpt>
      <trkpt lat="44.4867710" lon="14.8990750">
        <ele>-1.7900000</ele>
        <time>2018-07-11T07:57:38Z</time>
      </trkpt>
      <trkpt lat="44.4872280" lon="14.8985930">
        <ele>-1.7900000</ele>
        <time>2018-07-11T07:57:59Z</time>
      </trkpt>
      <trkpt lat="44.4876940" lon="14.8981170">
        <ele>-1.7900000</ele>
        <time>2018-07-11T07:58:21Z</time>
      </trkpt>
      <trkpt lat="44.4882050" lon="14.8975810">
        <ele>-1.7900000</ele>
        <time>2018-07-11T07:58:45Z</time>
      </trkpt>
      <trkpt lat="44.4887160" lon="14.8970520">
        <ele>-1.7900000</ele>
        <time>2018-07-11T07:59:09Z</time>
      </trkpt>
      <trkpt lat="44.4891970" lon="14.8965440">
        <ele>-1.7900000</ele>
        <time>2018-07-11T07:59:32Z</time>
      </trkpt>
      <trkpt lat="44.4896930" lon="14.8960370">
        <ele>-2.2700000</ele>
        <time>2018-07-11T07:59:55Z</time>
      </trkpt>
      <trkpt lat="44.4902340" lon="14.8954800">
        <ele>-2.2700000</ele>
        <time>2018-07-11T08:00:21Z</time>
      </trkpt>
      <trkpt lat="44.4907570" lon="14.8949290">
        <ele>-2.2700000</ele>
        <time>2018-07-11T08:00:46Z</time>
      </trkpt>
      <trkpt lat="44.4912800" lon="14.8943670">
        <ele>-2.2700000</ele>
        <time>2018-07-11T08:01:11Z</time>
      </trkpt>
      <trkpt lat="44.4918710" lon="14.8937210">
        <ele>-1.7900000</ele>
        <time>2018-07-11T08:01:39Z</time>
      </trkpt>
      <trkpt lat="44.4923970" lon="14.8931480">
        <ele>-2.2700000</ele>
        <time>2018-07-11T08:02:04Z</time>
      </trkpt>
      <trkpt lat="44.4930230" lon="14.8924880">
        <ele>-1.7900000</ele>
        <time>2018-07-11T08:02:33Z</time>
      </trkpt>
      <trkpt lat="44.4936560" lon="14.8918050">
        <ele>-1.7900000</ele>
        <time>2018-07-11T08:03:03Z</time>
      </trkpt>
      <trkpt lat="44.4941670" lon="14.8912550">
        <ele>-1.7900000</ele>
        <time>2018-07-11T08:03:27Z</time>
      </trkpt>
      <trkpt lat="44.4947130" lon="14.8906720">
        <ele>-2.2700000</ele>
        <time>2018-07-11T08:03:53Z</time>
      </trkpt>
      <trkpt lat="44.4952890" lon="14.8900650">
        <ele>-1.7900000</ele>
        <time>2018-07-11T08:04:20Z</time>
      </trkpt>
      <trkpt lat="44.4958110" lon="14.8895050">
        <ele>-1.7900000</ele>
        <time>2018-07-11T08:04:45Z</time>
      </trkpt>
      <trkpt lat="44.4963870" lon="14.8889100">
        <ele>-1.7900000</ele>
        <time>2018-07-11T08:05:12Z</time>
      </trkpt>
      <trkpt lat="44.4970050" lon="14.8883080">
        <ele>-1.7900000</ele>
        <time>2018-07-11T08:05:40Z</time>
      </trkpt>
      <trkpt lat="44.4976270" lon="14.8877270">
        <ele>-1.7900000</ele>
        <time>2018-07-11T08:06:08Z</time>
      </trkpt>
      <trkpt lat="44.4982070" lon="14.8872110">
        <ele>-1.7900000</ele>
        <time>2018-07-11T08:06:34Z</time>
      </trkpt>
      <trkpt lat="44.4986690" lon="14.8867860">
        <ele>-1.7900000</ele>
        <time>2018-07-11T08:06:55Z</time>
      </trkpt>
      <trkpt lat="44.4992220" lon="14.8862970">
        <ele>-1.3000000</ele>
        <time>2018-07-11T08:07:20Z</time>
      </trkpt>
      <trkpt lat="44.4997900" lon="14.8857780">
        <ele>-1.3000000</ele>
        <time>2018-07-11T08:07:46Z</time>
      </trkpt>
      <trkpt lat="44.5004350" lon="14.8851940">
        <ele>-1.3000000</ele>
        <time>2018-07-11T08:08:15Z</time>
      </trkpt>
      <trkpt lat="44.5010830" lon="14.8845930">
        <ele>-1.3000000</ele>
        <time>2018-07-11T08:08:44Z</time>
      </trkpt>
      <trkpt lat="44.5017050" lon="14.8840090">
        <ele>-1.3000000</ele>
        <time>2018-07-11T08:09:13Z</time>
      </trkpt>
      <trkpt lat="44.5022810" lon="14.8834510">
        <ele>-0.8200000</ele>
        <time>2018-07-11T08:09:40Z</time>
      </trkpt>
      <trkpt lat="44.5028190" lon="14.8829080">
        <ele>-1.3000000</ele>
        <time>2018-07-11T08:10:06Z</time>
      </trkpt>
      <trkpt lat="44.5034290" lon="14.8823080">
        <ele>-1.3000000</ele>
        <time>2018-07-11T08:10:35Z</time>
      </trkpt>
      <trkpt lat="44.5040210" lon="14.8817230">
        <ele>-1.3000000</ele>
        <time>2018-07-11T08:11:03Z</time>
      </trkpt>
      <trkpt lat="44.5045700" lon="14.8811640">
        <ele>-1.3000000</ele>
        <time>2018-07-11T08:11:29Z</time>
      </trkpt>
      <trkpt lat="44.5050810" lon="14.8806670">
        <ele>-1.3000000</ele>
        <time>2018-07-11T08:11:53Z</time>
      </trkpt>
      <trkpt lat="44.5057220" lon="14.8800190">
        <ele>-1.3000000</ele>
        <time>2018-07-11T08:12:23Z</time>
      </trkpt>
      <trkpt lat="44.5063060" lon="14.8794610">
        <ele>-1.3000000</ele>
        <time>2018-07-11T08:12:50Z</time>
      </trkpt>
      <trkpt lat="44.5068280" lon="14.8789450">
        <ele>-0.8200000</ele>
        <time>2018-07-11T08:13:15Z</time>
      </trkpt>
      <trkpt lat="44.5072980" lon="14.8784990">
        <ele>-1.3000000</ele>
        <time>2018-07-11T08:13:37Z</time>
      </trkpt>
      <trkpt lat="44.5077250" lon="14.8780910">
        <ele>-1.3000000</ele>
        <time>2018-07-11T08:13:57Z</time>
      </trkpt>
      <trkpt lat="44.5081900" lon="14.8776490">
        <ele>-1.3000000</ele>
        <time>2018-07-11T08:14:18Z</time>
      </trkpt>
      <trkpt lat="44.5086170" lon="14.8772520">
        <ele>-3.7100000</ele>
        <time>2018-07-11T08:14:38Z</time>
      </trkpt>
      <trkpt lat="44.5089870" lon="14.8768860">
        <ele>-1.7900000</ele>
        <time>2018-07-11T08:14:56Z</time>
      </trkpt>
      <trkpt lat="44.5092740" lon="14.8766030">
        <ele>-2.2700000</ele>
        <time>2018-07-11T08:15:09Z</time>
      </trkpt>
      <trkpt lat="44.5095060" lon="14.8763990">
        <ele>-1.7900000</ele>
        <time>2018-07-11T08:15:20Z</time>
      </trkpt>
      <trkpt lat="44.5098420" lon="14.8760810">
        <ele>-0.3400000</ele>
        <time>2018-07-11T08:15:35Z</time>
      </trkpt>
      <trkpt lat="44.5102690" lon="14.8756640">
        <ele>-1.3000000</ele>
        <time>2018-07-11T08:15:56Z</time>
      </trkpt>
      <trkpt lat="44.5107380" lon="14.8751990">
        <ele>-0.8200000</ele>
        <time>2018-07-11T08:16:19Z</time>
      </trkpt>
      <trkpt lat="44.5112000" lon="14.8747550">
        <ele>-0.8200000</ele>
        <time>2018-07-11T08:16:42Z</time>
      </trkpt>
      <trkpt lat="44.5116310" lon="14.8743140">
        <ele>-0.8200000</ele>
        <time>2018-07-11T08:17:04Z</time>
      </trkpt>
      <trkpt lat="44.5120540" lon="14.8739360">
        <ele>-1.3000000</ele>
        <time>2018-07-11T08:17:25Z</time>
      </trkpt>
      <trkpt lat="44.5125470" lon="14.8734270">
        <ele>-0.8200000</ele>
        <time>2018-07-11T08:17:50Z</time>
      </trkpt>
      <trkpt lat="44.5130580" lon="14.8730510">
        <ele>-0.3400000</ele>
        <time>2018-07-11T08:18:14Z</time>
      </trkpt>
      <trkpt lat="44.5136380" lon="14.8727010">
        <ele>-0.8200000</ele>
        <time>2018-07-11T08:18:39Z</time>
      </trkpt>
      <trkpt lat="44.5143280" lon="14.8722840">
        <ele>-0.8200000</ele>
        <time>2018-07-11T08:19:09Z</time>
      </trkpt>
      <trkpt lat="44.5148930" lon="14.8719650">
        <ele>-0.3400000</ele>
        <time>2018-07-11T08:19:33Z</time>
      </trkpt>
      <trkpt lat="44.5154760" lon="14.8716540">
        <ele>-0.8200000</ele>
        <time>2018-07-11T08:19:58Z</time>
      </trkpt>
      <trkpt lat="44.5159950" lon="14.8713590">
        <ele>-0.8200000</ele>
        <time>2018-07-11T08:20:20Z</time>
      </trkpt>
      <trkpt lat="44.5166020" lon="14.8710220">
        <ele>-0.3400000</ele>
        <time>2018-07-11T08:20:46Z</time>
      </trkpt>
      <trkpt lat="44.5172810" lon="14.8706480">
        <ele>-0.3400000</ele>
        <time>2018-07-11T08:21:14Z</time>
      </trkpt>
      <trkpt lat="44.5178680" lon="14.8703340">
        <ele>-0.3400000</ele>
        <time>2018-07-11T08:21:38Z</time>
      </trkpt>
      <trkpt lat="44.5184210" lon="14.8700320">
        <ele>-0.3400000</ele>
        <time>2018-07-11T08:22:01Z</time>
      </trkpt>
      <trkpt lat="44.5190200" lon="14.8696990">
        <ele>-0.3400000</ele>
        <time>2018-07-11T08:22:26Z</time>
      </trkpt>
      <trkpt lat="44.5196300" lon="14.8693620">
        <ele>-0.3400000</ele>
        <time>2018-07-11T08:22:52Z</time>
      </trkpt>
      <trkpt lat="44.5202290" lon="14.8690300">
        <ele>-0.3400000</ele>
        <time>2018-07-11T08:23:17Z</time>
      </trkpt>
      <trkpt lat="44.5209240" lon="14.8686430">
        <ele>-0.8200000</ele>
        <time>2018-07-11T08:23:46Z</time>
      </trkpt>
      <trkpt lat="44.5214960" lon="14.8683290">
        <ele>-0.3400000</ele>
        <time>2018-07-11T08:24:10Z</time>
      </trkpt>
      <trkpt lat="44.5219960" lon="14.8680530">
        <ele>-0.3400000</ele>
        <time>2018-07-11T08:24:31Z</time>
      </trkpt>
      <trkpt lat="44.5225680" lon="14.8677360">
        <ele>-0.3400000</ele>
        <time>2018-07-11T08:24:55Z</time>
      </trkpt>
      <trkpt lat="44.5231780" lon="14.8673950">
        <ele>-0.3400000</ele>
        <time>2018-07-11T08:25:21Z</time>
      </trkpt>
      <trkpt lat="44.5238040" lon="14.8670540">
        <ele>-0.8200000</ele>
        <time>2018-07-11T08:25:47Z</time>
      </trkpt>
      <trkpt lat="44.5243800" lon="14.8667400">
        <ele>-0.8200000</ele>
        <time>2018-07-11T08:26:11Z</time>
      </trkpt>
      <trkpt lat="44.5248870" lon="14.8664580">
        <ele>-1.3000000</ele>
        <time>2018-07-11T08:26:32Z</time>
      </trkpt>
      <trkpt lat="44.5254100" lon="14.8661580">
        <ele>-0.8200000</ele>
        <time>2018-07-11T08:26:54Z</time>
      </trkpt>
      <trkpt lat="44.5259320" lon="14.8658540">
        <ele>-0.8200000</ele>
        <time>2018-07-11T08:27:16Z</time>
      </trkpt>
      <trkpt lat="44.5265770" lon="14.8654930">
        <ele>-0.8200000</ele>
        <time>2018-07-11T08:27:43Z</time>
      </trkpt>
      <trkpt lat="44.5271000" lon="14.8651940">
        <ele>-0.3400000</ele>
        <time>2018-07-11T08:28:05Z</time>
      </trkpt>
      <trkpt lat="44.5276220" lon="14.8648970">
        <ele>-0.8200000</ele>
        <time>2018-07-11T08:28:27Z</time>
      </trkpt>
      <trkpt lat="44.5282670" lon="14.8645140">
        <ele>-0.3400000</ele>
        <time>2018-07-11T08:28:54Z</time>
      </trkpt>
      <trkpt lat="44.5287900" lon="14.8642210">
        <ele>-0.3400000</ele>
        <time>2018-07-11T08:29:16Z</time>
      </trkpt>
      <trkpt lat="44.5293920" lon="14.8638510">
        <ele>-0.3400000</ele>
        <time>2018-07-11T08:29:42Z</time>
      </trkpt>
      <trkpt lat="44.5299840" lon="14.8635010">
        <ele>-0.8200000</ele>
        <time>2018-07-11T08:30:07Z</time>
      </trkpt>
      <trkpt lat="44.5304910" lon="14.8631940">
        <ele>-0.3400000</ele>
        <time>2018-07-11T08:30:29Z</time>
      </trkpt>
      <trkpt lat="44.5310250" lon="14.8628670">
        <ele>-0.8200000</ele>
        <time>2018-07-11T08:30:52Z</time>
      </trkpt>
      <trkpt lat="44.5315440" lon="14.8625610">
        <ele>-0.3400000</ele>
        <time>2018-07-11T08:31:14Z</time>
      </trkpt>
      <trkpt lat="44.5320550" lon="14.8622560">
        <ele>-0.8200000</ele>
        <time>2018-07-11T08:31:36Z</time>
      </trkpt>
      <trkpt lat="44.5326120" lon="14.8619120">
        <ele>-0.3400000</ele>
        <time>2018-07-11T08:32:00Z</time>
      </trkpt>
      <trkpt lat="44.5332110" lon="14.8615420">
        <ele>-0.8200000</ele>
        <time>2018-07-11T08:32:26Z</time>
      </trkpt>
      <trkpt lat="44.5337490" lon="14.8612150">
        <ele>-0.8200000</ele>
        <time>2018-07-11T08:32:49Z</time>
      </trkpt>
      <trkpt lat="44.5342560" lon="14.8608980">
        <ele>-0.8200000</ele>
        <time>2018-07-11T08:33:11Z</time>
      </trkpt>
      <trkpt lat="44.5347670" lon="14.8605860">
        <ele>-0.3400000</ele>
        <time>2018-07-11T08:33:33Z</time>
      </trkpt>
      <trkpt lat="44.5353510" lon="14.8602210">
        <ele>-0.3400000</ele>
        <time>2018-07-11T08:33:58Z</time>
      </trkpt>
      <trkpt lat="44.5359270" lon="14.8598590">
        <ele>-0.8200000</ele>
        <time>2018-07-11T08:34:22Z</time>
      </trkpt>
      <trkpt lat="44.5364910" lon="14.8594910">
        <ele>-1.3000000</ele>
        <time>2018-07-11T08:34:46Z</time>
      </trkpt>
      <trkpt lat="44.5370330" lon="14.8591480">
        <ele>-1.3000000</ele>
        <time>2018-07-11T08:35:09Z</time>
      </trkpt>
      <trkpt lat="44.5376470" lon="14.8587560">
        <ele>-0.8200000</ele>
        <time>2018-07-11T08:35:35Z</time>
      </trkpt>
      <trkpt lat="44.5381360" lon="14.8584250">
        <ele>-1.3000000</ele>
        <time>2018-07-11T08:35:57Z</time>
      </trkpt>
      <trkpt lat="44.5387080" lon="14.8579950">
        <ele>-1.3000000</ele>
        <time>2018-07-11T08:36:23Z</time>
      </trkpt>
      <trkpt lat="44.5391580" lon="14.8576550">
        <ele>-1.3000000</ele>
        <time>2018-07-11T08:36:43Z</time>
      </trkpt>
      <trkpt lat="44.5397300" lon="14.8572160">
        <ele>-1.3000000</ele>
        <time>2018-07-11T08:37:09Z</time>
      </trkpt>
      <trkpt lat="44.5402980" lon="14.8567980">
        <ele>-1.3000000</ele>
        <time>2018-07-11T08:37:34Z</time>
      </trkpt>
      <trkpt lat="44.5407520" lon="14.8564530">
        <ele>-0.8200000</ele>
        <time>2018-07-11T08:37:54Z</time>
      </trkpt>
      <trkpt lat="44.5412560" lon="14.8560770">
        <ele>-1.3000000</ele>
        <time>2018-07-11T08:38:16Z</time>
      </trkpt>
      <trkpt lat="44.5417100" lon="14.8557420">
        <ele>-1.3000000</ele>
        <time>2018-07-11T08:38:36Z</time>
      </trkpt>
      <trkpt lat="44.5421410" lon="14.8554250">
        <ele>-1.3000000</ele>
        <time>2018-07-11T08:38:55Z</time>
      </trkpt>
      <trkpt lat="44.5426600" lon="14.8550390">
        <ele>-1.7900000</ele>
        <time>2018-07-11T08:39:18Z</time>
      </trkpt>
      <trkpt lat="44.5432170" lon="14.8546180">
        <ele>-1.3000000</ele>
        <time>2018-07-11T08:39:43Z</time>
      </trkpt>
      <trkpt lat="44.5436360" lon="14.8543070">
        <ele>-1.3000000</ele>
        <time>2018-07-11T08:40:02Z</time>
      </trkpt>
      <trkpt lat="44.5441060" lon="14.8539630">
        <ele>-1.3000000</ele>
        <time>2018-07-11T08:40:23Z</time>
      </trkpt>
      <trkpt lat="44.5445860" lon="14.8536030">
        <ele>-1.3000000</ele>
        <time>2018-07-11T08:40:45Z</time>
      </trkpt>
      <trkpt lat="44.5450440" lon="14.8532560">
        <ele>-1.3000000</ele>
        <time>2018-07-11T08:41:06Z</time>
      </trkpt>
      <trkpt lat="44.5455280" lon="14.8528850">
        <ele>-1.3000000</ele>
        <time>2018-07-11T08:41:28Z</time>
      </trkpt>
      <trkpt lat="44.5460820" lon="14.8524680">
        <ele>-1.3000000</ele>
        <time>2018-07-11T08:41:53Z</time>
      </trkpt>
      <trkpt lat="44.5465770" lon="14.8520920">
        <ele>-1.3000000</ele>
        <time>2018-07-11T08:42:16Z</time>
      </trkpt>
      <trkpt lat="44.5470310" lon="14.8517480">
        <ele>-1.7900000</ele>
        <time>2018-07-11T08:42:37Z</time>
      </trkpt>
      <trkpt lat="44.5476380" lon="14.8512770">
        <ele>-1.3000000</ele>
        <time>2018-07-11T08:43:05Z</time>
      </trkpt>
      <trkpt lat="44.5481800" lon="14.8508630">
        <ele>-1.7900000</ele>
        <time>2018-07-11T08:43:30Z</time>
      </trkpt>
      <trkpt lat="44.5486720" lon="14.8504960">
        <ele>-1.3000000</ele>
        <time>2018-07-11T08:43:52Z</time>
      </trkpt>
      <trkpt lat="44.5490610" lon="14.8502040">
        <ele>-1.3000000</ele>
        <time>2018-07-11T08:44:10Z</time>
      </trkpt>
      <trkpt lat="44.5491640" lon="14.8500970">
        <ele>-3.7100000</ele>
        <time>2018-07-11T08:44:15Z</time>
      </trkpt>
      <trkpt lat="44.5492210" lon="14.8500600">
        <ele>-1.7900000</ele>
        <time>2018-07-11T08:44:18Z</time>
      </trkpt>
      <trkpt lat="44.5494800" lon="14.8498630">
        <ele>-1.7900000</ele>
        <time>2018-07-11T08:44:30Z</time>
      </trkpt>
      <trkpt lat="44.5497670" lon="14.8496760">
        <ele>-2.2700000</ele>
        <time>2018-07-11T08:44:43Z</time>
      </trkpt>
      <trkpt lat="44.5502130" lon="14.8493480">
        <ele>-1.7900000</ele>
        <time>2018-07-11T08:45:03Z</time>
      </trkpt>
      <trkpt lat="44.5506170" lon="14.8490030">
        <ele>-1.3000000</ele>
        <time>2018-07-11T08:45:22Z</time>
      </trkpt>
      <trkpt lat="44.5510520" lon="14.8486540">
        <ele>-1.7900000</ele>
        <time>2018-07-11T08:45:42Z</time>
      </trkpt>
      <trkpt lat="44.5514180" lon="14.8483320">
        <ele>-1.3000000</ele>
        <time>2018-07-11T08:46:00Z</time>
      </trkpt>
      <trkpt lat="44.5518190" lon="14.8480010">
        <ele>-1.7900000</ele>
        <time>2018-07-11T08:46:19Z</time>
      </trkpt>
      <trkpt lat="44.5522080" lon="14.8476890">
        <ele>-1.7900000</ele>
        <time>2018-07-11T08:46:37Z</time>
      </trkpt>
      <trkpt lat="44.5525170" lon="14.8474410">
        <ele>-1.3000000</ele>
        <time>2018-07-11T08:46:51Z</time>
      </trkpt>
      <trkpt lat="44.5528530" lon="14.8471350">
        <ele>-1.7900000</ele>
        <time>2018-07-11T08:47:07Z</time>
      </trkpt>
      <trkpt lat="44.5531850" lon="14.8468490">
        <ele>-1.7900000</ele>
        <time>2018-07-11T08:47:23Z</time>
      </trkpt>
      <trkpt lat="44.5536350" lon="14.8464760">
        <ele>-1.3000000</ele>
        <time>2018-07-11T08:47:44Z</time>
      </trkpt>
      <trkpt lat="44.5540470" lon="14.8461330">
        <ele>-1.7900000</ele>
        <time>2018-07-11T08:48:03Z</time>
      </trkpt>
      <trkpt lat="44.5544430" lon="14.8458150">
        <ele>-0.8200000</ele>
        <time>2018-07-11T08:48:21Z</time>
      </trkpt>
      <trkpt lat="44.5548100" lon="14.8455090">
        <ele>-1.3000000</ele>
        <time>2018-07-11T08:48:38Z</time>
      </trkpt>
      <trkpt lat="44.5552600" lon="14.8451370">
        <ele>-0.8200000</ele>
        <time>2018-07-11T08:48:59Z</time>
      </trkpt>
      <trkpt lat="44.5556720" lon="14.8448010">
        <ele>-0.8200000</ele>
        <time>2018-07-11T08:49:18Z</time>
      </trkpt>
      <trkpt lat="44.5560340" lon="14.8445060">
        <ele>-0.3400000</ele>
        <time>2018-07-11T08:49:35Z</time>
      </trkpt>
      <trkpt lat="44.5564770" lon="14.8441490">
        <ele>-0.8200000</ele>
        <time>2018-07-11T08:49:55Z</time>
      </trkpt>
      <trkpt lat="44.5569760" lon="14.8437430">
        <ele>-0.8200000</ele>
        <time>2018-07-11T08:50:18Z</time>
      </trkpt>
      <trkpt lat="44.5574070" lon="14.8433780">
        <ele>-0.8200000</ele>
        <time>2018-07-11T08:50:38Z</time>
      </trkpt>
      <trkpt lat="44.5578420" lon="14.8430310">
        <ele>-0.3400000</ele>
        <time>2018-07-11T08:50:58Z</time>
      </trkpt>
      <trkpt lat="44.5581930" lon="14.8427360">
        <ele>-0.3400000</ele>
        <time>2018-07-11T08:51:14Z</time>
      </trkpt>
      <trkpt lat="44.5586240" lon="14.8423840">
        <ele>-0.3400000</ele>
        <time>2018-07-11T08:51:34Z</time>
      </trkpt>
      <trkpt lat="44.5589940" lon="14.8420750">
        <ele>0.1400000</ele>
        <time>2018-07-11T08:51:51Z</time>
      </trkpt>
      <trkpt lat="44.5593380" lon="14.8417780">
        <ele>-0.3400000</ele>
        <time>2018-07-11T08:52:07Z</time>
      </trkpt>
      <trkpt lat="44.5596810" lon="14.8414870">
        <ele>0.1400000</ele>
        <time>2018-07-11T08:52:23Z</time>
      </trkpt>
      <trkpt lat="44.5600430" lon="14.8411790">
        <ele>-0.3400000</ele>
        <time>2018-07-11T08:52:40Z</time>
      </trkpt>
      <trkpt lat="44.5604400" lon="14.8408370">
        <ele>0.1400000</ele>
        <time>2018-07-11T08:52:59Z</time>
      </trkpt>
      <trkpt lat="44.5608860" lon="14.8404570">
        <ele>-0.3400000</ele>
        <time>2018-07-11T08:53:20Z</time>
      </trkpt>
      <trkpt lat="44.5612140" lon="14.8401970">
        <ele>0.1400000</ele>
        <time>2018-07-11T08:53:35Z</time>
      </trkpt>
      <trkpt lat="44.5616950" lon="14.8397950">
        <ele>-0.3400000</ele>
        <time>2018-07-11T08:53:58Z</time>
      </trkpt>
      <trkpt lat="44.5622290" lon="14.8393680">
        <ele>-0.3400000</ele>
        <time>2018-07-11T08:54:22Z</time>
      </trkpt>
      <trkpt lat="44.5626260" lon="14.8390460">
        <ele>-0.3400000</ele>
        <time>2018-07-11T08:54:40Z</time>
      </trkpt>
      <trkpt lat="44.5630570" lon="14.8386820">
        <ele>0.1400000</ele>
        <time>2018-07-11T08:55:00Z</time>
      </trkpt>
      <trkpt lat="44.5634880" lon="14.8383220">
        <ele>-0.3400000</ele>
        <time>2018-07-11T08:55:20Z</time>
      </trkpt>
      <trkpt lat="44.5639760" lon="14.8379310">
        <ele>0.1400000</ele>
        <time>2018-07-11T08:55:42Z</time>
      </trkpt>
      <trkpt lat="44.5644380" lon="14.8375580">
        <ele>0.1400000</ele>
        <time>2018-07-11T08:56:03Z</time>
      </trkpt>
      <trkpt lat="44.5648350" lon="14.8372390">
        <ele>0.1400000</ele>
        <time>2018-07-11T08:56:21Z</time>
      </trkpt>
      <trkpt lat="44.5652350" lon="14.8369180">
        <ele>-0.3400000</ele>
        <time>2018-07-11T08:56:39Z</time>
      </trkpt>
      <trkpt lat="44.5656550" lon="14.8365710">
        <ele>0.6200000</ele>
        <time>2018-07-11T08:56:58Z</time>
      </trkpt>
      <trkpt lat="44.5660320" lon="14.8362530">
        <ele>0.1400000</ele>
        <time>2018-07-11T08:57:15Z</time>
      </trkpt>
      <trkpt lat="44.5664630" lon="14.8358890">
        <ele>0.1400000</ele>
        <time>2018-07-11T08:57:35Z</time>
      </trkpt>
      <trkpt lat="44.5669250" lon="14.8355050">
        <ele>0.1400000</ele>
        <time>2018-07-11T08:57:56Z</time>
      </trkpt>
      <trkpt lat="44.5673900" lon="14.8351220">
        <ele>0.1400000</ele>
        <time>2018-07-11T08:58:17Z</time>
      </trkpt>
      <trkpt lat="44.5678600" lon="14.8347390">
        <ele>1.1000000</ele>
        <time>2018-07-11T08:58:38Z</time>
      </trkpt>
      <trkpt lat="44.5683560" lon="14.8343380">
        <ele>0.6200000</ele>
        <time>2018-07-11T08:59:00Z</time>
      </trkpt>
      <trkpt lat="44.5688630" lon="14.8339290">
        <ele>0.6200000</ele>
        <time>2018-07-11T08:59:23Z</time>
      </trkpt>
      <trkpt lat="44.5693440" lon="14.8335580">
        <ele>1.1000000</ele>
        <time>2018-07-11T08:59:44Z</time>
      </trkpt>
      <trkpt lat="44.5697290" lon="14.8332590">
        <ele>0.6200000</ele>
        <time>2018-07-11T09:00:01Z</time>
      </trkpt>
      <trkpt lat="44.5701790" lon="14.8329000">
        <ele>0.6200000</ele>
        <time>2018-07-11T09:00:21Z</time>
      </trkpt>
      <trkpt lat="44.5705990" lon="14.8325530">
        <ele>1.1000000</ele>
        <time>2018-07-11T09:00:40Z</time>
      </trkpt>
      <trkpt lat="44.5710300" lon="14.8322090">
        <ele>0.6200000</ele>
        <time>2018-07-11T09:00:59Z</time>
      </trkpt>
      <trkpt lat="44.5715480" lon="14.8317980">
        <ele>0.6200000</ele>
        <time>2018-07-11T09:01:22Z</time>
      </trkpt>
      <trkpt lat="44.5719990" lon="14.8314460">
        <ele>1.1000000</ele>
        <time>2018-07-11T09:01:42Z</time>
      </trkpt>
      <trkpt lat="44.5724220" lon="14.8311060">
        <ele>1.1000000</ele>
        <time>2018-07-11T09:02:01Z</time>
      </trkpt>
      <trkpt lat="44.5728530" lon="14.8307690">
        <ele>1.5800000</ele>
        <time>2018-07-11T09:02:20Z</time>
      </trkpt>
      <trkpt lat="44.5732770" lon="14.8304190">
        <ele>1.5800000</ele>
        <time>2018-07-11T09:02:39Z</time>
      </trkpt>
      <trkpt lat="44.5736660" lon="14.8301070">
        <ele>1.1000000</ele>
        <time>2018-07-11T09:02:56Z</time>
      </trkpt>
      <trkpt lat="44.5740280" lon="14.8298070">
        <ele>1.5800000</ele>
        <time>2018-07-11T09:03:12Z</time>
      </trkpt>
      <trkpt lat="44.5744320" lon="14.8294850">
        <ele>1.5800000</ele>
        <time>2018-07-11T09:03:30Z</time>
      </trkpt>
      <trkpt lat="44.5748630" lon="14.8291190">
        <ele>1.1000000</ele>
        <time>2018-07-11T09:03:49Z</time>
      </trkpt>
      <trkpt lat="44.5752830" lon="14.8287760">
        <ele>1.1000000</ele>
        <time>2018-07-11T09:04:08Z</time>
      </trkpt>
      <trkpt lat="44.5756230" lon="14.8284940">
        <ele>1.1000000</ele>
        <time>2018-07-11T09:04:23Z</time>
      </trkpt>
      <trkpt lat="44.5760310" lon="14.8281650">
        <ele>1.5800000</ele>
        <time>2018-07-11T09:04:41Z</time>
      </trkpt>
      <trkpt lat="44.5764120" lon="14.8278460">
        <ele>1.1000000</ele>
        <time>2018-07-11T09:04:58Z</time>
      </trkpt>
      <trkpt lat="44.5769040" lon="14.8273910">
        <ele>1.5800000</ele>
        <time>2018-07-11T09:05:21Z</time>
      </trkpt>
      <trkpt lat="44.5773660" lon="14.8269430">
        <ele>1.1000000</ele>
        <time>2018-07-11T09:05:42Z</time>
      </trkpt>
      <trkpt lat="44.5777470" lon="14.8265710">
        <ele>1.1000000</ele>
        <time>2018-07-11T09:06:00Z</time>
      </trkpt>
      <trkpt lat="44.5781520" lon="14.8261780">
        <ele>1.5800000</ele>
        <time>2018-07-11T09:06:19Z</time>
      </trkpt>
      <trkpt lat="44.5785870" lon="14.8257550">
        <ele>1.1000000</ele>
        <time>2018-07-11T09:06:39Z</time>
      </trkpt>
      <trkpt lat="44.5790440" lon="14.8253150">
        <ele>1.1000000</ele>
        <time>2018-07-11T09:07:00Z</time>
      </trkpt>
      <trkpt lat="44.5795210" lon="14.8248530">
        <ele>1.1000000</ele>
        <time>2018-07-11T09:07:22Z</time>
      </trkpt>
      <trkpt lat="44.5799980" lon="14.8243930">
        <ele>1.1000000</ele>
        <time>2018-07-11T09:07:44Z</time>
      </trkpt>
      <trkpt lat="44.5804210" lon="14.8239980">
        <ele>1.5800000</ele>
        <time>2018-07-11T09:08:03Z</time>
      </trkpt>
      <trkpt lat="44.5808220" lon="14.8236280">
        <ele>2.0600000</ele>
        <time>2018-07-11T09:08:21Z</time>
      </trkpt>
      <trkpt lat="44.5812950" lon="14.8231900">
        <ele>1.5800000</ele>
        <time>2018-07-11T09:08:42Z</time>
      </trkpt>
      <trkpt lat="44.5816610" lon="14.8228350">
        <ele>1.5800000</ele>
        <time>2018-07-11T09:08:59Z</time>
      </trkpt>
      <trkpt lat="44.5820810" lon="14.8224490">
        <ele>1.1000000</ele>
        <time>2018-07-11T09:09:18Z</time>
      </trkpt>
      <trkpt lat="44.5825770" lon="14.8219800">
        <ele>1.5800000</ele>
        <time>2018-07-11T09:09:40Z</time>
      </trkpt>
      <trkpt lat="44.5830150" lon="14.8215550">
        <ele>1.5800000</ele>
        <time>2018-07-11T09:10:00Z</time>
      </trkpt>
      <trkpt lat="44.5834920" lon="14.8211110">
        <ele>1.5800000</ele>
        <time>2018-07-11T09:10:21Z</time>
      </trkpt>
      <trkpt lat="44.5839390" lon="14.8206950">
        <ele>1.5800000</ele>
        <time>2018-07-11T09:10:41Z</time>
      </trkpt>
      <trkpt lat="44.5843960" lon="14.8202560">
        <ele>1.5800000</ele>
        <time>2018-07-11T09:11:02Z</time>
      </trkpt>
      <trkpt lat="44.5848240" lon="14.8198620">
        <ele>1.5800000</ele>
        <time>2018-07-11T09:11:21Z</time>
      </trkpt>
      <trkpt lat="44.5852700" lon="14.8194470">
        <ele>1.1000000</ele>
        <time>2018-07-11T09:11:41Z</time>
      </trkpt>
      <trkpt lat="44.5856900" lon="14.8190430">
        <ele>1.5800000</ele>
        <time>2018-07-11T09:12:00Z</time>
      </trkpt>
      <trkpt lat="44.5862270" lon="14.8185330">
        <ele>1.5800000</ele>
        <time>2018-07-11T09:12:24Z</time>
      </trkpt>
      <trkpt lat="44.5866430" lon="14.8181350">
        <ele>2.0600000</ele>
        <time>2018-07-11T09:12:43Z</time>
      </trkpt>
      <trkpt lat="44.5870820" lon="14.8177160">
        <ele>2.0600000</ele>
        <time>2018-07-11T09:13:03Z</time>
      </trkpt>
      <trkpt lat="44.5875510" lon="14.8172690">
        <ele>1.5800000</ele>
        <time>2018-07-11T09:13:24Z</time>
      </trkpt>
      <trkpt lat="44.5879940" lon="14.8168500">
        <ele>2.0600000</ele>
        <time>2018-07-11T09:13:44Z</time>
      </trkpt>
      <trkpt lat="44.5883640" lon="14.8164930">
        <ele>2.0600000</ele>
        <time>2018-07-11T09:14:01Z</time>
      </trkpt>
      <trkpt lat="44.5889360" lon="14.8159800">
        <ele>2.5400000</ele>
        <time>2018-07-11T09:14:26Z</time>
      </trkpt>
      <trkpt lat="44.5893780" lon="14.8155580">
        <ele>2.0600000</ele>
        <time>2018-07-11T09:14:46Z</time>
      </trkpt>
      <trkpt lat="44.5898930" lon="14.8150800">
        <ele>2.0600000</ele>
        <time>2018-07-11T09:15:09Z</time>
      </trkpt>
      <trkpt lat="44.5903130" lon="14.8146850">
        <ele>2.0600000</ele>
        <time>2018-07-11T09:15:28Z</time>
      </trkpt>
      <trkpt lat="44.5907780" lon="14.8142530">
        <ele>2.5400000</ele>
        <time>2018-07-11T09:15:49Z</time>
      </trkpt>
      <trkpt lat="44.5912090" lon="14.8138530">
        <ele>2.0600000</ele>
        <time>2018-07-11T09:16:08Z</time>
      </trkpt>
      <trkpt lat="44.5916330" lon="14.8134580">
        <ele>2.5400000</ele>
        <time>2018-07-11T09:16:27Z</time>
      </trkpt>
      <trkpt lat="44.5920910" lon="14.8130280">
        <ele>2.5400000</ele>
        <time>2018-07-11T09:16:48Z</time>
      </trkpt>
      <trkpt lat="44.5925330" lon="14.8126100">
        <ele>2.5400000</ele>
        <time>2018-07-11T09:17:08Z</time>
      </trkpt>
      <trkpt lat="44.5929950" lon="14.8121600">
        <ele>2.5400000</ele>
        <time>2018-07-11T09:17:29Z</time>
      </trkpt>
      <trkpt lat="44.5934450" lon="14.8117440">
        <ele>2.5400000</ele>
        <time>2018-07-11T09:17:49Z</time>
      </trkpt>
      <trkpt lat="44.5937810" lon="14.8114150">
        <ele>2.5400000</ele>
        <time>2018-07-11T09:18:05Z</time>
      </trkpt>
      <trkpt lat="44.5939830" lon="14.8112210">
        <ele>0.6200000</ele>
        <time>2018-07-11T09:18:14Z</time>
      </trkpt>
      <trkpt lat="44.5940820" lon="14.8111130">
        <ele>2.0600000</ele>
        <time>2018-07-11T09:18:19Z</time>
      </trkpt>
      <trkpt lat="44.5944600" lon="14.8107530">
        <ele>2.5400000</ele>
        <time>2018-07-11T09:18:36Z</time>
      </trkpt>
      <trkpt lat="44.5947990" lon="14.8104100">
        <ele>2.5400000</ele>
        <time>2018-07-11T09:18:52Z</time>
      </trkpt>
      <trkpt lat="44.5951610" lon="14.8100790">
        <ele>2.5400000</ele>
        <time>2018-07-11T09:19:08Z</time>
      </trkpt>
      <trkpt lat="44.5953600" lon="14.8098920">
        <ele>0.1400000</ele>
        <time>2018-07-11T09:19:17Z</time>
      </trkpt>
      <trkpt lat="44.5957030" lon="14.8095820">
        <ele>1.5800000</ele>
        <time>2018-07-11T09:19:32Z</time>
      </trkpt>
      <trkpt lat="44.5961530" lon="14.8091450">
        <ele>2.0600000</ele>
        <time>2018-07-11T09:19:52Z</time>
      </trkpt>
      <trkpt lat="44.5965650" lon="14.8087460">
        <ele>2.0600000</ele>
        <time>2018-07-11T09:20:11Z</time>
      </trkpt>
      <trkpt lat="44.5969660" lon="14.8083750">
        <ele>2.5400000</ele>
        <time>2018-07-11T09:20:29Z</time>
      </trkpt>
      <trkpt lat="44.5973700" lon="14.8079810">
        <ele>2.0600000</ele>
        <time>2018-07-11T09:20:48Z</time>
      </trkpt>
      <trkpt lat="44.5978010" lon="14.8075520">
        <ele>2.0600000</ele>
        <time>2018-07-11T09:21:08Z</time>
      </trkpt>
      <trkpt lat="44.5982280" lon="14.8071280">
        <ele>2.0600000</ele>
        <time>2018-07-11T09:21:28Z</time>
      </trkpt>
      <trkpt lat="44.5986480" lon="14.8067240">
        <ele>2.0600000</ele>
        <time>2018-07-11T09:21:47Z</time>
      </trkpt>
      <trkpt lat="44.5990830" lon="14.8063020">
        <ele>2.0600000</ele>
        <time>2018-07-11T09:22:07Z</time>
      </trkpt>
      <trkpt lat="44.5995140" lon="14.8058540">
        <ele>2.0600000</ele>
        <time>2018-07-11T09:22:27Z</time>
      </trkpt>
      <trkpt lat="44.5999370" lon="14.8054380">
        <ele>2.5400000</ele>
        <time>2018-07-11T09:22:46Z</time>
      </trkpt>
      <trkpt lat="44.6003950" lon="14.8050010">
        <ele>2.5400000</ele>
        <time>2018-07-11T09:23:07Z</time>
      </trkpt>
      <trkpt lat="44.6008030" lon="14.8046070">
        <ele>2.0600000</ele>
        <time>2018-07-11T09:23:25Z</time>
      </trkpt>
      <trkpt lat="44.6013300" lon="14.8040950">
        <ele>2.0600000</ele>
        <time>2018-07-11T09:23:49Z</time>
      </trkpt>
      <trkpt lat="44.6017460" lon="14.8036920">
        <ele>2.0600000</ele>
        <time>2018-07-11T09:24:08Z</time>
      </trkpt>
      <trkpt lat="44.6021500" lon="14.8033020">
        <ele>2.0600000</ele>
        <time>2018-07-11T09:24:27Z</time>
      </trkpt>
      <trkpt lat="44.6026080" lon="14.8028680">
        <ele>2.0600000</ele>
        <time>2018-07-11T09:24:48Z</time>
      </trkpt>
      <trkpt lat="44.6030350" lon="14.8024320">
        <ele>2.0600000</ele>
        <time>2018-07-11T09:25:08Z</time>
      </trkpt>
      <trkpt lat="44.6035080" lon="14.8019640">
        <ele>1.5800000</ele>
        <time>2018-07-11T09:25:30Z</time>
      </trkpt>
      <trkpt lat="44.6039240" lon="14.8015450">
        <ele>2.0600000</ele>
        <time>2018-07-11T09:25:49Z</time>
      </trkpt>
      <trkpt lat="44.6043240" lon="14.8011520">
        <ele>2.0600000</ele>
        <time>2018-07-11T09:26:07Z</time>
      </trkpt>
      <trkpt lat="44.6047670" lon="14.8007120">
        <ele>1.5800000</ele>
        <time>2018-07-11T09:26:27Z</time>
      </trkpt>
      <trkpt lat="44.6052020" lon="14.8002740">
        <ele>2.0600000</ele>
        <time>2018-07-11T09:26:47Z</time>
      </trkpt>
      <trkpt lat="44.6055720" lon="14.7998940">
        <ele>1.5800000</ele>
        <time>2018-07-11T09:27:04Z</time>
      </trkpt>
      <trkpt lat="44.6059610" lon="14.7995010">
        <ele>1.5800000</ele>
        <time>2018-07-11T09:27:22Z</time>
      </trkpt>
      <trkpt lat="44.6064300" lon="14.7990420">
        <ele>2.0600000</ele>
        <time>2018-07-11T09:27:43Z</time>
      </trkpt>
      <trkpt lat="44.6068460" lon="14.7986220">
        <ele>1.5800000</ele>
        <time>2018-07-11T09:28:02Z</time>
      </trkpt>
      <trkpt lat="44.6072160" lon="14.7982500">
        <ele>1.5800000</ele>
        <time>2018-07-11T09:28:19Z</time>
      </trkpt>
      <trkpt lat="44.6076130" lon="14.7978610">
        <ele>1.5800000</ele>
        <time>2018-07-11T09:28:37Z</time>
      </trkpt>
      <trkpt lat="44.6079330" lon="14.7975550">
        <ele>1.1000000</ele>
        <time>2018-07-11T09:28:52Z</time>
      </trkpt>
      <trkpt lat="44.6083450" lon="14.7971410">
        <ele>1.1000000</ele>
        <time>2018-07-11T09:29:11Z</time>
      </trkpt>
      <trkpt lat="44.6088070" lon="14.7966690">
        <ele>1.1000000</ele>
        <time>2018-07-11T09:29:32Z</time>
      </trkpt>
      <trkpt lat="44.6092450" lon="14.7962260">
        <ele>1.5800000</ele>
        <time>2018-07-11T09:29:52Z</time>
      </trkpt>
      <trkpt lat="44.6096840" lon="14.7957950">
        <ele>1.1000000</ele>
        <time>2018-07-11T09:30:12Z</time>
      </trkpt>
      <trkpt lat="44.6101570" lon="14.7953140">
        <ele>1.1000000</ele>
        <time>2018-07-11T09:30:34Z</time>
      </trkpt>
      <trkpt lat="44.6105350" lon="14.7949480">
        <ele>1.1000000</ele>
        <time>2018-07-11T09:30:51Z</time>
      </trkpt>
      <trkpt lat="44.6108780" lon="14.7946160">
        <ele>1.1000000</ele>
        <time>2018-07-11T09:31:07Z</time>
      </trkpt>
      <trkpt lat="44.6112250" lon="14.7942570">
        <ele>0.6200000</ele>
        <time>2018-07-11T09:31:23Z</time>
      </trkpt>
      <trkpt lat="44.6115490" lon="14.7939270">
        <ele>1.1000000</ele>
        <time>2018-07-11T09:31:38Z</time>
      </trkpt>
      <trkpt lat="44.6119190" lon="14.7935450">
        <ele>0.6200000</ele>
        <time>2018-07-11T09:31:55Z</time>
      </trkpt>
      <trkpt lat="44.6122740" lon="14.7931750">
        <ele>0.6200000</ele>
        <time>2018-07-11T09:32:12Z</time>
      </trkpt>
      <trkpt lat="44.6126940" lon="14.7927410">
        <ele>0.6200000</ele>
        <time>2018-07-11T09:32:32Z</time>
      </trkpt>
      <trkpt lat="44.6131060" lon="14.7923280">
        <ele>0.1400000</ele>
        <time>2018-07-11T09:32:51Z</time>
      </trkpt>
      <trkpt lat="44.6135030" lon="14.7919190">
        <ele>0.6200000</ele>
        <time>2018-07-11T09:33:09Z</time>
      </trkpt>
      <trkpt lat="44.6138500" lon="14.7915730">
        <ele>1.1000000</ele>
        <time>2018-07-11T09:33:25Z</time>
      </trkpt>
      <trkpt lat="44.6142620" lon="14.7911430">
        <ele>0.6200000</ele>
        <time>2018-07-11T09:33:44Z</time>
      </trkpt>
      <trkpt lat="44.6147420" lon="14.7906720">
        <ele>0.1400000</ele>
        <time>2018-07-11T09:34:06Z</time>
      </trkpt>
      <trkpt lat="44.6152190" lon="14.7901900">
        <ele>0.6200000</ele>
        <time>2018-07-11T09:34:28Z</time>
      </trkpt>
      <trkpt lat="44.6156350" lon="14.7897590">
        <ele>0.6200000</ele>
        <time>2018-07-11T09:34:47Z</time>
      </trkpt>
      <trkpt lat="44.6160430" lon="14.7893430">
        <ele>0.6200000</ele>
        <time>2018-07-11T09:35:06Z</time>
      </trkpt>
      <trkpt lat="44.6165050" lon="14.7888840">
        <ele>0.1400000</ele>
        <time>2018-07-11T09:35:27Z</time>
      </trkpt>
      <trkpt lat="44.6168750" lon="14.7885150">
        <ele>0.1400000</ele>
        <time>2018-07-11T09:35:44Z</time>
      </trkpt>
      <trkpt lat="44.6172640" lon="14.7881120">
        <ele>0.6200000</ele>
        <time>2018-07-11T09:36:02Z</time>
      </trkpt>
      <trkpt lat="44.6176990" lon="14.7876730">
        <ele>0.1400000</ele>
        <time>2018-07-11T09:36:22Z</time>
      </trkpt>
      <trkpt lat="44.6180570" lon="14.7872790">
        <ele>0.1400000</ele>
        <time>2018-07-11T09:36:39Z</time>
      </trkpt>
      <trkpt lat="44.6185990" lon="14.7867110">
        <ele>0.1400000</ele>
        <time>2018-07-11T09:37:04Z</time>
      </trkpt>
      <trkpt lat="44.6190640" lon="14.7862430">
        <ele>-0.3400000</ele>
        <time>2018-07-11T09:37:25Z</time>
      </trkpt>
      <trkpt lat="44.6194500" lon="14.7858390">
        <ele>0.1400000</ele>
        <time>2018-07-11T09:37:43Z</time>
      </trkpt>
      <trkpt lat="44.6198880" lon="14.7853870">
        <ele>-0.3400000</ele>
        <time>2018-07-11T09:38:03Z</time>
      </trkpt>
      <trkpt lat="44.6203000" lon="14.7849700">
        <ele>-0.3400000</ele>
        <time>2018-07-11T09:38:22Z</time>
      </trkpt>
      <trkpt lat="44.6207010" lon="14.7845750">
        <ele>-0.3400000</ele>
        <time>2018-07-11T09:38:40Z</time>
      </trkpt>
      <trkpt lat="44.6210820" lon="14.7841640">
        <ele>-0.3400000</ele>
        <time>2018-07-11T09:38:58Z</time>
      </trkpt>
      <trkpt lat="44.6215170" lon="14.7837140">
        <ele>-0.3400000</ele>
        <time>2018-07-11T09:39:18Z</time>
      </trkpt>
      <trkpt lat="44.6219370" lon="14.7833000">
        <ele>-0.8200000</ele>
        <time>2018-07-11T09:39:37Z</time>
      </trkpt>
      <trkpt lat="44.6223340" lon="14.7828770">
        <ele>-0.3400000</ele>
        <time>2018-07-11T09:39:56Z</time>
      </trkpt>
      <trkpt lat="44.6227110" lon="14.7824800">
        <ele>-0.8200000</ele>
        <time>2018-07-11T09:40:14Z</time>
      </trkpt>
      <trkpt lat="44.6232070" lon="14.7819560">
        <ele>-0.8200000</ele>
        <time>2018-07-11T09:40:37Z</time>
      </trkpt>
      <trkpt lat="44.6236800" lon="14.7814520">
        <ele>-0.8200000</ele>
        <time>2018-07-11T09:40:59Z</time>
      </trkpt>
      <trkpt lat="44.6241300" lon="14.7809750">
        <ele>-0.3400000</ele>
        <time>2018-07-11T09:41:20Z</time>
      </trkpt>
      <trkpt lat="44.6246030" lon="14.7804710">
        <ele>-0.8200000</ele>
        <time>2018-07-11T09:41:42Z</time>
      </trkpt>
      <trkpt lat="44.6250460" lon="14.7800250">
        <ele>-0.8200000</ele>
        <time>2018-07-11T09:42:02Z</time>
      </trkpt>
      <trkpt lat="44.6254810" lon="14.7795760">
        <ele>-0.3400000</ele>
        <time>2018-07-11T09:42:22Z</time>
      </trkpt>
      <trkpt lat="44.6258390" lon="14.7791990">
        <ele>-0.8200000</ele>
        <time>2018-07-11T09:42:39Z</time>
      </trkpt>
      <trkpt lat="44.6262740" lon="14.7787540">
        <ele>-0.3400000</ele>
        <time>2018-07-11T09:42:59Z</time>
      </trkpt>
      <trkpt lat="44.6266860" lon="14.7783190">
        <ele>-0.8200000</ele>
        <time>2018-07-11T09:43:18Z</time>
      </trkpt>
      <trkpt lat="44.6272050" lon="14.7777810">
        <ele>-0.3400000</ele>
        <time>2018-07-11T09:43:42Z</time>
      </trkpt>
      <trkpt lat="44.6276440" lon="14.7773310">
        <ele>-0.8200000</ele>
        <time>2018-07-11T09:44:02Z</time>
      </trkpt>
      <trkpt lat="44.6280360" lon="14.7769250">
        <ele>-0.3400000</ele>
        <time>2018-07-11T09:44:20Z</time>
      </trkpt>
      <trkpt lat="44.6284330" lon="14.7765230">
        <ele>-0.8200000</ele>
        <time>2018-07-11T09:44:38Z</time>
      </trkpt>
      <trkpt lat="44.6288150" lon="14.7761170">
        <ele>-0.8200000</ele>
        <time>2018-07-11T09:44:56Z</time>
      </trkpt>
      <trkpt lat="44.6292300" lon="14.7756740">
        <ele>-0.8200000</ele>
        <time>2018-07-11T09:45:15Z</time>
      </trkpt>
      <trkpt lat="44.6296460" lon="14.7752500">
        <ele>-0.8200000</ele>
        <time>2018-07-11T09:45:34Z</time>
      </trkpt>
      <trkpt lat="44.6299710" lon="14.7748910">
        <ele>-0.8200000</ele>
        <time>2018-07-11T09:45:49Z</time>
      </trkpt>
      <trkpt lat="44.6304210" lon="14.7744040">
        <ele>-0.8200000</ele>
        <time>2018-07-11T09:46:10Z</time>
      </trkpt>
      <trkpt lat="44.6307950" lon="14.7740160">
        <ele>-1.3000000</ele>
        <time>2018-07-11T09:46:27Z</time>
      </trkpt>
      <trkpt lat="44.6312290" lon="14.7735520">
        <ele>-1.3000000</ele>
        <time>2018-07-11T09:46:47Z</time>
      </trkpt>
      <trkpt lat="44.6316180" lon="14.7731330">
        <ele>-0.8200000</ele>
        <time>2018-07-11T09:47:05Z</time>
      </trkpt>
      <trkpt lat="44.6320080" lon="14.7727250">
        <ele>-0.8200000</ele>
        <time>2018-07-11T09:47:23Z</time>
      </trkpt>
      <trkpt lat="44.6324080" lon="14.7723030">
        <ele>-0.8200000</ele>
        <time>2018-07-11T09:47:41Z</time>
      </trkpt>
      <trkpt lat="44.6327550" lon="14.7719360">
        <ele>-0.8200000</ele>
        <time>2018-07-11T09:47:57Z</time>
      </trkpt>
      <trkpt lat="44.6331100" lon="14.7715730">
        <ele>-0.8200000</ele>
        <time>2018-07-11T09:48:13Z</time>
      </trkpt>
      <trkpt lat="44.6335910" lon="14.7710750">
        <ele>-1.3000000</ele>
        <time>2018-07-11T09:48:35Z</time>
      </trkpt>
      <trkpt lat="44.6339380" lon="14.7707110">
        <ele>-0.8200000</ele>
        <time>2018-07-11T09:48:51Z</time>
      </trkpt>
      <trkpt lat="44.6343540" lon="14.7702730">
        <ele>-1.3000000</ele>
        <time>2018-07-11T09:49:10Z</time>
      </trkpt>
      <trkpt lat="44.6347920" lon="14.7698170">
        <ele>-1.3000000</ele>
        <time>2018-07-11T09:49:30Z</time>
      </trkpt>
      <trkpt lat="44.6352310" lon="14.7693620">
        <ele>-1.3000000</ele>
        <time>2018-07-11T09:49:50Z</time>
      </trkpt>
      <trkpt lat="44.6357150" lon="14.7688670">
        <ele>-1.3000000</ele>
        <time>2018-07-11T09:50:12Z</time>
      </trkpt>
      <trkpt lat="44.6361050" lon="14.7684590">
        <ele>-0.8200000</ele>
        <time>2018-07-11T09:50:30Z</time>
      </trkpt>
      <trkpt lat="44.6365280" lon="14.7680270">
        <ele>-0.8200000</ele>
        <time>2018-07-11T09:50:49Z</time>
      </trkpt>
      <trkpt lat="44.6369480" lon="14.7676050">
        <ele>-1.3000000</ele>
        <time>2018-07-11T09:51:08Z</time>
      </trkpt>
      <trkpt lat="44.6372760" lon="14.7672630">
        <ele>-1.3000000</ele>
        <time>2018-07-11T09:51:23Z</time>
      </trkpt>
      <trkpt lat="44.6377140" lon="14.7668250">
        <ele>-0.8200000</ele>
        <time>2018-07-11T09:51:43Z</time>
      </trkpt>
      <trkpt lat="44.6380880" lon="14.7664380">
        <ele>-0.8200000</ele>
        <time>2018-07-11T09:52:00Z</time>
      </trkpt>
      <trkpt lat="44.6385000" lon="14.7660550">
        <ele>-1.3000000</ele>
        <time>2018-07-11T09:52:18Z</time>
      </trkpt>
      <trkpt lat="44.6388400" lon="14.7657050">
        <ele>-1.3000000</ele>
        <time>2018-07-11T09:52:34Z</time>
      </trkpt>
      <trkpt lat="44.6391830" lon="14.7653560">
        <ele>-1.3000000</ele>
        <time>2018-07-11T09:52:50Z</time>
      </trkpt>
      <trkpt lat="44.6395300" lon="14.7649870">
        <ele>-0.8200000</ele>
        <time>2018-07-11T09:53:06Z</time>
      </trkpt>
      <trkpt lat="44.6398960" lon="14.7646000">
        <ele>-1.3000000</ele>
        <time>2018-07-11T09:53:23Z</time>
      </trkpt>
      <trkpt lat="44.6402740" lon="14.7642210">
        <ele>-1.3000000</ele>
        <time>2018-07-11T09:53:40Z</time>
      </trkpt>
      <trkpt lat="44.6406900" lon="14.7637980">
        <ele>-0.8200000</ele>
        <time>2018-07-11T09:53:59Z</time>
      </trkpt>
      <trkpt lat="44.6411060" lon="14.7633640">
        <ele>-1.3000000</ele>
        <time>2018-07-11T09:54:18Z</time>
      </trkpt>
      <trkpt lat="44.6415210" lon="14.7629340">
        <ele>-1.3000000</ele>
        <time>2018-07-11T09:54:37Z</time>
      </trkpt>
      <trkpt lat="44.6419560" lon="14.7624860">
        <ele>-1.3000000</ele>
        <time>2018-07-11T09:54:57Z</time>
      </trkpt>
      <trkpt lat="44.6424410" lon="14.7619880">
        <ele>-1.3000000</ele>
        <time>2018-07-11T09:55:19Z</time>
      </trkpt>
      <trkpt lat="44.6428570" lon="14.7615580">
        <ele>-0.8200000</ele>
        <time>2018-07-11T09:55:38Z</time>
      </trkpt>
      <trkpt lat="44.6432760" lon="14.7611370">
        <ele>-0.8200000</ele>
        <time>2018-07-11T09:55:57Z</time>
      </trkpt>
      <trkpt lat="44.6436420" lon="14.7607430">
        <ele>-0.8200000</ele>
        <time>2018-07-11T09:56:14Z</time>
      </trkpt>
      <trkpt lat="44.6440120" lon="14.7603710">
        <ele>-0.8200000</ele>
        <time>2018-07-11T09:56:31Z</time>
      </trkpt>
      <trkpt lat="44.6444020" lon="14.7599720">
        <ele>-0.8200000</ele>
        <time>2018-07-11T09:56:49Z</time>
      </trkpt>
      <trkpt lat="44.6448170" lon="14.7595330">
        <ele>-0.8200000</ele>
        <time>2018-07-11T09:57:08Z</time>
      </trkpt>
      <trkpt lat="44.6452100" lon="14.7591310">
        <ele>-0.3400000</ele>
        <time>2018-07-11T09:57:26Z</time>
      </trkpt>
      <trkpt lat="44.6455800" lon="14.7587520">
        <ele>-0.8200000</ele>
        <time>2018-07-11T09:57:43Z</time>
      </trkpt>
      <trkpt lat="44.6459730" lon="14.7583460">
        <ele>-0.8200000</ele>
        <time>2018-07-11T09:58:01Z</time>
      </trkpt>
      <trkpt lat="44.6463580" lon="14.7579480">
        <ele>-1.3000000</ele>
        <time>2018-07-11T09:58:19Z</time>
      </trkpt>
      <trkpt lat="44.6466870" lon="14.7576120">
        <ele>-0.3400000</ele>
        <time>2018-07-11T09:58:34Z</time>
      </trkpt>
      <trkpt lat="44.6470530" lon="14.7572210">
        <ele>-0.3400000</ele>
        <time>2018-07-11T09:58:51Z</time>
      </trkpt>
      <trkpt lat="44.6475560" lon="14.7567000">
        <ele>-0.8200000</ele>
        <time>2018-07-11T09:59:14Z</time>
      </trkpt>
      <trkpt lat="44.6479110" lon="14.7563320">
        <ele>-0.8200000</ele>
        <time>2018-07-11T09:59:30Z</time>
      </trkpt>
      <trkpt lat="44.6483730" lon="14.7558500">
        <ele>-0.8200000</ele>
        <time>2018-07-11T09:59:51Z</time>
      </trkpt>
      <trkpt lat="44.6487160" lon="14.7554940">
        <ele>-0.8200000</ele>
        <time>2018-07-11T10:00:07Z</time>
      </trkpt>
      <trkpt lat="44.6492160" lon="14.7549660">
        <ele>-0.3400000</ele>
        <time>2018-07-11T10:00:30Z</time>
      </trkpt>
      <trkpt lat="44.6496050" lon="14.7545700">
        <ele>-0.3400000</ele>
        <time>2018-07-11T10:00:48Z</time>
      </trkpt>
      <trkpt lat="44.6499900" lon="14.7541620">
        <ele>-0.3400000</ele>
        <time>2018-07-11T10:01:06Z</time>
      </trkpt>
      <trkpt lat="44.6504820" lon="14.7536590">
        <ele>-0.3400000</ele>
        <time>2018-07-11T10:01:28Z</time>
      </trkpt>
      <trkpt lat="44.6508980" lon="14.7532300">
        <ele>0.1400000</ele>
        <time>2018-07-11T10:01:47Z</time>
      </trkpt>
      <trkpt lat="44.6513940" lon="14.7527150">
        <ele>0.1400000</ele>
        <time>2018-07-11T10:02:10Z</time>
      </trkpt>
      <trkpt lat="44.6517220" lon="14.7523730">
        <ele>0.1400000</ele>
        <time>2018-07-11T10:02:25Z</time>
      </trkpt>
      <trkpt lat="44.6521150" lon="14.7519590">
        <ele>0.1400000</ele>
        <time>2018-07-11T10:02:43Z</time>
      </trkpt>
      <trkpt lat="44.6524660" lon="14.7515930">
        <ele>0.1400000</ele>
        <time>2018-07-11T10:02:59Z</time>
      </trkpt>
      <trkpt lat="44.6529200" lon="14.7511050">
        <ele>0.1400000</ele>
        <time>2018-07-11T10:03:20Z</time>
      </trkpt>
      <trkpt lat="44.6533550" lon="14.7506530">
        <ele>0.1400000</ele>
        <time>2018-07-11T10:03:40Z</time>
      </trkpt>
      <trkpt lat="44.6537320" lon="14.7502570">
        <ele>0.1400000</ele>
        <time>2018-07-11T10:03:57Z</time>
      </trkpt>
      <trkpt lat="44.6541180" lon="14.7498410">
        <ele>0.1400000</ele>
        <time>2018-07-11T10:04:15Z</time>
      </trkpt>
      <trkpt lat="44.6545790" lon="14.7493670">
        <ele>0.6200000</ele>
        <time>2018-07-11T10:04:36Z</time>
      </trkpt>
      <trkpt lat="44.6550220" lon="14.7489120">
        <ele>0.1400000</ele>
        <time>2018-07-11T10:04:56Z</time>
      </trkpt>
      <trkpt lat="44.6553990" lon="14.7485240">
        <ele>0.1400000</ele>
        <time>2018-07-11T10:05:13Z</time>
      </trkpt>
      <trkpt lat="44.6557690" lon="14.7481270">
        <ele>0.6200000</ele>
        <time>2018-07-11T10:05:30Z</time>
      </trkpt>
      <trkpt lat="44.6562080" lon="14.7476670">
        <ele>1.1000000</ele>
        <time>2018-07-11T10:05:50Z</time>
      </trkpt>
      <trkpt lat="44.6565740" lon="14.7472780">
        <ele>0.6200000</ele>
        <time>2018-07-11T10:06:07Z</time>
      </trkpt>
      <trkpt lat="44.6570090" lon="14.7468200">
        <ele>0.6200000</ele>
        <time>2018-07-11T10:06:27Z</time>
      </trkpt>
      <trkpt lat="44.6574630" lon="14.7464130">
        <ele>0.6200000</ele>
        <time>2018-07-11T10:06:47Z</time>
      </trkpt>
      <trkpt lat="44.6578030" lon="14.7461150">
        <ele>1.1000000</ele>
        <time>2018-07-11T10:07:02Z</time>
      </trkpt>
      <trkpt lat="44.6581650" lon="14.7458040">
        <ele>0.6200000</ele>
        <time>2018-07-11T10:07:18Z</time>
      </trkpt>
      <trkpt lat="44.6586490" lon="14.7453750">
        <ele>0.6200000</ele>
        <time>2018-07-11T10:07:39Z</time>
      </trkpt>
      <trkpt lat="44.6590080" lon="14.7450530">
        <ele>0.6200000</ele>
        <time>2018-07-11T10:07:55Z</time>
      </trkpt>
      <trkpt lat="44.6593550" lon="14.7447540">
        <ele>0.6200000</ele>
        <time>2018-07-11T10:08:10Z</time>
      </trkpt>
      <trkpt lat="44.6598010" lon="14.7443700">
        <ele>1.1000000</ele>
        <time>2018-07-11T10:08:29Z</time>
      </trkpt>
      <trkpt lat="44.6603130" lon="14.7439250">
        <ele>1.1000000</ele>
        <time>2018-07-11T10:08:51Z</time>
      </trkpt>
      <trkpt lat="44.6607630" lon="14.7435380">
        <ele>0.6200000</ele>
        <time>2018-07-11T10:09:11Z</time>
      </trkpt>
      <trkpt lat="44.6611820" lon="14.7431840">
        <ele>1.1000000</ele>
        <time>2018-07-11T10:09:29Z</time>
      </trkpt>
      <trkpt lat="44.6615980" lon="14.7428190">
        <ele>1.1000000</ele>
        <time>2018-07-11T10:09:47Z</time>
      </trkpt>
      <trkpt lat="44.6620980" lon="14.7423980">
        <ele>0.6200000</ele>
        <time>2018-07-11T10:10:08Z</time>
      </trkpt>
      <trkpt lat="44.6624910" lon="14.7420550">
        <ele>0.6200000</ele>
        <time>2018-07-11T10:10:25Z</time>
      </trkpt>
      <trkpt lat="44.6629140" lon="14.7416990">
        <ele>0.6200000</ele>
        <time>2018-07-11T10:10:43Z</time>
      </trkpt>
      <trkpt lat="44.6633110" lon="14.7413620">
        <ele>0.6200000</ele>
        <time>2018-07-11T10:11:00Z</time>
      </trkpt>
      <trkpt lat="44.6637540" lon="14.7409840">
        <ele>1.1000000</ele>
        <time>2018-07-11T10:11:19Z</time>
      </trkpt>
      <trkpt lat="44.6642230" lon="14.7405830">
        <ele>1.1000000</ele>
        <time>2018-07-11T10:11:39Z</time>
      </trkpt>
      <trkpt lat="44.6646460" lon="14.7402180">
        <ele>1.1000000</ele>
        <time>2018-07-11T10:11:57Z</time>
      </trkpt>
      <trkpt lat="44.6651500" lon="14.7397970">
        <ele>1.1000000</ele>
        <time>2018-07-11T10:12:19Z</time>
      </trkpt>
      <trkpt lat="44.6655850" lon="14.7394290">
        <ele>1.1000000</ele>
        <time>2018-07-11T10:12:38Z</time>
      </trkpt>
      <trkpt lat="44.6660500" lon="14.7390400">
        <ele>0.6200000</ele>
        <time>2018-07-11T10:12:58Z</time>
      </trkpt>
      <trkpt lat="44.6664390" lon="14.7387120">
        <ele>0.6200000</ele>
        <time>2018-07-11T10:13:15Z</time>
      </trkpt>
      <trkpt lat="44.6668660" lon="14.7383730">
        <ele>1.1000000</ele>
        <time>2018-07-11T10:13:33Z</time>
      </trkpt>
      <trkpt lat="44.6672710" lon="14.7380420">
        <ele>1.1000000</ele>
        <time>2018-07-11T10:13:50Z</time>
      </trkpt>
      <trkpt lat="44.6676980" lon="14.7376610">
        <ele>1.1000000</ele>
        <time>2018-07-11T10:14:09Z</time>
      </trkpt>
      <trkpt lat="44.6681940" lon="14.7372430">
        <ele>1.1000000</ele>
        <time>2018-07-11T10:14:30Z</time>
      </trkpt>
      <trkpt lat="44.6686100" lon="14.7368900">
        <ele>1.5800000</ele>
        <time>2018-07-11T10:14:48Z</time>
      </trkpt>
      <trkpt lat="44.6691470" lon="14.7364400">
        <ele>1.1000000</ele>
        <time>2018-07-11T10:15:11Z</time>
      </trkpt>
      <trkpt lat="44.6695330" lon="14.7361150">
        <ele>1.1000000</ele>
        <time>2018-07-11T10:15:28Z</time>
      </trkpt>
      <trkpt lat="44.6699330" lon="14.7357730">
        <ele>1.1000000</ele>
        <time>2018-07-11T10:15:45Z</time>
      </trkpt>
      <trkpt lat="44.6703490" lon="14.7354230">
        <ele>1.1000000</ele>
        <time>2018-07-11T10:16:03Z</time>
      </trkpt>
      <trkpt lat="44.6708220" lon="14.7350310">
        <ele>0.6200000</ele>
        <time>2018-07-11T10:16:23Z</time>
      </trkpt>
      <trkpt lat="44.6711850" lon="14.7347240">
        <ele>0.6200000</ele>
        <time>2018-07-11T10:16:39Z</time>
      </trkpt>
      <trkpt lat="44.6715580" lon="14.7344190">
        <ele>0.6200000</ele>
        <time>2018-07-11T10:16:55Z</time>
      </trkpt>
      <trkpt lat="44.6718980" lon="14.7341390">
        <ele>1.1000000</ele>
        <time>2018-07-11T10:17:10Z</time>
      </trkpt>
      <trkpt lat="44.6723710" lon="14.7337340">
        <ele>1.1000000</ele>
        <time>2018-07-11T10:17:31Z</time>
      </trkpt>
      <trkpt lat="44.6728860" lon="14.7333240">
        <ele>0.6200000</ele>
        <time>2018-07-11T10:17:53Z</time>
      </trkpt>
      <trkpt lat="44.6732520" lon="14.7330220">
        <ele>0.6200000</ele>
        <time>2018-07-11T10:18:09Z</time>
      </trkpt>
      <trkpt lat="44.6737290" lon="14.7326310">
        <ele>0.6200000</ele>
        <time>2018-07-11T10:18:30Z</time>
      </trkpt>
      <trkpt lat="44.6742590" lon="14.7321980">
        <ele>0.6200000</ele>
        <time>2018-07-11T10:18:53Z</time>
      </trkpt>
      <trkpt lat="44.6747780" lon="14.7317630">
        <ele>0.6200000</ele>
        <time>2018-07-11T10:19:16Z</time>
      </trkpt>
      <trkpt lat="44.6752090" lon="14.7314030">
        <ele>0.6200000</ele>
        <time>2018-07-11T10:19:35Z</time>
      </trkpt>
      <trkpt lat="44.6756520" lon="14.7310420">
        <ele>1.1000000</ele>
        <time>2018-07-11T10:19:55Z</time>
      </trkpt>
      <trkpt lat="44.6760900" lon="14.7306750">
        <ele>0.6200000</ele>
        <time>2018-07-11T10:20:15Z</time>
      </trkpt>
      <trkpt lat="44.6764980" lon="14.7303320">
        <ele>0.6200000</ele>
        <time>2018-07-11T10:20:33Z</time>
      </trkpt>
      <trkpt lat="44.6770210" lon="14.7299030">
        <ele>0.6200000</ele>
        <time>2018-07-11T10:20:56Z</time>
      </trkpt>
      <trkpt lat="44.6776160" lon="14.7294040">
        <ele>0.6200000</ele>
        <time>2018-07-11T10:21:22Z</time>
      </trkpt>
      <trkpt lat="44.6780970" lon="14.7290170">
        <ele>0.6200000</ele>
        <time>2018-07-11T10:21:43Z</time>
      </trkpt>
      <trkpt lat="44.6786190" lon="14.7285930">
        <ele>0.1400000</ele>
        <time>2018-07-11T10:22:06Z</time>
      </trkpt>
      <trkpt lat="44.6791800" lon="14.7281490">
        <ele>0.6200000</ele>
        <time>2018-07-11T10:22:30Z</time>
      </trkpt>
      <trkpt lat="44.6796380" lon="14.7277700">
        <ele>0.1400000</ele>
        <time>2018-07-11T10:22:50Z</time>
      </trkpt>
      <trkpt lat="44.6800690" lon="14.7274180">
        <ele>0.6200000</ele>
        <time>2018-07-11T10:23:09Z</time>
      </trkpt>
      <trkpt lat="44.6805460" lon="14.7270330">
        <ele>0.6200000</ele>
        <time>2018-07-11T10:23:30Z</time>
      </trkpt>
      <trkpt lat="44.6809840" lon="14.7266770">
        <ele>0.6200000</ele>
        <time>2018-07-11T10:23:49Z</time>
      </trkpt>
      <trkpt lat="44.6813740" lon="14.7263620">
        <ele>-1.3000000</ele>
        <time>2018-07-11T10:24:06Z</time>
      </trkpt>
      <trkpt lat="44.6814380" lon="14.7262990">
        <ele>0.6200000</ele>
        <time>2018-07-11T10:24:09Z</time>
      </trkpt>
      <trkpt lat="44.6817400" lon="14.7260720">
        <ele>0.1400000</ele>
        <time>2018-07-11T10:24:22Z</time>
      </trkpt>
      <trkpt lat="44.6820760" lon="14.7257950">
        <ele>0.6200000</ele>
        <time>2018-07-11T10:24:37Z</time>
      </trkpt>
      <trkpt lat="44.6824720" lon="14.7254680">
        <ele>0.1400000</ele>
        <time>2018-07-11T10:24:54Z</time>
      </trkpt>
      <trkpt lat="44.6828420" lon="14.7251670">
        <ele>0.1400000</ele>
        <time>2018-07-11T10:25:10Z</time>
      </trkpt>
      <trkpt lat="44.6833230" lon="14.7247880">
        <ele>0.6200000</ele>
        <time>2018-07-11T10:25:31Z</time>
      </trkpt>
      <trkpt lat="44.6837920" lon="14.7247300">
        <ele>0.6200000</ele>
        <time>2018-07-11T10:25:49Z</time>
      </trkpt>
      <trkpt lat="44.6844020" lon="14.7247440">
        <ele>0.6200000</ele>
        <time>2018-07-11T10:26:12Z</time>
      </trkpt>
      <trkpt lat="44.6849590" lon="14.7247920">
        <ele>0.6200000</ele>
        <time>2018-07-11T10:26:33Z</time>
      </trkpt>
      <trkpt lat="44.6854740" lon="14.7249220">
        <ele>1.1000000</ele>
        <time>2018-07-11T10:26:53Z</time>
      </trkpt>
      <trkpt lat="44.6860160" lon="14.7250470">
        <ele>0.6200000</ele>
        <time>2018-07-11T10:27:14Z</time>
      </trkpt>
      <trkpt lat="44.6864780" lon="14.7249590">
        <ele>0.6200000</ele>
        <time>2018-07-11T10:27:31Z</time>
      </trkpt>
      <trkpt lat="44.6870310" lon="14.7249700">
        <ele>1.1000000</ele>
        <time>2018-07-11T10:27:52Z</time>
      </trkpt>
      <trkpt lat="44.6874430" lon="14.7251260">
        <ele>0.6200000</ele>
        <time>2018-07-11T10:28:08Z</time>
      </trkpt>
      <trkpt lat="44.6878850" lon="14.7252630">
        <ele>0.6200000</ele>
        <time>2018-07-11T10:28:26Z</time>
      </trkpt>
      <trkpt lat="44.6884800" lon="14.7254210">
        <ele>0.6200000</ele>
        <time>2018-07-11T10:28:49Z</time>
      </trkpt>
      <trkpt lat="44.6890560" lon="14.7255230">
        <ele>1.1000000</ele>
        <time>2018-07-11T10:29:11Z</time>
      </trkpt>
      <trkpt lat="44.6896820" lon="14.7255750">
        <ele>0.6200000</ele>
        <time>2018-07-11T10:29:34Z</time>
      </trkpt>
      <trkpt lat="44.6901440" lon="14.7256260">
        <ele>0.6200000</ele>
        <time>2018-07-11T10:29:51Z</time>
      </trkpt>
      <trkpt lat="44.6906890" lon="14.7257160">
        <ele>0.1400000</ele>
        <time>2018-07-11T10:30:12Z</time>
      </trkpt>
      <trkpt lat="44.6912990" lon="14.7257680">
        <ele>0.1400000</ele>
        <time>2018-07-11T10:30:34Z</time>
      </trkpt>
      <trkpt lat="44.6917760" lon="14.7258600">
        <ele>0.1400000</ele>
        <time>2018-07-11T10:30:52Z</time>
      </trkpt>
      <trkpt lat="44.6922990" lon="14.7259960">
        <ele>0.6200000</ele>
        <time>2018-07-11T10:31:12Z</time>
      </trkpt>
      <trkpt lat="44.6927990" lon="14.7261340">
        <ele>0.6200000</ele>
        <time>2018-07-11T10:31:31Z</time>
      </trkpt>
      <trkpt lat="44.6933360" lon="14.7261390">
        <ele>0.1400000</ele>
        <time>2018-07-11T10:31:51Z</time>
      </trkpt>
      <trkpt lat="44.6938780" lon="14.7261590">
        <ele>0.1400000</ele>
        <time>2018-07-11T10:32:11Z</time>
      </trkpt>
      <trkpt lat="44.6943930" lon="14.7261740">
        <ele>0.1400000</ele>
        <time>2018-07-11T10:32:30Z</time>
      </trkpt>
      <trkpt lat="44.6949350" lon="14.7261940">
        <ele>0.1400000</ele>
        <time>2018-07-11T10:32:50Z</time>
      </trkpt>
      <trkpt lat="44.6955030" lon="14.7262110">
        <ele>0.1400000</ele>
        <time>2018-07-11T10:33:11Z</time>
      </trkpt>
      <trkpt lat="44.6960220" lon="14.7262320">
        <ele>0.1400000</ele>
        <time>2018-07-11T10:33:30Z</time>
      </trkpt>
      <trkpt lat="44.6965680" lon="14.7262550">
        <ele>0.1400000</ele>
        <time>2018-07-11T10:33:50Z</time>
      </trkpt>
      <trkpt lat="44.6971700" lon="14.7262860">
        <ele>0.1400000</ele>
        <time>2018-07-11T10:34:12Z</time>
      </trkpt>
      <trkpt lat="44.6977810" lon="14.7263100">
        <ele>0.1400000</ele>
        <time>2018-07-11T10:34:34Z</time>
      </trkpt>
      <trkpt lat="44.6984140" lon="14.7263440">
        <ele>-0.3400000</ele>
        <time>2018-07-11T10:34:57Z</time>
      </trkpt>
      <trkpt lat="44.6991040" lon="14.7263740">
        <ele>-0.8200000</ele>
        <time>2018-07-11T10:35:22Z</time>
      </trkpt>
      <trkpt lat="44.6997030" lon="14.7264120">
        <ele>-0.3400000</ele>
        <time>2018-07-11T10:35:44Z</time>
      </trkpt>
      <trkpt lat="44.7003400" lon="14.7264530">
        <ele>-0.3400000</ele>
        <time>2018-07-11T10:36:07Z</time>
      </trkpt>
      <trkpt lat="44.7009510" lon="14.7264910">
        <ele>-0.3400000</ele>
        <time>2018-07-11T10:36:29Z</time>
      </trkpt>
      <trkpt lat="44.7016490" lon="14.7265510">
        <ele>-0.3400000</ele>
        <time>2018-07-11T10:36:54Z</time>
      </trkpt>
      <trkpt lat="44.7023090" lon="14.7266710">
        <ele>-0.3400000</ele>
        <time>2018-07-11T10:37:19Z</time>
      </trkpt>
      <trkpt lat="44.7028960" lon="14.7269670">
        <ele>-0.3400000</ele>
        <time>2018-07-11T10:37:41Z</time>
      </trkpt>
      <trkpt lat="44.7034260" lon="14.7272350">
        <ele>-0.3400000</ele>
        <time>2018-07-11T10:38:01Z</time>
      </trkpt>
      <trkpt lat="44.7039410" lon="14.7275100">
        <ele>-0.3400000</ele>
        <time>2018-07-11T10:38:21Z</time>
      </trkpt>
      <trkpt lat="44.7045360" lon="14.7278330">
        <ele>-0.3400000</ele>
        <time>2018-07-11T10:38:44Z</time>
      </trkpt>
      <trkpt lat="44.7050860" lon="14.7282210">
        <ele>-0.3400000</ele>
        <time>2018-07-11T10:39:07Z</time>
      </trkpt>
      <trkpt lat="44.7055630" lon="14.7286470">
        <ele>0.1400000</ele>
        <time>2018-07-11T10:39:28Z</time>
      </trkpt>
      <trkpt lat="44.7060390" lon="14.7290570">
        <ele>-0.3400000</ele>
        <time>2018-07-11T10:39:49Z</time>
      </trkpt>
      <trkpt lat="44.7064970" lon="14.7294540">
        <ele>0.1400000</ele>
        <time>2018-07-11T10:40:09Z</time>
      </trkpt>
      <trkpt lat="44.7068560" lon="14.7297740">
        <ele>-0.3400000</ele>
        <time>2018-07-11T10:40:25Z</time>
      </trkpt>
      <trkpt lat="44.7072640" lon="14.7301230">
        <ele>0.1400000</ele>
        <time>2018-07-11T10:40:43Z</time>
      </trkpt>
      <trkpt lat="44.7076720" lon="14.7304810">
        <ele>-0.3400000</ele>
        <time>2018-07-11T10:41:01Z</time>
      </trkpt>
      <trkpt lat="44.7081260" lon="14.7308910">
        <ele>0.1400000</ele>
        <time>2018-07-11T10:41:21Z</time>
      </trkpt>
      <trkpt lat="44.7085380" lon="14.7312490">
        <ele>-0.3400000</ele>
        <time>2018-07-11T10:41:39Z</time>
      </trkpt>
      <trkpt lat="44.7089080" lon="14.7315990">
        <ele>-0.3400000</ele>
        <time>2018-07-11T10:41:56Z</time>
      </trkpt>
      <trkpt lat="44.7093050" lon="14.7319530">
        <ele>0.1400000</ele>
        <time>2018-07-11T10:42:14Z</time>
      </trkpt>
      <trkpt lat="44.7096370" lon="14.7322580">
        <ele>0.1400000</ele>
        <time>2018-07-11T10:42:29Z</time>
      </trkpt>
      <trkpt lat="44.7100370" lon="14.7326170">
        <ele>-0.3400000</ele>
        <time>2018-07-11T10:42:47Z</time>
      </trkpt>
      <trkpt lat="44.7103460" lon="14.7329030">
        <ele>0.1400000</ele>
        <time>2018-07-11T10:43:01Z</time>
      </trkpt>
      <trkpt lat="44.7106440" lon="14.7331820">
        <ele>0.1400000</ele>
        <time>2018-07-11T10:43:15Z</time>
      </trkpt>
      <trkpt lat="44.7109570" lon="14.7334890">
        <ele>0.1400000</ele>
        <time>2018-07-11T10:43:30Z</time>
      </trkpt>
      <trkpt lat="44.7112540" lon="14.7337700">
        <ele>0.1400000</ele>
        <time>2018-07-11T10:43:44Z</time>
      </trkpt>
      <trkpt lat="44.7115550" lon="14.7340680">
        <ele>0.1400000</ele>
        <time>2018-07-11T10:43:59Z</time>
      </trkpt>
      <trkpt lat="44.7118760" lon="14.7343730">
        <ele>0.6200000</ele>
        <time>2018-07-11T10:44:15Z</time>
      </trkpt>
      <trkpt lat="44.7122880" lon="14.7347620">
        <ele>0.1400000</ele>
        <time>2018-07-11T10:44:35Z</time>
      </trkpt>
      <trkpt lat="44.7126390" lon="14.7351040">
        <ele>0.1400000</ele>
        <time>2018-07-11T10:44:52Z</time>
      </trkpt>
      <trkpt lat="44.7129860" lon="14.7354280">
        <ele>0.1400000</ele>
        <time>2018-07-11T10:45:08Z</time>
      </trkpt>
      <trkpt lat="44.7133900" lon="14.7358090">
        <ele>0.1400000</ele>
        <time>2018-07-11T10:45:27Z</time>
      </trkpt>
      <trkpt lat="44.7137720" lon="14.7361630">
        <ele>0.1400000</ele>
        <time>2018-07-11T10:45:45Z</time>
      </trkpt>
      <trkpt lat="44.7141040" lon="14.7364930">
        <ele>0.1400000</ele>
        <time>2018-07-11T10:46:01Z</time>
      </trkpt>
      <trkpt lat="44.7144510" lon="14.7368330">
        <ele>0.6200000</ele>
        <time>2018-07-11T10:46:18Z</time>
      </trkpt>
      <trkpt lat="44.7148510" lon="14.7372190">
        <ele>0.6200000</ele>
        <time>2018-07-11T10:46:37Z</time>
      </trkpt>
      <trkpt lat="44.7152560" lon="14.7375960">
        <ele>0.6200000</ele>
        <time>2018-07-11T10:46:56Z</time>
      </trkpt>
      <trkpt lat="44.7156300" lon="14.7379510">
        <ele>0.6200000</ele>
        <time>2018-07-11T10:47:14Z</time>
      </trkpt>
      <trkpt lat="44.7159880" lon="14.7382870">
        <ele>0.6200000</ele>
        <time>2018-07-11T10:47:31Z</time>
      </trkpt>
      <trkpt lat="44.7164150" lon="14.7386570">
        <ele>0.6200000</ele>
        <time>2018-07-11T10:47:51Z</time>
      </trkpt>
      <trkpt lat="44.7167590" lon="14.7389540">
        <ele>0.6200000</ele>
        <time>2018-07-11T10:48:07Z</time>
      </trkpt>
      <trkpt lat="44.7171440" lon="14.7392770">
        <ele>0.6200000</ele>
        <time>2018-07-11T10:48:25Z</time>
      </trkpt>
      <trkpt lat="44.7175290" lon="14.7395980">
        <ele>1.1000000</ele>
        <time>2018-07-11T10:48:43Z</time>
      </trkpt>
      <trkpt lat="44.7179600" lon="14.7399370">
        <ele>1.1000000</ele>
        <time>2018-07-11T10:49:03Z</time>
      </trkpt>
      <trkpt lat="44.7183840" lon="14.7402990">
        <ele>1.1000000</ele>
        <time>2018-07-11T10:49:23Z</time>
      </trkpt>
      <trkpt lat="44.7187190" lon="14.7405890">
        <ele>0.6200000</ele>
        <time>2018-07-11T10:49:39Z</time>
      </trkpt>
      <trkpt lat="44.7191700" lon="14.7409520">
        <ele>1.1000000</ele>
        <time>2018-07-11T10:50:00Z</time>
      </trkpt>
      <trkpt lat="44.7195010" lon="14.7412410">
        <ele>1.1000000</ele>
        <time>2018-07-11T10:50:16Z</time>
      </trkpt>
      <trkpt lat="44.7198600" lon="14.7415460">
        <ele>1.5800000</ele>
        <time>2018-07-11T10:50:33Z</time>
      </trkpt>
      <trkpt lat="44.7202950" lon="14.7418970">
        <ele>1.1000000</ele>
        <time>2018-07-11T10:50:53Z</time>
      </trkpt>
      <trkpt lat="44.7206120" lon="14.7421600">
        <ele>1.1000000</ele>
        <time>2018-07-11T10:51:08Z</time>
      </trkpt>
      <trkpt lat="44.7210430" lon="14.7425030">
        <ele>1.5800000</ele>
        <time>2018-07-11T10:51:28Z</time>
      </trkpt>
      <trkpt lat="44.7213630" lon="14.7427570">
        <ele>1.5800000</ele>
        <time>2018-07-11T10:51:43Z</time>
      </trkpt>
      <trkpt lat="44.7217330" lon="14.7430350">
        <ele>1.5800000</ele>
        <time>2018-07-11T10:52:00Z</time>
      </trkpt>
      <trkpt lat="44.7221220" lon="14.7433380">
        <ele>1.1000000</ele>
        <time>2018-07-11T10:52:18Z</time>
      </trkpt>
      <trkpt lat="44.7225150" lon="14.7436370">
        <ele>1.5800000</ele>
        <time>2018-07-11T10:52:36Z</time>
      </trkpt>
      <trkpt lat="44.7228200" lon="14.7438720">
        <ele>1.5800000</ele>
        <time>2018-07-11T10:52:50Z</time>
      </trkpt>
      <trkpt lat="44.7232020" lon="14.7441530">
        <ele>1.5800000</ele>
        <time>2018-07-11T10:53:07Z</time>
      </trkpt>
      <trkpt lat="44.7236860" lon="14.7445130">
        <ele>2.0600000</ele>
        <time>2018-07-11T10:53:29Z</time>
      </trkpt>
      <trkpt lat="44.7241290" lon="14.7448490">
        <ele>1.5800000</ele>
        <time>2018-07-11T10:53:49Z</time>
      </trkpt>
      <trkpt lat="44.7245640" lon="14.7451830">
        <ele>2.0600000</ele>
        <time>2018-07-11T10:54:09Z</time>
      </trkpt>
      <trkpt lat="44.7249150" lon="14.7454410">
        <ele>2.0600000</ele>
        <time>2018-07-11T10:54:25Z</time>
      </trkpt>
      <trkpt lat="44.7252920" lon="14.7457220">
        <ele>2.5400000</ele>
        <time>2018-07-11T10:54:42Z</time>
      </trkpt>
      <trkpt lat="44.7257840" lon="14.7460840">
        <ele>2.5400000</ele>
        <time>2018-07-11T10:55:04Z</time>
      </trkpt>
      <trkpt lat="44.7261850" lon="14.7463770">
        <ele>2.5400000</ele>
        <time>2018-07-11T10:55:22Z</time>
      </trkpt>
      <trkpt lat="44.7266460" lon="14.7467290">
        <ele>2.5400000</ele>
        <time>2018-07-11T10:55:43Z</time>
      </trkpt>
      <trkpt lat="44.7270430" lon="14.7470280">
        <ele>2.5400000</ele>
        <time>2018-07-11T10:56:01Z</time>
      </trkpt>
      <trkpt lat="44.7275050" lon="14.7473740">
        <ele>3.0200000</ele>
        <time>2018-07-11T10:56:22Z</time>
      </trkpt>
      <trkpt lat="44.7279400" lon="14.7477070">
        <ele>3.0200000</ele>
        <time>2018-07-11T10:56:42Z</time>
      </trkpt>
      <trkpt lat="44.7282910" lon="14.7479770">
        <ele>3.5000000</ele>
        <time>2018-07-11T10:56:58Z</time>
      </trkpt>
      <trkpt lat="44.7286420" lon="14.7482350">
        <ele>3.0200000</ele>
        <time>2018-07-11T10:57:14Z</time>
      </trkpt>
      <trkpt lat="44.7289350" lon="14.7484330">
        <ele>3.5000000</ele>
        <time>2018-07-11T10:57:27Z</time>
      </trkpt>
      <trkpt lat="44.7292900" lon="14.7486770">
        <ele>3.0200000</ele>
        <time>2018-07-11T10:57:43Z</time>
      </trkpt>
      <trkpt lat="44.7296870" lon="14.7489600">
        <ele>3.0200000</ele>
        <time>2018-07-11T10:58:01Z</time>
      </trkpt>
      <trkpt lat="44.7301330" lon="14.7492660">
        <ele>3.0200000</ele>
        <time>2018-07-11T10:58:21Z</time>
      </trkpt>
      <trkpt lat="44.7305790" lon="14.7495680">
        <ele>2.5400000</ele>
        <time>2018-07-11T10:58:41Z</time>
      </trkpt>
      <trkpt lat="44.7310370" lon="14.7498550">
        <ele>3.0200000</ele>
        <time>2018-07-11T10:59:01Z</time>
      </trkpt>
      <trkpt lat="44.7314760" lon="14.7501770">
        <ele>2.0600000</ele>
        <time>2018-07-11T10:59:21Z</time>
      </trkpt>
      <trkpt lat="44.7318800" lon="14.7504500">
        <ele>2.0600000</ele>
        <time>2018-07-11T10:59:39Z</time>
      </trkpt>
      <trkpt lat="44.7323610" lon="14.7507500">
        <ele>2.5400000</ele>
        <time>2018-07-11T11:00:00Z</time>
      </trkpt>
      <trkpt lat="44.7327310" lon="14.7509480">
        <ele>2.0600000</ele>
        <time>2018-07-11T11:00:16Z</time>
      </trkpt>
      <trkpt lat="44.7331920" lon="14.7512160">
        <ele>2.0600000</ele>
        <time>2018-07-11T11:00:36Z</time>
      </trkpt>
      <trkpt lat="44.7336010" lon="14.7514610">
        <ele>2.0600000</ele>
        <time>2018-07-11T11:00:54Z</time>
      </trkpt>
      <trkpt lat="44.7339740" lon="14.7517770">
        <ele>2.0600000</ele>
        <time>2018-07-11T11:01:12Z</time>
      </trkpt>
      <trkpt lat="44.7343480" lon="14.7520690">
        <ele>1.5800000</ele>
        <time>2018-07-11T11:01:29Z</time>
      </trkpt>
      <trkpt lat="44.7347070" lon="14.7523090">
        <ele>1.5800000</ele>
        <time>2018-07-11T11:01:45Z</time>
      </trkpt>
      <trkpt lat="44.7350960" lon="14.7525720">
        <ele>1.5800000</ele>
        <time>2018-07-11T11:02:02Z</time>
      </trkpt>
      <trkpt lat="44.7355190" lon="14.7528580">
        <ele>1.5800000</ele>
        <time>2018-07-11T11:02:21Z</time>
      </trkpt>
      <trkpt lat="44.7358930" lon="14.7531250">
        <ele>1.5800000</ele>
        <time>2018-07-11T11:02:38Z</time>
      </trkpt>
      <trkpt lat="44.7363620" lon="14.7534590">
        <ele>1.5800000</ele>
        <time>2018-07-11T11:02:59Z</time>
      </trkpt>
      <trkpt lat="44.7368350" lon="14.7537950">
        <ele>1.5800000</ele>
        <time>2018-07-11T11:03:20Z</time>
      </trkpt>
      <trkpt lat="44.7372130" lon="14.7540870">
        <ele>1.5800000</ele>
        <time>2018-07-11T11:03:37Z</time>
      </trkpt>
      <trkpt lat="44.7375910" lon="14.7543710">
        <ele>1.5800000</ele>
        <time>2018-07-11T11:03:54Z</time>
      </trkpt>
      <trkpt lat="44.7379490" lon="14.7546170">
        <ele>1.1000000</ele>
        <time>2018-07-11T11:04:10Z</time>
      </trkpt>
      <trkpt lat="44.7383690" lon="14.7548660">
        <ele>1.1000000</ele>
        <time>2018-07-11T11:04:28Z</time>
      </trkpt>
      <trkpt lat="44.7388800" lon="14.7551530">
        <ele>1.1000000</ele>
        <time>2018-07-11T11:04:50Z</time>
      </trkpt>
      <trkpt lat="44.7392580" lon="14.7554340">
        <ele>0.6200000</ele>
        <time>2018-07-11T11:05:07Z</time>
      </trkpt>
      <trkpt lat="44.7397650" lon="14.7556280">
        <ele>0.6200000</ele>
        <time>2018-07-11T11:05:28Z</time>
      </trkpt>
      <trkpt lat="44.7403830" lon="14.7556410">
        <ele>1.1000000</ele>
        <time>2018-07-11T11:05:52Z</time>
      </trkpt>
      <trkpt lat="44.7409550" lon="14.7556250">
        <ele>1.1000000</ele>
        <time>2018-07-11T11:06:14Z</time>
      </trkpt>
      <trkpt lat="44.7414630" lon="14.7555720">
        <ele>1.1000000</ele>
        <time>2018-07-11T11:06:34Z</time>
      </trkpt>
      <trkpt lat="44.7420080" lon="14.7555330">
        <ele>0.6200000</ele>
        <time>2018-07-11T11:06:55Z</time>
      </trkpt>
      <trkpt lat="44.7425990" lon="14.7555070">
        <ele>0.6200000</ele>
        <time>2018-07-11T11:07:18Z</time>
      </trkpt>
      <trkpt lat="44.7431260" lon="14.7554560">
        <ele>0.6200000</ele>
        <time>2018-07-11T11:07:39Z</time>
      </trkpt>
      <trkpt lat="44.7436600" lon="14.7554340">
        <ele>1.1000000</ele>
        <time>2018-07-11T11:08:00Z</time>
      </trkpt>
      <trkpt lat="44.7441330" lon="14.7554620">
        <ele>0.6200000</ele>
        <time>2018-07-11T11:08:19Z</time>
      </trkpt>
      <trkpt lat="44.7446860" lon="14.7555460">
        <ele>0.6200000</ele>
        <time>2018-07-11T11:08:41Z</time>
      </trkpt>
      <trkpt lat="44.7453420" lon="14.7556450">
        <ele>0.6200000</ele>
        <time>2018-07-11T11:09:07Z</time>
      </trkpt>
      <trkpt lat="44.7458840" lon="14.7558370">
        <ele>0.6200000</ele>
        <time>2018-07-11T11:09:29Z</time>
      </trkpt>
      <trkpt lat="44.7464330" lon="14.7560560">
        <ele>1.1000000</ele>
        <time>2018-07-11T11:09:52Z</time>
      </trkpt>
      <trkpt lat="44.7469290" lon="14.7563430">
        <ele>0.6200000</ele>
        <time>2018-07-11T11:10:14Z</time>
      </trkpt>
      <trkpt lat="44.7474330" lon="14.7566490">
        <ele>0.6200000</ele>
        <time>2018-07-11T11:10:36Z</time>
      </trkpt>
      <trkpt lat="44.7479250" lon="14.7569580">
        <ele>0.6200000</ele>
        <time>2018-07-11T11:10:58Z</time>
      </trkpt>
      <trkpt lat="44.7483980" lon="14.7573090">
        <ele>1.1000000</ele>
        <time>2018-07-11T11:11:20Z</time>
      </trkpt>
      <trkpt lat="44.7488020" lon="14.7576210">
        <ele>0.6200000</ele>
        <time>2018-07-11T11:11:39Z</time>
      </trkpt>
      <trkpt lat="44.7492330" lon="14.7579720">
        <ele>0.6200000</ele>
        <time>2018-07-11T11:12:00Z</time>
      </trkpt>
      <trkpt lat="44.7496870" lon="14.7585330">
        <ele>0.6200000</ele>
        <time>2018-07-11T11:12:25Z</time>
      </trkpt>
      <trkpt lat="44.7499660" lon="14.7590650">
        <ele>0.6200000</ele>
        <time>2018-07-11T11:12:45Z</time>
      </trkpt>
      <trkpt lat="44.7502370" lon="14.7596430">
        <ele>1.1000000</ele>
        <time>2018-07-11T11:13:06Z</time>
      </trkpt>
      <trkpt lat="44.7505420" lon="14.7602190">
        <ele>0.6200000</ele>
        <time>2018-07-11T11:13:27Z</time>
      </trkpt>
      <trkpt lat="44.7509420" lon="14.7609000">
        <ele>0.6200000</ele>
        <time>2018-07-11T11:13:54Z</time>
      </trkpt>
      <trkpt lat="44.7513010" lon="14.7615580">
        <ele>1.1000000</ele>
        <time>2018-07-11T11:14:18Z</time>
      </trkpt>
      <trkpt lat="44.7517170" lon="14.7621920">
        <ele>1.5800000</ele>
        <time>2018-07-11T11:14:44Z</time>
      </trkpt>
      <trkpt lat="44.7521510" lon="14.7627690">
        <ele>1.1000000</ele>
        <time>2018-07-11T11:15:09Z</time>
      </trkpt>
      <trkpt lat="44.7525520" lon="14.7633970">
        <ele>1.5800000</ele>
        <time>2018-07-11T11:15:34Z</time>
      </trkpt>
      <trkpt lat="44.7529070" lon="14.7638110">
        <ele>1.5800000</ele>
        <time>2018-07-11T11:15:57Z</time>
      </trkpt>
      <trkpt lat="44.7533420" lon="14.7640480">
        <ele>1.5800000</ele>
        <time>2018-07-11T11:16:22Z</time>
      </trkpt>
      <trkpt lat="44.7537190" lon="14.7639210">
        <ele>1.5800000</ele>
        <time>2018-07-11T11:16:45Z</time>
      </trkpt>
      <trkpt lat="44.7541430" lon="14.7636860">
        <ele>1.5800000</ele>
        <time>2018-07-11T11:17:12Z</time>
      </trkpt>
      <trkpt lat="44.7545620" lon="14.7634290">
        <ele>1.5800000</ele>
        <time>2018-07-11T11:17:42Z</time>
      </trkpt>
      <trkpt lat="44.7549290" lon="14.7632450">
        <ele>1.5800000</ele>
        <time>2018-07-11T11:18:07Z</time>
      </trkpt>
      <trkpt lat="44.7553480" lon="14.7630040">
        <ele>2.0600000</ele>
        <time>2018-07-11T11:18:35Z</time>
      </trkpt>
      <trkpt lat="44.7556610" lon="14.7627900">
        <ele>1.5800000</ele>
        <time>2018-07-11T11:19:00Z</time>
      </trkpt>
      <trkpt lat="44.7560010" lon="14.7627180">
        <ele>2.0600000</ele>
        <time>2018-07-11T11:19:24Z</time>
      </trkpt>
      <trkpt lat="44.7563550" lon="14.7626190">
        <ele>1.5800000</ele>
        <time>2018-07-11T11:19:56Z</time>
      </trkpt>
      <trkpt lat="44.7566030" lon="14.7625270">
        <ele>2.0600000</ele>
        <time>2018-07-11T11:20:21Z</time>
      </trkpt>
      <trkpt lat="44.7568970" lon="14.7624840">
        <ele>2.0600000</ele>
        <time>2018-07-11T11:20:47Z</time>
      </trkpt>
      <trkpt lat="44.7570000" lon="14.7624390">
        <ele>2.0600000</ele>
        <time>2018-07-11T11:21:10Z</time>
      </trkpt>
      <trkpt lat="44.7568550" lon="14.7625780">
        <ele>1.5800000</ele>
        <time>2018-07-11T11:21:36Z</time>
      </trkpt>
      <trkpt lat="44.7568320" lon="14.7626120">
        <ele>1.5800000</ele>
        <time>2018-07-11T11:22:03Z</time>
      </trkpt>
      <trkpt lat="44.7568360" lon="14.7626130">
        <ele>2.0600000</ele>
        <time>2018-07-11T11:22:30Z</time>
      </trkpt>
      <trkpt lat="44.7568360" lon="14.7626130">
        <ele>2.0600000</ele>
        <time>2018-07-11T11:23:02Z</time>
      </trkpt>
      <trkpt lat="44.7568360" lon="14.7626130">
        <ele>2.0600000</ele>
        <time>2018-07-11T11:23:30Z</time>
      </trkpt>
      <trkpt lat="44.7568360" lon="14.7626140">
        <ele>1.5800000</ele>
        <time>2018-07-11T11:24:02Z</time>
      </trkpt>
      <trkpt lat="44.7568360" lon="14.7626140">
        <ele>1.5800000</ele>
        <time>2018-07-11T11:24:28Z</time>
      </trkpt>
      <trkpt lat="44.7568360" lon="14.7626140">
        <ele>1.5800000</ele>
        <time>2018-07-11T11:24:56Z</time>
      </trkpt>
      <trkpt lat="44.7568400" lon="14.7626140">
        <ele>2.0600000</ele>
        <time>2018-07-11T11:25:25Z</time>
      </trkpt>
      <trkpt lat="44.7568400" lon="14.7626160">
        <ele>2.0600000</ele>
        <time>2018-07-11T11:25:57Z</time>
      </trkpt>
      <trkpt lat="44.7568440" lon="14.7626160">
        <ele>1.5800000</ele>
        <time>2018-07-11T11:26:28Z</time>
      </trkpt>
      <trkpt lat="44.7568440" lon="14.7626160">
        <ele>2.0600000</ele>
        <time>2018-07-11T11:26:57Z</time>
      </trkpt>
      <trkpt lat="44.7568400" lon="14.7626230">
        <ele>1.5800000</ele>
        <time>2018-07-11T11:27:20Z</time>
      </trkpt>
      <trkpt lat="44.7568400" lon="14.7626300">
        <ele>1.5800000</ele>
        <time>2018-07-11T11:27:36Z</time>
      </trkpt>
      <trkpt lat="44.7568320" lon="14.7626340">
        <ele>0.6200000</ele>
        <time>2018-07-11T11:27:49Z</time>
      </trkpt>
      <trkpt lat="44.7568360" lon="14.7626360">
        <ele>1.1000000</ele>
        <time>2018-07-11T11:28:01Z</time>
      </trkpt>
      <trkpt lat="44.7568470" lon="14.7626380">
        <ele>1.5800000</ele>
        <time>2018-07-11T11:28:19Z</time>
      </trkpt>
      <trkpt lat="44.7568470" lon="14.7626380">
        <ele>1.5800000</ele>
        <time>2018-07-11T11:28:38Z</time>
      </trkpt>
      <trkpt lat="44.7568510" lon="14.7626350">
        <ele>2.0600000</ele>
        <time>2018-07-11T11:29:10Z</time>
      </trkpt>
      <trkpt lat="44.7568590" lon="14.7626430">
        <ele>2.0600000</ele>
        <time>2018-07-11T11:29:39Z</time>
      </trkpt>
      <trkpt lat="44.7568590" lon="14.7626430">
        <ele>2.0600000</ele>
        <time>2018-07-11T11:30:04Z</time>
      </trkpt>
      <trkpt lat="44.7568630" lon="14.7626440">
        <ele>1.5800000</ele>
        <time>2018-07-11T11:30:35Z</time>
      </trkpt>
      <trkpt lat="44.7568590" lon="14.7626450">
        <ele>2.0600000</ele>
        <time>2018-07-11T11:31:03Z</time>
      </trkpt>
      <trkpt lat="44.7568590" lon="14.7626450">
        <ele>1.5800000</ele>
        <time>2018-07-11T11:31:31Z</time>
      </trkpt>
      <trkpt lat="44.7568590" lon="14.7626480">
        <ele>2.0600000</ele>
        <time>2018-07-11T11:32:03Z</time>
      </trkpt>
      <trkpt lat="44.7568590" lon="14.7626480">
        <ele>2.0600000</ele>
        <time>2018-07-11T11:32:36Z</time>
      </trkpt>
      <trkpt lat="44.7568590" lon="14.7626460">
        <ele>2.0600000</ele>
        <time>2018-07-11T11:33:03Z</time>
      </trkpt>
      <trkpt lat="44.7568590" lon="14.7626500">
        <ele>2.5400000</ele>
        <time>2018-07-11T11:33:25Z</time>
      </trkpt>
      <trkpt lat="44.7568590" lon="14.7626500">
        <ele>2.5400000</ele>
        <time>2018-07-11T11:33:56Z</time>
      </trkpt>
      <trkpt lat="44.7568550" lon="14.7626510">
        <ele>2.5400000</ele>
        <time>2018-07-11T11:34:25Z</time>
      </trkpt>
      <trkpt lat="44.7568550" lon="14.7626500">
        <ele>0.6200000</ele>
        <time>2018-07-11T11:34:38Z</time>
      </trkpt>
    </trkseg>
  </trk>

  <trk>
    <name>4 Rab - Supetarska Draga</name>
    <extensions>
      <gpxx:TrackExtension xmlns:gpxx="http://www.garmin.com/xmlschemas/GpxExtensions/v3">
        <gpxx:DisplayColor>LightGray</gpxx:DisplayColor>
      </gpxx:TrackExtension>
    </extensions>
    <trkseg>
      <trkpt lat="44.7568280" lon="14.7626430">
        <ele>-15.2400000</ele>
        <time>2018-07-12T04:47:26Z</time>
      </trkpt>
      <trkpt lat="44.7568360" lon="14.7626630">
        <ele>-13.3200000</ele>
        <time>2018-07-12T04:47:31Z</time>
      </trkpt>
      <trkpt lat="44.7568440" lon="14.7626490">
        <ele>-13.3200000</ele>
        <time>2018-07-12T04:47:38Z</time>
      </trkpt>
      <trkpt lat="44.7567900" lon="14.7626580">
        <ele>-18.6100000</ele>
        <time>2018-07-12T08:27:26Z</time>
      </trkpt>
      <trkpt lat="44.7567940" lon="14.7626620">
        <ele>-17.6500000</ele>
        <time>2018-07-12T08:27:27Z</time>
      </trkpt>
      <trkpt lat="44.7568090" lon="14.7626290">
        <ele>-14.2800000</ele>
        <time>2018-07-12T08:27:35Z</time>
      </trkpt>
      <trkpt lat="44.7568320" lon="14.7626230">
        <ele>-11.4000000</ele>
        <time>2018-07-12T08:27:40Z</time>
      </trkpt>
      <trkpt lat="44.7568320" lon="14.7626050">
        <ele>-8.0300000</ele>
        <time>2018-07-12T08:27:45Z</time>
      </trkpt>
      <trkpt lat="44.7568280" lon="14.7626030">
        <ele>-8.0300000</ele>
        <time>2018-07-12T08:27:46Z</time>
      </trkpt>
      <trkpt lat="44.7568240" lon="14.7625990">
        <ele>-5.1500000</ele>
        <time>2018-07-12T08:27:52Z</time>
      </trkpt>
      <trkpt lat="44.7568240" lon="14.7626300">
        <ele>-1.7900000</ele>
        <time>2018-07-12T08:28:01Z</time>
      </trkpt>
      <trkpt lat="44.7568470" lon="14.7626410">
        <ele>0.6200000</ele>
        <time>2018-07-12T08:28:35Z</time>
      </trkpt>
      <trkpt lat="44.7568550" lon="14.7626420">
        <ele>1.1000000</ele>
        <time>2018-07-12T08:29:07Z</time>
      </trkpt>
      <trkpt lat="44.7568550" lon="14.7626420">
        <ele>1.1000000</ele>
        <time>2018-07-12T08:29:34Z</time>
      </trkpt>
      <trkpt lat="44.7568700" lon="14.7626190">
        <ele>0.6200000</ele>
        <time>2018-07-12T08:30:02Z</time>
      </trkpt>
      <trkpt lat="44.7568860" lon="14.7625110">
        <ele>1.1000000</ele>
        <time>2018-07-12T08:30:32Z</time>
      </trkpt>
      <trkpt lat="44.7568170" lon="14.7623640">
        <ele>1.1000000</ele>
        <time>2018-07-12T08:30:47Z</time>
      </trkpt>
      <trkpt lat="44.7565080" lon="14.7623050">
        <ele>1.1000000</ele>
        <time>2018-07-12T08:31:18Z</time>
      </trkpt>
      <trkpt lat="44.7561450" lon="14.7624030">
        <ele>0.6200000</ele>
        <time>2018-07-12T08:31:49Z</time>
      </trkpt>
      <trkpt lat="44.7558630" lon="14.7625130">
        <ele>0.6200000</ele>
        <time>2018-07-12T08:32:12Z</time>
      </trkpt>
      <trkpt lat="44.7555080" lon="14.7626710">
        <ele>0.6200000</ele>
        <time>2018-07-12T08:32:42Z</time>
      </trkpt>
      <trkpt lat="44.7551770" lon="14.7628410">
        <ele>0.6200000</ele>
        <time>2018-07-12T08:33:08Z</time>
      </trkpt>
      <trkpt lat="44.7547990" lon="14.7630040">
        <ele>0.6200000</ele>
        <time>2018-07-12T08:33:37Z</time>
      </trkpt>
      <trkpt lat="44.7544440" lon="14.7631630">
        <ele>0.1400000</ele>
        <time>2018-07-12T08:34:05Z</time>
      </trkpt>
      <trkpt lat="44.7541200" lon="14.7633310">
        <ele>0.6200000</ele>
        <time>2018-07-12T08:34:31Z</time>
      </trkpt>
      <trkpt lat="44.7537960" lon="14.7635170">
        <ele>0.6200000</ele>
        <time>2018-07-12T08:34:57Z</time>
      </trkpt>
      <trkpt lat="44.7534140" lon="14.7637300">
        <ele>0.6200000</ele>
        <time>2018-07-12T08:35:27Z</time>
      </trkpt>
      <trkpt lat="44.7531240" lon="14.7637260">
        <ele>0.6200000</ele>
        <time>2018-07-12T08:35:51Z</time>
      </trkpt>
      <trkpt lat="44.7528690" lon="14.7634450">
        <ele>1.1000000</ele>
        <time>2018-07-12T08:36:15Z</time>
      </trkpt>
      <trkpt lat="44.7525830" lon="14.7629370">
        <ele>0.6200000</ele>
        <time>2018-07-12T08:36:45Z</time>
      </trkpt>
      <trkpt lat="44.7523160" lon="14.7624480">
        <ele>0.6200000</ele>
        <time>2018-07-12T08:37:10Z</time>
      </trkpt>
      <trkpt lat="44.7520370" lon="14.7618440">
        <ele>0.6200000</ele>
        <time>2018-07-12T08:37:38Z</time>
      </trkpt>
      <trkpt lat="44.7518080" lon="14.7611480">
        <ele>0.6200000</ele>
        <time>2018-07-12T08:38:08Z</time>
      </trkpt>
      <trkpt lat="44.7516250" lon="14.7605510">
        <ele>0.1400000</ele>
        <time>2018-07-12T08:38:34Z</time>
      </trkpt>
      <trkpt lat="44.7514040" lon="14.7599750">
        <ele>0.6200000</ele>
        <time>2018-07-12T08:38:59Z</time>
      </trkpt>
      <trkpt lat="44.7511480" lon="14.7592300">
        <ele>0.1400000</ele>
        <time>2018-07-12T08:39:32Z</time>
      </trkpt>
      <trkpt lat="44.7509800" lon="14.7588000">
        <ele>0.1400000</ele>
        <time>2018-07-12T08:39:56Z</time>
      </trkpt>
      <trkpt lat="44.7507970" lon="14.7586830">
        <ele>0.1400000</ele>
        <time>2018-07-12T08:40:18Z</time>
      </trkpt>
      <trkpt lat="44.7505800" lon="14.7584410">
        <ele>0.1400000</ele>
        <time>2018-07-12T08:40:40Z</time>
      </trkpt>
      <trkpt lat="44.7503740" lon="14.7579140">
        <ele>0.1400000</ele>
        <time>2018-07-12T08:41:04Z</time>
      </trkpt>
      <trkpt lat="44.7502250" lon="14.7573330">
        <ele>0.1400000</ele>
        <time>2018-07-12T08:41:27Z</time>
      </trkpt>
      <trkpt lat="44.7500690" lon="14.7566740">
        <ele>0.1400000</ele>
        <time>2018-07-12T08:41:53Z</time>
      </trkpt>
      <trkpt lat="44.7499500" lon="14.7561890">
        <ele>0.1400000</ele>
        <time>2018-07-12T08:42:14Z</time>
      </trkpt>
      <trkpt lat="44.7498630" lon="14.7556850">
        <ele>0.1400000</ele>
        <time>2018-07-12T08:42:36Z</time>
      </trkpt>
      <trkpt lat="44.7497790" lon="14.7550720">
        <ele>0.1400000</ele>
        <time>2018-07-12T08:43:02Z</time>
      </trkpt>
      <trkpt lat="44.7497140" lon="14.7544300">
        <ele>0.6200000</ele>
        <time>2018-07-12T08:43:29Z</time>
      </trkpt>
      <trkpt lat="44.7496640" lon="14.7538870">
        <ele>0.1400000</ele>
        <time>2018-07-12T08:43:54Z</time>
      </trkpt>
      <trkpt lat="44.7496190" lon="14.7532520">
        <ele>0.1400000</ele>
        <time>2018-07-12T08:44:20Z</time>
      </trkpt>
      <trkpt lat="44.7496600" lon="14.7526030">
        <ele>0.6200000</ele>
        <time>2018-07-12T08:44:48Z</time>
      </trkpt>
      <trkpt lat="44.7497480" lon="14.7518950">
        <ele>0.6200000</ele>
        <time>2018-07-12T08:45:18Z</time>
      </trkpt>
      <trkpt lat="44.7498050" lon="14.7514050">
        <ele>0.6200000</ele>
        <time>2018-07-12T08:45:39Z</time>
      </trkpt>
      <trkpt lat="44.7498510" lon="14.7508010">
        <ele>0.1400000</ele>
        <time>2018-07-12T08:46:06Z</time>
      </trkpt>
      <trkpt lat="44.7498890" lon="14.7501610">
        <ele>0.1400000</ele>
        <time>2018-07-12T08:46:34Z</time>
      </trkpt>
      <trkpt lat="44.7499240" lon="14.7494540">
        <ele>0.6200000</ele>
        <time>2018-07-12T08:47:04Z</time>
      </trkpt>
      <trkpt lat="44.7499580" lon="14.7487300">
        <ele>0.6200000</ele>
        <time>2018-07-12T08:47:35Z</time>
      </trkpt>
      <trkpt lat="44.7500040" lon="14.7481020">
        <ele>0.1400000</ele>
        <time>2018-07-12T08:48:02Z</time>
      </trkpt>
      <trkpt lat="44.7500920" lon="14.7474030">
        <ele>0.6200000</ele>
        <time>2018-07-12T08:48:31Z</time>
      </trkpt>
      <trkpt lat="44.7502020" lon="14.7467790">
        <ele>0.1400000</ele>
        <time>2018-07-12T08:48:59Z</time>
      </trkpt>
      <trkpt lat="44.7502520" lon="14.7461610">
        <ele>0.1400000</ele>
        <time>2018-07-12T08:49:27Z</time>
      </trkpt>
      <trkpt lat="44.7502750" lon="14.7456500">
        <ele>0.6200000</ele>
        <time>2018-07-12T08:49:49Z</time>
      </trkpt>
      <trkpt lat="44.7502900" lon="14.7450690">
        <ele>-0.3400000</ele>
        <time>2018-07-12T08:50:14Z</time>
      </trkpt>
      <trkpt lat="44.7503010" lon="14.7444580">
        <ele>0.1400000</ele>
        <time>2018-07-12T08:50:40Z</time>
      </trkpt>
      <trkpt lat="44.7503010" lon="14.7439230">
        <ele>-0.3400000</ele>
        <time>2018-07-12T08:51:03Z</time>
      </trkpt>
      <trkpt lat="44.7503010" lon="14.7432070">
        <ele>-0.3400000</ele>
        <time>2018-07-12T08:51:34Z</time>
      </trkpt>
      <trkpt lat="44.7503170" lon="14.7425050">
        <ele>0.1400000</ele>
        <time>2018-07-12T08:52:04Z</time>
      </trkpt>
      <trkpt lat="44.7503200" lon="14.7418560">
        <ele>-0.3400000</ele>
        <time>2018-07-12T08:52:32Z</time>
      </trkpt>
      <trkpt lat="44.7503240" lon="14.7412030">
        <ele>-0.3400000</ele>
        <time>2018-07-12T08:53:00Z</time>
      </trkpt>
      <trkpt lat="44.7503320" lon="14.7405440">
        <ele>0.1400000</ele>
        <time>2018-07-12T08:53:29Z</time>
      </trkpt>
      <trkpt lat="44.7503400" lon="14.7400050">
        <ele>-0.3400000</ele>
        <time>2018-07-12T08:53:54Z</time>
      </trkpt>
      <trkpt lat="44.7503400" lon="14.7394270">
        <ele>-0.3400000</ele>
        <time>2018-07-12T08:54:20Z</time>
      </trkpt>
      <trkpt lat="44.7503400" lon="14.7389080">
        <ele>0.1400000</ele>
        <time>2018-07-12T08:54:43Z</time>
      </trkpt>
      <trkpt lat="44.7503470" lon="14.7383730">
        <ele>0.1400000</ele>
        <time>2018-07-12T08:55:07Z</time>
      </trkpt>
      <trkpt lat="44.7503510" lon="14.7378600">
        <ele>-0.3400000</ele>
        <time>2018-07-12T08:55:30Z</time>
      </trkpt>
      <trkpt lat="44.7503550" lon="14.7373850">
        <ele>-0.3400000</ele>
        <time>2018-07-12T08:55:51Z</time>
      </trkpt>
      <trkpt lat="44.7503550" lon="14.7368810">
        <ele>0.1400000</ele>
        <time>2018-07-12T08:56:13Z</time>
      </trkpt>
      <trkpt lat="44.7503550" lon="14.7363760">
        <ele>0.1400000</ele>
        <time>2018-07-12T08:56:36Z</time>
      </trkpt>
      <trkpt lat="44.7503590" lon="14.7358770">
        <ele>0.1400000</ele>
        <time>2018-07-12T08:56:58Z</time>
      </trkpt>
      <trkpt lat="44.7503660" lon="14.7354110">
        <ele>-0.3400000</ele>
        <time>2018-07-12T08:57:19Z</time>
      </trkpt>
      <trkpt lat="44.7503850" lon="14.7349360">
        <ele>0.1400000</ele>
        <time>2018-07-12T08:57:40Z</time>
      </trkpt>
      <trkpt lat="44.7503810" lon="14.7343730">
        <ele>-0.3400000</ele>
        <time>2018-07-12T08:58:05Z</time>
      </trkpt>
      <trkpt lat="44.7503780" lon="14.7338680">
        <ele>0.1400000</ele>
        <time>2018-07-12T08:58:27Z</time>
      </trkpt>
      <trkpt lat="44.7503970" lon="14.7333240">
        <ele>0.1400000</ele>
        <time>2018-07-12T08:58:51Z</time>
      </trkpt>
      <trkpt lat="44.7504160" lon="14.7328250">
        <ele>0.1400000</ele>
        <time>2018-07-12T08:59:13Z</time>
      </trkpt>
      <trkpt lat="44.7504270" lon="14.7323160">
        <ele>-0.3400000</ele>
        <time>2018-07-12T08:59:35Z</time>
      </trkpt>
      <trkpt lat="44.7504160" lon="14.7317280">
        <ele>0.1400000</ele>
        <time>2018-07-12T09:00:01Z</time>
      </trkpt>
      <trkpt lat="44.7504080" lon="14.7311240">
        <ele>0.1400000</ele>
        <time>2018-07-12T09:00:27Z</time>
      </trkpt>
      <trkpt lat="44.7503660" lon="14.7306080">
        <ele>0.1400000</ele>
        <time>2018-07-12T09:00:50Z</time>
      </trkpt>
      <trkpt lat="44.7503200" lon="14.7301920">
        <ele>0.1400000</ele>
        <time>2018-07-12T09:01:09Z</time>
      </trkpt>
      <trkpt lat="44.7502900" lon="14.7297990">
        <ele>-0.3400000</ele>
        <time>2018-07-12T09:01:27Z</time>
      </trkpt>
      <trkpt lat="44.7502290" lon="14.7292880">
        <ele>-0.3400000</ele>
        <time>2018-07-12T09:01:50Z</time>
      </trkpt>
      <trkpt lat="44.7501680" lon="14.7288110">
        <ele>0.1400000</ele>
        <time>2018-07-12T09:02:11Z</time>
      </trkpt>
      <trkpt lat="44.7501180" lon="14.7283450">
        <ele>-0.3400000</ele>
        <time>2018-07-12T09:02:32Z</time>
      </trkpt>
      <trkpt lat="44.7500650" lon="14.7277620">
        <ele>-0.3400000</ele>
        <time>2018-07-12T09:02:58Z</time>
      </trkpt>
      <trkpt lat="44.7500080" lon="14.7272460">
        <ele>-0.3400000</ele>
        <time>2018-07-12T09:03:21Z</time>
      </trkpt>
      <trkpt lat="44.7499580" lon="14.7267750">
        <ele>0.1400000</ele>
        <time>2018-07-12T09:03:42Z</time>
      </trkpt>
      <trkpt lat="44.7499200" lon="14.7262890">
        <ele>-0.3400000</ele>
        <time>2018-07-12T09:04:03Z</time>
      </trkpt>
      <trkpt lat="44.7499050" lon="14.7257600">
        <ele>-0.3400000</ele>
        <time>2018-07-12T09:04:26Z</time>
      </trkpt>
      <trkpt lat="44.7499010" lon="14.7252400">
        <ele>-0.3400000</ele>
        <time>2018-07-12T09:04:49Z</time>
      </trkpt>
      <trkpt lat="44.7499200" lon="14.7247990">
        <ele>-0.3400000</ele>
        <time>2018-07-12T09:05:08Z</time>
      </trkpt>
      <trkpt lat="44.7499160" lon="14.7241850">
        <ele>-0.3400000</ele>
        <time>2018-07-12T09:05:35Z</time>
      </trkpt>
      <trkpt lat="44.7499240" lon="14.7236750">
        <ele>-0.8200000</ele>
        <time>2018-07-12T09:05:57Z</time>
      </trkpt>
      <trkpt lat="44.7499240" lon="14.7231630">
        <ele>-0.3400000</ele>
        <time>2018-07-12T09:06:19Z</time>
      </trkpt>
      <trkpt lat="44.7499390" lon="14.7225380">
        <ele>-0.3400000</ele>
        <time>2018-07-12T09:06:46Z</time>
      </trkpt>
      <trkpt lat="44.7499500" lon="14.7219460">
        <ele>-0.3400000</ele>
        <time>2018-07-12T09:07:09Z</time>
      </trkpt>
      <trkpt lat="44.7499580" lon="14.7213550">
        <ele>-0.3400000</ele>
        <time>2018-07-12T09:07:31Z</time>
      </trkpt>
      <trkpt lat="44.7499690" lon="14.7206820">
        <ele>-0.3400000</ele>
        <time>2018-07-12T09:07:56Z</time>
      </trkpt>
      <trkpt lat="44.7499660" lon="14.7200070">
        <ele>-1.3000000</ele>
        <time>2018-07-12T09:08:21Z</time>
      </trkpt>
      <trkpt lat="44.7499770" lon="14.7194640">
        <ele>-0.8200000</ele>
        <time>2018-07-12T09:08:41Z</time>
      </trkpt>
      <trkpt lat="44.7500000" lon="14.7188750">
        <ele>-1.3000000</ele>
        <time>2018-07-12T09:09:03Z</time>
      </trkpt>
      <trkpt lat="44.7499810" lon="14.7182890">
        <ele>-1.3000000</ele>
        <time>2018-07-12T09:09:25Z</time>
      </trkpt>
      <trkpt lat="44.7500310" lon="14.7177360">
        <ele>-1.3000000</ele>
        <time>2018-07-12T09:09:46Z</time>
      </trkpt>
      <trkpt lat="44.7500720" lon="14.7172270">
        <ele>-1.3000000</ele>
        <time>2018-07-12T09:10:06Z</time>
      </trkpt>
      <trkpt lat="44.7501410" lon="14.7166530">
        <ele>-1.3000000</ele>
        <time>2018-07-12T09:10:29Z</time>
      </trkpt>
      <trkpt lat="44.7501720" lon="14.7158800">
        <ele>-1.3000000</ele>
        <time>2018-07-12T09:10:58Z</time>
      </trkpt>
      <trkpt lat="44.7501910" lon="14.7151720">
        <ele>-1.3000000</ele>
        <time>2018-07-12T09:11:25Z</time>
      </trkpt>
      <trkpt lat="44.7502020" lon="14.7145960">
        <ele>-1.7900000</ele>
        <time>2018-07-12T09:11:48Z</time>
      </trkpt>
      <trkpt lat="44.7502060" lon="14.7139820">
        <ele>-1.3000000</ele>
        <time>2018-07-12T09:12:12Z</time>
      </trkpt>
      <trkpt lat="44.7502170" lon="14.7132980">
        <ele>-1.3000000</ele>
        <time>2018-07-12T09:12:38Z</time>
      </trkpt>
      <trkpt lat="44.7502440" lon="14.7125380">
        <ele>-1.7900000</ele>
        <time>2018-07-12T09:13:06Z</time>
      </trkpt>
      <trkpt lat="44.7502590" lon="14.7116870">
        <ele>-1.7900000</ele>
        <time>2018-07-12T09:13:37Z</time>
      </trkpt>
      <trkpt lat="44.7502670" lon="14.7109970">
        <ele>-1.7900000</ele>
        <time>2018-07-12T09:14:02Z</time>
      </trkpt>
      <trkpt lat="44.7502590" lon="14.7101410">
        <ele>-1.7900000</ele>
        <time>2018-07-12T09:14:32Z</time>
      </trkpt>
      <trkpt lat="44.7503360" lon="14.7094800">
        <ele>-1.7900000</ele>
        <time>2018-07-12T09:14:57Z</time>
      </trkpt>
      <trkpt lat="44.7504230" lon="14.7088460">
        <ele>-1.3000000</ele>
        <time>2018-07-12T09:15:21Z</time>
      </trkpt>
      <trkpt lat="44.7505150" lon="14.7081680">
        <ele>-1.3000000</ele>
        <time>2018-07-12T09:15:47Z</time>
      </trkpt>
      <trkpt lat="44.7506330" lon="14.7073190">
        <ele>-1.3000000</ele>
        <time>2018-07-12T09:16:19Z</time>
      </trkpt>
      <trkpt lat="44.7507480" lon="14.7064850">
        <ele>-1.3000000</ele>
        <time>2018-07-12T09:16:50Z</time>
      </trkpt>
      <trkpt lat="44.7508540" lon="14.7057300">
        <ele>-1.3000000</ele>
        <time>2018-07-12T09:17:18Z</time>
      </trkpt>
      <trkpt lat="44.7509570" lon="14.7049610">
        <ele>-1.3000000</ele>
        <time>2018-07-12T09:17:46Z</time>
      </trkpt>
      <trkpt lat="44.7510640" lon="14.7042200">
        <ele>-1.7900000</ele>
        <time>2018-07-12T09:18:13Z</time>
      </trkpt>
      <trkpt lat="44.7511750" lon="14.7034270">
        <ele>-1.3000000</ele>
        <time>2018-07-12T09:18:42Z</time>
      </trkpt>
      <trkpt lat="44.7512550" lon="14.7027930">
        <ele>-1.3000000</ele>
        <time>2018-07-12T09:19:05Z</time>
      </trkpt>
      <trkpt lat="44.7513580" lon="14.7020800">
        <ele>-0.8200000</ele>
        <time>2018-07-12T09:19:31Z</time>
      </trkpt>
      <trkpt lat="44.7514610" lon="14.7013240">
        <ele>-0.8200000</ele>
        <time>2018-07-12T09:19:58Z</time>
      </trkpt>
      <trkpt lat="44.7515530" lon="14.7005820">
        <ele>-0.8200000</ele>
        <time>2018-07-12T09:20:25Z</time>
      </trkpt>
      <trkpt lat="44.7516400" lon="14.6999630">
        <ele>-1.3000000</ele>
        <time>2018-07-12T09:20:50Z</time>
      </trkpt>
      <trkpt lat="44.7517430" lon="14.6992370">
        <ele>-1.3000000</ele>
        <time>2018-07-12T09:21:17Z</time>
      </trkpt>
      <trkpt lat="44.7518540" lon="14.6984910">
        <ele>-0.8200000</ele>
        <time>2018-07-12T09:21:44Z</time>
      </trkpt>
      <trkpt lat="44.7519530" lon="14.6977660">
        <ele>-0.8200000</ele>
        <time>2018-07-12T09:22:10Z</time>
      </trkpt>
      <trkpt lat="44.7520600" lon="14.6969840">
        <ele>-0.8200000</ele>
        <time>2018-07-12T09:22:38Z</time>
      </trkpt>
      <trkpt lat="44.7521670" lon="14.6961800">
        <ele>-0.8200000</ele>
        <time>2018-07-12T09:23:07Z</time>
      </trkpt>
      <trkpt lat="44.7522620" lon="14.6955050">
        <ele>-0.8200000</ele>
        <time>2018-07-12T09:23:30Z</time>
      </trkpt>
      <trkpt lat="44.7523230" lon="14.6950100">
        <ele>-0.3400000</ele>
        <time>2018-07-12T09:23:47Z</time>
      </trkpt>
      <trkpt lat="44.7524220" lon="14.6942820">
        <ele>-1.3000000</ele>
        <time>2018-07-12T09:24:13Z</time>
      </trkpt>
      <trkpt lat="44.7525790" lon="14.6936240">
        <ele>-0.8200000</ele>
        <time>2018-07-12T09:24:38Z</time>
      </trkpt>
      <trkpt lat="44.7527540" lon="14.6930420">
        <ele>-0.8200000</ele>
        <time>2018-07-12T09:25:00Z</time>
      </trkpt>
      <trkpt lat="44.7529640" lon="14.6923240">
        <ele>-0.8200000</ele>
        <time>2018-07-12T09:25:27Z</time>
      </trkpt>
      <trkpt lat="44.7531850" lon="14.6915340">
        <ele>-0.8200000</ele>
        <time>2018-07-12T09:25:57Z</time>
      </trkpt>
      <trkpt lat="44.7533610" lon="14.6909400">
        <ele>-0.8200000</ele>
        <time>2018-07-12T09:26:20Z</time>
      </trkpt>
      <trkpt lat="44.7535250" lon="14.6903320">
        <ele>-0.8200000</ele>
        <time>2018-07-12T09:26:44Z</time>
      </trkpt>
      <trkpt lat="44.7537500" lon="14.6895530">
        <ele>-0.8200000</ele>
        <time>2018-07-12T09:27:14Z</time>
      </trkpt>
      <trkpt lat="44.7539670" lon="14.6889570">
        <ele>-0.3400000</ele>
        <time>2018-07-12T09:27:39Z</time>
      </trkpt>
      <trkpt lat="44.7542380" lon="14.6883420">
        <ele>-0.8200000</ele>
        <time>2018-07-12T09:28:05Z</time>
      </trkpt>
      <trkpt lat="44.7545170" lon="14.6877000">
        <ele>-0.3400000</ele>
        <time>2018-07-12T09:28:32Z</time>
      </trkpt>
      <trkpt lat="44.7547950" lon="14.6870510">
        <ele>-0.3400000</ele>
        <time>2018-07-12T09:28:59Z</time>
      </trkpt>
      <trkpt lat="44.7550770" lon="14.6864020">
        <ele>-0.3400000</ele>
        <time>2018-07-12T09:29:26Z</time>
      </trkpt>
      <trkpt lat="44.7553290" lon="14.6857960">
        <ele>-0.3400000</ele>
        <time>2018-07-12T09:29:51Z</time>
      </trkpt>
      <trkpt lat="44.7556110" lon="14.6851390">
        <ele>-0.3400000</ele>
        <time>2018-07-12T09:30:18Z</time>
      </trkpt>
      <trkpt lat="44.7558820" lon="14.6845230">
        <ele>-0.3400000</ele>
        <time>2018-07-12T09:30:44Z</time>
      </trkpt>
      <trkpt lat="44.7562180" lon="14.6837570">
        <ele>0.1400000</ele>
        <time>2018-07-12T09:31:16Z</time>
      </trkpt>
      <trkpt lat="44.7565840" lon="14.6829030">
        <ele>0.1400000</ele>
        <time>2018-07-12T09:31:51Z</time>
      </trkpt>
      <trkpt lat="44.7568860" lon="14.6822320">
        <ele>-0.3400000</ele>
        <time>2018-07-12T09:32:19Z</time>
      </trkpt>
      <trkpt lat="44.7571640" lon="14.6815680">
        <ele>0.1400000</ele>
        <time>2018-07-12T09:32:46Z</time>
      </trkpt>
      <trkpt lat="44.7574230" lon="14.6809820">
        <ele>0.1400000</ele>
        <time>2018-07-12T09:33:11Z</time>
      </trkpt>
      <trkpt lat="44.7576640" lon="14.6804160">
        <ele>-0.3400000</ele>
        <time>2018-07-12T09:33:35Z</time>
      </trkpt>
      <trkpt lat="44.7578770" lon="14.6799290">
        <ele>0.1400000</ele>
        <time>2018-07-12T09:33:56Z</time>
      </trkpt>
      <trkpt lat="44.7581100" lon="14.6793960">
        <ele>-0.3400000</ele>
        <time>2018-07-12T09:34:19Z</time>
      </trkpt>
      <trkpt lat="44.7583430" lon="14.6788630">
        <ele>0.1400000</ele>
        <time>2018-07-12T09:34:42Z</time>
      </trkpt>
      <trkpt lat="44.7585830" lon="14.6783140">
        <ele>0.1400000</ele>
        <time>2018-07-12T09:35:06Z</time>
      </trkpt>
      <trkpt lat="44.7588920" lon="14.6776180">
        <ele>0.1400000</ele>
        <time>2018-07-12T09:35:36Z</time>
      </trkpt>
      <trkpt lat="44.7591780" lon="14.6769560">
        <ele>0.1400000</ele>
        <time>2018-07-12T09:36:04Z</time>
      </trkpt>
      <trkpt lat="44.7594600" lon="14.6762990">
        <ele>-0.3400000</ele>
        <time>2018-07-12T09:36:32Z</time>
      </trkpt>
      <trkpt lat="44.7597350" lon="14.6756630">
        <ele>0.6200000</ele>
        <time>2018-07-12T09:36:59Z</time>
      </trkpt>
      <trkpt lat="44.7599720" lon="14.6751040">
        <ele>0.1400000</ele>
        <time>2018-07-12T09:37:23Z</time>
      </trkpt>
      <trkpt lat="44.7602810" lon="14.6744060">
        <ele>0.1400000</ele>
        <time>2018-07-12T09:37:53Z</time>
      </trkpt>
      <trkpt lat="44.7605590" lon="14.6738780">
        <ele>0.1400000</ele>
        <time>2018-07-12T09:38:17Z</time>
      </trkpt>
      <trkpt lat="44.7608870" lon="14.6733410">
        <ele>0.1400000</ele>
        <time>2018-07-12T09:38:43Z</time>
      </trkpt>
      <trkpt lat="44.7611690" lon="14.6728720">
        <ele>0.1400000</ele>
        <time>2018-07-12T09:39:06Z</time>
      </trkpt>
      <trkpt lat="44.7614360" lon="14.6724390">
        <ele>0.1400000</ele>
        <time>2018-07-12T09:39:28Z</time>
      </trkpt>
      <trkpt lat="44.7618640" lon="14.6717400">
        <ele>-0.3400000</ele>
        <time>2018-07-12T09:40:02Z</time>
      </trkpt>
      <trkpt lat="44.7621650" lon="14.6712450">
        <ele>0.1400000</ele>
        <time>2018-07-12T09:40:26Z</time>
      </trkpt>
      <trkpt lat="44.7624320" lon="14.6707940">
        <ele>0.1400000</ele>
        <time>2018-07-12T09:40:48Z</time>
      </trkpt>
      <trkpt lat="44.7627830" lon="14.6702300">
        <ele>0.1400000</ele>
        <time>2018-07-12T09:41:16Z</time>
      </trkpt>
      <trkpt lat="44.7631030" lon="14.6697050">
        <ele>0.1400000</ele>
        <time>2018-07-12T09:41:42Z</time>
      </trkpt>
      <trkpt lat="44.7634540" lon="14.6691500">
        <ele>0.6200000</ele>
        <time>2018-07-12T09:42:10Z</time>
      </trkpt>
      <trkpt lat="44.7638130" lon="14.6685820">
        <ele>0.6200000</ele>
        <time>2018-07-12T09:42:39Z</time>
      </trkpt>
      <trkpt lat="44.7641140" lon="14.6680950">
        <ele>0.1400000</ele>
        <time>2018-07-12T09:43:04Z</time>
      </trkpt>
      <trkpt lat="44.7644040" lon="14.6676140">
        <ele>0.1400000</ele>
        <time>2018-07-12T09:43:31Z</time>
      </trkpt>
      <trkpt lat="44.7646220" lon="14.6672750">
        <ele>0.1400000</ele>
        <time>2018-07-12T09:43:51Z</time>
      </trkpt>
      <trkpt lat="44.7648740" lon="14.6668800">
        <ele>0.1400000</ele>
        <time>2018-07-12T09:44:13Z</time>
      </trkpt>
      <trkpt lat="44.7651670" lon="14.6664140">
        <ele>0.6200000</ele>
        <time>2018-07-12T09:44:38Z</time>
      </trkpt>
      <trkpt lat="44.7654340" lon="14.6659920">
        <ele>0.6200000</ele>
        <time>2018-07-12T09:45:01Z</time>
      </trkpt>
      <trkpt lat="44.7657240" lon="14.6655150">
        <ele>0.6200000</ele>
        <time>2018-07-12T09:45:26Z</time>
      </trkpt>
      <trkpt lat="44.7660100" lon="14.6650650">
        <ele>1.1000000</ele>
        <time>2018-07-12T09:45:50Z</time>
      </trkpt>
      <trkpt lat="44.7662700" lon="14.6646480">
        <ele>1.1000000</ele>
        <time>2018-07-12T09:46:12Z</time>
      </trkpt>
      <trkpt lat="44.7665410" lon="14.6642250">
        <ele>1.1000000</ele>
        <time>2018-07-12T09:46:34Z</time>
      </trkpt>
      <trkpt lat="44.7668080" lon="14.6637840">
        <ele>1.1000000</ele>
        <time>2018-07-12T09:46:58Z</time>
      </trkpt>
      <trkpt lat="44.7670750" lon="14.6633680">
        <ele>1.1000000</ele>
        <time>2018-07-12T09:47:20Z</time>
      </trkpt>
      <trkpt lat="44.7673760" lon="14.6628960">
        <ele>1.1000000</ele>
        <time>2018-07-12T09:47:45Z</time>
      </trkpt>
      <trkpt lat="44.7676510" lon="14.6624560">
        <ele>1.1000000</ele>
        <time>2018-07-12T09:48:08Z</time>
      </trkpt>
      <trkpt lat="44.7679290" lon="14.6620110">
        <ele>1.5800000</ele>
        <time>2018-07-12T09:48:31Z</time>
      </trkpt>
      <trkpt lat="44.7681920" lon="14.6616100">
        <ele>1.5800000</ele>
        <time>2018-07-12T09:48:52Z</time>
      </trkpt>
      <trkpt lat="44.7684670" lon="14.6611510">
        <ele>1.5800000</ele>
        <time>2018-07-12T09:49:15Z</time>
      </trkpt>
      <trkpt lat="44.7687030" lon="14.6607780">
        <ele>1.5800000</ele>
        <time>2018-07-12T09:49:34Z</time>
      </trkpt>
      <trkpt lat="44.7689480" lon="14.6603800">
        <ele>2.0600000</ele>
        <time>2018-07-12T09:49:54Z</time>
      </trkpt>
      <trkpt lat="44.7692720" lon="14.6598760">
        <ele>2.0600000</ele>
        <time>2018-07-12T09:50:20Z</time>
      </trkpt>
      <trkpt lat="44.7695810" lon="14.6593760">
        <ele>2.0600000</ele>
        <time>2018-07-12T09:50:45Z</time>
      </trkpt>
      <trkpt lat="44.7699050" lon="14.6588440">
        <ele>1.5800000</ele>
        <time>2018-07-12T09:51:12Z</time>
      </trkpt>
      <trkpt lat="44.7701610" lon="14.6584300">
        <ele>2.0600000</ele>
        <time>2018-07-12T09:51:33Z</time>
      </trkpt>
      <trkpt lat="44.7704810" lon="14.6579170">
        <ele>1.5800000</ele>
        <time>2018-07-12T09:51:59Z</time>
      </trkpt>
      <trkpt lat="44.7707560" lon="14.6574840">
        <ele>2.0600000</ele>
        <time>2018-07-12T09:52:21Z</time>
      </trkpt>
      <trkpt lat="44.7710910" lon="14.6569640">
        <ele>1.5800000</ele>
        <time>2018-07-12T09:52:47Z</time>
      </trkpt>
      <trkpt lat="44.7714120" lon="14.6564570">
        <ele>2.0600000</ele>
        <time>2018-07-12T09:53:12Z</time>
      </trkpt>
      <trkpt lat="44.7717480" lon="14.6559300">
        <ele>2.0600000</ele>
        <time>2018-07-12T09:53:39Z</time>
      </trkpt>
      <trkpt lat="44.7720180" lon="14.6555020">
        <ele>2.0600000</ele>
        <time>2018-07-12T09:54:01Z</time>
      </trkpt>
      <trkpt lat="44.7723010" lon="14.6550560">
        <ele>2.0600000</ele>
        <time>2018-07-12T09:54:24Z</time>
      </trkpt>
      <trkpt lat="44.7725910" lon="14.6545980">
        <ele>2.0600000</ele>
        <time>2018-07-12T09:54:47Z</time>
      </trkpt>
      <trkpt lat="44.7728160" lon="14.6542380">
        <ele>2.0600000</ele>
        <time>2018-07-12T09:55:06Z</time>
      </trkpt>
      <trkpt lat="44.7731060" lon="14.6537730">
        <ele>2.0600000</ele>
        <time>2018-07-12T09:55:28Z</time>
      </trkpt>
      <trkpt lat="44.7734150" lon="14.6533000">
        <ele>2.0600000</ele>
        <time>2018-07-12T09:55:49Z</time>
      </trkpt>
      <trkpt lat="44.7737540" lon="14.6527970">
        <ele>2.0600000</ele>
        <time>2018-07-12T09:56:12Z</time>
      </trkpt>
      <trkpt lat="44.7741240" lon="14.6522000">
        <ele>2.5400000</ele>
        <time>2018-07-12T09:56:38Z</time>
      </trkpt>
      <trkpt lat="44.7744980" lon="14.6516030">
        <ele>2.5400000</ele>
        <time>2018-07-12T09:57:05Z</time>
      </trkpt>
      <trkpt lat="44.7748300" lon="14.6510720">
        <ele>2.5400000</ele>
        <time>2018-07-12T09:57:29Z</time>
      </trkpt>
      <trkpt lat="44.7751620" lon="14.6505410">
        <ele>2.5400000</ele>
        <time>2018-07-12T09:57:53Z</time>
      </trkpt>
      <trkpt lat="44.7755280" lon="14.6499560">
        <ele>2.5400000</ele>
        <time>2018-07-12T09:58:19Z</time>
      </trkpt>
      <trkpt lat="44.7759060" lon="14.6493400">
        <ele>2.5400000</ele>
        <time>2018-07-12T09:58:46Z</time>
      </trkpt>
      <trkpt lat="44.7762760" lon="14.6487470">
        <ele>2.5400000</ele>
        <time>2018-07-12T09:59:12Z</time>
      </trkpt>
      <trkpt lat="44.7766460" lon="14.6481490">
        <ele>2.5400000</ele>
        <time>2018-07-12T09:59:38Z</time>
      </trkpt>
      <trkpt lat="44.7769740" lon="14.6476030">
        <ele>2.5400000</ele>
        <time>2018-07-12T10:00:02Z</time>
      </trkpt>
      <trkpt lat="44.7773250" lon="14.6470310">
        <ele>2.0600000</ele>
        <time>2018-07-12T10:00:27Z</time>
      </trkpt>
      <trkpt lat="44.7777100" lon="14.6463860">
        <ele>2.5400000</ele>
        <time>2018-07-12T10:00:55Z</time>
      </trkpt>
      <trkpt lat="44.7781370" lon="14.6456900">
        <ele>2.0600000</ele>
        <time>2018-07-12T10:01:25Z</time>
      </trkpt>
      <trkpt lat="44.7785340" lon="14.6450510">
        <ele>2.0600000</ele>
        <time>2018-07-12T10:01:53Z</time>
      </trkpt>
      <trkpt lat="44.7789190" lon="14.6444210">
        <ele>2.5400000</ele>
        <time>2018-07-12T10:02:20Z</time>
      </trkpt>
      <trkpt lat="44.7792700" lon="14.6441680">
        <ele>2.0600000</ele>
        <time>2018-07-12T10:02:40Z</time>
      </trkpt>
      <trkpt lat="44.7797200" lon="14.6445060">
        <ele>2.0600000</ele>
        <time>2018-07-12T10:03:06Z</time>
      </trkpt>
      <trkpt lat="44.7800670" lon="14.6446440">
        <ele>2.5400000</ele>
        <time>2018-07-12T10:03:32Z</time>
      </trkpt>
      <trkpt lat="44.7803690" lon="14.6447220">
        <ele>2.0600000</ele>
        <time>2018-07-12T10:04:00Z</time>
      </trkpt>
      <trkpt lat="44.7806170" lon="14.6448020">
        <ele>2.0600000</ele>
        <time>2018-07-12T10:04:25Z</time>
      </trkpt>
      <trkpt lat="44.7808910" lon="14.6448760">
        <ele>2.0600000</ele>
        <time>2018-07-12T10:04:53Z</time>
      </trkpt>
      <trkpt lat="44.7811580" lon="14.6448870">
        <ele>2.0600000</ele>
        <time>2018-07-12T10:05:21Z</time>
      </trkpt>
      <trkpt lat="44.7814220" lon="14.6448600">
        <ele>2.5400000</ele>
        <time>2018-07-12T10:05:48Z</time>
      </trkpt>
      <trkpt lat="44.7817500" lon="14.6447610">
        <ele>2.5400000</ele>
        <time>2018-07-12T10:06:20Z</time>
      </trkpt>
      <trkpt lat="44.7820470" lon="14.6446470">
        <ele>3.0200000</ele>
        <time>2018-07-12T10:06:49Z</time>
      </trkpt>
      <trkpt lat="44.7823410" lon="14.6445130">
        <ele>2.5400000</ele>
        <time>2018-07-12T10:07:20Z</time>
      </trkpt>
      <trkpt lat="44.7825700" lon="14.6443410">
        <ele>2.5400000</ele>
        <time>2018-07-12T10:07:47Z</time>
      </trkpt>
      <trkpt lat="44.7828450" lon="14.6440760">
        <ele>2.5400000</ele>
        <time>2018-07-12T10:08:19Z</time>
      </trkpt>
      <trkpt lat="44.7830580" lon="14.6437950">
        <ele>2.5400000</ele>
        <time>2018-07-12T10:08:46Z</time>
      </trkpt>
      <trkpt lat="44.7832450" lon="14.6434940">
        <ele>2.5400000</ele>
        <time>2018-07-12T10:09:13Z</time>
      </trkpt>
      <trkpt lat="44.7834170" lon="14.6431990">
        <ele>2.5400000</ele>
        <time>2018-07-12T10:09:39Z</time>
      </trkpt>
      <trkpt lat="44.7836300" lon="14.6429000">
        <ele>2.5400000</ele>
        <time>2018-07-12T10:10:09Z</time>
      </trkpt>
      <trkpt lat="44.7837030" lon="14.6426580">
        <ele>3.0200000</ele>
        <time>2018-07-12T10:10:33Z</time>
      </trkpt>
      <trkpt lat="44.7837490" lon="14.6424310">
        <ele>2.5400000</ele>
        <time>2018-07-12T10:10:59Z</time>
      </trkpt>
      <trkpt lat="44.7837750" lon="14.6422200">
        <ele>2.5400000</ele>
        <time>2018-07-12T10:11:27Z</time>
      </trkpt>
      <trkpt lat="44.7837870" lon="14.6420480">
        <ele>2.5400000</ele>
        <time>2018-07-12T10:11:53Z</time>
      </trkpt>
      <trkpt lat="44.7837980" lon="14.6418600">
        <ele>2.5400000</ele>
        <time>2018-07-12T10:12:20Z</time>
      </trkpt>
      <trkpt lat="44.7838170" lon="14.6416870">
        <ele>2.5400000</ele>
        <time>2018-07-12T10:12:46Z</time>
      </trkpt>
      <trkpt lat="44.7838330" lon="14.6414650">
        <ele>3.0200000</ele>
        <time>2018-07-12T10:13:15Z</time>
      </trkpt>
      <trkpt lat="44.7838210" lon="14.6413320">
        <ele>3.5000000</ele>
        <time>2018-07-12T10:13:29Z</time>
      </trkpt>
      <trkpt lat="44.7838250" lon="14.6412990">
        <ele>2.5400000</ele>
        <time>2018-07-12T10:13:33Z</time>
      </trkpt>
      <trkpt lat="44.7838400" lon="14.6412160">
        <ele>3.0200000</ele>
        <time>2018-07-12T10:13:45Z</time>
      </trkpt>
      <trkpt lat="44.7838710" lon="14.6411170">
        <ele>2.5400000</ele>
        <time>2018-07-12T10:14:01Z</time>
      </trkpt>
      <trkpt lat="44.7838750" lon="14.6411080">
        <ele>2.5400000</ele>
        <time>2018-07-12T10:14:03Z</time>
      </trkpt>
      <trkpt lat="44.7838900" lon="14.6409780">
        <ele>3.0200000</ele>
        <time>2018-07-12T10:14:19Z</time>
      </trkpt>
      <trkpt lat="44.7839050" lon="14.6407950">
        <ele>3.0200000</ele>
        <time>2018-07-12T10:14:46Z</time>
      </trkpt>
      <trkpt lat="44.7839050" lon="14.6406160">
        <ele>2.5400000</ele>
        <time>2018-07-12T10:15:13Z</time>
      </trkpt>
      <trkpt lat="44.7838860" lon="14.6404000">
        <ele>3.5000000</ele>
        <time>2018-07-12T10:15:40Z</time>
      </trkpt>
      <trkpt lat="44.7837870" lon="14.6400690">
        <ele>3.0200000</ele>
        <time>2018-07-12T10:16:09Z</time>
      </trkpt>
      <trkpt lat="44.7836910" lon="14.6399390">
        <ele>3.0200000</ele>
        <time>2018-07-12T10:16:23Z</time>
      </trkpt>
      <trkpt lat="44.7834400" lon="14.6397100">
        <ele>3.0200000</ele>
        <time>2018-07-12T10:16:52Z</time>
      </trkpt>
      <trkpt lat="44.7832370" lon="14.6395080">
        <ele>3.0200000</ele>
        <time>2018-07-12T10:17:17Z</time>
      </trkpt>
      <trkpt lat="44.7831950" lon="14.6392970">
        <ele>3.0200000</ele>
        <time>2018-07-12T10:17:40Z</time>
      </trkpt>
      <trkpt lat="44.7832490" lon="14.6392720">
        <ele>3.5000000</ele>
        <time>2018-07-12T10:18:04Z</time>
      </trkpt>
      <trkpt lat="44.7833630" lon="14.6393160">
        <ele>3.5000000</ele>
        <time>2018-07-12T10:18:29Z</time>
      </trkpt>
      <trkpt lat="44.7834170" lon="14.6392740">
        <ele>3.5000000</ele>
        <time>2018-07-12T10:18:59Z</time>
      </trkpt>
      <trkpt lat="44.7834320" lon="14.6392250">
        <ele>3.5000000</ele>
        <time>2018-07-12T10:19:26Z</time>
      </trkpt>
      <trkpt lat="44.7834280" lon="14.6390760">
        <ele>3.5000000</ele>
        <time>2018-07-12T10:19:51Z</time>
      </trkpt>
      <trkpt lat="44.7833860" lon="14.6388880">
        <ele>3.5000000</ele>
        <time>2018-07-12T10:20:16Z</time>
      </trkpt>
      <trkpt lat="44.7835040" lon="14.6387720">
        <ele>3.5000000</ele>
        <time>2018-07-12T10:20:43Z</time>
      </trkpt>
      <trkpt lat="44.7837220" lon="14.6387790">
        <ele>3.5000000</ele>
        <time>2018-07-12T10:21:10Z</time>
      </trkpt>
      <trkpt lat="44.7839430" lon="14.6387920">
        <ele>3.9800000</ele>
        <time>2018-07-12T10:21:34Z</time>
      </trkpt>
      <trkpt lat="44.7841910" lon="14.6388670">
        <ele>3.9800000</ele>
        <time>2018-07-12T10:22:02Z</time>
      </trkpt>
      <trkpt lat="44.7843820" lon="14.6389810">
        <ele>3.5000000</ele>
        <time>2018-07-12T10:22:25Z</time>
      </trkpt>
      <trkpt lat="44.7847290" lon="14.6391770">
        <ele>3.9800000</ele>
        <time>2018-07-12T10:22:55Z</time>
      </trkpt>
      <trkpt lat="44.7851980" lon="14.6394760">
        <ele>4.4600000</ele>
        <time>2018-07-12T10:23:25Z</time>
      </trkpt>
      <trkpt lat="44.7856520" lon="14.6397780">
        <ele>4.4600000</ele>
        <time>2018-07-12T10:23:51Z</time>
      </trkpt>
      <trkpt lat="44.7860980" lon="14.6400590">
        <ele>4.4600000</ele>
        <time>2018-07-12T10:24:17Z</time>
      </trkpt>
      <trkpt lat="44.7866170" lon="14.6403960">
        <ele>4.4600000</ele>
        <time>2018-07-12T10:24:47Z</time>
      </trkpt>
      <trkpt lat="44.7869990" lon="14.6406540">
        <ele>4.4600000</ele>
        <time>2018-07-12T10:25:09Z</time>
      </trkpt>
      <trkpt lat="44.7873380" lon="14.6408790">
        <ele>4.9400000</ele>
        <time>2018-07-12T10:25:29Z</time>
      </trkpt>
      <trkpt lat="44.7877310" lon="14.6411470">
        <ele>4.4600000</ele>
        <time>2018-07-12T10:25:51Z</time>
      </trkpt>
      <trkpt lat="44.7882120" lon="14.6414620">
        <ele>4.4600000</ele>
        <time>2018-07-12T10:26:19Z</time>
      </trkpt>
      <trkpt lat="44.7885550" lon="14.6418250">
        <ele>4.9400000</ele>
        <time>2018-07-12T10:26:43Z</time>
      </trkpt>
      <trkpt lat="44.7888410" lon="14.6422660">
        <ele>4.9400000</ele>
        <time>2018-07-12T10:27:07Z</time>
      </trkpt>
      <trkpt lat="44.7892230" lon="14.6428690">
        <ele>4.9400000</ele>
        <time>2018-07-12T10:27:37Z</time>
      </trkpt>
      <trkpt lat="44.7895770" lon="14.6434190">
        <ele>4.9400000</ele>
        <time>2018-07-12T10:28:04Z</time>
      </trkpt>
      <trkpt lat="44.7899020" lon="14.6439460">
        <ele>4.9400000</ele>
        <time>2018-07-12T10:28:30Z</time>
      </trkpt>
      <trkpt lat="44.7902790" lon="14.6445390">
        <ele>4.9400000</ele>
        <time>2018-07-12T10:29:00Z</time>
      </trkpt>
      <trkpt lat="44.7906570" lon="14.6450850">
        <ele>4.9400000</ele>
        <time>2018-07-12T10:29:28Z</time>
      </trkpt>
      <trkpt lat="44.7909740" lon="14.6455800">
        <ele>4.4600000</ele>
        <time>2018-07-12T10:29:52Z</time>
      </trkpt>
      <trkpt lat="44.7912830" lon="14.6460680">
        <ele>4.9400000</ele>
        <time>2018-07-12T10:30:16Z</time>
      </trkpt>
      <trkpt lat="44.7916110" lon="14.6465850">
        <ele>4.9400000</ele>
        <time>2018-07-12T10:30:41Z</time>
      </trkpt>
      <trkpt lat="44.7919010" lon="14.6470430">
        <ele>4.4600000</ele>
        <time>2018-07-12T10:31:03Z</time>
      </trkpt>
      <trkpt lat="44.7921980" lon="14.6475210">
        <ele>4.4600000</ele>
        <time>2018-07-12T10:31:26Z</time>
      </trkpt>
      <trkpt lat="44.7925260" lon="14.6480900">
        <ele>4.4600000</ele>
        <time>2018-07-12T10:31:53Z</time>
      </trkpt>
      <trkpt lat="44.7928430" lon="14.6486410">
        <ele>3.9800000</ele>
        <time>2018-07-12T10:32:19Z</time>
      </trkpt>
      <trkpt lat="44.7930980" lon="14.6490450">
        <ele>3.9800000</ele>
        <time>2018-07-12T10:32:39Z</time>
      </trkpt>
      <trkpt lat="44.7933580" lon="14.6495070">
        <ele>4.4600000</ele>
        <time>2018-07-12T10:33:03Z</time>
      </trkpt>
      <trkpt lat="44.7936060" lon="14.6499210">
        <ele>4.4600000</ele>
        <time>2018-07-12T10:33:24Z</time>
      </trkpt>
      <trkpt lat="44.7938610" lon="14.6503360">
        <ele>3.9800000</ele>
        <time>2018-07-12T10:33:45Z</time>
      </trkpt>
      <trkpt lat="44.7941320" lon="14.6507920">
        <ele>3.9800000</ele>
        <time>2018-07-12T10:34:08Z</time>
      </trkpt>
      <trkpt lat="44.7944870" lon="14.6513610">
        <ele>4.4600000</ele>
        <time>2018-07-12T10:34:37Z</time>
      </trkpt>
      <trkpt lat="44.7948040" lon="14.6518690">
        <ele>4.4600000</ele>
        <time>2018-07-12T10:35:03Z</time>
      </trkpt>
      <trkpt lat="44.7951350" lon="14.6524250">
        <ele>4.4600000</ele>
        <time>2018-07-12T10:35:31Z</time>
      </trkpt>
      <trkpt lat="44.7954900" lon="14.6530040">
        <ele>3.9800000</ele>
        <time>2018-07-12T10:36:00Z</time>
      </trkpt>
      <trkpt lat="44.7957500" lon="14.6534090">
        <ele>3.9800000</ele>
        <time>2018-07-12T10:36:21Z</time>
      </trkpt>
      <trkpt lat="44.7960470" lon="14.6539050">
        <ele>3.9800000</ele>
        <time>2018-07-12T10:36:46Z</time>
      </trkpt>
      <trkpt lat="44.7963750" lon="14.6544370">
        <ele>3.5000000</ele>
        <time>2018-07-12T10:37:12Z</time>
      </trkpt>
      <trkpt lat="44.7967300" lon="14.6550110">
        <ele>3.5000000</ele>
        <time>2018-07-12T10:37:40Z</time>
      </trkpt>
      <trkpt lat="44.7970310" lon="14.6554900">
        <ele>3.9800000</ele>
        <time>2018-07-12T10:38:04Z</time>
      </trkpt>
      <trkpt lat="44.7973020" lon="14.6559250">
        <ele>3.5000000</ele>
        <time>2018-07-12T10:38:26Z</time>
      </trkpt>
      <trkpt lat="44.7975730" lon="14.6563430">
        <ele>3.5000000</ele>
        <time>2018-07-12T10:38:47Z</time>
      </trkpt>
      <trkpt lat="44.7978820" lon="14.6568310">
        <ele>3.9800000</ele>
        <time>2018-07-12T10:39:12Z</time>
      </trkpt>
      <trkpt lat="44.7981300" lon="14.6572170">
        <ele>3.5000000</ele>
        <time>2018-07-12T10:39:32Z</time>
      </trkpt>
      <trkpt lat="44.7984350" lon="14.6576920">
        <ele>3.5000000</ele>
        <time>2018-07-12T10:39:56Z</time>
      </trkpt>
      <trkpt lat="44.7987480" lon="14.6581610">
        <ele>3.5000000</ele>
        <time>2018-07-12T10:40:20Z</time>
      </trkpt>
      <trkpt lat="44.7990570" lon="14.6586770">
        <ele>3.5000000</ele>
        <time>2018-07-12T10:40:45Z</time>
      </trkpt>
      <trkpt lat="44.7993550" lon="14.6591360">
        <ele>3.5000000</ele>
        <time>2018-07-12T10:41:08Z</time>
      </trkpt>
      <trkpt lat="44.7996940" lon="14.6595040">
        <ele>3.5000000</ele>
        <time>2018-07-12T10:41:31Z</time>
      </trkpt>
      <trkpt lat="44.7999840" lon="14.6598120">
        <ele>3.0200000</ele>
        <time>2018-07-12T10:41:50Z</time>
      </trkpt>
      <trkpt lat="44.8002740" lon="14.6600700">
        <ele>3.0200000</ele>
        <time>2018-07-12T10:42:08Z</time>
      </trkpt>
      <trkpt lat="44.8006320" lon="14.6603730">
        <ele>3.5000000</ele>
        <time>2018-07-12T10:42:30Z</time>
      </trkpt>
      <trkpt lat="44.8010790" lon="14.6607540">
        <ele>2.5400000</ele>
        <time>2018-07-12T10:42:58Z</time>
      </trkpt>
      <trkpt lat="44.8015440" lon="14.6612130">
        <ele>3.5000000</ele>
        <time>2018-07-12T10:43:28Z</time>
      </trkpt>
      <trkpt lat="44.8019030" lon="14.6617150">
        <ele>3.0200000</ele>
        <time>2018-07-12T10:43:54Z</time>
      </trkpt>
      <trkpt lat="44.8022540" lon="14.6623740">
        <ele>3.0200000</ele>
        <time>2018-07-12T10:44:24Z</time>
      </trkpt>
      <trkpt lat="44.8025090" lon="14.6628950">
        <ele>3.0200000</ele>
        <time>2018-07-12T10:44:47Z</time>
      </trkpt>
      <trkpt lat="44.8028140" lon="14.6635160">
        <ele>3.0200000</ele>
        <time>2018-07-12T10:45:14Z</time>
      </trkpt>
      <trkpt lat="44.8030360" lon="14.6641170">
        <ele>3.0200000</ele>
        <time>2018-07-12T10:45:38Z</time>
      </trkpt>
      <trkpt lat="44.8032260" lon="14.6647920">
        <ele>3.0200000</ele>
        <time>2018-07-12T10:46:04Z</time>
      </trkpt>
      <trkpt lat="44.8035200" lon="14.6653620">
        <ele>3.0200000</ele>
        <time>2018-07-12T10:46:29Z</time>
      </trkpt>
      <trkpt lat="44.8037760" lon="14.6659270">
        <ele>3.0200000</ele>
        <time>2018-07-12T10:46:53Z</time>
      </trkpt>
      <trkpt lat="44.8040350" lon="14.6664780">
        <ele>2.5400000</ele>
        <time>2018-07-12T10:47:16Z</time>
      </trkpt>
      <trkpt lat="44.8042980" lon="14.6670330">
        <ele>2.5400000</ele>
        <time>2018-07-12T10:47:40Z</time>
      </trkpt>
      <trkpt lat="44.8045690" lon="14.6676450">
        <ele>2.5400000</ele>
        <time>2018-07-12T10:48:05Z</time>
      </trkpt>
      <trkpt lat="44.8048250" lon="14.6682100">
        <ele>2.5400000</ele>
        <time>2018-07-12T10:48:29Z</time>
      </trkpt>
      <trkpt lat="44.8051110" lon="14.6688410">
        <ele>3.0200000</ele>
        <time>2018-07-12T10:48:55Z</time>
      </trkpt>
      <trkpt lat="44.8053670" lon="14.6694200">
        <ele>2.5400000</ele>
        <time>2018-07-12T10:49:19Z</time>
      </trkpt>
      <trkpt lat="44.8056180" lon="14.6700260">
        <ele>2.5400000</ele>
        <time>2018-07-12T10:49:43Z</time>
      </trkpt>
      <trkpt lat="44.8059040" lon="14.6707410">
        <ele>2.5400000</ele>
        <time>2018-07-12T10:50:11Z</time>
      </trkpt>
      <trkpt lat="44.8061750" lon="14.6713360">
        <ele>2.5400000</ele>
        <time>2018-07-12T10:50:35Z</time>
      </trkpt>
      <trkpt lat="44.8064990" lon="14.6720610">
        <ele>2.5400000</ele>
        <time>2018-07-12T10:51:03Z</time>
      </trkpt>
      <trkpt lat="44.8068160" lon="14.6727680">
        <ele>2.5400000</ele>
        <time>2018-07-12T10:51:30Z</time>
      </trkpt>
      <trkpt lat="44.8071020" lon="14.6734180">
        <ele>2.5400000</ele>
        <time>2018-07-12T10:51:55Z</time>
      </trkpt>
      <trkpt lat="44.8073620" lon="14.6740040">
        <ele>2.5400000</ele>
        <time>2018-07-12T10:52:17Z</time>
      </trkpt>
      <trkpt lat="44.8077350" lon="14.6748210">
        <ele>3.0200000</ele>
        <time>2018-07-12T10:52:48Z</time>
      </trkpt>
      <trkpt lat="44.8079680" lon="14.6753480">
        <ele>2.5400000</ele>
        <time>2018-07-12T10:53:09Z</time>
      </trkpt>
      <trkpt lat="44.8082470" lon="14.6759840">
        <ele>2.5400000</ele>
        <time>2018-07-12T10:53:34Z</time>
      </trkpt>
      <trkpt lat="44.8085560" lon="14.6766590">
        <ele>2.0600000</ele>
        <time>2018-07-12T10:54:00Z</time>
      </trkpt>
      <trkpt lat="44.8088340" lon="14.6772950">
        <ele>2.5400000</ele>
        <time>2018-07-12T10:54:25Z</time>
      </trkpt>
      <trkpt lat="44.8090630" lon="14.6778100">
        <ele>2.0600000</ele>
        <time>2018-07-12T10:54:45Z</time>
      </trkpt>
      <trkpt lat="44.8093570" lon="14.6784890">
        <ele>2.0600000</ele>
        <time>2018-07-12T10:55:11Z</time>
      </trkpt>
      <trkpt lat="44.8096540" lon="14.6791310">
        <ele>1.5800000</ele>
        <time>2018-07-12T10:55:36Z</time>
      </trkpt>
      <trkpt lat="44.8099590" lon="14.6797970">
        <ele>1.5800000</ele>
        <time>2018-07-12T10:56:02Z</time>
      </trkpt>
      <trkpt lat="44.8102040" lon="14.6803620">
        <ele>1.5800000</ele>
        <time>2018-07-12T10:56:24Z</time>
      </trkpt>
      <trkpt lat="44.8105160" lon="14.6810710">
        <ele>1.5800000</ele>
        <time>2018-07-12T10:56:51Z</time>
      </trkpt>
      <trkpt lat="44.8107950" lon="14.6816930">
        <ele>1.5800000</ele>
        <time>2018-07-12T10:57:15Z</time>
      </trkpt>
      <trkpt lat="44.8110890" lon="14.6823420">
        <ele>1.1000000</ele>
        <time>2018-07-12T10:57:40Z</time>
      </trkpt>
      <trkpt lat="44.8113670" lon="14.6829960">
        <ele>1.1000000</ele>
        <time>2018-07-12T10:58:05Z</time>
      </trkpt>
      <trkpt lat="44.8116610" lon="14.6836320">
        <ele>1.1000000</ele>
        <time>2018-07-12T10:58:29Z</time>
      </trkpt>
      <trkpt lat="44.8119540" lon="14.6843190">
        <ele>1.1000000</ele>
        <time>2018-07-12T10:58:55Z</time>
      </trkpt>
      <trkpt lat="44.8122370" lon="14.6849820">
        <ele>1.1000000</ele>
        <time>2018-07-12T10:59:20Z</time>
      </trkpt>
      <trkpt lat="44.8125340" lon="14.6856920">
        <ele>0.6200000</ele>
        <time>2018-07-12T10:59:47Z</time>
      </trkpt>
      <trkpt lat="44.8128240" lon="14.6863880">
        <ele>0.6200000</ele>
        <time>2018-07-12T11:00:13Z</time>
      </trkpt>
      <trkpt lat="44.8131370" lon="14.6871210">
        <ele>0.6200000</ele>
        <time>2018-07-12T11:00:41Z</time>
      </trkpt>
      <trkpt lat="44.8134230" lon="14.6877910">
        <ele>0.6200000</ele>
        <time>2018-07-12T11:01:06Z</time>
      </trkpt>
      <trkpt lat="44.8136980" lon="14.6884560">
        <ele>0.1400000</ele>
        <time>2018-07-12T11:01:31Z</time>
      </trkpt>
      <trkpt lat="44.8139840" lon="14.6891330">
        <ele>0.1400000</ele>
        <time>2018-07-12T11:01:56Z</time>
      </trkpt>
      <trkpt lat="44.8142810" lon="14.6898490">
        <ele>-0.3400000</ele>
        <time>2018-07-12T11:02:23Z</time>
      </trkpt>
      <trkpt lat="44.8146060" lon="14.6906190">
        <ele>0.1400000</ele>
        <time>2018-07-12T11:02:52Z</time>
      </trkpt>
      <trkpt lat="44.8148800" lon="14.6912740">
        <ele>-0.8200000</ele>
        <time>2018-07-12T11:03:17Z</time>
      </trkpt>
      <trkpt lat="44.8151470" lon="14.6919090">
        <ele>-0.8200000</ele>
        <time>2018-07-12T11:03:41Z</time>
      </trkpt>
      <trkpt lat="44.8152540" lon="14.6926600">
        <ele>-0.8200000</ele>
        <time>2018-07-12T11:04:06Z</time>
      </trkpt>
      <trkpt lat="44.8151930" lon="14.6937860">
        <ele>-0.8200000</ele>
        <time>2018-07-12T11:04:41Z</time>
      </trkpt>
      <trkpt lat="44.8150600" lon="14.6945240">
        <ele>-0.8200000</ele>
        <time>2018-07-12T11:05:05Z</time>
      </trkpt>
      <trkpt lat="44.8149380" lon="14.6954230">
        <ele>-0.8200000</ele>
        <time>2018-07-12T11:05:33Z</time>
      </trkpt>
      <trkpt lat="44.8148160" lon="14.6962900">
        <ele>-0.8200000</ele>
        <time>2018-07-12T11:06:01Z</time>
      </trkpt>
      <trkpt lat="44.8146820" lon="14.6971690">
        <ele>-1.3000000</ele>
        <time>2018-07-12T11:06:29Z</time>
      </trkpt>
      <trkpt lat="44.8146440" lon="14.6980700">
        <ele>-0.8200000</ele>
        <time>2018-07-12T11:06:57Z</time>
      </trkpt>
      <trkpt lat="44.8145560" lon="14.6989830">
        <ele>-0.8200000</ele>
        <time>2018-07-12T11:07:26Z</time>
      </trkpt>
      <trkpt lat="44.8144150" lon="14.7000020">
        <ele>-1.3000000</ele>
        <time>2018-07-12T11:07:58Z</time>
      </trkpt>
      <trkpt lat="44.8142810" lon="14.7008810">
        <ele>-0.8200000</ele>
        <time>2018-07-12T11:08:26Z</time>
      </trkpt>
      <trkpt lat="44.8140530" lon="14.7017350">
        <ele>-1.3000000</ele>
        <time>2018-07-12T11:08:54Z</time>
      </trkpt>
      <trkpt lat="44.8136980" lon="14.7026500">
        <ele>-1.3000000</ele>
        <time>2018-07-12T11:09:26Z</time>
      </trkpt>
      <trkpt lat="44.8133160" lon="14.7035850">
        <ele>-0.8200000</ele>
        <time>2018-07-12T11:09:59Z</time>
      </trkpt>
      <trkpt lat="44.8129120" lon="14.7044660">
        <ele>-0.8200000</ele>
        <time>2018-07-12T11:10:31Z</time>
      </trkpt>
      <trkpt lat="44.8124730" lon="14.7053250">
        <ele>-0.8200000</ele>
        <time>2018-07-12T11:11:03Z</time>
      </trkpt>
      <trkpt lat="44.8119350" lon="14.7062000">
        <ele>-0.8200000</ele>
        <time>2018-07-12T11:11:37Z</time>
      </trkpt>
      <trkpt lat="44.8113520" lon="14.7069320">
        <ele>-1.3000000</ele>
        <time>2018-07-12T11:12:08Z</time>
      </trkpt>
      <trkpt lat="44.8108370" lon="14.7076640">
        <ele>-1.3000000</ele>
        <time>2018-07-12T11:12:39Z</time>
      </trkpt>
      <trkpt lat="44.8103330" lon="14.7082040">
        <ele>-1.3000000</ele>
        <time>2018-07-12T11:13:09Z</time>
      </trkpt>
      <trkpt lat="44.8097840" lon="14.7083340">
        <ele>-1.3000000</ele>
        <time>2018-07-12T11:13:43Z</time>
      </trkpt>
      <trkpt lat="44.8092540" lon="14.7083140">
        <ele>-1.3000000</ele>
        <time>2018-07-12T11:14:18Z</time>
      </trkpt>
      <trkpt lat="44.8087920" lon="14.7081220">
        <ele>-1.7900000</ele>
        <time>2018-07-12T11:14:51Z</time>
      </trkpt>
      <trkpt lat="44.8084070" lon="14.7077070">
        <ele>-0.8200000</ele>
        <time>2018-07-12T11:15:28Z</time>
      </trkpt>
      <trkpt lat="44.8081170" lon="14.7073300">
        <ele>-1.7900000</ele>
        <time>2018-07-12T11:16:01Z</time>
      </trkpt>
      <trkpt lat="44.8078420" lon="14.7069130">
        <ele>-1.3000000</ele>
        <time>2018-07-12T11:16:33Z</time>
      </trkpt>
      <trkpt lat="44.8075680" lon="14.7064680">
        <ele>-1.7900000</ele>
        <time>2018-07-12T11:17:06Z</time>
      </trkpt>
      <trkpt lat="44.8073230" lon="14.7060030">
        <ele>-1.3000000</ele>
        <time>2018-07-12T11:17:41Z</time>
      </trkpt>
      <trkpt lat="44.8071290" lon="14.7055570">
        <ele>-1.7900000</ele>
        <time>2018-07-12T11:18:15Z</time>
      </trkpt>
      <trkpt lat="44.8072010" lon="14.7054350">
        <ele>-1.7900000</ele>
        <time>2018-07-12T11:18:26Z</time>
      </trkpt>
      <trkpt lat="44.8074840" lon="14.7051690">
        <ele>-1.3000000</ele>
        <time>2018-07-12T11:19:00Z</time>
      </trkpt>
      <trkpt lat="44.8077740" lon="14.7048800">
        <ele>-1.7900000</ele>
        <time>2018-07-12T11:19:33Z</time>
      </trkpt>
      <trkpt lat="44.8080100" lon="14.7046240">
        <ele>-1.7900000</ele>
        <time>2018-07-12T11:20:02Z</time>
      </trkpt>
      <trkpt lat="44.8082160" lon="14.7043700">
        <ele>-1.7900000</ele>
        <time>2018-07-12T11:20:31Z</time>
      </trkpt>
      <trkpt lat="44.8082730" lon="14.7042880">
        <ele>-1.3000000</ele>
        <time>2018-07-12T11:21:05Z</time>
      </trkpt>
      <trkpt lat="44.8082770" lon="14.7042850">
        <ele>-1.7900000</ele>
        <time>2018-07-12T11:21:38Z</time>
      </trkpt>
      <trkpt lat="44.8082770" lon="14.7042850">
        <ele>-1.7900000</ele>
        <time>2018-07-12T11:22:08Z</time>
      </trkpt>
      <trkpt lat="44.8082730" lon="14.7042850">
        <ele>-1.7900000</ele>
        <time>2018-07-12T11:22:48Z</time>
      </trkpt>
      <trkpt lat="44.8082580" lon="14.7043010">
        <ele>-2.2700000</ele>
        <time>2018-07-12T11:23:22Z</time>
      </trkpt>
      <trkpt lat="44.8082580" lon="14.7043100">
        <ele>-1.7900000</ele>
        <time>2018-07-12T11:23:47Z</time>
      </trkpt>
      <trkpt lat="44.8082430" lon="14.7043140">
        <ele>-1.7900000</ele>
        <time>2018-07-12T11:24:08Z</time>
      </trkpt>
      <trkpt lat="44.8082240" lon="14.7043290">
        <ele>-1.7900000</ele>
        <time>2018-07-12T11:24:21Z</time>
      </trkpt>
      <trkpt lat="44.8082280" lon="14.7043460">
        <ele>-2.2700000</ele>
        <time>2018-07-12T11:24:36Z</time>
      </trkpt>
      <trkpt lat="44.8082280" lon="14.7043460">
        <ele>-1.7900000</ele>
        <time>2018-07-12T11:25:02Z</time>
      </trkpt>
      <trkpt lat="44.8082240" lon="14.7043480">
        <ele>-1.7900000</ele>
        <time>2018-07-12T11:25:33Z</time>
      </trkpt>
      <trkpt lat="44.8082280" lon="14.7043510">
        <ele>-1.7900000</ele>
        <time>2018-07-12T11:26:03Z</time>
      </trkpt>
      <trkpt lat="44.8082280" lon="14.7043510">
        <ele>-1.7900000</ele>
        <time>2018-07-12T11:26:31Z</time>
      </trkpt>
      <trkpt lat="44.8082280" lon="14.7043510">
        <ele>-1.7900000</ele>
        <time>2018-07-12T11:27:08Z</time>
      </trkpt>
      <trkpt lat="44.8082200" lon="14.7043560">
        <ele>-1.7900000</ele>
        <time>2018-07-12T11:27:42Z</time>
      </trkpt>
      <trkpt lat="44.8082200" lon="14.7043620">
        <ele>-1.7900000</ele>
        <time>2018-07-12T11:28:20Z</time>
      </trkpt>
      <trkpt lat="44.8082200" lon="14.7043680">
        <ele>-1.7900000</ele>
        <time>2018-07-12T11:28:49Z</time>
      </trkpt>
      <trkpt lat="44.8082160" lon="14.7043700">
        <ele>-1.7900000</ele>
        <time>2018-07-12T11:29:21Z</time>
      </trkpt>
      <trkpt lat="44.8082120" lon="14.7043650">
        <ele>-1.3000000</ele>
        <time>2018-07-12T11:29:59Z</time>
      </trkpt>
      <trkpt lat="44.8082080" lon="14.7043590">
        <ele>-1.7900000</ele>
        <time>2018-07-12T11:30:38Z</time>
      </trkpt>
      <trkpt lat="44.8082080" lon="14.7043530">
        <ele>-1.7900000</ele>
        <time>2018-07-12T11:31:16Z</time>
      </trkpt>
      <trkpt lat="44.8082080" lon="14.7043530">
        <ele>-1.7900000</ele>
        <time>2018-07-12T11:31:52Z</time>
      </trkpt>
      <trkpt lat="44.8082050" lon="14.7043440">
        <ele>-1.3000000</ele>
        <time>2018-07-12T11:32:29Z</time>
      </trkpt>
      <trkpt lat="44.8082120" lon="14.7043600">
        <ele>-2.2700000</ele>
        <time>2018-07-12T11:33:05Z</time>
      </trkpt>
      <trkpt lat="44.8082160" lon="14.7043770">
        <ele>-1.7900000</ele>
        <time>2018-07-12T11:33:44Z</time>
      </trkpt>
      <trkpt lat="44.8082200" lon="14.7043780">
        <ele>-1.3000000</ele>
        <time>2018-07-12T11:34:24Z</time>
      </trkpt>
      <trkpt lat="44.8082200" lon="14.7043710">
        <ele>-1.7900000</ele>
        <time>2018-07-12T11:34:59Z</time>
      </trkpt>
      <trkpt lat="44.8082200" lon="14.7043670">
        <ele>-1.7900000</ele>
        <time>2018-07-12T11:35:41Z</time>
      </trkpt>
      <trkpt lat="44.8082120" lon="14.7043590">
        <ele>-1.3000000</ele>
        <time>2018-07-12T11:36:22Z</time>
      </trkpt>
      <trkpt lat="44.8082120" lon="14.7043530">
        <ele>-1.7900000</ele>
        <time>2018-07-12T11:37:01Z</time>
      </trkpt>
      <trkpt lat="44.8082080" lon="14.7043420">
        <ele>-1.3000000</ele>
        <time>2018-07-12T11:37:33Z</time>
      </trkpt>
      <trkpt lat="44.8082080" lon="14.7043400">
        <ele>-1.3000000</ele>
        <time>2018-07-12T11:38:10Z</time>
      </trkpt>
      <trkpt lat="44.8082120" lon="14.7043470">
        <ele>-1.3000000</ele>
        <time>2018-07-12T11:38:48Z</time>
      </trkpt>
      <trkpt lat="44.8082120" lon="14.7043540">
        <ele>-1.3000000</ele>
        <time>2018-07-12T11:39:30Z</time>
      </trkpt>
      <trkpt lat="44.8082120" lon="14.7043590">
        <ele>-1.7900000</ele>
        <time>2018-07-12T11:40:03Z</time>
      </trkpt>
      <trkpt lat="44.8082080" lon="14.7043630">
        <ele>-1.7900000</ele>
        <time>2018-07-12T11:40:39Z</time>
      </trkpt>
      <trkpt lat="44.8082080" lon="14.7043580">
        <ele>-1.3000000</ele>
        <time>2018-07-12T11:41:20Z</time>
      </trkpt>
      <trkpt lat="44.8082080" lon="14.7043630">
        <ele>-1.7900000</ele>
        <time>2018-07-12T11:41:55Z</time>
      </trkpt>
      <trkpt lat="44.8082080" lon="14.7043610">
        <ele>-1.7900000</ele>
        <time>2018-07-12T11:42:36Z</time>
      </trkpt>
      <trkpt lat="44.8082120" lon="14.7043680">
        <ele>-1.3000000</ele>
        <time>2018-07-12T11:43:19Z</time>
      </trkpt>
      <trkpt lat="44.8082120" lon="14.7043660">
        <ele>-1.7900000</ele>
        <time>2018-07-12T11:43:57Z</time>
      </trkpt>
      <trkpt lat="44.8082160" lon="14.7043630">
        <ele>-1.3000000</ele>
        <time>2018-07-12T11:44:43Z</time>
      </trkpt>
      <trkpt lat="44.8082160" lon="14.7043580">
        <ele>-1.3000000</ele>
        <time>2018-07-12T11:45:21Z</time>
      </trkpt>
      <trkpt lat="44.8082120" lon="14.7043540">
        <ele>-1.3000000</ele>
        <time>2018-07-12T11:45:58Z</time>
      </trkpt>
      <trkpt lat="44.8082120" lon="14.7043540">
        <ele>-1.3000000</ele>
        <time>2018-07-12T11:46:33Z</time>
      </trkpt>
      <trkpt lat="44.8082120" lon="14.7043500">
        <ele>-1.3000000</ele>
        <time>2018-07-12T11:47:06Z</time>
      </trkpt>
      <trkpt lat="44.8082050" lon="14.7043450">
        <ele>-0.8200000</ele>
        <time>2018-07-12T11:47:41Z</time>
      </trkpt>
      <trkpt lat="44.8082050" lon="14.7043430">
        <ele>-1.3000000</ele>
        <time>2018-07-12T11:48:18Z</time>
      </trkpt>
      <trkpt lat="44.8082080" lon="14.7043430">
        <ele>-1.3000000</ele>
        <time>2018-07-12T11:48:50Z</time>
      </trkpt>
      <trkpt lat="44.8082050" lon="14.7043470">
        <ele>-1.3000000</ele>
        <time>2018-07-12T11:49:27Z</time>
      </trkpt>
      <trkpt lat="44.8082050" lon="14.7043500">
        <ele>-1.3000000</ele>
        <time>2018-07-12T11:50:03Z</time>
      </trkpt>
      <trkpt lat="44.8082050" lon="14.7043500">
        <ele>-1.7900000</ele>
        <time>2018-07-12T11:50:33Z</time>
      </trkpt>
      <trkpt lat="44.8082080" lon="14.7043670">
        <ele>-1.3000000</ele>
        <time>2018-07-12T11:51:12Z</time>
      </trkpt>
      <trkpt lat="44.8082120" lon="14.7043680">
        <ele>-1.3000000</ele>
        <time>2018-07-12T11:51:53Z</time>
      </trkpt>
      <trkpt lat="44.8082120" lon="14.7043650">
        <ele>-1.7900000</ele>
        <time>2018-07-12T11:52:28Z</time>
      </trkpt>
      <trkpt lat="44.8082160" lon="14.7043590">
        <ele>-1.3000000</ele>
        <time>2018-07-12T11:53:06Z</time>
      </trkpt>
      <trkpt lat="44.8082160" lon="14.7043530">
        <ele>-1.3000000</ele>
        <time>2018-07-12T11:53:44Z</time>
      </trkpt>
      <trkpt lat="44.8082160" lon="14.7043500">
        <ele>-1.3000000</ele>
        <time>2018-07-12T11:54:21Z</time>
      </trkpt>
      <trkpt lat="44.8082160" lon="14.7043510">
        <ele>-1.3000000</ele>
        <time>2018-07-12T11:54:58Z</time>
      </trkpt>
      <trkpt lat="44.8082120" lon="14.7043470">
        <ele>-1.3000000</ele>
        <time>2018-07-12T11:55:29Z</time>
      </trkpt>
      <trkpt lat="44.8082120" lon="14.7043490">
        <ele>-1.3000000</ele>
        <time>2018-07-12T11:55:59Z</time>
      </trkpt>
      <trkpt lat="44.8082080" lon="14.7043510">
        <ele>-1.3000000</ele>
        <time>2018-07-12T11:56:37Z</time>
      </trkpt>
      <trkpt lat="44.8082120" lon="14.7043520">
        <ele>-1.3000000</ele>
        <time>2018-07-12T11:57:16Z</time>
      </trkpt>
      <trkpt lat="44.8082120" lon="14.7043520">
        <ele>-0.8200000</ele>
        <time>2018-07-12T11:57:42Z</time>
      </trkpt>
      <trkpt lat="44.8082120" lon="14.7043490">
        <ele>-0.3400000</ele>
        <time>2018-07-12T11:58:13Z</time>
      </trkpt>
      <trkpt lat="44.8082120" lon="14.7043480">
        <ele>-0.8200000</ele>
        <time>2018-07-12T11:58:43Z</time>
      </trkpt>
      <trkpt lat="44.8082160" lon="14.7043500">
        <ele>-1.3000000</ele>
        <time>2018-07-12T11:59:14Z</time>
      </trkpt>
      <trkpt lat="44.8082160" lon="14.7043500">
        <ele>-0.8200000</ele>
        <time>2018-07-12T11:59:50Z</time>
      </trkpt>
      <trkpt lat="44.8082080" lon="14.7043560">
        <ele>-0.8200000</ele>
        <time>2018-07-12T12:00:29Z</time>
      </trkpt>
      <trkpt lat="44.8082120" lon="14.7043550">
        <ele>-1.3000000</ele>
        <time>2018-07-12T12:01:02Z</time>
      </trkpt>
      <trkpt lat="44.8082120" lon="14.7043550">
        <ele>-0.8200000</ele>
        <time>2018-07-12T12:01:34Z</time>
      </trkpt>
      <trkpt lat="44.8082160" lon="14.7043630">
        <ele>-0.8200000</ele>
        <time>2018-07-12T12:02:07Z</time>
      </trkpt>
      <trkpt lat="44.8082160" lon="14.7043630">
        <ele>-1.3000000</ele>
        <time>2018-07-12T12:02:27Z</time>
      </trkpt>
      <trkpt lat="44.8082160" lon="14.7043580">
        <ele>-0.8200000</ele>
        <time>2018-07-12T12:02:58Z</time>
      </trkpt>
      <trkpt lat="44.8082200" lon="14.7043710">
        <ele>-0.8200000</ele>
        <time>2018-07-12T12:03:35Z</time>
      </trkpt>
      <trkpt lat="44.8082240" lon="14.7043700">
        <ele>-0.3400000</ele>
        <time>2018-07-12T12:04:08Z</time>
      </trkpt>
      <trkpt lat="44.8082240" lon="14.7043710">
        <ele>-0.3400000</ele>
        <time>2018-07-12T12:04:39Z</time>
      </trkpt>
      <trkpt lat="44.8082200" lon="14.7043700">
        <ele>-0.8200000</ele>
        <time>2018-07-12T12:05:15Z</time>
      </trkpt>
      <trkpt lat="44.8082200" lon="14.7043700">
        <ele>-0.3400000</ele>
        <time>2018-07-12T12:05:50Z</time>
      </trkpt>
      <trkpt lat="44.8082240" lon="14.7043640">
        <ele>-0.3400000</ele>
        <time>2018-07-12T12:06:28Z</time>
      </trkpt>
      <trkpt lat="44.8082160" lon="14.7043420">
        <ele>-0.3400000</ele>
        <time>2018-07-12T12:07:05Z</time>
      </trkpt>
      <trkpt lat="44.8082160" lon="14.7043370">
        <ele>-0.3400000</ele>
        <time>2018-07-12T12:07:38Z</time>
      </trkpt>
      <trkpt lat="44.8082160" lon="14.7043250">
        <ele>-0.3400000</ele>
        <time>2018-07-12T12:08:10Z</time>
      </trkpt>
      <trkpt lat="44.8082120" lon="14.7043120">
        <ele>-0.3400000</ele>
        <time>2018-07-12T12:08:43Z</time>
      </trkpt>
      <trkpt lat="44.8082080" lon="14.7043020">
        <ele>-0.3400000</ele>
        <time>2018-07-12T12:09:21Z</time>
      </trkpt>
      <trkpt lat="44.8082050" lon="14.7042950">
        <ele>-0.3400000</ele>
        <time>2018-07-12T12:10:00Z</time>
      </trkpt>
      <trkpt lat="44.8082050" lon="14.7042920">
        <ele>-0.3400000</ele>
        <time>2018-07-12T12:10:37Z</time>
      </trkpt>
      <trkpt lat="44.8082050" lon="14.7042830">
        <ele>0.1400000</ele>
        <time>2018-07-12T12:11:16Z</time>
      </trkpt>
      <trkpt lat="44.8082050" lon="14.7042830">
        <ele>0.1400000</ele>
        <time>2018-07-12T12:11:50Z</time>
      </trkpt>
      <trkpt lat="44.8082010" lon="14.7042830">
        <ele>0.1400000</ele>
        <time>2018-07-12T12:12:29Z</time>
      </trkpt>
      <trkpt lat="44.8082010" lon="14.7042870">
        <ele>0.1400000</ele>
        <time>2018-07-12T12:13:01Z</time>
      </trkpt>
      <trkpt lat="44.8082050" lon="14.7042880">
        <ele>0.1400000</ele>
        <time>2018-07-12T12:13:30Z</time>
      </trkpt>
      <trkpt lat="44.8082080" lon="14.7042930">
        <ele>0.1400000</ele>
        <time>2018-07-12T12:14:06Z</time>
      </trkpt>
      <trkpt lat="44.8082120" lon="14.7042960">
        <ele>0.1400000</ele>
        <time>2018-07-12T12:14:36Z</time>
      </trkpt>
      <trkpt lat="44.8082120" lon="14.7042960">
        <ele>0.1400000</ele>
        <time>2018-07-12T12:15:07Z</time>
      </trkpt>
      <trkpt lat="44.8082160" lon="14.7042990">
        <ele>0.1400000</ele>
        <time>2018-07-12T12:15:43Z</time>
      </trkpt>
      <trkpt lat="44.8082080" lon="14.7042960">
        <ele>0.1400000</ele>
        <time>2018-07-12T12:16:15Z</time>
      </trkpt>
      <trkpt lat="44.8082080" lon="14.7042940">
        <ele>0.1400000</ele>
        <time>2018-07-12T12:16:43Z</time>
      </trkpt>
      <trkpt lat="44.8082050" lon="14.7042860">
        <ele>0.1400000</ele>
        <time>2018-07-12T12:17:18Z</time>
      </trkpt>
      <trkpt lat="44.8082050" lon="14.7042860">
        <ele>0.1400000</ele>
        <time>2018-07-12T12:17:48Z</time>
      </trkpt>
      <trkpt lat="44.8082050" lon="14.7042740">
        <ele>0.1400000</ele>
        <time>2018-07-12T12:18:23Z</time>
      </trkpt>
      <trkpt lat="44.8082010" lon="14.7042660">
        <ele>0.6200000</ele>
        <time>2018-07-12T12:18:53Z</time>
      </trkpt>
      <trkpt lat="44.8081930" lon="14.7042570">
        <ele>0.1400000</ele>
        <time>2018-07-12T12:19:26Z</time>
      </trkpt>
      <trkpt lat="44.8081930" lon="14.7042650">
        <ele>0.1400000</ele>
        <time>2018-07-12T12:19:58Z</time>
      </trkpt>
      <trkpt lat="44.8081930" lon="14.7042650">
        <ele>1.1000000</ele>
        <time>2018-07-12T12:20:31Z</time>
      </trkpt>
      <trkpt lat="44.8081890" lon="14.7042700">
        <ele>0.6200000</ele>
        <time>2018-07-12T12:21:01Z</time>
      </trkpt>
      <trkpt lat="44.8081890" lon="14.7042740">
        <ele>0.6200000</ele>
        <time>2018-07-12T12:21:32Z</time>
      </trkpt>
      <trkpt lat="44.8081930" lon="14.7042690">
        <ele>0.6200000</ele>
        <time>2018-07-12T12:22:00Z</time>
      </trkpt>
      <trkpt lat="44.8081930" lon="14.7042690">
        <ele>0.6200000</ele>
        <time>2018-07-12T12:22:32Z</time>
      </trkpt>
      <trkpt lat="44.8081890" lon="14.7042720">
        <ele>1.1000000</ele>
        <time>2018-07-12T12:23:10Z</time>
      </trkpt>
      <trkpt lat="44.8081890" lon="14.7042710">
        <ele>0.6200000</ele>
        <time>2018-07-12T12:23:40Z</time>
      </trkpt>
      <trkpt lat="44.8081860" lon="14.7042670">
        <ele>0.6200000</ele>
        <time>2018-07-12T12:24:07Z</time>
      </trkpt>
      <trkpt lat="44.8081860" lon="14.7042640">
        <ele>1.1000000</ele>
        <time>2018-07-12T12:24:38Z</time>
      </trkpt>
      <trkpt lat="44.8081860" lon="14.7042640">
        <ele>0.6200000</ele>
        <time>2018-07-12T12:25:09Z</time>
      </trkpt>
      <trkpt lat="44.8081860" lon="14.7042610">
        <ele>0.6200000</ele>
        <time>2018-07-12T12:25:33Z</time>
      </trkpt>
      <trkpt lat="44.8081860" lon="14.7042610">
        <ele>0.6200000</ele>
        <time>2018-07-12T12:25:53Z</time>
      </trkpt>
      <trkpt lat="44.8081860" lon="14.7042500">
        <ele>1.1000000</ele>
        <time>2018-07-12T12:26:19Z</time>
      </trkpt>
      <trkpt lat="44.8081820" lon="14.7042420">
        <ele>0.6200000</ele>
        <time>2018-07-12T12:26:48Z</time>
      </trkpt>
      <trkpt lat="44.8081820" lon="14.7042420">
        <ele>0.6200000</ele>
        <time>2018-07-12T12:27:11Z</time>
      </trkpt>
      <trkpt lat="44.8081860" lon="14.7042320">
        <ele>0.6200000</ele>
        <time>2018-07-12T12:27:36Z</time>
      </trkpt>
      <trkpt lat="44.8081820" lon="14.7042390">
        <ele>0.6200000</ele>
        <time>2018-07-12T12:28:03Z</time>
      </trkpt>
      <trkpt lat="44.8081860" lon="14.7042370">
        <ele>0.6200000</ele>
        <time>2018-07-12T12:28:38Z</time>
      </trkpt>
      <trkpt lat="44.8081860" lon="14.7042370">
        <ele>0.6200000</ele>
        <time>2018-07-12T12:29:09Z</time>
      </trkpt>
      <trkpt lat="44.8081890" lon="14.7042460">
        <ele>0.6200000</ele>
        <time>2018-07-12T12:29:43Z</time>
      </trkpt>
      <trkpt lat="44.8081860" lon="14.7042470">
        <ele>0.6200000</ele>
        <time>2018-07-12T12:30:13Z</time>
      </trkpt>
      <trkpt lat="44.8081860" lon="14.7042590">
        <ele>0.1400000</ele>
        <time>2018-07-12T12:30:47Z</time>
      </trkpt>
      <trkpt lat="44.8081890" lon="14.7042680">
        <ele>0.1400000</ele>
        <time>2018-07-12T12:31:23Z</time>
      </trkpt>
      <trkpt lat="44.8081930" lon="14.7042730">
        <ele>0.1400000</ele>
        <time>2018-07-12T12:31:58Z</time>
      </trkpt>
      <trkpt lat="44.8081930" lon="14.7042750">
        <ele>0.1400000</ele>
        <time>2018-07-12T12:32:36Z</time>
      </trkpt>
      <trkpt lat="44.8081930" lon="14.7042750">
        <ele>0.1400000</ele>
        <time>2018-07-12T12:33:11Z</time>
      </trkpt>
      <trkpt lat="44.8081930" lon="14.7042770">
        <ele>0.1400000</ele>
        <time>2018-07-12T12:33:45Z</time>
      </trkpt>
      <trkpt lat="44.8082050" lon="14.7042830">
        <ele>0.6200000</ele>
        <time>2018-07-12T12:34:18Z</time>
      </trkpt>
      <trkpt lat="44.8082050" lon="14.7042830">
        <ele>1.1000000</ele>
        <time>2018-07-12T12:34:49Z</time>
      </trkpt>
      <trkpt lat="44.8082050" lon="14.7042860">
        <ele>0.6200000</ele>
        <time>2018-07-12T12:35:18Z</time>
      </trkpt>
      <trkpt lat="44.8082050" lon="14.7042860">
        <ele>0.6200000</ele>
        <time>2018-07-12T12:35:51Z</time>
      </trkpt>
      <trkpt lat="44.8082080" lon="14.7042900">
        <ele>0.6200000</ele>
        <time>2018-07-12T12:36:25Z</time>
      </trkpt>
      <trkpt lat="44.8082050" lon="14.7042930">
        <ele>0.6200000</ele>
        <time>2018-07-12T12:37:00Z</time>
      </trkpt>
      <trkpt lat="44.8082080" lon="14.7042940">
        <ele>0.6200000</ele>
        <time>2018-07-12T12:37:33Z</time>
      </trkpt>
      <trkpt lat="44.8082080" lon="14.7042970">
        <ele>0.6200000</ele>
        <time>2018-07-12T12:38:09Z</time>
      </trkpt>
      <trkpt lat="44.8082050" lon="14.7042950">
        <ele>0.6200000</ele>
        <time>2018-07-12T12:38:45Z</time>
      </trkpt>
      <trkpt lat="44.8082010" lon="14.7042970">
        <ele>0.1400000</ele>
        <time>2018-07-12T12:39:18Z</time>
      </trkpt>
      <trkpt lat="44.8082010" lon="14.7042970">
        <ele>0.6200000</ele>
        <time>2018-07-12T12:39:52Z</time>
      </trkpt>
      <trkpt lat="44.8082050" lon="14.7042980">
        <ele>0.6200000</ele>
        <time>2018-07-12T12:40:23Z</time>
      </trkpt>
      <trkpt lat="44.8082120" lon="14.7042950">
        <ele>1.1000000</ele>
        <time>2018-07-12T12:40:55Z</time>
      </trkpt>
      <trkpt lat="44.8082120" lon="14.7042970">
        <ele>0.6200000</ele>
        <time>2018-07-12T12:41:24Z</time>
      </trkpt>
      <trkpt lat="44.8082120" lon="14.7042970">
        <ele>1.1000000</ele>
        <time>2018-07-12T12:41:48Z</time>
      </trkpt>
      <trkpt lat="44.8082120" lon="14.7042960">
        <ele>0.6200000</ele>
        <time>2018-07-12T12:42:22Z</time>
      </trkpt>
      <trkpt lat="44.8082120" lon="14.7043010">
        <ele>1.1000000</ele>
        <time>2018-07-12T12:42:57Z</time>
      </trkpt>
      <trkpt lat="44.8082120" lon="14.7043010">
        <ele>0.6200000</ele>
        <time>2018-07-12T12:43:30Z</time>
      </trkpt>
      <trkpt lat="44.8082080" lon="14.7043030">
        <ele>0.6200000</ele>
        <time>2018-07-12T12:44:06Z</time>
      </trkpt>
      <trkpt lat="44.8082120" lon="14.7043120">
        <ele>0.6200000</ele>
        <time>2018-07-12T12:44:40Z</time>
      </trkpt>
      <trkpt lat="44.8082120" lon="14.7043120">
        <ele>0.6200000</ele>
        <time>2018-07-12T12:45:10Z</time>
      </trkpt>
      <trkpt lat="44.8082080" lon="14.7043250">
        <ele>0.6200000</ele>
        <time>2018-07-12T12:45:45Z</time>
      </trkpt>
      <trkpt lat="44.8082080" lon="14.7043260">
        <ele>0.6200000</ele>
        <time>2018-07-12T12:46:15Z</time>
      </trkpt>
      <trkpt lat="44.8082160" lon="14.7043310">
        <ele>0.6200000</ele>
        <time>2018-07-12T12:46:52Z</time>
      </trkpt>
      <trkpt lat="44.8082160" lon="14.7043350">
        <ele>0.1400000</ele>
        <time>2018-07-12T12:47:26Z</time>
      </trkpt>
      <trkpt lat="44.8082160" lon="14.7043360">
        <ele>0.6200000</ele>
        <time>2018-07-12T12:47:54Z</time>
      </trkpt>
      <trkpt lat="44.8082160" lon="14.7043360">
        <ele>0.6200000</ele>
        <time>2018-07-12T12:48:27Z</time>
      </trkpt>
      <trkpt lat="44.8082080" lon="14.7043340">
        <ele>0.6200000</ele>
        <time>2018-07-12T12:49:06Z</time>
      </trkpt>
      <trkpt lat="44.8082080" lon="14.7043290">
        <ele>0.6200000</ele>
        <time>2018-07-12T12:49:45Z</time>
      </trkpt>
      <trkpt lat="44.8082080" lon="14.7043330">
        <ele>0.6200000</ele>
        <time>2018-07-12T12:50:17Z</time>
      </trkpt>
      <trkpt lat="44.8082080" lon="14.7043300">
        <ele>0.6200000</ele>
        <time>2018-07-12T12:50:53Z</time>
      </trkpt>
      <trkpt lat="44.8082050" lon="14.7043300">
        <ele>0.6200000</ele>
        <time>2018-07-12T12:51:28Z</time>
      </trkpt>
      <trkpt lat="44.8082050" lon="14.7043220">
        <ele>0.1400000</ele>
        <time>2018-07-12T12:52:05Z</time>
      </trkpt>
      <trkpt lat="44.8081970" lon="14.7043160">
        <ele>0.6200000</ele>
        <time>2018-07-12T12:52:37Z</time>
      </trkpt>
      <trkpt lat="44.8081970" lon="14.7043170">
        <ele>0.1400000</ele>
        <time>2018-07-12T12:53:14Z</time>
      </trkpt>
      <trkpt lat="44.8081970" lon="14.7043170">
        <ele>0.1400000</ele>
        <time>2018-07-12T12:53:46Z</time>
      </trkpt>
      <trkpt lat="44.8081930" lon="14.7043180">
        <ele>0.1400000</ele>
        <time>2018-07-12T12:54:23Z</time>
      </trkpt>
      <trkpt lat="44.8081930" lon="14.7043150">
        <ele>0.1400000</ele>
        <time>2018-07-12T12:54:58Z</time>
      </trkpt>
      <trkpt lat="44.8081970" lon="14.7043130">
        <ele>0.1400000</ele>
        <time>2018-07-12T12:55:36Z</time>
      </trkpt>
      <trkpt lat="44.8082050" lon="14.7043170">
        <ele>0.1400000</ele>
        <time>2018-07-12T12:56:08Z</time>
      </trkpt>
      <trkpt lat="44.8082050" lon="14.7043120">
        <ele>0.1400000</ele>
        <time>2018-07-12T12:56:36Z</time>
      </trkpt>
      <trkpt lat="44.8082050" lon="14.7043120">
        <ele>0.1400000</ele>
        <time>2018-07-12T12:57:07Z</time>
      </trkpt>
      <trkpt lat="44.8082010" lon="14.7043110">
        <ele>0.1400000</ele>
        <time>2018-07-12T12:57:39Z</time>
      </trkpt>
      <trkpt lat="44.8082010" lon="14.7043110">
        <ele>-0.3400000</ele>
        <time>2018-07-12T12:58:05Z</time>
      </trkpt>
      <trkpt lat="44.8082050" lon="14.7043150">
        <ele>0.1400000</ele>
        <time>2018-07-12T12:58:39Z</time>
      </trkpt>
      <trkpt lat="44.8082050" lon="14.7043150">
        <ele>0.1400000</ele>
        <time>2018-07-12T12:59:09Z</time>
      </trkpt>
      <trkpt lat="44.8082050" lon="14.7043140">
        <ele>-0.3400000</ele>
        <time>2018-07-12T12:59:31Z</time>
      </trkpt>
      <trkpt lat="44.8082010" lon="14.7043130">
        <ele>0.1400000</ele>
        <time>2018-07-12T13:00:02Z</time>
      </trkpt>
      <trkpt lat="44.8082010" lon="14.7043130">
        <ele>0.1400000</ele>
        <time>2018-07-12T13:00:32Z</time>
      </trkpt>
      <trkpt lat="44.8081890" lon="14.7043390">
        <ele>-0.3400000</ele>
        <time>2018-07-12T13:01:06Z</time>
      </trkpt>
      <trkpt lat="44.8082280" lon="14.7044440">
        <ele>-0.8200000</ele>
        <time>2018-07-12T13:01:36Z</time>
      </trkpt>
      <trkpt lat="44.8080940" lon="14.7045290">
        <ele>-0.3400000</ele>
        <time>2018-07-12T13:02:06Z</time>
      </trkpt>
      <trkpt lat="44.8080440" lon="14.7046730">
        <ele>-0.3400000</ele>
        <time>2018-07-12T13:02:20Z</time>
      </trkpt>
      <trkpt lat="44.8080860" lon="14.7051550">
        <ele>-0.3400000</ele>
        <time>2018-07-12T13:02:52Z</time>
      </trkpt>
      <trkpt lat="44.8081590" lon="14.7057700">
        <ele>-0.8200000</ele>
        <time>2018-07-12T13:03:27Z</time>
      </trkpt>
      <trkpt lat="44.8082660" lon="14.7064590">
        <ele>-0.3400000</ele>
        <time>2018-07-12T13:04:02Z</time>
      </trkpt>
      <trkpt lat="44.8083690" lon="14.7071140">
        <ele>-0.3400000</ele>
        <time>2018-07-12T13:04:36Z</time>
      </trkpt>
      <trkpt lat="44.8084030" lon="14.7077200">
        <ele>-0.3400000</ele>
        <time>2018-07-12T13:05:06Z</time>
      </trkpt>
      <trkpt lat="44.8083800" lon="14.7084270">
        <ele>0.1400000</ele>
        <time>2018-07-12T13:05:40Z</time>
      </trkpt>
      <trkpt lat="44.8083080" lon="14.7091300">
        <ele>-0.3400000</ele>
        <time>2018-07-12T13:06:14Z</time>
      </trkpt>
      <trkpt lat="44.8081050" lon="14.7099080">
        <ele>-0.3400000</ele>
        <time>2018-07-12T13:06:52Z</time>
      </trkpt>
      <trkpt lat="44.8078420" lon="14.7106470">
        <ele>-0.8200000</ele>
        <time>2018-07-12T13:07:30Z</time>
      </trkpt>
      <trkpt lat="44.8074950" lon="14.7113750">
        <ele>-0.3400000</ele>
        <time>2018-07-12T13:08:09Z</time>
      </trkpt>
      <trkpt lat="44.8072090" lon="14.7119850">
        <ele>-0.3400000</ele>
        <time>2018-07-12T13:08:42Z</time>
      </trkpt>
      <trkpt lat="44.8069730" lon="14.7126240">
        <ele>0.1400000</ele>
        <time>2018-07-12T13:09:15Z</time>
      </trkpt>
      <trkpt lat="44.8067050" lon="14.7132740">
        <ele>-0.3400000</ele>
        <time>2018-07-12T13:09:49Z</time>
      </trkpt>
      <trkpt lat="44.8063960" lon="14.7139090">
        <ele>-0.3400000</ele>
        <time>2018-07-12T13:10:24Z</time>
      </trkpt>
      <trkpt lat="44.8060530" lon="14.7145530">
        <ele>-0.3400000</ele>
        <time>2018-07-12T13:11:00Z</time>
      </trkpt>
      <trkpt lat="44.8057250" lon="14.7152270">
        <ele>-0.3400000</ele>
        <time>2018-07-12T13:11:35Z</time>
      </trkpt>
      <trkpt lat="44.8053550" lon="14.7159570">
        <ele>-0.3400000</ele>
        <time>2018-07-12T13:12:12Z</time>
      </trkpt>
      <trkpt lat="44.8050190" lon="14.7166350">
        <ele>-0.3400000</ele>
        <time>2018-07-12T13:12:46Z</time>
      </trkpt>
      <trkpt lat="44.8047030" lon="14.7172780">
        <ele>0.1400000</ele>
        <time>2018-07-12T13:13:18Z</time>
      </trkpt>
      <trkpt lat="44.8044170" lon="14.7179870">
        <ele>0.1400000</ele>
        <time>2018-07-12T13:13:51Z</time>
      </trkpt>
      <trkpt lat="44.8041040" lon="14.7186870">
        <ele>-0.3400000</ele>
        <time>2018-07-12T13:14:25Z</time>
      </trkpt>
      <trkpt lat="44.8037410" lon="14.7194040">
        <ele>0.1400000</ele>
        <time>2018-07-12T13:15:02Z</time>
      </trkpt>
      <trkpt lat="44.8034400" lon="14.7201650">
        <ele>0.1400000</ele>
        <time>2018-07-12T13:15:38Z</time>
      </trkpt>
      <trkpt lat="44.8031850" lon="14.7208190">
        <ele>0.1400000</ele>
        <time>2018-07-12T13:16:09Z</time>
      </trkpt>
      <trkpt lat="44.8029900" lon="14.7215190">
        <ele>0.1400000</ele>
        <time>2018-07-12T13:16:41Z</time>
      </trkpt>
      <trkpt lat="44.8028950" lon="14.7222480">
        <ele>0.6200000</ele>
        <time>2018-07-12T13:17:16Z</time>
      </trkpt>
      <trkpt lat="44.8029560" lon="14.7227460">
        <ele>0.6200000</ele>
        <time>2018-07-12T13:17:49Z</time>
      </trkpt>
      <trkpt lat="44.8030200" lon="14.7230740">
        <ele>0.6200000</ele>
        <time>2018-07-12T13:18:20Z</time>
      </trkpt>
      <trkpt lat="44.8030320" lon="14.7234120">
        <ele>0.1400000</ele>
        <time>2018-07-12T13:18:52Z</time>
      </trkpt>
      <trkpt lat="44.8030470" lon="14.7236590">
        <ele>1.1000000</ele>
        <time>2018-07-12T13:19:27Z</time>
      </trkpt>
      <trkpt lat="44.8031770" lon="14.7240800">
        <ele>0.1400000</ele>
        <time>2018-07-12T13:20:03Z</time>
      </trkpt>
      <trkpt lat="44.8033100" lon="14.7243060">
        <ele>0.6200000</ele>
        <time>2018-07-12T13:20:35Z</time>
      </trkpt>
      <trkpt lat="44.8032530" lon="14.7242240">
        <ele>0.6200000</ele>
        <time>2018-07-12T13:21:02Z</time>
      </trkpt>
      <trkpt lat="44.8033030" lon="14.7241000">
        <ele>0.6200000</ele>
        <time>2018-07-12T13:21:32Z</time>
      </trkpt>
      <trkpt lat="44.8033260" lon="14.7240630">
        <ele>0.6200000</ele>
        <time>2018-07-12T13:22:01Z</time>
      </trkpt>
      <trkpt lat="44.8033260" lon="14.7240670">
        <ele>0.6200000</ele>
        <time>2018-07-12T13:22:28Z</time>
      </trkpt>
      <trkpt lat="44.8033290" lon="14.7240720">
        <ele>1.1000000</ele>
        <time>2018-07-12T13:23:02Z</time>
      </trkpt>
      <trkpt lat="44.8033290" lon="14.7240720">
        <ele>0.6200000</ele>
        <time>2018-07-12T13:23:33Z</time>
      </trkpt>
      <trkpt lat="44.8033290" lon="14.7240740">
        <ele>1.1000000</ele>
        <time>2018-07-12T13:24:05Z</time>
      </trkpt>
      <trkpt lat="44.8033290" lon="14.7240750">
        <ele>0.6200000</ele>
        <time>2018-07-12T13:24:37Z</time>
      </trkpt>
      <trkpt lat="44.8033330" lon="14.7240750">
        <ele>0.6200000</ele>
        <time>2018-07-12T13:25:09Z</time>
      </trkpt>
      <trkpt lat="44.8033330" lon="14.7240780">
        <ele>0.1400000</ele>
        <time>2018-07-12T13:25:38Z</time>
      </trkpt>
      <trkpt lat="44.8033330" lon="14.7240780">
        <ele>0.6200000</ele>
        <time>2018-07-12T13:26:11Z</time>
      </trkpt>
      <trkpt lat="44.8033260" lon="14.7240850">
        <ele>0.6200000</ele>
        <time>2018-07-12T13:26:44Z</time>
      </trkpt>
      <trkpt lat="44.8033180" lon="14.7240890">
        <ele>0.6200000</ele>
        <time>2018-07-12T13:27:17Z</time>
      </trkpt>
      <trkpt lat="44.8033180" lon="14.7240910">
        <ele>0.6200000</ele>
        <time>2018-07-12T13:27:48Z</time>
      </trkpt>
      <trkpt lat="44.8033220" lon="14.7240980">
        <ele>0.6200000</ele>
        <time>2018-07-12T13:28:25Z</time>
      </trkpt>
      <trkpt lat="44.8033180" lon="14.7241000">
        <ele>0.6200000</ele>
        <time>2018-07-12T13:28:59Z</time>
      </trkpt>
      <trkpt lat="44.8033180" lon="14.7241000">
        <ele>0.6200000</ele>
        <time>2018-07-12T13:29:28Z</time>
      </trkpt>
      <trkpt lat="44.8033220" lon="14.7241010">
        <ele>0.6200000</ele>
        <time>2018-07-12T13:29:58Z</time>
      </trkpt>
      <trkpt lat="44.8033260" lon="14.7240940">
        <ele>0.1400000</ele>
        <time>2018-07-12T13:30:28Z</time>
      </trkpt>
      <trkpt lat="44.8033260" lon="14.7240890">
        <ele>0.6200000</ele>
        <time>2018-07-12T13:31:00Z</time>
      </trkpt>
      <trkpt lat="44.8033260" lon="14.7240890">
        <ele>0.6200000</ele>
        <time>2018-07-12T13:31:30Z</time>
      </trkpt>
      <trkpt lat="44.8033260" lon="14.7240890">
        <ele>0.6200000</ele>
        <time>2018-07-12T13:32:07Z</time>
      </trkpt>
      <trkpt lat="44.8033370" lon="14.7240830">
        <ele>1.1000000</ele>
        <time>2018-07-12T13:32:29Z</time>
      </trkpt>
      <trkpt lat="44.8033450" lon="14.7240830">
        <ele>1.1000000</ele>
        <time>2018-07-12T13:32:56Z</time>
      </trkpt>
      <trkpt lat="44.8033490" lon="14.7240640">
        <ele>0.6200000</ele>
        <time>2018-07-12T13:33:06Z</time>
      </trkpt>
      <trkpt lat="44.8033330" lon="14.7240630">
        <ele>1.1000000</ele>
        <time>2018-07-12T13:33:21Z</time>
      </trkpt>
      <trkpt lat="44.8033490" lon="14.7240490">
        <ele>1.1000000</ele>
        <time>2018-07-12T13:33:36Z</time>
      </trkpt>
      <trkpt lat="44.8033410" lon="14.7240560">
        <ele>0.1400000</ele>
        <time>2018-07-12T13:33:54Z</time>
      </trkpt>
      <trkpt lat="44.8033410" lon="14.7240560">
        <ele>0.6200000</ele>
        <time>2018-07-12T13:34:21Z</time>
      </trkpt>
      <trkpt lat="44.8033410" lon="14.7240540">
        <ele>0.6200000</ele>
        <time>2018-07-12T13:34:50Z</time>
      </trkpt>
      <trkpt lat="44.8033410" lon="14.7240540">
        <ele>0.1400000</ele>
        <time>2018-07-12T13:35:05Z</time>
      </trkpt>
      <trkpt lat="44.8033490" lon="14.7240410">
        <ele>0.6200000</ele>
        <time>2018-07-12T13:35:36Z</time>
      </trkpt>
      <trkpt lat="44.8033490" lon="14.7240440">
        <ele>0.6200000</ele>
        <time>2018-07-12T13:35:59Z</time>
      </trkpt>
      <trkpt lat="44.8033450" lon="14.7240420">
        <ele>0.6200000</ele>
        <time>2018-07-12T13:36:32Z</time>
      </trkpt>
      <trkpt lat="44.8033450" lon="14.7240500">
        <ele>0.1400000</ele>
        <time>2018-07-12T13:36:50Z</time>
      </trkpt>
    </trkseg>
  </trk>

  <trk>
    <name>5 Supetarska Draga - Punat</name>
    <extensions>
      <gpxx:TrackExtension xmlns:gpxx="http://www.garmin.com/xmlschemas/GpxExtensions/v3">
        <gpxx:DisplayColor>DarkYellow</gpxx:DisplayColor>
      </gpxx:TrackExtension>
    </extensions>
    <trkseg>
      <trkpt lat="44.8033070" lon="14.7240380">
        <ele>-12.3600000</ele>
        <time>2018-07-13T04:29:45Z</time>
      </trkpt>
      <trkpt lat="44.8033070" lon="14.7240400">
        <ele>-5.6300000</ele>
        <time>2018-07-13T04:29:52Z</time>
      </trkpt>
      <trkpt lat="44.8033070" lon="14.7240400">
        <ele>-6.1100000</ele>
        <time>2018-07-13T04:29:53Z</time>
      </trkpt>
      <trkpt lat="44.8033070" lon="14.7240450">
        <ele>-6.5900000</ele>
        <time>2018-07-13T04:29:55Z</time>
      </trkpt>
      <trkpt lat="44.8033260" lon="14.7240170">
        <ele>-9.9600000</ele>
        <time>2018-07-13T07:34:33Z</time>
      </trkpt>
      <trkpt lat="44.8033260" lon="14.7240090">
        <ele>-7.0700000</ele>
        <time>2018-07-13T07:34:45Z</time>
      </trkpt>
      <trkpt lat="44.8033290" lon="14.7240150">
        <ele>-3.7100000</ele>
        <time>2018-07-13T07:34:58Z</time>
      </trkpt>
      <trkpt lat="44.8033490" lon="14.7240280">
        <ele>-0.8200000</ele>
        <time>2018-07-13T07:35:35Z</time>
      </trkpt>
      <trkpt lat="44.8033560" lon="14.7240440">
        <ele>-0.8200000</ele>
        <time>2018-07-13T07:36:10Z</time>
      </trkpt>
      <trkpt lat="44.8033520" lon="14.7240470">
        <ele>-0.3400000</ele>
        <time>2018-07-13T07:36:49Z</time>
      </trkpt>
      <trkpt lat="44.8033520" lon="14.7240510">
        <ele>-0.3400000</ele>
        <time>2018-07-13T07:37:25Z</time>
      </trkpt>
      <trkpt lat="44.8033490" lon="14.7240520">
        <ele>-0.3400000</ele>
        <time>2018-07-13T07:37:57Z</time>
      </trkpt>
      <trkpt lat="44.8033450" lon="14.7240510">
        <ele>0.1400000</ele>
        <time>2018-07-13T07:38:35Z</time>
      </trkpt>
      <trkpt lat="44.8033450" lon="14.7240500">
        <ele>0.1400000</ele>
        <time>2018-07-13T07:39:12Z</time>
      </trkpt>
      <trkpt lat="44.8032570" lon="14.7241260">
        <ele>-0.3400000</ele>
        <time>2018-07-13T07:39:35Z</time>
      </trkpt>
      <trkpt lat="44.8032040" lon="14.7241540">
        <ele>0.1400000</ele>
        <time>2018-07-13T07:39:41Z</time>
      </trkpt>
      <trkpt lat="44.8031540" lon="14.7241200">
        <ele>-0.3400000</ele>
        <time>2018-07-13T07:39:46Z</time>
      </trkpt>
      <trkpt lat="44.8030780" lon="14.7236780">
        <ele>0.1400000</ele>
        <time>2018-07-13T07:40:12Z</time>
      </trkpt>
      <trkpt lat="44.8030360" lon="14.7229310">
        <ele>0.6200000</ele>
        <time>2018-07-13T07:40:50Z</time>
      </trkpt>
      <trkpt lat="44.8032880" lon="14.7224690">
        <ele>0.1400000</ele>
        <time>2018-07-13T07:41:21Z</time>
      </trkpt>
      <trkpt lat="44.8035810" lon="14.7220500">
        <ele>-0.3400000</ele>
        <time>2018-07-13T07:41:51Z</time>
      </trkpt>
      <trkpt lat="44.8039020" lon="14.7215430">
        <ele>-0.3400000</ele>
        <time>2018-07-13T07:42:24Z</time>
      </trkpt>
      <trkpt lat="44.8042640" lon="14.7209540">
        <ele>-0.3400000</ele>
        <time>2018-07-13T07:43:00Z</time>
      </trkpt>
      <trkpt lat="44.8045850" lon="14.7204610">
        <ele>-0.3400000</ele>
        <time>2018-07-13T07:43:31Z</time>
      </trkpt>
      <trkpt lat="44.8049050" lon="14.7199460">
        <ele>-0.3400000</ele>
        <time>2018-07-13T07:44:02Z</time>
      </trkpt>
      <trkpt lat="44.8053670" lon="14.7192160">
        <ele>-0.3400000</ele>
        <time>2018-07-13T07:44:33Z</time>
      </trkpt>
      <trkpt lat="44.8057980" lon="14.7186670">
        <ele>-0.3400000</ele>
        <time>2018-07-13T07:44:57Z</time>
      </trkpt>
      <trkpt lat="44.8063050" lon="14.7180030">
        <ele>-0.8200000</ele>
        <time>2018-07-13T07:45:26Z</time>
      </trkpt>
      <trkpt lat="44.8068660" lon="14.7172380">
        <ele>-0.8200000</ele>
        <time>2018-07-13T07:45:58Z</time>
      </trkpt>
      <trkpt lat="44.8073430" lon="14.7165980">
        <ele>-0.3400000</ele>
        <time>2018-07-13T07:46:26Z</time>
      </trkpt>
      <trkpt lat="44.8078880" lon="14.7158750">
        <ele>-0.8200000</ele>
        <time>2018-07-13T07:46:58Z</time>
      </trkpt>
      <trkpt lat="44.8084600" lon="14.7151020">
        <ele>-0.8200000</ele>
        <time>2018-07-13T07:47:32Z</time>
      </trkpt>
      <trkpt lat="44.8090440" lon="14.7143320">
        <ele>-1.3000000</ele>
        <time>2018-07-13T07:48:05Z</time>
      </trkpt>
      <trkpt lat="44.8093450" lon="14.7139090">
        <ele>-0.3400000</ele>
        <time>2018-07-13T07:48:24Z</time>
      </trkpt>
      <trkpt lat="44.8096960" lon="14.7134440">
        <ele>0.6200000</ele>
        <time>2018-07-13T07:48:44Z</time>
      </trkpt>
      <trkpt lat="44.8100170" lon="14.7130210">
        <ele>-0.3400000</ele>
        <time>2018-07-13T07:49:02Z</time>
      </trkpt>
      <trkpt lat="44.8102760" lon="14.7126780">
        <ele>0.1400000</ele>
        <time>2018-07-13T07:49:16Z</time>
      </trkpt>
      <trkpt lat="44.8106270" lon="14.7121940">
        <ele>0.6200000</ele>
        <time>2018-07-13T07:49:37Z</time>
      </trkpt>
      <trkpt lat="44.8108410" lon="14.7119090">
        <ele>-0.3400000</ele>
        <time>2018-07-13T07:49:50Z</time>
      </trkpt>
      <trkpt lat="44.8114240" lon="14.7111340">
        <ele>0.1400000</ele>
        <time>2018-07-13T07:50:24Z</time>
      </trkpt>
      <trkpt lat="44.8120650" lon="14.7102650">
        <ele>0.1400000</ele>
        <time>2018-07-13T07:51:02Z</time>
      </trkpt>
      <trkpt lat="44.8126110" lon="14.7095290">
        <ele>-0.3400000</ele>
        <time>2018-07-13T07:51:34Z</time>
      </trkpt>
      <trkpt lat="44.8130570" lon="14.7089090">
        <ele>-0.8200000</ele>
        <time>2018-07-13T07:52:01Z</time>
      </trkpt>
      <trkpt lat="44.8135450" lon="14.7082460">
        <ele>-0.3400000</ele>
        <time>2018-07-13T07:52:30Z</time>
      </trkpt>
      <trkpt lat="44.8141140" lon="14.7074980">
        <ele>-0.3400000</ele>
        <time>2018-07-13T07:53:03Z</time>
      </trkpt>
      <trkpt lat="44.8146510" lon="14.7067580">
        <ele>-0.8200000</ele>
        <time>2018-07-13T07:53:35Z</time>
      </trkpt>
      <trkpt lat="44.8152080" lon="14.7060300">
        <ele>-0.3400000</ele>
        <time>2018-07-13T07:54:07Z</time>
      </trkpt>
      <trkpt lat="44.8158610" lon="14.7051600">
        <ele>-0.8200000</ele>
        <time>2018-07-13T07:54:45Z</time>
      </trkpt>
      <trkpt lat="44.8164330" lon="14.7043830">
        <ele>-0.3400000</ele>
        <time>2018-07-13T07:55:19Z</time>
      </trkpt>
      <trkpt lat="44.8169360" lon="14.7036560">
        <ele>-0.3400000</ele>
        <time>2018-07-13T07:55:51Z</time>
      </trkpt>
      <trkpt lat="44.8174170" lon="14.7029870">
        <ele>-0.3400000</ele>
        <time>2018-07-13T07:56:21Z</time>
      </trkpt>
      <trkpt lat="44.8179280" lon="14.7022670">
        <ele>-0.3400000</ele>
        <time>2018-07-13T07:56:53Z</time>
      </trkpt>
      <trkpt lat="44.8184740" lon="14.7015050">
        <ele>-0.8200000</ele>
        <time>2018-07-13T07:57:27Z</time>
      </trkpt>
      <trkpt lat="44.8189200" lon="14.7008910">
        <ele>-0.8200000</ele>
        <time>2018-07-13T07:57:54Z</time>
      </trkpt>
      <trkpt lat="44.8193700" lon="14.7002620">
        <ele>0.1400000</ele>
        <time>2018-07-13T07:58:22Z</time>
      </trkpt>
      <trkpt lat="44.8198130" lon="14.6996760">
        <ele>0.1400000</ele>
        <time>2018-07-13T07:58:49Z</time>
      </trkpt>
      <trkpt lat="44.8203010" lon="14.6989690">
        <ele>-0.8200000</ele>
        <time>2018-07-13T07:59:21Z</time>
      </trkpt>
      <trkpt lat="44.8207590" lon="14.6983320">
        <ele>-0.3400000</ele>
        <time>2018-07-13T07:59:50Z</time>
      </trkpt>
      <trkpt lat="44.8211210" lon="14.6978190">
        <ele>-0.3400000</ele>
        <time>2018-07-13T08:00:13Z</time>
      </trkpt>
      <trkpt lat="44.8214490" lon="14.6973550">
        <ele>-0.3400000</ele>
        <time>2018-07-13T08:00:35Z</time>
      </trkpt>
      <trkpt lat="44.8217090" lon="14.6970070">
        <ele>0.1400000</ele>
        <time>2018-07-13T08:00:52Z</time>
      </trkpt>
      <trkpt lat="44.8220100" lon="14.6965910">
        <ele>-0.3400000</ele>
        <time>2018-07-13T08:01:12Z</time>
      </trkpt>
      <trkpt lat="44.8222890" lon="14.6962000">
        <ele>-0.3400000</ele>
        <time>2018-07-13T08:01:30Z</time>
      </trkpt>
      <trkpt lat="44.8226320" lon="14.6957380">
        <ele>-0.8200000</ele>
        <time>2018-07-13T08:01:51Z</time>
      </trkpt>
      <trkpt lat="44.8228990" lon="14.6953660">
        <ele>-0.8200000</ele>
        <time>2018-07-13T08:02:07Z</time>
      </trkpt>
      <trkpt lat="44.8232310" lon="14.6949170">
        <ele>-0.8200000</ele>
        <time>2018-07-13T08:02:26Z</time>
      </trkpt>
      <trkpt lat="44.8235660" lon="14.6944550">
        <ele>-0.8200000</ele>
        <time>2018-07-13T08:02:45Z</time>
      </trkpt>
      <trkpt lat="44.8238450" lon="14.6940700">
        <ele>-0.8200000</ele>
        <time>2018-07-13T08:03:01Z</time>
      </trkpt>
      <trkpt lat="44.8240850" lon="14.6937160">
        <ele>-0.8200000</ele>
        <time>2018-07-13T08:03:16Z</time>
      </trkpt>
      <trkpt lat="44.8244060" lon="14.6932860">
        <ele>-0.8200000</ele>
        <time>2018-07-13T08:03:34Z</time>
      </trkpt>
      <trkpt lat="44.8246840" lon="14.6929180">
        <ele>-0.8200000</ele>
        <time>2018-07-13T08:03:50Z</time>
      </trkpt>
      <trkpt lat="44.8249400" lon="14.6925640">
        <ele>-0.8200000</ele>
        <time>2018-07-13T08:04:05Z</time>
      </trkpt>
      <trkpt lat="44.8252790" lon="14.6920930">
        <ele>-0.3400000</ele>
        <time>2018-07-13T08:04:25Z</time>
      </trkpt>
      <trkpt lat="44.8255810" lon="14.6917050">
        <ele>-0.8200000</ele>
        <time>2018-07-13T08:04:42Z</time>
      </trkpt>
      <trkpt lat="44.8259240" lon="14.6912360">
        <ele>-0.3400000</ele>
        <time>2018-07-13T08:05:02Z</time>
      </trkpt>
      <trkpt lat="44.8262860" lon="14.6907350">
        <ele>-0.3400000</ele>
        <time>2018-07-13T08:05:23Z</time>
      </trkpt>
      <trkpt lat="44.8266180" lon="14.6903040">
        <ele>-0.3400000</ele>
        <time>2018-07-13T08:05:42Z</time>
      </trkpt>
      <trkpt lat="44.8269770" lon="14.6898220">
        <ele>-0.8200000</ele>
        <time>2018-07-13T08:06:02Z</time>
      </trkpt>
      <trkpt lat="44.8274270" lon="14.6892100">
        <ele>-0.3400000</ele>
        <time>2018-07-13T08:06:27Z</time>
      </trkpt>
      <trkpt lat="44.8279690" lon="14.6884910">
        <ele>-0.8200000</ele>
        <time>2018-07-13T08:06:57Z</time>
      </trkpt>
      <trkpt lat="44.8284530" lon="14.6878400">
        <ele>-0.3400000</ele>
        <time>2018-07-13T08:07:24Z</time>
      </trkpt>
      <trkpt lat="44.8289150" lon="14.6872200">
        <ele>-0.3400000</ele>
        <time>2018-07-13T08:07:50Z</time>
      </trkpt>
      <trkpt lat="44.8293340" lon="14.6866460">
        <ele>-0.8200000</ele>
        <time>2018-07-13T08:08:14Z</time>
      </trkpt>
      <trkpt lat="44.8297420" lon="14.6860840">
        <ele>-0.3400000</ele>
        <time>2018-07-13T08:08:37Z</time>
      </trkpt>
      <trkpt lat="44.8302120" lon="14.6854420">
        <ele>-0.8200000</ele>
        <time>2018-07-13T08:09:04Z</time>
      </trkpt>
      <trkpt lat="44.8307150" lon="14.6849510">
        <ele>-1.3000000</ele>
        <time>2018-07-13T08:09:29Z</time>
      </trkpt>
      <trkpt lat="44.8312150" lon="14.6844750">
        <ele>-1.3000000</ele>
        <time>2018-07-13T08:09:54Z</time>
      </trkpt>
      <trkpt lat="44.8316800" lon="14.6840320">
        <ele>-0.8200000</ele>
        <time>2018-07-13T08:10:17Z</time>
      </trkpt>
      <trkpt lat="44.8322560" lon="14.6834760">
        <ele>-0.8200000</ele>
        <time>2018-07-13T08:10:45Z</time>
      </trkpt>
      <trkpt lat="44.8327410" lon="14.6830380">
        <ele>-1.3000000</ele>
        <time>2018-07-13T08:11:08Z</time>
      </trkpt>
      <trkpt lat="44.8331830" lon="14.6826140">
        <ele>-0.8200000</ele>
        <time>2018-07-13T08:11:29Z</time>
      </trkpt>
      <trkpt lat="44.8336110" lon="14.6822140">
        <ele>-1.3000000</ele>
        <time>2018-07-13T08:11:50Z</time>
      </trkpt>
      <trkpt lat="44.8340230" lon="14.6818300">
        <ele>-1.7900000</ele>
        <time>2018-07-13T08:12:10Z</time>
      </trkpt>
      <trkpt lat="44.8344610" lon="14.6814170">
        <ele>-1.7900000</ele>
        <time>2018-07-13T08:12:31Z</time>
      </trkpt>
      <trkpt lat="44.8348430" lon="14.6810540">
        <ele>-0.8200000</ele>
        <time>2018-07-13T08:12:50Z</time>
      </trkpt>
      <trkpt lat="44.8351710" lon="14.6807480">
        <ele>-1.7900000</ele>
        <time>2018-07-13T08:13:06Z</time>
      </trkpt>
      <trkpt lat="44.8356210" lon="14.6803460">
        <ele>-1.3000000</ele>
        <time>2018-07-13T08:13:28Z</time>
      </trkpt>
      <trkpt lat="44.8361020" lon="14.6799010">
        <ele>-0.3400000</ele>
        <time>2018-07-13T08:13:51Z</time>
      </trkpt>
      <trkpt lat="44.8366200" lon="14.6793770">
        <ele>-0.8200000</ele>
        <time>2018-07-13T08:14:16Z</time>
      </trkpt>
      <trkpt lat="44.8371700" lon="14.6788680">
        <ele>-0.8200000</ele>
        <time>2018-07-13T08:14:42Z</time>
      </trkpt>
      <trkpt lat="44.8376120" lon="14.6785080">
        <ele>-0.8200000</ele>
        <time>2018-07-13T08:15:03Z</time>
      </trkpt>
      <trkpt lat="44.8381840" lon="14.6781770">
        <ele>-0.8200000</ele>
        <time>2018-07-13T08:15:27Z</time>
      </trkpt>
      <trkpt lat="44.8387640" lon="14.6778470">
        <ele>-0.8200000</ele>
        <time>2018-07-13T08:15:52Z</time>
      </trkpt>
      <trkpt lat="44.8394700" lon="14.6774440">
        <ele>-0.8200000</ele>
        <time>2018-07-13T08:16:22Z</time>
      </trkpt>
      <trkpt lat="44.8401370" lon="14.6770730">
        <ele>-0.8200000</ele>
        <time>2018-07-13T08:16:50Z</time>
      </trkpt>
      <trkpt lat="44.8407060" lon="14.6767280">
        <ele>-0.3400000</ele>
        <time>2018-07-13T08:17:14Z</time>
      </trkpt>
      <trkpt lat="44.8411870" lon="14.6764260">
        <ele>0.1400000</ele>
        <time>2018-07-13T08:17:34Z</time>
      </trkpt>
      <trkpt lat="44.8415990" lon="14.6761610">
        <ele>1.1000000</ele>
        <time>2018-07-13T08:17:52Z</time>
      </trkpt>
      <trkpt lat="44.8418770" lon="14.6759800">
        <ele>1.1000000</ele>
        <time>2018-07-13T08:18:03Z</time>
      </trkpt>
      <trkpt lat="44.8423770" lon="14.6756670">
        <ele>-0.3400000</ele>
        <time>2018-07-13T08:18:23Z</time>
      </trkpt>
      <trkpt lat="44.8429680" lon="14.6752950">
        <ele>-0.3400000</ele>
        <time>2018-07-13T08:18:48Z</time>
      </trkpt>
      <trkpt lat="44.8435820" lon="14.6748860">
        <ele>-0.3400000</ele>
        <time>2018-07-13T08:19:14Z</time>
      </trkpt>
      <trkpt lat="44.8441960" lon="14.6744990">
        <ele>-0.3400000</ele>
        <time>2018-07-13T08:19:39Z</time>
      </trkpt>
      <trkpt lat="44.8447910" lon="14.6740820">
        <ele>-0.3400000</ele>
        <time>2018-07-13T08:20:05Z</time>
      </trkpt>
      <trkpt lat="44.8452870" lon="14.6737080">
        <ele>-0.3400000</ele>
        <time>2018-07-13T08:20:28Z</time>
      </trkpt>
      <trkpt lat="44.8458180" lon="14.6733240">
        <ele>-0.3400000</ele>
        <time>2018-07-13T08:20:52Z</time>
      </trkpt>
      <trkpt lat="44.8465040" lon="14.6728320">
        <ele>-0.3400000</ele>
        <time>2018-07-13T08:21:23Z</time>
      </trkpt>
      <trkpt lat="44.8470190" lon="14.6724690">
        <ele>-0.3400000</ele>
        <time>2018-07-13T08:21:46Z</time>
      </trkpt>
      <trkpt lat="44.8475570" lon="14.6720840">
        <ele>-0.3400000</ele>
        <time>2018-07-13T08:22:10Z</time>
      </trkpt>
      <trkpt lat="44.8480830" lon="14.6717250">
        <ele>-0.3400000</ele>
        <time>2018-07-13T08:22:33Z</time>
      </trkpt>
      <trkpt lat="44.8486670" lon="14.6713160">
        <ele>-0.3400000</ele>
        <time>2018-07-13T08:22:59Z</time>
      </trkpt>
      <trkpt lat="44.8492280" lon="14.6709340">
        <ele>-0.3400000</ele>
        <time>2018-07-13T08:23:24Z</time>
      </trkpt>
      <trkpt lat="44.8497890" lon="14.6705340">
        <ele>0.1400000</ele>
        <time>2018-07-13T08:23:49Z</time>
      </trkpt>
      <trkpt lat="44.8504180" lon="14.6701000">
        <ele>-0.3400000</ele>
        <time>2018-07-13T08:24:18Z</time>
      </trkpt>
      <trkpt lat="44.8510320" lon="14.6696820">
        <ele>-0.3400000</ele>
        <time>2018-07-13T08:24:45Z</time>
      </trkpt>
      <trkpt lat="44.8516120" lon="14.6692820">
        <ele>-0.3400000</ele>
        <time>2018-07-13T08:25:10Z</time>
      </trkpt>
      <trkpt lat="44.8522570" lon="14.6688390">
        <ele>-0.3400000</ele>
        <time>2018-07-13T08:25:38Z</time>
      </trkpt>
      <trkpt lat="44.8527490" lon="14.6685030">
        <ele>-0.8200000</ele>
        <time>2018-07-13T08:26:00Z</time>
      </trkpt>
      <trkpt lat="44.8533250" lon="14.6681020">
        <ele>-0.8200000</ele>
        <time>2018-07-13T08:26:25Z</time>
      </trkpt>
      <trkpt lat="44.8538860" lon="14.6677250">
        <ele>-0.3400000</ele>
        <time>2018-07-13T08:26:50Z</time>
      </trkpt>
      <trkpt lat="44.8545270" lon="14.6672880">
        <ele>-0.3400000</ele>
        <time>2018-07-13T08:27:18Z</time>
      </trkpt>
      <trkpt lat="44.8550910" lon="14.6669270">
        <ele>-0.3400000</ele>
        <time>2018-07-13T08:27:42Z</time>
      </trkpt>
      <trkpt lat="44.8556330" lon="14.6665700">
        <ele>-0.3400000</ele>
        <time>2018-07-13T08:28:06Z</time>
      </trkpt>
      <trkpt lat="44.8563160" lon="14.6661040">
        <ele>-0.8200000</ele>
        <time>2018-07-13T08:28:36Z</time>
      </trkpt>
      <trkpt lat="44.8569300" lon="14.6657080">
        <ele>-0.8200000</ele>
        <time>2018-07-13T08:29:03Z</time>
      </trkpt>
      <trkpt lat="44.8575970" lon="14.6652760">
        <ele>-0.8200000</ele>
        <time>2018-07-13T08:29:33Z</time>
      </trkpt>
      <trkpt lat="44.8581200" lon="14.6649370">
        <ele>-0.8200000</ele>
        <time>2018-07-13T08:29:56Z</time>
      </trkpt>
      <trkpt lat="44.8587110" lon="14.6645570">
        <ele>-0.8200000</ele>
        <time>2018-07-13T08:30:22Z</time>
      </trkpt>
      <trkpt lat="44.8593220" lon="14.6641490">
        <ele>-1.3000000</ele>
        <time>2018-07-13T08:30:49Z</time>
      </trkpt>
      <trkpt lat="44.8598210" lon="14.6638140">
        <ele>-1.3000000</ele>
        <time>2018-07-13T08:31:11Z</time>
      </trkpt>
      <trkpt lat="44.8603670" lon="14.6634520">
        <ele>-0.8200000</ele>
        <time>2018-07-13T08:31:35Z</time>
      </trkpt>
      <trkpt lat="44.8608170" lon="14.6631570">
        <ele>-1.3000000</ele>
        <time>2018-07-13T08:31:55Z</time>
      </trkpt>
      <trkpt lat="44.8613550" lon="14.6627860">
        <ele>-1.3000000</ele>
        <time>2018-07-13T08:32:19Z</time>
      </trkpt>
      <trkpt lat="44.8618770" lon="14.6624570">
        <ele>-1.3000000</ele>
        <time>2018-07-13T08:32:42Z</time>
      </trkpt>
      <trkpt lat="44.8623350" lon="14.6621560">
        <ele>-1.3000000</ele>
        <time>2018-07-13T08:33:02Z</time>
      </trkpt>
      <trkpt lat="44.8628350" lon="14.6618310">
        <ele>-1.7900000</ele>
        <time>2018-07-13T08:33:24Z</time>
      </trkpt>
      <trkpt lat="44.8634760" lon="14.6614100">
        <ele>-1.3000000</ele>
        <time>2018-07-13T08:33:52Z</time>
      </trkpt>
      <trkpt lat="44.8640060" lon="14.6610640">
        <ele>-1.7900000</ele>
        <time>2018-07-13T08:34:15Z</time>
      </trkpt>
      <trkpt lat="44.8645780" lon="14.6606950">
        <ele>-1.7900000</ele>
        <time>2018-07-13T08:34:40Z</time>
      </trkpt>
      <trkpt lat="44.8650170" lon="14.6604010">
        <ele>-1.7900000</ele>
        <time>2018-07-13T08:34:59Z</time>
      </trkpt>
      <trkpt lat="44.8655590" lon="14.6600380">
        <ele>-1.7900000</ele>
        <time>2018-07-13T08:35:23Z</time>
      </trkpt>
      <trkpt lat="44.8660960" lon="14.6596760">
        <ele>-1.7900000</ele>
        <time>2018-07-13T08:35:47Z</time>
      </trkpt>
      <trkpt lat="44.8666460" lon="14.6593240">
        <ele>-1.7900000</ele>
        <time>2018-07-13T08:36:11Z</time>
      </trkpt>
      <trkpt lat="44.8670960" lon="14.6590160">
        <ele>-1.7900000</ele>
        <time>2018-07-13T08:36:31Z</time>
      </trkpt>
      <trkpt lat="44.8676300" lon="14.6586640">
        <ele>-2.2700000</ele>
        <time>2018-07-13T08:36:54Z</time>
      </trkpt>
      <trkpt lat="44.8681450" lon="14.6583010">
        <ele>-1.7900000</ele>
        <time>2018-07-13T08:37:17Z</time>
      </trkpt>
      <trkpt lat="44.8685490" lon="14.6580160">
        <ele>-2.2700000</ele>
        <time>2018-07-13T08:37:35Z</time>
      </trkpt>
      <trkpt lat="44.8691140" lon="14.6576210">
        <ele>-2.2700000</ele>
        <time>2018-07-13T08:38:00Z</time>
      </trkpt>
      <trkpt lat="44.8696140" lon="14.6572770">
        <ele>-2.2700000</ele>
        <time>2018-07-13T08:38:22Z</time>
      </trkpt>
      <trkpt lat="44.8700220" lon="14.6570050">
        <ele>-2.7500000</ele>
        <time>2018-07-13T08:38:41Z</time>
      </trkpt>
      <trkpt lat="44.8705600" lon="14.6566330">
        <ele>-2.2700000</ele>
        <time>2018-07-13T08:39:06Z</time>
      </trkpt>
      <trkpt lat="44.8711320" lon="14.6562530">
        <ele>-2.2700000</ele>
        <time>2018-07-13T08:39:32Z</time>
      </trkpt>
      <trkpt lat="44.8718300" lon="14.6557840">
        <ele>-2.2700000</ele>
        <time>2018-07-13T08:40:03Z</time>
      </trkpt>
      <trkpt lat="44.8724290" lon="14.6553790">
        <ele>-1.7900000</ele>
        <time>2018-07-13T08:40:30Z</time>
      </trkpt>
      <trkpt lat="44.8729860" lon="14.6550120">
        <ele>-2.2700000</ele>
        <time>2018-07-13T08:40:55Z</time>
      </trkpt>
      <trkpt lat="44.8735470" lon="14.6546420">
        <ele>-2.2700000</ele>
        <time>2018-07-13T08:41:20Z</time>
      </trkpt>
      <trkpt lat="44.8742560" lon="14.6541830">
        <ele>-2.2700000</ele>
        <time>2018-07-13T08:41:51Z</time>
      </trkpt>
      <trkpt lat="44.8748890" lon="14.6537650">
        <ele>-2.2700000</ele>
        <time>2018-07-13T08:42:19Z</time>
      </trkpt>
      <trkpt lat="44.8754230" lon="14.6534110">
        <ele>-2.2700000</ele>
        <time>2018-07-13T08:42:43Z</time>
      </trkpt>
      <trkpt lat="44.8759310" lon="14.6530610">
        <ele>-2.2700000</ele>
        <time>2018-07-13T08:43:06Z</time>
      </trkpt>
      <trkpt lat="44.8765530" lon="14.6526370">
        <ele>-2.7500000</ele>
        <time>2018-07-13T08:43:34Z</time>
      </trkpt>
      <trkpt lat="44.8770790" lon="14.6522780">
        <ele>-2.2700000</ele>
        <time>2018-07-13T08:43:58Z</time>
      </trkpt>
      <trkpt lat="44.8776860" lon="14.6518650">
        <ele>-2.2700000</ele>
        <time>2018-07-13T08:44:25Z</time>
      </trkpt>
      <trkpt lat="44.8782160" lon="14.6515070">
        <ele>-2.2700000</ele>
        <time>2018-07-13T08:44:49Z</time>
      </trkpt>
      <trkpt lat="44.8788760" lon="14.6510700">
        <ele>-2.2700000</ele>
        <time>2018-07-13T08:45:19Z</time>
      </trkpt>
      <trkpt lat="44.8794980" lon="14.6506560">
        <ele>-2.2700000</ele>
        <time>2018-07-13T08:45:47Z</time>
      </trkpt>
      <trkpt lat="44.8800740" lon="14.6502720">
        <ele>-2.7500000</ele>
        <time>2018-07-13T08:46:13Z</time>
      </trkpt>
      <trkpt lat="44.8805430" lon="14.6499620">
        <ele>-2.7500000</ele>
        <time>2018-07-13T08:46:35Z</time>
      </trkpt>
      <trkpt lat="44.8811110" lon="14.6495840">
        <ele>-2.2700000</ele>
        <time>2018-07-13T08:47:01Z</time>
      </trkpt>
      <trkpt lat="44.8816410" lon="14.6492400">
        <ele>-2.2700000</ele>
        <time>2018-07-13T08:47:25Z</time>
      </trkpt>
      <trkpt lat="44.8821300" lon="14.6489260">
        <ele>-2.7500000</ele>
        <time>2018-07-13T08:47:47Z</time>
      </trkpt>
      <trkpt lat="44.8826560" lon="14.6485870">
        <ele>-2.7500000</ele>
        <time>2018-07-13T08:48:11Z</time>
      </trkpt>
      <trkpt lat="44.8832020" lon="14.6482440">
        <ele>-2.2700000</ele>
        <time>2018-07-13T08:48:36Z</time>
      </trkpt>
      <trkpt lat="44.8837930" lon="14.6478560">
        <ele>-2.7500000</ele>
        <time>2018-07-13T08:49:03Z</time>
      </trkpt>
      <trkpt lat="44.8844600" lon="14.6474390">
        <ele>-2.2700000</ele>
        <time>2018-07-13T08:49:33Z</time>
      </trkpt>
      <trkpt lat="44.8850590" lon="14.6470590">
        <ele>-2.7500000</ele>
        <time>2018-07-13T08:50:00Z</time>
      </trkpt>
      <trkpt lat="44.8856510" lon="14.6466800">
        <ele>-2.7500000</ele>
        <time>2018-07-13T08:50:27Z</time>
      </trkpt>
      <trkpt lat="44.8861920" lon="14.6463250">
        <ele>-2.7500000</ele>
        <time>2018-07-13T08:50:52Z</time>
      </trkpt>
      <trkpt lat="44.8866730" lon="14.6460090">
        <ele>-3.2300000</ele>
        <time>2018-07-13T08:51:14Z</time>
      </trkpt>
      <trkpt lat="44.8871380" lon="14.6457010">
        <ele>-3.2300000</ele>
        <time>2018-07-13T08:51:35Z</time>
      </trkpt>
      <trkpt lat="44.8876340" lon="14.6453870">
        <ele>-3.7100000</ele>
        <time>2018-07-13T08:51:57Z</time>
      </trkpt>
      <trkpt lat="44.8881870" lon="14.6450500">
        <ele>-3.2300000</ele>
        <time>2018-07-13T08:52:22Z</time>
      </trkpt>
      <trkpt lat="44.8886720" lon="14.6447370">
        <ele>-3.2300000</ele>
        <time>2018-07-13T08:52:44Z</time>
      </trkpt>
      <trkpt lat="44.8893130" lon="14.6443340">
        <ele>-3.7100000</ele>
        <time>2018-07-13T08:53:13Z</time>
      </trkpt>
      <trkpt lat="44.8898580" lon="14.6439890">
        <ele>-3.7100000</ele>
        <time>2018-07-13T08:53:38Z</time>
      </trkpt>
      <trkpt lat="44.8903390" lon="14.6436940">
        <ele>-3.7100000</ele>
        <time>2018-07-13T08:54:00Z</time>
      </trkpt>
      <trkpt lat="44.8908730" lon="14.6433660">
        <ele>-3.7100000</ele>
        <time>2018-07-13T08:54:24Z</time>
      </trkpt>
      <trkpt lat="44.8913380" lon="14.6430850">
        <ele>-3.7100000</ele>
        <time>2018-07-13T08:54:45Z</time>
      </trkpt>
      <trkpt lat="44.8918500" lon="14.6427780">
        <ele>-3.7100000</ele>
        <time>2018-07-13T08:55:08Z</time>
      </trkpt>
      <trkpt lat="44.8923910" lon="14.6424640">
        <ele>-3.2300000</ele>
        <time>2018-07-13T08:55:32Z</time>
      </trkpt>
      <trkpt lat="44.8929670" lon="14.6421150">
        <ele>-3.7100000</ele>
        <time>2018-07-13T08:55:58Z</time>
      </trkpt>
      <trkpt lat="44.8934140" lon="14.6418500">
        <ele>-3.7100000</ele>
        <time>2018-07-13T08:56:18Z</time>
      </trkpt>
      <trkpt lat="44.8938140" lon="14.6416110">
        <ele>-3.7100000</ele>
        <time>2018-07-13T08:56:36Z</time>
      </trkpt>
      <trkpt lat="44.8942110" lon="14.6413850">
        <ele>-3.2300000</ele>
        <time>2018-07-13T08:56:54Z</time>
      </trkpt>
      <trkpt lat="44.8946650" lon="14.6411140">
        <ele>-3.7100000</ele>
        <time>2018-07-13T08:57:14Z</time>
      </trkpt>
      <trkpt lat="44.8951570" lon="14.6408190">
        <ele>-3.7100000</ele>
        <time>2018-07-13T08:57:36Z</time>
      </trkpt>
      <trkpt lat="44.8956870" lon="14.6404920">
        <ele>-2.7500000</ele>
        <time>2018-07-13T08:58:00Z</time>
      </trkpt>
      <trkpt lat="44.8962820" lon="14.6401350">
        <ele>-3.7100000</ele>
        <time>2018-07-13T08:58:27Z</time>
      </trkpt>
      <trkpt lat="44.8967630" lon="14.6398600">
        <ele>-3.2300000</ele>
        <time>2018-07-13T08:58:48Z</time>
      </trkpt>
      <trkpt lat="44.8973240" lon="14.6395250">
        <ele>-3.7100000</ele>
        <time>2018-07-13T08:59:13Z</time>
      </trkpt>
      <trkpt lat="44.8977810" lon="14.6392590">
        <ele>-3.7100000</ele>
        <time>2018-07-13T08:59:33Z</time>
      </trkpt>
      <trkpt lat="44.8982390" lon="14.6390080">
        <ele>-3.2300000</ele>
        <time>2018-07-13T08:59:53Z</time>
      </trkpt>
      <trkpt lat="44.8987880" lon="14.6386900">
        <ele>-3.2300000</ele>
        <time>2018-07-13T09:00:17Z</time>
      </trkpt>
      <trkpt lat="44.8992690" lon="14.6384100">
        <ele>-3.7100000</ele>
        <time>2018-07-13T09:00:38Z</time>
      </trkpt>
      <trkpt lat="44.8997650" lon="14.6381160">
        <ele>-3.7100000</ele>
        <time>2018-07-13T09:01:00Z</time>
      </trkpt>
      <trkpt lat="44.9002460" lon="14.6378170">
        <ele>-3.2300000</ele>
        <time>2018-07-13T09:01:22Z</time>
      </trkpt>
      <trkpt lat="44.9007230" lon="14.6375410">
        <ele>-3.2300000</ele>
        <time>2018-07-13T09:01:43Z</time>
      </trkpt>
      <trkpt lat="44.9011880" lon="14.6372630">
        <ele>-3.2300000</ele>
        <time>2018-07-13T09:02:04Z</time>
      </trkpt>
      <trkpt lat="44.9016650" lon="14.6369690">
        <ele>-3.7100000</ele>
        <time>2018-07-13T09:02:26Z</time>
      </trkpt>
      <trkpt lat="44.9021260" lon="14.6366890">
        <ele>-3.2300000</ele>
        <time>2018-07-13T09:02:47Z</time>
      </trkpt>
      <trkpt lat="44.9025920" lon="14.6363880">
        <ele>-3.2300000</ele>
        <time>2018-07-13T09:03:09Z</time>
      </trkpt>
      <trkpt lat="44.9030270" lon="14.6361010">
        <ele>-3.2300000</ele>
        <time>2018-07-13T09:03:30Z</time>
      </trkpt>
      <trkpt lat="44.9034960" lon="14.6358120">
        <ele>-2.7500000</ele>
        <time>2018-07-13T09:03:52Z</time>
      </trkpt>
      <trkpt lat="44.9040490" lon="14.6354890">
        <ele>-2.7500000</ele>
        <time>2018-07-13T09:04:17Z</time>
      </trkpt>
      <trkpt lat="44.9045980" lon="14.6351770">
        <ele>-3.2300000</ele>
        <time>2018-07-13T09:04:40Z</time>
      </trkpt>
      <trkpt lat="44.9051480" lon="14.6348660">
        <ele>-3.2300000</ele>
        <time>2018-07-13T09:05:04Z</time>
      </trkpt>
      <trkpt lat="44.9057120" lon="14.6345530">
        <ele>-2.7500000</ele>
        <time>2018-07-13T09:05:29Z</time>
      </trkpt>
      <trkpt lat="44.9062420" lon="14.6342380">
        <ele>-2.7500000</ele>
        <time>2018-07-13T09:05:53Z</time>
      </trkpt>
      <trkpt lat="44.9068110" lon="14.6338980">
        <ele>-2.7500000</ele>
        <time>2018-07-13T09:06:19Z</time>
      </trkpt>
      <trkpt lat="44.9073260" lon="14.6336170">
        <ele>-2.7500000</ele>
        <time>2018-07-13T09:06:42Z</time>
      </trkpt>
      <trkpt lat="44.9078410" lon="14.6333160">
        <ele>-3.2300000</ele>
        <time>2018-07-13T09:07:05Z</time>
      </trkpt>
      <trkpt lat="44.9083520" lon="14.6330220">
        <ele>-2.7500000</ele>
        <time>2018-07-13T09:07:28Z</time>
      </trkpt>
      <trkpt lat="44.9088630" lon="14.6327170">
        <ele>-3.2300000</ele>
        <time>2018-07-13T09:07:51Z</time>
      </trkpt>
      <trkpt lat="44.9093820" lon="14.6324490">
        <ele>-2.7500000</ele>
        <time>2018-07-13T09:08:14Z</time>
      </trkpt>
      <trkpt lat="44.9099310" lon="14.6321330">
        <ele>-2.7500000</ele>
        <time>2018-07-13T09:08:39Z</time>
      </trkpt>
      <trkpt lat="44.9105070" lon="14.6317880">
        <ele>-2.7500000</ele>
        <time>2018-07-13T09:09:04Z</time>
      </trkpt>
      <trkpt lat="44.9111100" lon="14.6314450">
        <ele>-2.7500000</ele>
        <time>2018-07-13T09:09:30Z</time>
      </trkpt>
      <trkpt lat="44.9116590" lon="14.6311340">
        <ele>-3.2300000</ele>
        <time>2018-07-13T09:09:54Z</time>
      </trkpt>
      <trkpt lat="44.9122280" lon="14.6308120">
        <ele>-2.7500000</ele>
        <time>2018-07-13T09:10:19Z</time>
      </trkpt>
      <trkpt lat="44.9128490" lon="14.6304850">
        <ele>-2.7500000</ele>
        <time>2018-07-13T09:10:45Z</time>
      </trkpt>
      <trkpt lat="44.9134370" lon="14.6301460">
        <ele>-3.2300000</ele>
        <time>2018-07-13T09:11:11Z</time>
      </trkpt>
      <trkpt lat="44.9140400" lon="14.6297820">
        <ele>-3.2300000</ele>
        <time>2018-07-13T09:11:38Z</time>
      </trkpt>
      <trkpt lat="44.9146800" lon="14.6293950">
        <ele>-3.2300000</ele>
        <time>2018-07-13T09:12:06Z</time>
      </trkpt>
      <trkpt lat="44.9152910" lon="14.6290520">
        <ele>-2.7500000</ele>
        <time>2018-07-13T09:12:32Z</time>
      </trkpt>
      <trkpt lat="44.9157980" lon="14.6287580">
        <ele>-3.2300000</ele>
        <time>2018-07-13T09:12:54Z</time>
      </trkpt>
      <trkpt lat="44.9163280" lon="14.6284610">
        <ele>-3.2300000</ele>
        <time>2018-07-13T09:13:17Z</time>
      </trkpt>
      <trkpt lat="44.9169580" lon="14.6281030">
        <ele>-3.2300000</ele>
        <time>2018-07-13T09:13:44Z</time>
      </trkpt>
      <trkpt lat="44.9175070" lon="14.6277860">
        <ele>-3.2300000</ele>
        <time>2018-07-13T09:14:08Z</time>
      </trkpt>
      <trkpt lat="44.9180790" lon="14.6274520">
        <ele>-3.2300000</ele>
        <time>2018-07-13T09:14:33Z</time>
      </trkpt>
      <trkpt lat="44.9186400" lon="14.6271290">
        <ele>-3.2300000</ele>
        <time>2018-07-13T09:14:57Z</time>
      </trkpt>
      <trkpt lat="44.9191930" lon="14.6268050">
        <ele>-2.7500000</ele>
        <time>2018-07-13T09:15:21Z</time>
      </trkpt>
      <trkpt lat="44.9198040" lon="14.6264560">
        <ele>-3.2300000</ele>
        <time>2018-07-13T09:15:47Z</time>
      </trkpt>
      <trkpt lat="44.9204220" lon="14.6260880">
        <ele>-3.2300000</ele>
        <time>2018-07-13T09:16:14Z</time>
      </trkpt>
      <trkpt lat="44.9210130" lon="14.6257270">
        <ele>-3.7100000</ele>
        <time>2018-07-13T09:16:40Z</time>
      </trkpt>
      <trkpt lat="44.9216690" lon="14.6253530">
        <ele>-3.2300000</ele>
        <time>2018-07-13T09:17:08Z</time>
      </trkpt>
      <trkpt lat="44.9222490" lon="14.6250180">
        <ele>-2.7500000</ele>
        <time>2018-07-13T09:17:33Z</time>
      </trkpt>
      <trkpt lat="44.9228290" lon="14.6246770">
        <ele>-3.2300000</ele>
        <time>2018-07-13T09:17:58Z</time>
      </trkpt>
      <trkpt lat="44.9234500" lon="14.6243060">
        <ele>-2.7500000</ele>
        <time>2018-07-13T09:18:25Z</time>
      </trkpt>
      <trkpt lat="44.9241710" lon="14.6238830">
        <ele>-2.7500000</ele>
        <time>2018-07-13T09:18:56Z</time>
      </trkpt>
      <trkpt lat="44.9247400" lon="14.6235400">
        <ele>-2.7500000</ele>
        <time>2018-07-13T09:19:21Z</time>
      </trkpt>
      <trkpt lat="44.9253580" lon="14.6231790">
        <ele>-3.2300000</ele>
        <time>2018-07-13T09:19:48Z</time>
      </trkpt>
      <trkpt lat="44.9259110" lon="14.6228340">
        <ele>-3.2300000</ele>
        <time>2018-07-13T09:20:13Z</time>
      </trkpt>
      <trkpt lat="44.9265060" lon="14.6224830">
        <ele>-3.2300000</ele>
        <time>2018-07-13T09:20:39Z</time>
      </trkpt>
      <trkpt lat="44.9271320" lon="14.6221130">
        <ele>-2.7500000</ele>
        <time>2018-07-13T09:21:06Z</time>
      </trkpt>
      <trkpt lat="44.9277610" lon="14.6217330">
        <ele>-2.7500000</ele>
        <time>2018-07-13T09:21:34Z</time>
      </trkpt>
      <trkpt lat="44.9284480" lon="14.6213080">
        <ele>-2.7500000</ele>
        <time>2018-07-13T09:22:05Z</time>
      </trkpt>
      <trkpt lat="44.9291230" lon="14.6208930">
        <ele>-2.7500000</ele>
        <time>2018-07-13T09:22:35Z</time>
      </trkpt>
      <trkpt lat="44.9297680" lon="14.6205130">
        <ele>-2.7500000</ele>
        <time>2018-07-13T09:23:04Z</time>
      </trkpt>
      <trkpt lat="44.9304080" lon="14.6201200">
        <ele>-2.7500000</ele>
        <time>2018-07-13T09:23:33Z</time>
      </trkpt>
      <trkpt lat="44.9310530" lon="14.6197220">
        <ele>-2.2700000</ele>
        <time>2018-07-13T09:24:02Z</time>
      </trkpt>
      <trkpt lat="44.9317130" lon="14.6193120">
        <ele>-2.2700000</ele>
        <time>2018-07-13T09:24:32Z</time>
      </trkpt>
      <trkpt lat="44.9323080" lon="14.6189240">
        <ele>-2.2700000</ele>
        <time>2018-07-13T09:24:59Z</time>
      </trkpt>
      <trkpt lat="44.9327810" lon="14.6186240">
        <ele>-2.2700000</ele>
        <time>2018-07-13T09:25:21Z</time>
      </trkpt>
      <trkpt lat="44.9331820" lon="14.6183700">
        <ele>-2.2700000</ele>
        <time>2018-07-13T09:25:40Z</time>
      </trkpt>
      <trkpt lat="44.9335210" lon="14.6181550">
        <ele>-2.2700000</ele>
        <time>2018-07-13T09:25:56Z</time>
      </trkpt>
      <trkpt lat="44.9339640" lon="14.6178760">
        <ele>-1.7900000</ele>
        <time>2018-07-13T09:26:17Z</time>
      </trkpt>
      <trkpt lat="44.9345280" lon="14.6175070">
        <ele>-1.7900000</ele>
        <time>2018-07-13T09:26:44Z</time>
      </trkpt>
      <trkpt lat="44.9351390" lon="14.6171160">
        <ele>-2.2700000</ele>
        <time>2018-07-13T09:27:13Z</time>
      </trkpt>
      <trkpt lat="44.9358060" lon="14.6166840">
        <ele>-1.7900000</ele>
        <time>2018-07-13T09:27:45Z</time>
      </trkpt>
      <trkpt lat="44.9364050" lon="14.6162830">
        <ele>-2.2700000</ele>
        <time>2018-07-13T09:28:14Z</time>
      </trkpt>
      <trkpt lat="44.9370080" lon="14.6158760">
        <ele>-1.7900000</ele>
        <time>2018-07-13T09:28:43Z</time>
      </trkpt>
      <trkpt lat="44.9376140" lon="14.6154740">
        <ele>-1.3000000</ele>
        <time>2018-07-13T09:29:13Z</time>
      </trkpt>
      <trkpt lat="44.9382100" lon="14.6150660">
        <ele>-1.7900000</ele>
        <time>2018-07-13T09:29:43Z</time>
      </trkpt>
      <trkpt lat="44.9387440" lon="14.6147160">
        <ele>-1.7900000</ele>
        <time>2018-07-13T09:30:10Z</time>
      </trkpt>
      <trkpt lat="44.9392620" lon="14.6143630">
        <ele>-1.3000000</ele>
        <time>2018-07-13T09:30:36Z</time>
      </trkpt>
      <trkpt lat="44.9398190" lon="14.6139980">
        <ele>-1.3000000</ele>
        <time>2018-07-13T09:31:03Z</time>
      </trkpt>
      <trkpt lat="44.9403720" lon="14.6136350">
        <ele>-1.7900000</ele>
        <time>2018-07-13T09:31:30Z</time>
      </trkpt>
      <trkpt lat="44.9408760" lon="14.6133040">
        <ele>-1.7900000</ele>
        <time>2018-07-13T09:31:55Z</time>
      </trkpt>
      <trkpt lat="44.9414020" lon="14.6129630">
        <ele>-1.3000000</ele>
        <time>2018-07-13T09:32:21Z</time>
      </trkpt>
      <trkpt lat="44.9419630" lon="14.6126010">
        <ele>-1.7900000</ele>
        <time>2018-07-13T09:32:49Z</time>
      </trkpt>
      <trkpt lat="44.9425510" lon="14.6122090">
        <ele>-1.7900000</ele>
        <time>2018-07-13T09:33:18Z</time>
      </trkpt>
      <trkpt lat="44.9431500" lon="14.6118130">
        <ele>-1.7900000</ele>
        <time>2018-07-13T09:33:48Z</time>
      </trkpt>
      <trkpt lat="44.9437600" lon="14.6114230">
        <ele>-1.7900000</ele>
        <time>2018-07-13T09:34:18Z</time>
      </trkpt>
      <trkpt lat="44.9442860" lon="14.6110800">
        <ele>-1.7900000</ele>
        <time>2018-07-13T09:34:44Z</time>
      </trkpt>
      <trkpt lat="44.9448390" lon="14.6107230">
        <ele>-1.7900000</ele>
        <time>2018-07-13T09:35:11Z</time>
      </trkpt>
      <trkpt lat="44.9453740" lon="14.6103760">
        <ele>-1.3000000</ele>
        <time>2018-07-13T09:35:37Z</time>
      </trkpt>
      <trkpt lat="44.9459990" lon="14.6099840">
        <ele>-1.7900000</ele>
        <time>2018-07-13T09:36:07Z</time>
      </trkpt>
      <trkpt lat="44.9465290" lon="14.6096400">
        <ele>-1.3000000</ele>
        <time>2018-07-13T09:36:33Z</time>
      </trkpt>
      <trkpt lat="44.9470710" lon="14.6092940">
        <ele>-1.7900000</ele>
        <time>2018-07-13T09:37:00Z</time>
      </trkpt>
      <trkpt lat="44.9476470" lon="14.6089210">
        <ele>-1.3000000</ele>
        <time>2018-07-13T09:37:28Z</time>
      </trkpt>
      <trkpt lat="44.9482420" lon="14.6085440">
        <ele>-1.7900000</ele>
        <time>2018-07-13T09:37:57Z</time>
      </trkpt>
      <trkpt lat="44.9488450" lon="14.6081710">
        <ele>-1.3000000</ele>
        <time>2018-07-13T09:38:26Z</time>
      </trkpt>
      <trkpt lat="44.9495010" lon="14.6077500">
        <ele>-1.7900000</ele>
        <time>2018-07-13T09:38:58Z</time>
      </trkpt>
      <trkpt lat="44.9501040" lon="14.6073600">
        <ele>-1.7900000</ele>
        <time>2018-07-13T09:39:27Z</time>
      </trkpt>
      <trkpt lat="44.9507100" lon="14.6069770">
        <ele>-1.7900000</ele>
        <time>2018-07-13T09:39:56Z</time>
      </trkpt>
      <trkpt lat="44.9513550" lon="14.6065620">
        <ele>-1.3000000</ele>
        <time>2018-07-13T09:40:27Z</time>
      </trkpt>
      <trkpt lat="44.9519160" lon="14.6062050">
        <ele>-1.3000000</ele>
        <time>2018-07-13T09:40:54Z</time>
      </trkpt>
      <trkpt lat="44.9523960" lon="14.6059040">
        <ele>-1.3000000</ele>
        <time>2018-07-13T09:41:17Z</time>
      </trkpt>
      <trkpt lat="44.9528920" lon="14.6055880">
        <ele>-1.3000000</ele>
        <time>2018-07-13T09:41:41Z</time>
      </trkpt>
      <trkpt lat="44.9534800" lon="14.6052180">
        <ele>-0.8200000</ele>
        <time>2018-07-13T09:42:09Z</time>
      </trkpt>
      <trkpt lat="44.9540520" lon="14.6048680">
        <ele>-1.3000000</ele>
        <time>2018-07-13T09:42:36Z</time>
      </trkpt>
      <trkpt lat="44.9546470" lon="14.6044920">
        <ele>-1.3000000</ele>
        <time>2018-07-13T09:43:05Z</time>
      </trkpt>
      <trkpt lat="44.9552040" lon="14.6041440">
        <ele>-0.8200000</ele>
        <time>2018-07-13T09:43:32Z</time>
      </trkpt>
      <trkpt lat="44.9557760" lon="14.6037720">
        <ele>-0.8200000</ele>
        <time>2018-07-13T09:44:00Z</time>
      </trkpt>
      <trkpt lat="44.9563410" lon="14.6034290">
        <ele>-0.8200000</ele>
        <time>2018-07-13T09:44:27Z</time>
      </trkpt>
      <trkpt lat="44.9569360" lon="14.6030550">
        <ele>-0.8200000</ele>
        <time>2018-07-13T09:44:56Z</time>
      </trkpt>
      <trkpt lat="44.9574170" lon="14.6027650">
        <ele>-0.3400000</ele>
        <time>2018-07-13T09:45:19Z</time>
      </trkpt>
      <trkpt lat="44.9577900" lon="14.6025400">
        <ele>-0.8200000</ele>
        <time>2018-07-13T09:45:37Z</time>
      </trkpt>
      <trkpt lat="44.9581450" lon="14.6022960">
        <ele>-1.7900000</ele>
        <time>2018-07-13T09:45:55Z</time>
      </trkpt>
      <trkpt lat="44.9584540" lon="14.6021240">
        <ele>-1.3000000</ele>
        <time>2018-07-13T09:46:09Z</time>
      </trkpt>
      <trkpt lat="44.9588740" lon="14.6018640">
        <ele>-0.3400000</ele>
        <time>2018-07-13T09:46:29Z</time>
      </trkpt>
      <trkpt lat="44.9594540" lon="14.6015110">
        <ele>-0.3400000</ele>
        <time>2018-07-13T09:46:57Z</time>
      </trkpt>
      <trkpt lat="44.9599460" lon="14.6011990">
        <ele>0.1400000</ele>
        <time>2018-07-13T09:47:21Z</time>
      </trkpt>
      <trkpt lat="44.9604680" lon="14.6008960">
        <ele>-0.3400000</ele>
        <time>2018-07-13T09:47:46Z</time>
      </trkpt>
      <trkpt lat="44.9609570" lon="14.6005940">
        <ele>-0.8200000</ele>
        <time>2018-07-13T09:48:10Z</time>
      </trkpt>
      <trkpt lat="44.9616090" lon="14.6003750">
        <ele>-0.3400000</ele>
        <time>2018-07-13T09:48:39Z</time>
      </trkpt>
      <trkpt lat="44.9621430" lon="14.6002230">
        <ele>-0.3400000</ele>
        <time>2018-07-13T09:49:03Z</time>
      </trkpt>
      <trkpt lat="44.9626920" lon="14.6000580">
        <ele>-0.3400000</ele>
        <time>2018-07-13T09:49:28Z</time>
      </trkpt>
      <trkpt lat="44.9631810" lon="14.5999180">
        <ele>0.1400000</ele>
        <time>2018-07-13T09:49:50Z</time>
      </trkpt>
      <trkpt lat="44.9637830" lon="14.5997720">
        <ele>0.1400000</ele>
        <time>2018-07-13T09:50:17Z</time>
      </trkpt>
      <trkpt lat="44.9642720" lon="14.5996390">
        <ele>0.6200000</ele>
        <time>2018-07-13T09:50:39Z</time>
      </trkpt>
      <trkpt lat="44.9647980" lon="14.5995030">
        <ele>0.1400000</ele>
        <time>2018-07-13T09:51:03Z</time>
      </trkpt>
      <trkpt lat="44.9653550" lon="14.5993510">
        <ele>0.6200000</ele>
        <time>2018-07-13T09:51:28Z</time>
      </trkpt>
      <trkpt lat="44.9658200" lon="14.5992260">
        <ele>0.6200000</ele>
        <time>2018-07-13T09:51:49Z</time>
      </trkpt>
      <trkpt lat="44.9662860" lon="14.5991010">
        <ele>0.6200000</ele>
        <time>2018-07-13T09:52:10Z</time>
      </trkpt>
      <trkpt lat="44.9667320" lon="14.5989750">
        <ele>0.6200000</ele>
        <time>2018-07-13T09:52:30Z</time>
      </trkpt>
      <trkpt lat="44.9670980" lon="14.5988710">
        <ele>0.6200000</ele>
        <time>2018-07-13T09:52:47Z</time>
      </trkpt>
      <trkpt lat="44.9675520" lon="14.5987540">
        <ele>0.6200000</ele>
        <time>2018-07-13T09:53:08Z</time>
      </trkpt>
      <trkpt lat="44.9680210" lon="14.5986440">
        <ele>0.6200000</ele>
        <time>2018-07-13T09:53:29Z</time>
      </trkpt>
      <trkpt lat="44.9686090" lon="14.5985010">
        <ele>0.6200000</ele>
        <time>2018-07-13T09:53:55Z</time>
      </trkpt>
      <trkpt lat="44.9691310" lon="14.5983720">
        <ele>1.1000000</ele>
        <time>2018-07-13T09:54:19Z</time>
      </trkpt>
      <trkpt lat="44.9696880" lon="14.5982320">
        <ele>0.6200000</ele>
        <time>2018-07-13T09:54:44Z</time>
      </trkpt>
      <trkpt lat="44.9702450" lon="14.5980850">
        <ele>1.1000000</ele>
        <time>2018-07-13T09:55:09Z</time>
      </trkpt>
      <trkpt lat="44.9708250" lon="14.5979330">
        <ele>0.6200000</ele>
        <time>2018-07-13T09:55:35Z</time>
      </trkpt>
      <trkpt lat="44.9714200" lon="14.5977790">
        <ele>1.1000000</ele>
        <time>2018-07-13T09:56:02Z</time>
      </trkpt>
      <trkpt lat="44.9720420" lon="14.5976190">
        <ele>1.1000000</ele>
        <time>2018-07-13T09:56:30Z</time>
      </trkpt>
      <trkpt lat="44.9727020" lon="14.5974410">
        <ele>1.1000000</ele>
        <time>2018-07-13T09:57:00Z</time>
      </trkpt>
      <trkpt lat="44.9734270" lon="14.5972640">
        <ele>1.1000000</ele>
        <time>2018-07-13T09:57:33Z</time>
      </trkpt>
      <trkpt lat="44.9740940" lon="14.5971160">
        <ele>1.5800000</ele>
        <time>2018-07-13T09:58:03Z</time>
      </trkpt>
      <trkpt lat="44.9748000" lon="14.5969650">
        <ele>1.5800000</ele>
        <time>2018-07-13T09:58:35Z</time>
      </trkpt>
      <trkpt lat="44.9755940" lon="14.5967820">
        <ele>1.5800000</ele>
        <time>2018-07-13T09:59:11Z</time>
      </trkpt>
      <trkpt lat="44.9762570" lon="14.5966470">
        <ele>1.5800000</ele>
        <time>2018-07-13T09:59:41Z</time>
      </trkpt>
      <trkpt lat="44.9769360" lon="14.5964970">
        <ele>1.5800000</ele>
        <time>2018-07-13T10:00:12Z</time>
      </trkpt>
      <trkpt lat="44.9776080" lon="14.5963650">
        <ele>1.1000000</ele>
        <time>2018-07-13T10:00:42Z</time>
      </trkpt>
      <trkpt lat="44.9782640" lon="14.5962330">
        <ele>1.5800000</ele>
        <time>2018-07-13T10:01:12Z</time>
      </trkpt>
      <trkpt lat="44.9788210" lon="14.5961170">
        <ele>2.0600000</ele>
        <time>2018-07-13T10:01:37Z</time>
      </trkpt>
      <trkpt lat="44.9795040" lon="14.5959770">
        <ele>1.5800000</ele>
        <time>2018-07-13T10:02:08Z</time>
      </trkpt>
      <trkpt lat="44.9801250" lon="14.5958540">
        <ele>1.5800000</ele>
        <time>2018-07-13T10:02:36Z</time>
      </trkpt>
      <trkpt lat="44.9807010" lon="14.5957370">
        <ele>2.0600000</ele>
        <time>2018-07-13T10:03:02Z</time>
      </trkpt>
      <trkpt lat="44.9813000" lon="14.5956350">
        <ele>1.5800000</ele>
        <time>2018-07-13T10:03:29Z</time>
      </trkpt>
      <trkpt lat="44.9819220" lon="14.5955210">
        <ele>1.5800000</ele>
        <time>2018-07-13T10:03:57Z</time>
      </trkpt>
      <trkpt lat="44.9825630" lon="14.5954040">
        <ele>2.0600000</ele>
        <time>2018-07-13T10:04:26Z</time>
      </trkpt>
      <trkpt lat="44.9831850" lon="14.5952930">
        <ele>2.5400000</ele>
        <time>2018-07-13T10:04:54Z</time>
      </trkpt>
      <trkpt lat="44.9838290" lon="14.5951950">
        <ele>1.5800000</ele>
        <time>2018-07-13T10:05:23Z</time>
      </trkpt>
      <trkpt lat="44.9844740" lon="14.5950860">
        <ele>2.0600000</ele>
        <time>2018-07-13T10:05:52Z</time>
      </trkpt>
      <trkpt lat="44.9851610" lon="14.5949700">
        <ele>2.5400000</ele>
        <time>2018-07-13T10:06:23Z</time>
      </trkpt>
      <trkpt lat="44.9857330" lon="14.5948810">
        <ele>2.0600000</ele>
        <time>2018-07-13T10:06:49Z</time>
      </trkpt>
      <trkpt lat="44.9864010" lon="14.5947650">
        <ele>2.5400000</ele>
        <time>2018-07-13T10:07:19Z</time>
      </trkpt>
      <trkpt lat="44.9870340" lon="14.5946460">
        <ele>2.5400000</ele>
        <time>2018-07-13T10:07:48Z</time>
      </trkpt>
      <trkpt lat="44.9876980" lon="14.5945120">
        <ele>2.5400000</ele>
        <time>2018-07-13T10:08:18Z</time>
      </trkpt>
      <trkpt lat="44.9883120" lon="14.5943770">
        <ele>3.0200000</ele>
        <time>2018-07-13T10:08:45Z</time>
      </trkpt>
      <trkpt lat="44.9889300" lon="14.5942370">
        <ele>2.5400000</ele>
        <time>2018-07-13T10:09:13Z</time>
      </trkpt>
      <trkpt lat="44.9896050" lon="14.5940720">
        <ele>2.0600000</ele>
        <time>2018-07-13T10:09:43Z</time>
      </trkpt>
      <trkpt lat="44.9903340" lon="14.5938820">
        <ele>2.0600000</ele>
        <time>2018-07-13T10:10:14Z</time>
      </trkpt>
      <trkpt lat="44.9910320" lon="14.5936720">
        <ele>2.5400000</ele>
        <time>2018-07-13T10:10:44Z</time>
      </trkpt>
      <trkpt lat="44.9917110" lon="14.5934600">
        <ele>2.5400000</ele>
        <time>2018-07-13T10:11:14Z</time>
      </trkpt>
      <trkpt lat="44.9922710" lon="14.5932810">
        <ele>2.0600000</ele>
        <time>2018-07-13T10:11:39Z</time>
      </trkpt>
      <trkpt lat="44.9929280" lon="14.5930790">
        <ele>2.5400000</ele>
        <time>2018-07-13T10:12:08Z</time>
      </trkpt>
      <trkpt lat="44.9935720" lon="14.5928710">
        <ele>2.0600000</ele>
        <time>2018-07-13T10:12:36Z</time>
      </trkpt>
      <trkpt lat="44.9942280" lon="14.5926520">
        <ele>2.5400000</ele>
        <time>2018-07-13T10:13:05Z</time>
      </trkpt>
      <trkpt lat="44.9947890" lon="14.5924720">
        <ele>2.5400000</ele>
        <time>2018-07-13T10:13:30Z</time>
      </trkpt>
      <trkpt lat="44.9954490" lon="14.5922460">
        <ele>2.5400000</ele>
        <time>2018-07-13T10:13:59Z</time>
      </trkpt>
      <trkpt lat="44.9960860" lon="14.5920470">
        <ele>2.5400000</ele>
        <time>2018-07-13T10:14:27Z</time>
      </trkpt>
      <trkpt lat="44.9967840" lon="14.5918210">
        <ele>2.0600000</ele>
        <time>2018-07-13T10:14:57Z</time>
      </trkpt>
      <trkpt lat="44.9974560" lon="14.5915870">
        <ele>2.0600000</ele>
        <time>2018-07-13T10:15:26Z</time>
      </trkpt>
      <trkpt lat="44.9981380" lon="14.5913470">
        <ele>2.5400000</ele>
        <time>2018-07-13T10:15:55Z</time>
      </trkpt>
      <trkpt lat="44.9986800" lon="14.5911520">
        <ele>2.5400000</ele>
        <time>2018-07-13T10:16:18Z</time>
      </trkpt>
      <trkpt lat="44.9991720" lon="14.5909790">
        <ele>2.5400000</ele>
        <time>2018-07-13T10:16:39Z</time>
      </trkpt>
      <trkpt lat="44.9997670" lon="14.5907560">
        <ele>2.5400000</ele>
        <time>2018-07-13T10:17:04Z</time>
      </trkpt>
      <trkpt lat="45.0003550" lon="14.5905600">
        <ele>3.0200000</ele>
        <time>2018-07-13T10:17:29Z</time>
      </trkpt>
      <trkpt lat="45.0010410" lon="14.5902890">
        <ele>3.0200000</ele>
        <time>2018-07-13T10:17:58Z</time>
      </trkpt>
      <trkpt lat="45.0016630" lon="14.5900160">
        <ele>2.5400000</ele>
        <time>2018-07-13T10:18:25Z</time>
      </trkpt>
      <trkpt lat="45.0022660" lon="14.5897420">
        <ele>3.0200000</ele>
        <time>2018-07-13T10:18:51Z</time>
      </trkpt>
      <trkpt lat="45.0029180" lon="14.5894560">
        <ele>2.5400000</ele>
        <time>2018-07-13T10:19:19Z</time>
      </trkpt>
      <trkpt lat="45.0035710" lon="14.5891620">
        <ele>2.5400000</ele>
        <time>2018-07-13T10:19:47Z</time>
      </trkpt>
      <trkpt lat="45.0041620" lon="14.5889070">
        <ele>3.0200000</ele>
        <time>2018-07-13T10:20:12Z</time>
      </trkpt>
      <trkpt lat="45.0047150" lon="14.5886650">
        <ele>3.0200000</ele>
        <time>2018-07-13T10:20:36Z</time>
      </trkpt>
      <trkpt lat="45.0052340" lon="14.5884300">
        <ele>3.0200000</ele>
        <time>2018-07-13T10:20:59Z</time>
      </trkpt>
      <trkpt lat="45.0056800" lon="14.5882300">
        <ele>3.5000000</ele>
        <time>2018-07-13T10:21:19Z</time>
      </trkpt>
      <trkpt lat="45.0061340" lon="14.5880360">
        <ele>3.5000000</ele>
        <time>2018-07-13T10:21:39Z</time>
      </trkpt>
      <trkpt lat="45.0065990" lon="14.5878220">
        <ele>3.0200000</ele>
        <time>2018-07-13T10:22:00Z</time>
      </trkpt>
      <trkpt lat="45.0071750" lon="14.5875680">
        <ele>2.5400000</ele>
        <time>2018-07-13T10:22:25Z</time>
      </trkpt>
      <trkpt lat="45.0077320" lon="14.5873100">
        <ele>2.5400000</ele>
        <time>2018-07-13T10:22:49Z</time>
      </trkpt>
      <trkpt lat="45.0082210" lon="14.5870770">
        <ele>2.5400000</ele>
        <time>2018-07-13T10:23:10Z</time>
      </trkpt>
      <trkpt lat="45.0087240" lon="14.5868170">
        <ele>2.5400000</ele>
        <time>2018-07-13T10:23:32Z</time>
      </trkpt>
      <trkpt lat="45.0092320" lon="14.5865550">
        <ele>3.0200000</ele>
        <time>2018-07-13T10:23:55Z</time>
      </trkpt>
      <trkpt lat="45.0097620" lon="14.5862940">
        <ele>3.0200000</ele>
        <time>2018-07-13T10:24:19Z</time>
      </trkpt>
      <trkpt lat="45.0103070" lon="14.5859770">
        <ele>3.5000000</ele>
        <time>2018-07-13T10:24:44Z</time>
      </trkpt>
      <trkpt lat="45.0108300" lon="14.5856670">
        <ele>3.0200000</ele>
        <time>2018-07-13T10:25:07Z</time>
      </trkpt>
      <trkpt lat="45.0114780" lon="14.5852860">
        <ele>2.5400000</ele>
        <time>2018-07-13T10:25:35Z</time>
      </trkpt>
      <trkpt lat="45.0121840" lon="14.5849110">
        <ele>3.0200000</ele>
        <time>2018-07-13T10:26:05Z</time>
      </trkpt>
      <trkpt lat="45.0127680" lon="14.5845690">
        <ele>3.5000000</ele>
        <time>2018-07-13T10:26:31Z</time>
      </trkpt>
      <trkpt lat="45.0132900" lon="14.5842820">
        <ele>3.9800000</ele>
        <time>2018-07-13T10:26:54Z</time>
      </trkpt>
      <trkpt lat="45.0139430" lon="14.5838560">
        <ele>3.0200000</ele>
        <time>2018-07-13T10:27:24Z</time>
      </trkpt>
      <trkpt lat="45.0145420" lon="14.5834910">
        <ele>3.0200000</ele>
        <time>2018-07-13T10:27:50Z</time>
      </trkpt>
      <trkpt lat="45.0150830" lon="14.5831710">
        <ele>3.0200000</ele>
        <time>2018-07-13T10:28:13Z</time>
      </trkpt>
      <trkpt lat="45.0157050" lon="14.5827850">
        <ele>3.5000000</ele>
        <time>2018-07-13T10:28:40Z</time>
      </trkpt>
      <trkpt lat="45.0163610" lon="14.5823720">
        <ele>3.5000000</ele>
        <time>2018-07-13T10:29:09Z</time>
      </trkpt>
      <trkpt lat="45.0169750" lon="14.5820080">
        <ele>3.0200000</ele>
        <time>2018-07-13T10:29:35Z</time>
      </trkpt>
      <trkpt lat="45.0175700" lon="14.5817860">
        <ele>3.0200000</ele>
        <time>2018-07-13T10:29:59Z</time>
      </trkpt>
      <trkpt lat="45.0181120" lon="14.5814680">
        <ele>3.5000000</ele>
        <time>2018-07-13T10:30:23Z</time>
      </trkpt>
      <trkpt lat="45.0188180" lon="14.5810540">
        <ele>3.0200000</ele>
        <time>2018-07-13T10:30:53Z</time>
      </trkpt>
      <trkpt lat="45.0192680" lon="14.5807790">
        <ele>3.0200000</ele>
        <time>2018-07-13T10:31:13Z</time>
      </trkpt>
      <trkpt lat="45.0197680" lon="14.5804010">
        <ele>3.0200000</ele>
        <time>2018-07-13T10:31:36Z</time>
      </trkpt>
      <trkpt lat="45.0203320" lon="14.5800510">
        <ele>3.0200000</ele>
        <time>2018-07-13T10:32:01Z</time>
      </trkpt>
      <trkpt lat="45.0210110" lon="14.5797780">
        <ele>3.0200000</ele>
        <time>2018-07-13T10:32:28Z</time>
      </trkpt>
      <trkpt lat="45.0217130" lon="14.5794710">
        <ele>3.0200000</ele>
        <time>2018-07-13T10:32:57Z</time>
      </trkpt>
      <trkpt lat="45.0223460" lon="14.5791850">
        <ele>3.0200000</ele>
        <time>2018-07-13T10:33:22Z</time>
      </trkpt>
      <trkpt lat="45.0229030" lon="14.5788470">
        <ele>2.5400000</ele>
        <time>2018-07-13T10:33:45Z</time>
      </trkpt>
      <trkpt lat="45.0234300" lon="14.5784100">
        <ele>3.0200000</ele>
        <time>2018-07-13T10:34:08Z</time>
      </trkpt>
      <trkpt lat="45.0239070" lon="14.5779070">
        <ele>3.0200000</ele>
        <time>2018-07-13T10:34:32Z</time>
      </trkpt>
      <trkpt lat="45.0242390" lon="14.5773980">
        <ele>2.5400000</ele>
        <time>2018-07-13T10:34:55Z</time>
      </trkpt>
      <trkpt lat="45.0244290" lon="14.5767520">
        <ele>2.5400000</ele>
        <time>2018-07-13T10:35:22Z</time>
      </trkpt>
      <trkpt lat="45.0245440" lon="14.5761530">
        <ele>2.5400000</ele>
        <time>2018-07-13T10:35:48Z</time>
      </trkpt>
      <trkpt lat="45.0246090" lon="14.5755400">
        <ele>2.5400000</ele>
        <time>2018-07-13T10:36:16Z</time>
      </trkpt>
      <trkpt lat="45.0246960" lon="14.5751250">
        <ele>2.5400000</ele>
        <time>2018-07-13T10:36:44Z</time>
      </trkpt>
      <trkpt lat="45.0247380" lon="14.5748170">
        <ele>2.5400000</ele>
        <time>2018-07-13T10:37:14Z</time>
      </trkpt>
      <trkpt lat="45.0247340" lon="14.5745370">
        <ele>2.5400000</ele>
        <time>2018-07-13T10:37:50Z</time>
      </trkpt>
      <trkpt lat="45.0247380" lon="14.5744320">
        <ele>2.5400000</ele>
        <time>2018-07-13T10:38:22Z</time>
      </trkpt>
      <trkpt lat="45.0247500" lon="14.5744210">
        <ele>2.5400000</ele>
        <time>2018-07-13T10:38:53Z</time>
      </trkpt>
      <trkpt lat="45.0247690" lon="14.5744300">
        <ele>2.5400000</ele>
        <time>2018-07-13T10:39:21Z</time>
      </trkpt>
      <trkpt lat="45.0247760" lon="14.5745140">
        <ele>2.5400000</ele>
        <time>2018-07-13T10:39:48Z</time>
      </trkpt>
      <trkpt lat="45.0247920" lon="14.5743980">
        <ele>2.5400000</ele>
        <time>2018-07-13T10:40:20Z</time>
      </trkpt>
      <trkpt lat="45.0247540" lon="14.5741970">
        <ele>2.5400000</ele>
        <time>2018-07-13T10:40:49Z</time>
      </trkpt>
      <trkpt lat="45.0247340" lon="14.5741330">
        <ele>2.5400000</ele>
        <time>2018-07-13T10:41:24Z</time>
      </trkpt>
      <trkpt lat="45.0247340" lon="14.5741260">
        <ele>2.0600000</ele>
        <time>2018-07-13T10:41:57Z</time>
      </trkpt>
      <trkpt lat="45.0247270" lon="14.5741040">
        <ele>2.0600000</ele>
        <time>2018-07-13T10:42:27Z</time>
      </trkpt>
      <trkpt lat="45.0247270" lon="14.5741040">
        <ele>2.0600000</ele>
        <time>2018-07-13T10:42:53Z</time>
      </trkpt>
      <trkpt lat="45.0247270" lon="14.5741040">
        <ele>1.5800000</ele>
        <time>2018-07-13T10:42:59Z</time>
      </trkpt>
      <trkpt lat="45.0247270" lon="14.5740860">
        <ele>1.5800000</ele>
        <time>2018-07-13T10:43:29Z</time>
      </trkpt>
      <trkpt lat="45.0247270" lon="14.5740590">
        <ele>2.0600000</ele>
        <time>2018-07-13T10:43:56Z</time>
      </trkpt>
      <trkpt lat="45.0247190" lon="14.5740480">
        <ele>2.0600000</ele>
        <time>2018-07-13T10:44:22Z</time>
      </trkpt>
      <trkpt lat="45.0247190" lon="14.5740480">
        <ele>1.1000000</ele>
        <time>2018-07-13T10:44:53Z</time>
      </trkpt>
      <trkpt lat="45.0247190" lon="14.5740410">
        <ele>1.5800000</ele>
        <time>2018-07-13T10:45:20Z</time>
      </trkpt>
      <trkpt lat="45.0247190" lon="14.5740340">
        <ele>1.1000000</ele>
        <time>2018-07-13T10:45:46Z</time>
      </trkpt>
      <trkpt lat="45.0247190" lon="14.5740340">
        <ele>1.5800000</ele>
        <time>2018-07-13T10:46:16Z</time>
      </trkpt>
      <trkpt lat="45.0247190" lon="14.5740190">
        <ele>1.1000000</ele>
        <time>2018-07-13T10:46:50Z</time>
      </trkpt>
      <trkpt lat="45.0247150" lon="14.5740050">
        <ele>1.1000000</ele>
        <time>2018-07-13T10:47:18Z</time>
      </trkpt>
      <trkpt lat="45.0247120" lon="14.5740030">
        <ele>1.1000000</ele>
        <time>2018-07-13T10:47:44Z</time>
      </trkpt>
      <trkpt lat="45.0247120" lon="14.5740030">
        <ele>1.5800000</ele>
        <time>2018-07-13T10:48:16Z</time>
      </trkpt>
      <trkpt lat="45.0247040" lon="14.5739940">
        <ele>1.5800000</ele>
        <time>2018-07-13T10:48:48Z</time>
      </trkpt>
      <trkpt lat="45.0246960" lon="14.5740060">
        <ele>1.5800000</ele>
        <time>2018-07-13T10:49:16Z</time>
      </trkpt>
      <trkpt lat="45.0246850" lon="14.5740130">
        <ele>1.1000000</ele>
        <time>2018-07-13T10:49:47Z</time>
      </trkpt>
      <trkpt lat="45.0246850" lon="14.5740130">
        <ele>1.1000000</ele>
        <time>2018-07-13T10:50:17Z</time>
      </trkpt>
      <trkpt lat="45.0246090" lon="14.5740580">
        <ele>1.5800000</ele>
        <time>2018-07-13T10:50:51Z</time>
      </trkpt>
      <trkpt lat="45.0245700" lon="14.5739600">
        <ele>1.5800000</ele>
        <time>2018-07-13T10:51:23Z</time>
      </trkpt>
      <trkpt lat="45.0245670" lon="14.5739390">
        <ele>1.1000000</ele>
        <time>2018-07-13T10:51:58Z</time>
      </trkpt>
      <trkpt lat="45.0245780" lon="14.5737820">
        <ele>1.5800000</ele>
        <time>2018-07-13T10:52:33Z</time>
      </trkpt>
      <trkpt lat="45.0245780" lon="14.5737750">
        <ele>1.5800000</ele>
        <time>2018-07-13T10:53:09Z</time>
      </trkpt>
      <trkpt lat="45.0245820" lon="14.5737700">
        <ele>1.5800000</ele>
        <time>2018-07-13T10:53:42Z</time>
      </trkpt>
      <trkpt lat="45.0245290" lon="14.5738000">
        <ele>1.5800000</ele>
        <time>2018-07-13T10:54:15Z</time>
      </trkpt>
      <trkpt lat="45.0243110" lon="14.5738050">
        <ele>1.5800000</ele>
        <time>2018-07-13T10:54:45Z</time>
      </trkpt>
      <trkpt lat="45.0241660" lon="14.5738230">
        <ele>1.5800000</ele>
        <time>2018-07-13T10:55:11Z</time>
      </trkpt>
      <trkpt lat="45.0241700" lon="14.5738200">
        <ele>1.5800000</ele>
        <time>2018-07-13T10:55:41Z</time>
      </trkpt>
      <trkpt lat="45.0241620" lon="14.5738100">
        <ele>1.1000000</ele>
        <time>2018-07-13T10:56:00Z</time>
      </trkpt>
      <trkpt lat="45.0241740" lon="14.5738020">
        <ele>1.1000000</ele>
        <time>2018-07-13T10:56:15Z</time>
      </trkpt>
      <trkpt lat="45.0241700" lon="14.5738010">
        <ele>1.1000000</ele>
        <time>2018-07-13T10:56:48Z</time>
      </trkpt>
      <trkpt lat="45.0241700" lon="14.5738010">
        <ele>1.1000000</ele>
        <time>2018-07-13T10:57:21Z</time>
      </trkpt>
      <trkpt lat="45.0241740" lon="14.5737990">
        <ele>1.1000000</ele>
        <time>2018-07-13T10:57:57Z</time>
      </trkpt>
      <trkpt lat="45.0241780" lon="14.5737990">
        <ele>0.6200000</ele>
        <time>2018-07-13T10:58:31Z</time>
      </trkpt>
      <trkpt lat="45.0241780" lon="14.5738030">
        <ele>1.1000000</ele>
        <time>2018-07-13T10:59:08Z</time>
      </trkpt>
      <trkpt lat="45.0241780" lon="14.5738030">
        <ele>1.1000000</ele>
        <time>2018-07-13T10:59:43Z</time>
      </trkpt>
      <trkpt lat="45.0241780" lon="14.5738040">
        <ele>1.1000000</ele>
        <time>2018-07-13T11:00:19Z</time>
      </trkpt>
      <trkpt lat="45.0241740" lon="14.5738050">
        <ele>1.1000000</ele>
        <time>2018-07-13T11:00:55Z</time>
      </trkpt>
      <trkpt lat="45.0241740" lon="14.5738030">
        <ele>1.1000000</ele>
        <time>2018-07-13T11:01:31Z</time>
      </trkpt>
      <trkpt lat="45.0241740" lon="14.5738050">
        <ele>1.1000000</ele>
        <time>2018-07-13T11:02:06Z</time>
      </trkpt>
      <trkpt lat="45.0241740" lon="14.5738080">
        <ele>0.6200000</ele>
        <time>2018-07-13T11:02:45Z</time>
      </trkpt>
      <trkpt lat="45.0242840" lon="14.5737830">
        <ele>0.6200000</ele>
        <time>2018-07-13T11:03:14Z</time>
      </trkpt>
      <trkpt lat="45.0243030" lon="14.5738210">
        <ele>0.6200000</ele>
        <time>2018-07-13T11:03:29Z</time>
      </trkpt>
      <trkpt lat="45.0242880" lon="14.5742860">
        <ele>0.6200000</ele>
        <time>2018-07-13T11:03:53Z</time>
      </trkpt>
      <trkpt lat="45.0243840" lon="14.5748590">
        <ele>1.1000000</ele>
        <time>2018-07-13T11:04:21Z</time>
      </trkpt>
      <trkpt lat="45.0243190" lon="14.5755460">
        <ele>1.1000000</ele>
        <time>2018-07-13T11:04:52Z</time>
      </trkpt>
      <trkpt lat="45.0242270" lon="14.5760900">
        <ele>1.1000000</ele>
        <time>2018-07-13T11:05:10Z</time>
      </trkpt>
      <trkpt lat="45.0240210" lon="14.5769170">
        <ele>0.6200000</ele>
        <time>2018-07-13T11:05:39Z</time>
      </trkpt>
      <trkpt lat="45.0236430" lon="14.5777450">
        <ele>0.6200000</ele>
        <time>2018-07-13T11:06:08Z</time>
      </trkpt>
      <trkpt lat="45.0231780" lon="14.5784960">
        <ele>0.6200000</ele>
        <time>2018-07-13T11:06:37Z</time>
      </trkpt>
      <trkpt lat="45.0226590" lon="14.5792620">
        <ele>0.6200000</ele>
        <time>2018-07-13T11:07:08Z</time>
      </trkpt>
      <trkpt lat="45.0222050" lon="14.5799490">
        <ele>0.1400000</ele>
        <time>2018-07-13T11:07:35Z</time>
      </trkpt>
      <trkpt lat="45.0217590" lon="14.5806520">
        <ele>-0.3400000</ele>
        <time>2018-07-13T11:08:02Z</time>
      </trkpt>
      <trkpt lat="45.0213200" lon="14.5814490">
        <ele>-0.3400000</ele>
        <time>2018-07-13T11:08:31Z</time>
      </trkpt>
      <trkpt lat="45.0210570" lon="14.5820050">
        <ele>0.1400000</ele>
        <time>2018-07-13T11:08:50Z</time>
      </trkpt>
      <trkpt lat="45.0206490" lon="14.5827820">
        <ele>0.1400000</ele>
        <time>2018-07-13T11:09:17Z</time>
      </trkpt>
      <trkpt lat="45.0201870" lon="14.5836100">
        <ele>-0.3400000</ele>
        <time>2018-07-13T11:09:47Z</time>
      </trkpt>
      <trkpt lat="45.0198360" lon="14.5843310">
        <ele>-0.3400000</ele>
        <time>2018-07-13T11:10:12Z</time>
      </trkpt>
      <trkpt lat="45.0194820" lon="14.5852730">
        <ele>-0.3400000</ele>
        <time>2018-07-13T11:10:42Z</time>
      </trkpt>
      <trkpt lat="45.0190930" lon="14.5862440">
        <ele>-0.3400000</ele>
        <time>2018-07-13T11:11:13Z</time>
      </trkpt>
      <trkpt lat="45.0187680" lon="14.5871540">
        <ele>-0.8200000</ele>
        <time>2018-07-13T11:11:42Z</time>
      </trkpt>
      <trkpt lat="45.0185090" lon="14.5879150">
        <ele>-0.8200000</ele>
        <time>2018-07-13T11:12:06Z</time>
      </trkpt>
      <trkpt lat="45.0181690" lon="14.5888540">
        <ele>-0.8200000</ele>
        <time>2018-07-13T11:12:35Z</time>
      </trkpt>
      <trkpt lat="45.0178150" lon="14.5898450">
        <ele>-0.8200000</ele>
        <time>2018-07-13T11:13:06Z</time>
      </trkpt>
      <trkpt lat="45.0174370" lon="14.5908950">
        <ele>-0.8200000</ele>
        <time>2018-07-13T11:13:39Z</time>
      </trkpt>
      <trkpt lat="45.0170710" lon="14.5918940">
        <ele>-0.8200000</ele>
        <time>2018-07-13T11:14:10Z</time>
      </trkpt>
      <trkpt lat="45.0166890" lon="14.5929080">
        <ele>-0.3400000</ele>
        <time>2018-07-13T11:14:42Z</time>
      </trkpt>
      <trkpt lat="45.0163760" lon="14.5937950">
        <ele>-0.3400000</ele>
        <time>2018-07-13T11:15:10Z</time>
      </trkpt>
      <trkpt lat="45.0160900" lon="14.5945380">
        <ele>-0.8200000</ele>
        <time>2018-07-13T11:15:34Z</time>
      </trkpt>
      <trkpt lat="45.0158080" lon="14.5953060">
        <ele>-0.8200000</ele>
        <time>2018-07-13T11:15:59Z</time>
      </trkpt>
      <trkpt lat="45.0154650" lon="14.5962500">
        <ele>-0.8200000</ele>
        <time>2018-07-13T11:16:29Z</time>
      </trkpt>
      <trkpt lat="45.0151560" lon="14.5970750">
        <ele>-0.8200000</ele>
        <time>2018-07-13T11:16:55Z</time>
      </trkpt>
      <trkpt lat="45.0148540" lon="14.5978780">
        <ele>-0.8200000</ele>
        <time>2018-07-13T11:17:21Z</time>
      </trkpt>
      <trkpt lat="45.0145300" lon="14.5987560">
        <ele>-1.3000000</ele>
        <time>2018-07-13T11:17:49Z</time>
      </trkpt>
      <trkpt lat="45.0142140" lon="14.5996080">
        <ele>-1.3000000</ele>
        <time>2018-07-13T11:18:16Z</time>
      </trkpt>
      <trkpt lat="45.0138700" lon="14.6005270">
        <ele>-1.3000000</ele>
        <time>2018-07-13T11:18:45Z</time>
      </trkpt>
      <trkpt lat="45.0135610" lon="14.6013580">
        <ele>-1.3000000</ele>
        <time>2018-07-13T11:19:11Z</time>
      </trkpt>
      <trkpt lat="45.0132600" lon="14.6021940">
        <ele>-1.3000000</ele>
        <time>2018-07-13T11:19:37Z</time>
      </trkpt>
      <trkpt lat="45.0129510" lon="14.6030230">
        <ele>-1.7900000</ele>
        <time>2018-07-13T11:20:03Z</time>
      </trkpt>
      <trkpt lat="45.0126460" lon="14.6038950">
        <ele>-1.7900000</ele>
        <time>2018-07-13T11:20:30Z</time>
      </trkpt>
      <trkpt lat="45.0123630" lon="14.6046570">
        <ele>-1.7900000</ele>
        <time>2018-07-13T11:20:54Z</time>
      </trkpt>
      <trkpt lat="45.0120620" lon="14.6054770">
        <ele>-1.3000000</ele>
        <time>2018-07-13T11:21:20Z</time>
      </trkpt>
      <trkpt lat="45.0116960" lon="14.6064490">
        <ele>-1.7900000</ele>
        <time>2018-07-13T11:21:50Z</time>
      </trkpt>
      <trkpt lat="45.0113680" lon="14.6073120">
        <ele>-1.7900000</ele>
        <time>2018-07-13T11:22:17Z</time>
      </trkpt>
      <trkpt lat="45.0110820" lon="14.6082610">
        <ele>-1.7900000</ele>
        <time>2018-07-13T11:22:46Z</time>
      </trkpt>
      <trkpt lat="45.0109250" lon="14.6092480">
        <ele>-1.7900000</ele>
        <time>2018-07-13T11:23:14Z</time>
      </trkpt>
      <trkpt lat="45.0108410" lon="14.6102060">
        <ele>-1.7900000</ele>
        <time>2018-07-13T11:23:41Z</time>
      </trkpt>
      <trkpt lat="45.0108070" lon="14.6111400">
        <ele>-2.2700000</ele>
        <time>2018-07-13T11:24:08Z</time>
      </trkpt>
      <trkpt lat="45.0107960" lon="14.6119310">
        <ele>-1.7900000</ele>
        <time>2018-07-13T11:24:30Z</time>
      </trkpt>
      <trkpt lat="45.0108260" lon="14.6130020">
        <ele>-1.7900000</ele>
        <time>2018-07-13T11:25:00Z</time>
      </trkpt>
      <trkpt lat="45.0108870" lon="14.6141090">
        <ele>-1.7900000</ele>
        <time>2018-07-13T11:25:31Z</time>
      </trkpt>
      <trkpt lat="45.0109830" lon="14.6151660">
        <ele>-1.3000000</ele>
        <time>2018-07-13T11:26:01Z</time>
      </trkpt>
      <trkpt lat="45.0111580" lon="14.6161770">
        <ele>-1.7900000</ele>
        <time>2018-07-13T11:26:30Z</time>
      </trkpt>
      <trkpt lat="45.0113980" lon="14.6172340">
        <ele>-1.3000000</ele>
        <time>2018-07-13T11:27:01Z</time>
      </trkpt>
      <trkpt lat="45.0116730" lon="14.6182820">
        <ele>-1.3000000</ele>
        <time>2018-07-13T11:27:32Z</time>
      </trkpt>
      <trkpt lat="45.0119550" lon="14.6191020">
        <ele>-1.3000000</ele>
        <time>2018-07-13T11:27:57Z</time>
      </trkpt>
      <trkpt lat="45.0122910" lon="14.6199430">
        <ele>-1.3000000</ele>
        <time>2018-07-13T11:28:24Z</time>
      </trkpt>
      <trkpt lat="45.0126150" lon="14.6207660">
        <ele>-0.8200000</ele>
        <time>2018-07-13T11:28:51Z</time>
      </trkpt>
      <trkpt lat="45.0130690" lon="14.6213480">
        <ele>-0.8200000</ele>
        <time>2018-07-13T11:29:19Z</time>
      </trkpt>
      <trkpt lat="45.0136110" lon="14.6218400">
        <ele>-0.3400000</ele>
        <time>2018-07-13T11:29:50Z</time>
      </trkpt>
      <trkpt lat="45.0141750" lon="14.6223920">
        <ele>-0.3400000</ele>
        <time>2018-07-13T11:30:23Z</time>
      </trkpt>
      <trkpt lat="45.0147060" lon="14.6229910">
        <ele>-0.3400000</ele>
        <time>2018-07-13T11:30:56Z</time>
      </trkpt>
      <trkpt lat="45.0153500" lon="14.6236720">
        <ele>-0.3400000</ele>
        <time>2018-07-13T11:31:35Z</time>
      </trkpt>
      <trkpt lat="45.0159380" lon="14.6242360">
        <ele>0.1400000</ele>
        <time>2018-07-13T11:32:09Z</time>
      </trkpt>
      <trkpt lat="45.0164720" lon="14.6244950">
        <ele>0.6200000</ele>
        <time>2018-07-13T11:32:37Z</time>
      </trkpt>
      <trkpt lat="45.0172310" lon="14.6246020">
        <ele>0.6200000</ele>
        <time>2018-07-13T11:33:15Z</time>
      </trkpt>
      <trkpt lat="45.0178640" lon="14.6246640">
        <ele>1.1000000</ele>
        <time>2018-07-13T11:33:44Z</time>
      </trkpt>
      <trkpt lat="45.0184140" lon="14.6247120">
        <ele>0.6200000</ele>
        <time>2018-07-13T11:34:12Z</time>
      </trkpt>
      <trkpt lat="45.0191920" lon="14.6248820">
        <ele>0.6200000</ele>
        <time>2018-07-13T11:34:50Z</time>
      </trkpt>
      <trkpt lat="45.0198940" lon="14.6249490">
        <ele>0.6200000</ele>
        <time>2018-07-13T11:35:24Z</time>
      </trkpt>
      <trkpt lat="45.0205000" lon="14.6250220">
        <ele>1.1000000</ele>
        <time>2018-07-13T11:35:53Z</time>
      </trkpt>
      <trkpt lat="45.0211410" lon="14.6250640">
        <ele>0.6200000</ele>
        <time>2018-07-13T11:36:25Z</time>
      </trkpt>
      <trkpt lat="45.0218050" lon="14.6250380">
        <ele>0.6200000</ele>
        <time>2018-07-13T11:36:58Z</time>
      </trkpt>
      <trkpt lat="45.0224880" lon="14.6249880">
        <ele>0.6200000</ele>
        <time>2018-07-13T11:37:32Z</time>
      </trkpt>
      <trkpt lat="45.0232390" lon="14.6249830">
        <ele>1.1000000</ele>
        <time>2018-07-13T11:38:07Z</time>
      </trkpt>
      <trkpt lat="45.0239750" lon="14.6249450">
        <ele>1.1000000</ele>
        <time>2018-07-13T11:38:43Z</time>
      </trkpt>
      <trkpt lat="45.0245630" lon="14.6249310">
        <ele>1.1000000</ele>
        <time>2018-07-13T11:39:12Z</time>
      </trkpt>
      <trkpt lat="45.0252110" lon="14.6249230">
        <ele>1.1000000</ele>
        <time>2018-07-13T11:39:44Z</time>
      </trkpt>
      <trkpt lat="45.0258710" lon="14.6249360">
        <ele>1.1000000</ele>
        <time>2018-07-13T11:40:17Z</time>
      </trkpt>
      <trkpt lat="45.0266950" lon="14.6249670">
        <ele>0.6200000</ele>
        <time>2018-07-13T11:40:58Z</time>
      </trkpt>
      <trkpt lat="45.0274280" lon="14.6249830">
        <ele>1.1000000</ele>
        <time>2018-07-13T11:41:34Z</time>
      </trkpt>
      <trkpt lat="45.0280690" lon="14.6249810">
        <ele>1.1000000</ele>
        <time>2018-07-13T11:42:05Z</time>
      </trkpt>
      <trkpt lat="45.0287210" lon="14.6249550">
        <ele>0.6200000</ele>
        <time>2018-07-13T11:42:37Z</time>
      </trkpt>
      <trkpt lat="45.0293920" lon="14.6249290">
        <ele>0.6200000</ele>
        <time>2018-07-13T11:43:10Z</time>
      </trkpt>
      <trkpt lat="45.0299380" lon="14.6248870">
        <ele>0.6200000</ele>
        <time>2018-07-13T11:43:38Z</time>
      </trkpt>
      <trkpt lat="45.0304600" lon="14.6248280">
        <ele>0.6200000</ele>
        <time>2018-07-13T11:44:04Z</time>
      </trkpt>
      <trkpt lat="45.0310550" lon="14.6246260">
        <ele>0.1400000</ele>
        <time>2018-07-13T11:44:34Z</time>
      </trkpt>
      <trkpt lat="45.0316580" lon="14.6245780">
        <ele>0.6200000</ele>
        <time>2018-07-13T11:45:03Z</time>
      </trkpt>
      <trkpt lat="45.0322800" lon="14.6245820">
        <ele>0.1400000</ele>
        <time>2018-07-13T11:45:33Z</time>
      </trkpt>
      <trkpt lat="45.0327760" lon="14.6244550">
        <ele>0.1400000</ele>
        <time>2018-07-13T11:45:59Z</time>
      </trkpt>
      <trkpt lat="45.0331920" lon="14.6239180">
        <ele>0.1400000</ele>
        <time>2018-07-13T11:46:27Z</time>
      </trkpt>
      <trkpt lat="45.0336530" lon="14.6230910">
        <ele>0.6200000</ele>
        <time>2018-07-13T11:47:05Z</time>
      </trkpt>
      <trkpt lat="45.0339320" lon="14.6224400">
        <ele>0.6200000</ele>
        <time>2018-07-13T11:47:41Z</time>
      </trkpt>
      <trkpt lat="45.0340310" lon="14.6217010">
        <ele>0.6200000</ele>
        <time>2018-07-13T11:48:18Z</time>
      </trkpt>
      <trkpt lat="45.0338130" lon="14.6210850">
        <ele>0.6200000</ele>
        <time>2018-07-13T11:48:53Z</time>
      </trkpt>
      <trkpt lat="45.0335770" lon="14.6206980">
        <ele>0.6200000</ele>
        <time>2018-07-13T11:49:20Z</time>
      </trkpt>
      <trkpt lat="45.0332950" lon="14.6202550">
        <ele>0.1400000</ele>
        <time>2018-07-13T11:49:52Z</time>
      </trkpt>
      <trkpt lat="45.0332600" lon="14.6202130">
        <ele>0.6200000</ele>
        <time>2018-07-13T11:50:21Z</time>
      </trkpt>
      <trkpt lat="45.0332600" lon="14.6202070">
        <ele>0.1400000</ele>
        <time>2018-07-13T11:50:59Z</time>
      </trkpt>
      <trkpt lat="45.0332640" lon="14.6201890">
        <ele>-0.3400000</ele>
        <time>2018-07-13T11:51:33Z</time>
      </trkpt>
      <trkpt lat="45.0332830" lon="14.6201440">
        <ele>0.1400000</ele>
        <time>2018-07-13T11:51:54Z</time>
      </trkpt>
      <trkpt lat="45.0332950" lon="14.6201490">
        <ele>0.6200000</ele>
        <time>2018-07-13T11:52:19Z</time>
      </trkpt>
      <trkpt lat="45.0333140" lon="14.6201340">
        <ele>0.1400000</ele>
        <time>2018-07-13T11:52:33Z</time>
      </trkpt>
      <trkpt lat="45.0333140" lon="14.6201340">
        <ele>0.1400000</ele>
        <time>2018-07-13T11:53:02Z</time>
      </trkpt>
      <trkpt lat="45.0333140" lon="14.6201350">
        <ele>0.1400000</ele>
        <time>2018-07-13T11:53:33Z</time>
      </trkpt>
      <trkpt lat="45.0333180" lon="14.6201270">
        <ele>0.1400000</ele>
        <time>2018-07-13T11:54:05Z</time>
      </trkpt>
      <trkpt lat="45.0333210" lon="14.6201120">
        <ele>0.1400000</ele>
        <time>2018-07-13T11:54:40Z</time>
      </trkpt>
      <trkpt lat="45.0333290" lon="14.6201060">
        <ele>0.1400000</ele>
        <time>2018-07-13T11:55:08Z</time>
      </trkpt>
      <trkpt lat="45.0333290" lon="14.6201060">
        <ele>-0.3400000</ele>
        <time>2018-07-13T11:55:36Z</time>
      </trkpt>
      <trkpt lat="45.0333290" lon="14.6201060">
        <ele>-0.3400000</ele>
        <time>2018-07-13T11:55:46Z</time>
      </trkpt>
      <trkpt lat="45.0333440" lon="14.6201050">
        <ele>0.1400000</ele>
        <time>2018-07-13T11:56:12Z</time>
      </trkpt>
      <trkpt lat="45.0333480" lon="14.6201080">
        <ele>0.1400000</ele>
        <time>2018-07-13T11:56:48Z</time>
      </trkpt>
      <trkpt lat="45.0333520" lon="14.6201080">
        <ele>0.1400000</ele>
        <time>2018-07-13T11:57:18Z</time>
      </trkpt>
      <trkpt lat="45.0333520" lon="14.6201130">
        <ele>-0.3400000</ele>
        <time>2018-07-13T11:57:48Z</time>
      </trkpt>
      <trkpt lat="45.0333520" lon="14.6201130">
        <ele>0.1400000</ele>
        <time>2018-07-13T11:58:16Z</time>
      </trkpt>
      <trkpt lat="45.0333520" lon="14.6201200">
        <ele>0.1400000</ele>
        <time>2018-07-13T11:58:53Z</time>
      </trkpt>
      <trkpt lat="45.0333520" lon="14.6201240">
        <ele>0.1400000</ele>
        <time>2018-07-13T11:59:31Z</time>
      </trkpt>
      <trkpt lat="45.0333600" lon="14.6201390">
        <ele>0.1400000</ele>
        <time>2018-07-13T11:59:59Z</time>
      </trkpt>
      <trkpt lat="45.0333560" lon="14.6201600">
        <ele>0.6200000</ele>
        <time>2018-07-13T12:00:29Z</time>
      </trkpt>
      <trkpt lat="45.0333560" lon="14.6201600">
        <ele>0.6200000</ele>
        <time>2018-07-13T12:01:00Z</time>
      </trkpt>
      <trkpt lat="45.0333600" lon="14.6201590">
        <ele>0.6200000</ele>
        <time>2018-07-13T12:01:34Z</time>
      </trkpt>
      <trkpt lat="45.0333600" lon="14.6201580">
        <ele>0.6200000</ele>
        <time>2018-07-13T12:02:09Z</time>
      </trkpt>
      <trkpt lat="45.0333630" lon="14.6201620">
        <ele>0.6200000</ele>
        <time>2018-07-13T12:02:40Z</time>
      </trkpt>
      <trkpt lat="45.0333630" lon="14.6201680">
        <ele>0.6200000</ele>
        <time>2018-07-13T12:03:14Z</time>
      </trkpt>
      <trkpt lat="45.0333670" lon="14.6201640">
        <ele>0.6200000</ele>
        <time>2018-07-13T12:03:48Z</time>
      </trkpt>
      <trkpt lat="45.0333670" lon="14.6201640">
        <ele>0.6200000</ele>
        <time>2018-07-13T12:04:21Z</time>
      </trkpt>
      <trkpt lat="45.0333710" lon="14.6201710">
        <ele>0.6200000</ele>
        <time>2018-07-13T12:04:54Z</time>
      </trkpt>
      <trkpt lat="45.0333630" lon="14.6201720">
        <ele>1.1000000</ele>
        <time>2018-07-13T12:05:28Z</time>
      </trkpt>
      <trkpt lat="45.0333670" lon="14.6201820">
        <ele>1.1000000</ele>
        <time>2018-07-13T12:06:02Z</time>
      </trkpt>
      <trkpt lat="45.0333750" lon="14.6201930">
        <ele>1.5800000</ele>
        <time>2018-07-13T12:06:36Z</time>
      </trkpt>
      <trkpt lat="45.0333750" lon="14.6201930">
        <ele>1.1000000</ele>
        <time>2018-07-13T12:07:05Z</time>
      </trkpt>
      <trkpt lat="45.0333710" lon="14.6201960">
        <ele>0.6200000</ele>
        <time>2018-07-13T12:07:36Z</time>
      </trkpt>
      <trkpt lat="45.0333600" lon="14.6201930">
        <ele>0.6200000</ele>
        <time>2018-07-13T12:08:04Z</time>
      </trkpt>
      <trkpt lat="45.0333600" lon="14.6201980">
        <ele>0.6200000</ele>
        <time>2018-07-13T12:08:37Z</time>
      </trkpt>
      <trkpt lat="45.0333560" lon="14.6202040">
        <ele>0.6200000</ele>
        <time>2018-07-13T12:09:08Z</time>
      </trkpt>
      <trkpt lat="45.0333560" lon="14.6202040">
        <ele>1.1000000</ele>
        <time>2018-07-13T12:09:38Z</time>
      </trkpt>
      <trkpt lat="45.0333520" lon="14.6202090">
        <ele>0.6200000</ele>
        <time>2018-07-13T12:10:11Z</time>
      </trkpt>
      <trkpt lat="45.0333560" lon="14.6202070">
        <ele>0.6200000</ele>
        <time>2018-07-13T12:10:41Z</time>
      </trkpt>
      <trkpt lat="45.0333600" lon="14.6202120">
        <ele>0.6200000</ele>
        <time>2018-07-13T12:11:15Z</time>
      </trkpt>
      <trkpt lat="45.0333600" lon="14.6202150">
        <ele>0.6200000</ele>
        <time>2018-07-13T12:11:49Z</time>
      </trkpt>
      <trkpt lat="45.0333600" lon="14.6202150">
        <ele>0.1400000</ele>
        <time>2018-07-13T12:12:22Z</time>
      </trkpt>
      <trkpt lat="45.0333670" lon="14.6202120">
        <ele>0.6200000</ele>
        <time>2018-07-13T12:12:51Z</time>
      </trkpt>
      <trkpt lat="45.0333710" lon="14.6202120">
        <ele>0.6200000</ele>
        <time>2018-07-13T12:13:20Z</time>
      </trkpt>
      <trkpt lat="45.0333670" lon="14.6202140">
        <ele>0.6200000</ele>
        <time>2018-07-13T12:13:48Z</time>
      </trkpt>
      <trkpt lat="45.0333670" lon="14.6202140">
        <ele>0.6200000</ele>
        <time>2018-07-13T12:14:21Z</time>
      </trkpt>
      <trkpt lat="45.0333670" lon="14.6202140">
        <ele>1.1000000</ele>
        <time>2018-07-13T12:14:55Z</time>
      </trkpt>
      <trkpt lat="45.0333670" lon="14.6202140">
        <ele>0.6200000</ele>
        <time>2018-07-13T12:15:24Z</time>
      </trkpt>
      <trkpt lat="45.0333670" lon="14.6202130">
        <ele>0.6200000</ele>
        <time>2018-07-13T12:15:58Z</time>
      </trkpt>
      <trkpt lat="45.0333670" lon="14.6202080">
        <ele>0.6200000</ele>
        <time>2018-07-13T12:16:30Z</time>
      </trkpt>
      <trkpt lat="45.0333670" lon="14.6202080">
        <ele>1.1000000</ele>
        <time>2018-07-13T12:16:58Z</time>
      </trkpt>
      <trkpt lat="45.0333750" lon="14.6201950">
        <ele>1.1000000</ele>
        <time>2018-07-13T12:17:33Z</time>
      </trkpt>
      <trkpt lat="45.0333750" lon="14.6202030">
        <ele>1.1000000</ele>
        <time>2018-07-13T12:18:04Z</time>
      </trkpt>
      <trkpt lat="45.0333790" lon="14.6202100">
        <ele>1.1000000</ele>
        <time>2018-07-13T12:18:38Z</time>
      </trkpt>
      <trkpt lat="45.0333820" lon="14.6202050">
        <ele>1.1000000</ele>
        <time>2018-07-13T12:19:13Z</time>
      </trkpt>
      <trkpt lat="45.0333750" lon="14.6202060">
        <ele>1.1000000</ele>
        <time>2018-07-13T12:19:47Z</time>
      </trkpt>
      <trkpt lat="45.0333750" lon="14.6202060">
        <ele>1.1000000</ele>
        <time>2018-07-13T12:20:18Z</time>
      </trkpt>
      <trkpt lat="45.0333710" lon="14.6202090">
        <ele>1.1000000</ele>
        <time>2018-07-13T12:20:46Z</time>
      </trkpt>
      <trkpt lat="45.0333670" lon="14.6202140">
        <ele>1.1000000</ele>
        <time>2018-07-13T12:21:21Z</time>
      </trkpt>
      <trkpt lat="45.0333670" lon="14.6202110">
        <ele>1.1000000</ele>
        <time>2018-07-13T12:21:52Z</time>
      </trkpt>
      <trkpt lat="45.0333670" lon="14.6202110">
        <ele>1.5800000</ele>
        <time>2018-07-13T12:22:24Z</time>
      </trkpt>
      <trkpt lat="45.0333670" lon="14.6202120">
        <ele>1.1000000</ele>
        <time>2018-07-13T12:22:56Z</time>
      </trkpt>
      <trkpt lat="45.0333670" lon="14.6202180">
        <ele>1.5800000</ele>
        <time>2018-07-13T12:23:27Z</time>
      </trkpt>
      <trkpt lat="45.0333670" lon="14.6202200">
        <ele>1.5800000</ele>
        <time>2018-07-13T12:24:03Z</time>
      </trkpt>
      <trkpt lat="45.0333710" lon="14.6202140">
        <ele>1.5800000</ele>
        <time>2018-07-13T12:24:36Z</time>
      </trkpt>
      <trkpt lat="45.0333710" lon="14.6202140">
        <ele>1.1000000</ele>
        <time>2018-07-13T12:24:58Z</time>
      </trkpt>
      <trkpt lat="45.0333670" lon="14.6202140">
        <ele>1.5800000</ele>
        <time>2018-07-13T12:25:31Z</time>
      </trkpt>
      <trkpt lat="45.0333710" lon="14.6202210">
        <ele>1.5800000</ele>
        <time>2018-07-13T12:26:06Z</time>
      </trkpt>
      <trkpt lat="45.0333710" lon="14.6202130">
        <ele>1.5800000</ele>
        <time>2018-07-13T12:26:39Z</time>
      </trkpt>
      <trkpt lat="45.0333670" lon="14.6202090">
        <ele>1.5800000</ele>
        <time>2018-07-13T12:27:14Z</time>
      </trkpt>
      <trkpt lat="45.0333670" lon="14.6202060">
        <ele>1.5800000</ele>
        <time>2018-07-13T12:27:50Z</time>
      </trkpt>
      <trkpt lat="45.0333670" lon="14.6202060">
        <ele>1.5800000</ele>
        <time>2018-07-13T12:28:21Z</time>
      </trkpt>
      <trkpt lat="45.0333670" lon="14.6202040">
        <ele>1.5800000</ele>
        <time>2018-07-13T12:28:53Z</time>
      </trkpt>
      <trkpt lat="45.0333600" lon="14.6202010">
        <ele>1.1000000</ele>
        <time>2018-07-13T12:29:21Z</time>
      </trkpt>
      <trkpt lat="45.0333600" lon="14.6202000">
        <ele>1.5800000</ele>
        <time>2018-07-13T12:29:53Z</time>
      </trkpt>
      <trkpt lat="45.0333600" lon="14.6202000">
        <ele>1.5800000</ele>
        <time>2018-07-13T12:30:25Z</time>
      </trkpt>
      <trkpt lat="45.0333600" lon="14.6202070">
        <ele>1.5800000</ele>
        <time>2018-07-13T12:30:56Z</time>
      </trkpt>
      <trkpt lat="45.0333600" lon="14.6202060">
        <ele>1.1000000</ele>
        <time>2018-07-13T12:31:25Z</time>
      </trkpt>
      <trkpt lat="45.0333600" lon="14.6202060">
        <ele>1.5800000</ele>
        <time>2018-07-13T12:31:46Z</time>
      </trkpt>
      <trkpt lat="45.0333630" lon="14.6201930">
        <ele>1.5800000</ele>
        <time>2018-07-13T12:32:19Z</time>
      </trkpt>
      <trkpt lat="45.0333630" lon="14.6201930">
        <ele>1.1000000</ele>
        <time>2018-07-13T12:32:53Z</time>
      </trkpt>
      <trkpt lat="45.0333670" lon="14.6201940">
        <ele>1.5800000</ele>
        <time>2018-07-13T12:33:18Z</time>
      </trkpt>
      <trkpt lat="45.0333750" lon="14.6201970">
        <ele>1.1000000</ele>
        <time>2018-07-13T12:33:52Z</time>
      </trkpt>
      <trkpt lat="45.0333750" lon="14.6201970">
        <ele>1.1000000</ele>
        <time>2018-07-13T12:34:25Z</time>
      </trkpt>
      <trkpt lat="45.0333750" lon="14.6201940">
        <ele>1.1000000</ele>
        <time>2018-07-13T12:34:58Z</time>
      </trkpt>
      <trkpt lat="45.0333710" lon="14.6201910">
        <ele>1.1000000</ele>
        <time>2018-07-13T12:35:28Z</time>
      </trkpt>
      <trkpt lat="45.0333750" lon="14.6201870">
        <ele>1.1000000</ele>
        <time>2018-07-13T12:36:07Z</time>
      </trkpt>
      <trkpt lat="45.0333750" lon="14.6201830">
        <ele>1.1000000</ele>
        <time>2018-07-13T12:36:39Z</time>
      </trkpt>
      <trkpt lat="45.0333750" lon="14.6201920">
        <ele>1.1000000</ele>
        <time>2018-07-13T12:37:15Z</time>
      </trkpt>
      <trkpt lat="45.0333750" lon="14.6201980">
        <ele>1.5800000</ele>
        <time>2018-07-13T12:37:49Z</time>
      </trkpt>
      <trkpt lat="45.0333750" lon="14.6201980">
        <ele>1.5800000</ele>
        <time>2018-07-13T12:38:26Z</time>
      </trkpt>
      <trkpt lat="45.0333750" lon="14.6201960">
        <ele>1.5800000</ele>
        <time>2018-07-13T12:38:56Z</time>
      </trkpt>
      <trkpt lat="45.0333790" lon="14.6201950">
        <ele>1.5800000</ele>
        <time>2018-07-13T12:39:31Z</time>
      </trkpt>
      <trkpt lat="45.0333750" lon="14.6201980">
        <ele>1.5800000</ele>
        <time>2018-07-13T12:40:08Z</time>
      </trkpt>
      <trkpt lat="45.0333670" lon="14.6201950">
        <ele>1.5800000</ele>
        <time>2018-07-13T12:40:37Z</time>
      </trkpt>
      <trkpt lat="45.0333710" lon="14.6201950">
        <ele>1.5800000</ele>
        <time>2018-07-13T12:41:11Z</time>
      </trkpt>
      <trkpt lat="45.0333710" lon="14.6201950">
        <ele>1.5800000</ele>
        <time>2018-07-13T12:41:46Z</time>
      </trkpt>
      <trkpt lat="45.0333750" lon="14.6201920">
        <ele>1.5800000</ele>
        <time>2018-07-13T12:42:20Z</time>
      </trkpt>
      <trkpt lat="45.0333750" lon="14.6201930">
        <ele>2.0600000</ele>
        <time>2018-07-13T12:42:58Z</time>
      </trkpt>
      <trkpt lat="45.0333820" lon="14.6202020">
        <ele>1.5800000</ele>
        <time>2018-07-13T12:43:34Z</time>
      </trkpt>
      <trkpt lat="45.0333790" lon="14.6202020">
        <ele>1.5800000</ele>
        <time>2018-07-13T12:44:07Z</time>
      </trkpt>
      <trkpt lat="45.0333820" lon="14.6201980">
        <ele>2.0600000</ele>
        <time>2018-07-13T12:44:42Z</time>
      </trkpt>
      <trkpt lat="45.0333820" lon="14.6201950">
        <ele>2.0600000</ele>
        <time>2018-07-13T12:45:19Z</time>
      </trkpt>
      <trkpt lat="45.0333820" lon="14.6201880">
        <ele>2.0600000</ele>
        <time>2018-07-13T12:45:50Z</time>
      </trkpt>
      <trkpt lat="45.0333820" lon="14.6201860">
        <ele>1.5800000</ele>
        <time>2018-07-13T12:46:27Z</time>
      </trkpt>
      <trkpt lat="45.0333820" lon="14.6201860">
        <ele>1.5800000</ele>
        <time>2018-07-13T12:47:05Z</time>
      </trkpt>
      <trkpt lat="45.0333790" lon="14.6201860">
        <ele>1.5800000</ele>
        <time>2018-07-13T12:47:38Z</time>
      </trkpt>
      <trkpt lat="45.0333820" lon="14.6201850">
        <ele>2.0600000</ele>
        <time>2018-07-13T12:48:13Z</time>
      </trkpt>
      <trkpt lat="45.0333790" lon="14.6201860">
        <ele>1.5800000</ele>
        <time>2018-07-13T12:48:47Z</time>
      </trkpt>
      <trkpt lat="45.0333750" lon="14.6201840">
        <ele>1.5800000</ele>
        <time>2018-07-13T12:49:23Z</time>
      </trkpt>
      <trkpt lat="45.0333750" lon="14.6201880">
        <ele>1.5800000</ele>
        <time>2018-07-13T12:50:00Z</time>
      </trkpt>
      <trkpt lat="45.0333790" lon="14.6201840">
        <ele>1.5800000</ele>
        <time>2018-07-13T12:50:30Z</time>
      </trkpt>
      <trkpt lat="45.0333790" lon="14.6201840">
        <ele>1.1000000</ele>
        <time>2018-07-13T12:51:06Z</time>
      </trkpt>
      <trkpt lat="45.0333750" lon="14.6201810">
        <ele>1.5800000</ele>
        <time>2018-07-13T12:51:41Z</time>
      </trkpt>
      <trkpt lat="45.0333790" lon="14.6201700">
        <ele>1.1000000</ele>
        <time>2018-07-13T12:52:19Z</time>
      </trkpt>
      <trkpt lat="45.0333820" lon="14.6201660">
        <ele>1.5800000</ele>
        <time>2018-07-13T12:52:54Z</time>
      </trkpt>
      <trkpt lat="45.0333820" lon="14.6201630">
        <ele>1.5800000</ele>
        <time>2018-07-13T12:53:25Z</time>
      </trkpt>
      <trkpt lat="45.0333820" lon="14.6201650">
        <ele>1.1000000</ele>
        <time>2018-07-13T12:54:01Z</time>
      </trkpt>
      <trkpt lat="45.0333860" lon="14.6201610">
        <ele>1.5800000</ele>
        <time>2018-07-13T12:54:28Z</time>
      </trkpt>
      <trkpt lat="45.0333860" lon="14.6201610">
        <ele>1.1000000</ele>
        <time>2018-07-13T12:55:00Z</time>
      </trkpt>
      <trkpt lat="45.0333900" lon="14.6201580">
        <ele>1.1000000</ele>
        <time>2018-07-13T12:55:33Z</time>
      </trkpt>
      <trkpt lat="45.0333900" lon="14.6201530">
        <ele>0.6200000</ele>
        <time>2018-07-13T12:56:07Z</time>
      </trkpt>
      <trkpt lat="45.0333900" lon="14.6201590">
        <ele>1.5800000</ele>
        <time>2018-07-13T12:56:41Z</time>
      </trkpt>
      <trkpt lat="45.0333900" lon="14.6201610">
        <ele>1.5800000</ele>
        <time>2018-07-13T12:57:15Z</time>
      </trkpt>
      <trkpt lat="45.0333900" lon="14.6201590">
        <ele>0.6200000</ele>
        <time>2018-07-13T12:57:52Z</time>
      </trkpt>
      <trkpt lat="45.0333900" lon="14.6201590">
        <ele>1.1000000</ele>
        <time>2018-07-13T12:58:22Z</time>
      </trkpt>
      <trkpt lat="45.0333900" lon="14.6201570">
        <ele>0.6200000</ele>
        <time>2018-07-13T12:58:54Z</time>
      </trkpt>
      <trkpt lat="45.0333900" lon="14.6201590">
        <ele>0.6200000</ele>
        <time>2018-07-13T12:59:27Z</time>
      </trkpt>
      <trkpt lat="45.0333900" lon="14.6201560">
        <ele>1.1000000</ele>
        <time>2018-07-13T13:00:00Z</time>
      </trkpt>
      <trkpt lat="45.0333980" lon="14.6201430">
        <ele>0.6200000</ele>
        <time>2018-07-13T13:00:34Z</time>
      </trkpt>
      <trkpt lat="45.0333980" lon="14.6201430">
        <ele>1.1000000</ele>
        <time>2018-07-13T13:01:05Z</time>
      </trkpt>
      <trkpt lat="45.0333980" lon="14.6201430">
        <ele>0.6200000</ele>
        <time>2018-07-13T13:01:40Z</time>
      </trkpt>
      <trkpt lat="45.0333940" lon="14.6201470">
        <ele>1.1000000</ele>
        <time>2018-07-13T13:02:14Z</time>
      </trkpt>
      <trkpt lat="45.0333900" lon="14.6201420">
        <ele>0.6200000</ele>
        <time>2018-07-13T13:02:43Z</time>
      </trkpt>
      <trkpt lat="45.0333860" lon="14.6201400">
        <ele>0.6200000</ele>
        <time>2018-07-13T13:03:13Z</time>
      </trkpt>
      <trkpt lat="45.0333860" lon="14.6201400">
        <ele>0.6200000</ele>
        <time>2018-07-13T13:03:43Z</time>
      </trkpt>
      <trkpt lat="45.0333820" lon="14.6201390">
        <ele>0.6200000</ele>
        <time>2018-07-13T13:04:18Z</time>
      </trkpt>
      <trkpt lat="45.0333820" lon="14.6201380">
        <ele>0.6200000</ele>
        <time>2018-07-13T13:04:53Z</time>
      </trkpt>
      <trkpt lat="45.0332150" lon="14.6200900">
        <ele>1.1000000</ele>
        <time>2018-07-13T13:05:23Z</time>
      </trkpt>
      <trkpt lat="45.0331800" lon="14.6201040">
        <ele>1.1000000</ele>
        <time>2018-07-13T13:05:27Z</time>
      </trkpt>
      <trkpt lat="45.0330090" lon="14.6204690">
        <ele>1.1000000</ele>
        <time>2018-07-13T13:05:54Z</time>
      </trkpt>
      <trkpt lat="45.0329740" lon="14.6209750">
        <ele>1.5800000</ele>
        <time>2018-07-13T13:06:21Z</time>
      </trkpt>
      <trkpt lat="45.0329550" lon="14.6215330">
        <ele>1.1000000</ele>
        <time>2018-07-13T13:06:50Z</time>
      </trkpt>
      <trkpt lat="45.0329590" lon="14.6221120">
        <ele>0.6200000</ele>
        <time>2018-07-13T13:07:19Z</time>
      </trkpt>
      <trkpt lat="45.0329700" lon="14.6227360">
        <ele>0.6200000</ele>
        <time>2018-07-13T13:07:49Z</time>
      </trkpt>
      <trkpt lat="45.0330010" lon="14.6232470">
        <ele>0.6200000</ele>
        <time>2018-07-13T13:08:16Z</time>
      </trkpt>
      <trkpt lat="45.0330350" lon="14.6236800">
        <ele>0.6200000</ele>
        <time>2018-07-13T13:08:43Z</time>
      </trkpt>
      <trkpt lat="45.0331040" lon="14.6242180">
        <ele>0.6200000</ele>
        <time>2018-07-13T13:09:14Z</time>
      </trkpt>
      <trkpt lat="45.0331840" lon="14.6248130">
        <ele>0.1400000</ele>
        <time>2018-07-13T13:09:46Z</time>
      </trkpt>
      <trkpt lat="45.0334050" lon="14.6253140">
        <ele>0.1400000</ele>
        <time>2018-07-13T13:10:19Z</time>
      </trkpt>
      <trkpt lat="45.0337790" lon="14.6254360">
        <ele>0.6200000</ele>
        <time>2018-07-13T13:10:47Z</time>
      </trkpt>
      <trkpt lat="45.0340270" lon="14.6256700">
        <ele>0.1400000</ele>
        <time>2018-07-13T13:11:13Z</time>
      </trkpt>
      <trkpt lat="45.0340960" lon="14.6262420">
        <ele>0.1400000</ele>
        <time>2018-07-13T13:11:47Z</time>
      </trkpt>
      <trkpt lat="45.0341340" lon="14.6267610">
        <ele>-0.3400000</ele>
        <time>2018-07-13T13:12:19Z</time>
      </trkpt>
      <trkpt lat="45.0341640" lon="14.6271940">
        <ele>-0.3400000</ele>
        <time>2018-07-13T13:12:49Z</time>
      </trkpt>
      <trkpt lat="45.0341720" lon="14.6276460">
        <ele>-0.3400000</ele>
        <time>2018-07-13T13:13:23Z</time>
      </trkpt>
      <trkpt lat="45.0341760" lon="14.6277120">
        <ele>-0.3400000</ele>
        <time>2018-07-13T13:13:50Z</time>
      </trkpt>
      <trkpt lat="45.0341190" lon="14.6275470">
        <ele>0.1400000</ele>
        <time>2018-07-13T13:14:18Z</time>
      </trkpt>
      <trkpt lat="45.0341610" lon="14.6275370">
        <ele>-0.8200000</ele>
        <time>2018-07-13T13:14:50Z</time>
      </trkpt>
      <trkpt lat="45.0341260" lon="14.6278320">
        <ele>0.1400000</ele>
        <time>2018-07-13T13:15:22Z</time>
      </trkpt>
      <trkpt lat="45.0340390" lon="14.6280640">
        <ele>-0.8200000</ele>
        <time>2018-07-13T13:15:51Z</time>
      </trkpt>
      <trkpt lat="45.0340190" lon="14.6280880">
        <ele>-0.3400000</ele>
        <time>2018-07-13T13:16:22Z</time>
      </trkpt>
      <trkpt lat="45.0340160" lon="14.6280930">
        <ele>-0.8200000</ele>
        <time>2018-07-13T13:16:59Z</time>
      </trkpt>
      <trkpt lat="45.0340160" lon="14.6280980">
        <ele>-0.3400000</ele>
        <time>2018-07-13T13:17:38Z</time>
      </trkpt>
      <trkpt lat="45.0340120" lon="14.6280990">
        <ele>-0.3400000</ele>
        <time>2018-07-13T13:18:14Z</time>
      </trkpt>
      <trkpt lat="45.0340120" lon="14.6281010">
        <ele>-0.8200000</ele>
        <time>2018-07-13T13:18:47Z</time>
      </trkpt>
      <trkpt lat="45.0340120" lon="14.6281010">
        <ele>-0.3400000</ele>
        <time>2018-07-13T13:19:14Z</time>
      </trkpt>
      <trkpt lat="45.0340120" lon="14.6281010">
        <ele>-0.3400000</ele>
        <time>2018-07-13T13:19:29Z</time>
      </trkpt>
      <trkpt lat="45.0340160" lon="14.6281170">
        <ele>-0.3400000</ele>
        <time>2018-07-13T13:19:46Z</time>
      </trkpt>
      <trkpt lat="45.0339970" lon="14.6281140">
        <ele>-0.8200000</ele>
        <time>2018-07-13T13:19:59Z</time>
      </trkpt>
      <trkpt lat="45.0339970" lon="14.6281140">
        <ele>-0.3400000</ele>
        <time>2018-07-13T13:20:29Z</time>
      </trkpt>
      <trkpt lat="45.0339970" lon="14.6281150">
        <ele>-3.2300000</ele>
        <time>2018-07-13T13:21:03Z</time>
      </trkpt>
    </trkseg>
  </trk>

</gpx>
